<?xml version='1.0' encoding='UTF-8'?><gpx version="1.1" creator="JPX - https://github.com/jenetics/jpx" xmlns="http://www.topografix.com/GPX/1/1"><trk><trkseg><trkpt lat="43.35387683549387" lon="11.298230507159593"><ele>332.0</ele><time>2026-04-08T15:06:54.333Z</time></trkpt><trkpt lat="43.35389402188793" lon="11.298319355454886"><ele>332.0</ele><time>2026-04-08T15:06:56Z</time></trkpt><trkpt lat="43.353987654541065" lon="11.298359276529121"><ele>332.0</ele><time>2026-04-08T15:06:58Z</time></trkpt><trkpt lat="43.354106796580055" lon="11.298339871582723"><ele>332.0</ele><time>2026-04-08T15:06:59Z</time></trkpt><trkpt lat="43.354176507567914" lon="11.298339700530201"><ele>332.0</ele><time>2026-04-08T15:07:00Z</time></trkpt><trkpt lat="43.35425333221112" lon="11.29837877012536"><ele>332.0</ele><time>2026-04-08T15:07:01Z</time></trkpt><trkpt lat="43.35429589971586" lon="11.298500095268864"><ele>332.0</ele><time>2026-04-08T15:07:02Z</time></trkpt><trkpt lat="43.354395218806204" lon="11.29858169286652"><ele>332.0</ele><time>2026-04-08T15:07:03Z</time></trkpt><trkpt lat="43.354480494586376" lon="11.29868218969668"><ele>332.0</ele><time>2026-04-08T15:07:04Z</time></trkpt><trkpt lat="43.354571862457405" lon="11.298776184826565"><ele>332.0</ele><time>2026-04-08T15:07:05Z</time></trkpt><trkpt lat="43.35466832843266" lon="11.298863975276651"><ele>331.6</ele><time>2026-04-08T15:07:06Z</time></trkpt><trkpt lat="43.354743788168705" lon="11.298952164656578"><ele>331.20000000000005</ele><time>2026-04-08T15:07:07Z</time></trkpt><trkpt lat="43.35480629978006" lon="11.299025662386853"><ele>330.8</ele><time>2026-04-08T15:07:08Z</time></trkpt><trkpt lat="43.354870779195736" lon="11.29909421291219"><ele>330.4</ele><time>2026-04-08T15:07:08.999Z</time></trkpt><trkpt lat="43.354947024258244" lon="11.299175591716825"><ele>330.0</ele><time>2026-04-08T15:07:10.999Z</time></trkpt><trkpt lat="43.3550106021347" lon="11.299283561099092"><ele>330.0</ele><time>2026-04-08T15:07:17.999Z</time></trkpt><trkpt lat="43.35508526488365" lon="11.299305181275885"><ele>330.0</ele><time>2026-04-08T15:07:18.999Z</time></trkpt><trkpt lat="43.35517183704833" lon="11.299298208588523"><ele>330.0</ele><time>2026-04-08T15:07:19.999Z</time></trkpt><trkpt lat="43.35528636907609" lon="11.299268842739005"><ele>330.0</ele><time>2026-04-08T15:07:20.999Z</time></trkpt><trkpt lat="43.3553824864267" lon="11.299249424009748"><ele>330.0</ele><time>2026-04-08T15:07:21.999Z</time></trkpt><trkpt lat="43.35547574875507" lon="11.299219206880633"><ele>331.0</ele><time>2026-04-08T15:07:22.999Z</time></trkpt><trkpt lat="43.35554487922939" lon="11.299207823593171"><ele>332.0</ele><time>2026-04-08T15:07:23.999Z</time></trkpt><trkpt lat="43.35561075491121" lon="11.299196632888181"><ele>333.0</ele><time>2026-04-08T15:07:25.001Z</time></trkpt><trkpt lat="43.35567518917941" lon="11.299179921027358"><ele>334.0</ele><time>2026-04-08T15:07:26.001Z</time></trkpt><trkpt lat="43.35578015983558" lon="11.299124275904981"><ele>335.0</ele><time>2026-04-08T15:07:28.001Z</time></trkpt><trkpt lat="43.35583896422945" lon="11.29896570820435"><ele>336.0</ele><time>2026-04-08T15:07:30.001Z</time></trkpt><trkpt lat="43.355835655017366" lon="11.298850849692032"><ele>336.0</ele><time>2026-04-08T15:07:31.001Z</time></trkpt><trkpt lat="43.35581066894143" lon="11.298726307314094"><ele>336.0</ele><time>2026-04-08T15:07:32.001Z</time></trkpt><trkpt lat="43.35576801354542" lon="11.298593948815611"><ele>336.0</ele><time>2026-04-08T15:07:33.001Z</time></trkpt><trkpt lat="43.355729113115714" lon="11.298472284510845"><ele>336.0</ele><time>2026-04-08T15:07:34.001Z</time></trkpt><trkpt lat="43.35568918513037" lon="11.298362465706315"><ele>336.0</ele><time>2026-04-08T15:07:35.001Z</time></trkpt><trkpt lat="43.355647952105" lon="11.298255286920694"><ele>336.0</ele><time>2026-04-08T15:07:36Z</time></trkpt><trkpt lat="43.35560870371603" lon="11.298147675233974"><ele>336.0</ele><time>2026-04-08T15:07:37Z</time></trkpt><trkpt lat="43.355575055697294" lon="11.29804625526961"><ele>336.0</ele><time>2026-04-08T15:07:38Z</time></trkpt><trkpt lat="43.35554064365669" lon="11.297948228485561"><ele>336.0</ele><time>2026-04-08T15:07:39Z</time></trkpt><trkpt lat="43.35550122300091" lon="11.297850656782042"><ele>336.0</ele><time>2026-04-08T15:07:40Z</time></trkpt><trkpt lat="43.35546495757968" lon="11.297753552196655"><ele>336.0</ele><time>2026-04-08T15:07:41Z</time></trkpt><trkpt lat="43.35542804143447" lon="11.297651928517757"><ele>337.6666666666667</ele><time>2026-04-08T15:07:42Z</time></trkpt><trkpt lat="43.35539693796974" lon="11.297560335349008"><ele>339.3333333333333</ele><time>2026-04-08T15:07:43Z</time></trkpt><trkpt lat="43.35536531370352" lon="11.297472549964073"><ele>341.0</ele><time>2026-04-08T15:07:44Z</time></trkpt><trkpt lat="43.355324280019154" lon="11.297370371987105"><ele>342.66666666666663</ele><time>2026-04-08T15:07:45Z</time></trkpt><trkpt lat="43.35529487132668" lon="11.29728225875771"><ele>344.3333333333333</ele><time>2026-04-08T15:07:46Z</time></trkpt><trkpt lat="43.35530002265999" lon="11.297086478445843"><ele>346.0</ele><time>2026-04-08T15:07:48Z</time></trkpt><trkpt lat="43.35527031449133" lon="11.296958876759755"><ele>346.0</ele><time>2026-04-08T15:07:49Z</time></trkpt><trkpt lat="43.355247687099165" lon="11.296840649825478"><ele>346.0</ele><time>2026-04-08T15:07:50Z</time></trkpt><trkpt lat="43.35521692985796" lon="11.29673254484056"><ele>346.0</ele><time>2026-04-08T15:07:51Z</time></trkpt><trkpt lat="43.3551761187364" lon="11.29661362547491"><ele>346.0</ele><time>2026-04-08T15:07:52Z</time></trkpt><trkpt lat="43.35512160008055" lon="11.29648502957906"><ele>346.0</ele><time>2026-04-08T15:07:53Z</time></trkpt><trkpt lat="43.355049759485944" lon="11.29634599229485"><ele>343.75</ele><time>2026-04-08T15:07:54Z</time></trkpt><trkpt lat="43.354969991124946" lon="11.296207287545156"><ele>341.5</ele><time>2026-04-08T15:07:55Z</time></trkpt><trkpt lat="43.35488713925991" lon="11.296053918456455"><ele>339.25</ele><time>2026-04-08T15:07:56Z</time></trkpt><trkpt lat="43.35480198957221" lon="11.295902528389366"><ele>337.0</ele><time>2026-04-08T15:07:57Z</time></trkpt><trkpt lat="43.354721772997586" lon="11.295744082355347"><ele>339.25</ele><time>2026-04-08T15:07:58Z</time></trkpt><trkpt lat="43.35464544235125" lon="11.295589356731119"><ele>341.5</ele><time>2026-04-08T15:07:59Z</time></trkpt><trkpt lat="43.35458076867211" lon="11.295432538596309"><ele>343.75</ele><time>2026-04-08T15:08:00Z</time></trkpt><trkpt lat="43.354525608817305" lon="11.295272986629888"><ele>346.0</ele><time>2026-04-08T15:08:00.999Z</time></trkpt><trkpt lat="43.35448185633654" lon="11.295124979830575"><ele>346.0</ele><time>2026-04-08T15:08:01.999Z</time></trkpt><trkpt lat="43.35443836821672" lon="11.29498534621573"><ele>346.0</ele><time>2026-04-08T15:08:02.999Z</time></trkpt><trkpt lat="43.3543922454755" lon="11.294851186871758"><ele>346.0</ele><time>2026-04-08T15:08:03.999Z</time></trkpt><trkpt lat="43.354349904347366" lon="11.294737730631578"><ele>346.0</ele><time>2026-04-08T15:08:04.999Z</time></trkpt><trkpt lat="43.35431403091835" lon="11.294646848959918"><ele>346.0</ele><time>2026-04-08T15:08:05.999Z</time></trkpt><trkpt lat="43.354272470959366" lon="11.294490338385323"><ele>344.20000000000005</ele><time>2026-04-08T15:08:07.999Z</time></trkpt><trkpt lat="43.354282910814305" lon="11.294395816458977"><ele>342.40000000000003</ele><time>2026-04-08T15:08:08.999Z</time></trkpt><trkpt lat="43.3543247310324" lon="11.294298184731646"><ele>340.6</ele><time>2026-04-08T15:08:09.999Z</time></trkpt><trkpt lat="43.35441667255178" lon="11.294207606421624"><ele>338.8</ele><time>2026-04-08T15:08:10.999Z</time></trkpt><trkpt lat="43.354527050704604" lon="11.294128999405599"><ele>337.0</ele><time>2026-04-08T15:08:11.999Z</time></trkpt><trkpt lat="43.354636499819094" lon="11.2940314422393"><ele>334.66666666666663</ele><time>2026-04-08T15:08:12.999Z</time></trkpt><trkpt lat="43.354749666949544" lon="11.293894090617151"><ele>332.3333333333333</ele><time>2026-04-08T15:08:13.999Z</time></trkpt><trkpt lat="43.35487815995753" lon="11.293750993773996"><ele>330.0</ele><time>2026-04-08T15:08:14.999Z</time></trkpt><trkpt lat="43.35501662100678" lon="11.293633305096856"><ele>330.0</ele><time>2026-04-08T15:08:15.999Z</time></trkpt><trkpt lat="43.35517020374143" lon="11.293534077302924"><ele>330.0</ele><time>2026-04-08T15:08:16.999Z</time></trkpt><trkpt lat="43.35533059678388" lon="11.29343249106947"><ele>330.0</ele><time>2026-04-08T15:08:17.999Z</time></trkpt><trkpt lat="43.35548107372693" lon="11.293332723161686"><ele>328.75</ele><time>2026-04-08T15:08:18.999Z</time></trkpt><trkpt lat="43.355616020814246" lon="11.293242766220978"><ele>327.5</ele><time>2026-04-08T15:08:19.999Z</time></trkpt><trkpt lat="43.35573152145483" lon="11.293169488541254"><ele>326.25</ele><time>2026-04-08T15:08:20.999Z</time></trkpt><trkpt lat="43.35583072322382" lon="11.29310819753721"><ele>325.0</ele><time>2026-04-08T15:08:21.999Z</time></trkpt><trkpt lat="43.35592985060723" lon="11.293045919392663"><ele>324.75</ele><time>2026-04-08T15:08:22.999Z</time></trkpt><trkpt lat="43.356029688541774" lon="11.292982171558581"><ele>324.5</ele><time>2026-04-08T15:08:23.999Z</time></trkpt><trkpt lat="43.35613248288018" lon="11.292912118566557"><ele>324.25</ele><time>2026-04-08T15:08:24.999Z</time></trkpt><trkpt lat="43.35624858891393" lon="11.292835901511516"><ele>324.0</ele><time>2026-04-08T15:08:25.999Z</time></trkpt><trkpt lat="43.35637828747461" lon="11.292746949235443"><ele>324.0</ele><time>2026-04-08T15:08:26.999Z</time></trkpt><trkpt lat="43.35651689305967" lon="11.292629666432845"><ele>324.0</ele><time>2026-04-08T15:08:27.999Z</time></trkpt><trkpt lat="43.35663728179354" lon="11.292484354382008"><ele>324.0</ele><time>2026-04-08T15:08:28.999Z</time></trkpt><trkpt lat="43.356748903836724" lon="11.292303158210006"><ele>321.6666666666667</ele><time>2026-04-08T15:08:29.999Z</time></trkpt><trkpt lat="43.35686169266922" lon="11.292106037317446"><ele>319.33333333333337</ele><time>2026-04-08T15:08:30.999Z</time></trkpt><trkpt lat="43.356981108971226" lon="11.291910106083737"><ele>317.0</ele><time>2026-04-08T15:08:31.999Z</time></trkpt><trkpt lat="43.357114199914186" lon="11.291734019817097"><ele>318.6666666666667</ele><time>2026-04-08T15:08:32.999Z</time></trkpt><trkpt lat="43.357273301451855" lon="11.291591405615245"><ele>320.3333333333333</ele><time>2026-04-08T15:08:33.999Z</time></trkpt><trkpt lat="43.3574536648056" lon="11.291473514399026"><ele>322.0</ele><time>2026-04-08T15:08:34.999Z</time></trkpt><trkpt lat="43.35763709517741" lon="11.291351352909297"><ele>318.66666666666663</ele><time>2026-04-08T15:08:35.999Z</time></trkpt><trkpt lat="43.357818511123085" lon="11.291222001433532"><ele>315.3333333333333</ele><time>2026-04-08T15:08:36.999Z</time></trkpt><trkpt lat="43.35799960972208" lon="11.291089404176518"><ele>312.0</ele><time>2026-04-08T15:08:37.999Z</time></trkpt><trkpt lat="43.35817433378191" lon="11.290949600368885"><ele>311.6666666666667</ele><time>2026-04-08T15:08:38.999Z</time></trkpt><trkpt lat="43.358343583601716" lon="11.290791008643033"><ele>311.33333333333337</ele><time>2026-04-08T15:08:39.999Z</time></trkpt><trkpt lat="43.35850350891145" lon="11.290612800458122"><ele>311.0</ele><time>2026-04-08T15:08:40.999Z</time></trkpt><trkpt lat="43.35865890743563" lon="11.290425713459394"><ele>310.6666666666667</ele><time>2026-04-08T15:08:41.999Z</time></trkpt><trkpt lat="43.35881712778291" lon="11.290247170955649"><ele>310.3333333333333</ele><time>2026-04-08T15:08:42.999Z</time></trkpt><trkpt lat="43.3589777915293" lon="11.290073045250372"><ele>310.0</ele><time>2026-04-08T15:08:43.998Z</time></trkpt><trkpt lat="43.359135885208225" lon="11.289901947124411"><ele>310.0</ele><time>2026-04-08T15:08:44.998Z</time></trkpt><trkpt lat="43.35928753643128" lon="11.289732949042017"><ele>310.0</ele><time>2026-04-08T15:08:45.998Z</time></trkpt><trkpt lat="43.359429078779364" lon="11.289579533306568"><ele>310.0</ele><time>2026-04-08T15:08:46.998Z</time></trkpt><trkpt lat="43.35957163993172" lon="11.289439278035726"><ele>309.0</ele><time>2026-04-08T15:08:47.998Z</time></trkpt><trkpt lat="43.35971875220435" lon="11.28931922819244"><ele>308.0</ele><time>2026-04-08T15:08:48.998Z</time></trkpt><trkpt lat="43.35987130436917" lon="11.289241030437783"><ele>307.0</ele><time>2026-04-08T15:08:49.998Z</time></trkpt><trkpt lat="43.36003574070391" lon="11.289204919307561"><ele>307.0</ele><time>2026-04-08T15:08:50.998Z</time></trkpt><trkpt lat="43.36022055338262" lon="11.289200309543382"><ele>307.0</ele><time>2026-04-08T15:08:51.998Z</time></trkpt><trkpt lat="43.360415631810476" lon="11.28921250230864"><ele>307.0</ele><time>2026-04-08T15:08:52.998Z</time></trkpt><trkpt lat="43.360617369379945" lon="11.289224316807081"><ele>306.3333333333333</ele><time>2026-04-08T15:08:53.998Z</time></trkpt><trkpt lat="43.36081570671843" lon="11.289228571649147"><ele>305.6666666666667</ele><time>2026-04-08T15:08:54.998Z</time></trkpt><trkpt lat="43.3610110775931" lon="11.289231086916512"><ele>305.0</ele><time>2026-04-08T15:08:55.998Z</time></trkpt><trkpt lat="43.36120263489944" lon="11.28923502262628"><ele>305.33333333333337</ele><time>2026-04-08T15:08:56.998Z</time></trkpt><trkpt lat="43.36139012055775" lon="11.289237867432682"><ele>305.6666666666667</ele><time>2026-04-08T15:08:57.998Z</time></trkpt><trkpt lat="43.36156894740567" lon="11.289238522982"><ele>306.0</ele><time>2026-04-08T15:08:58.998Z</time></trkpt><trkpt lat="43.36174119442886" lon="11.289221251235741"><ele>306.0</ele><time>2026-04-08T15:08:59.998Z</time></trkpt><trkpt lat="43.361905539286845" lon="11.289163193229225"><ele>306.0</ele><time>2026-04-08T15:09:00.998Z</time></trkpt><trkpt lat="43.362065580385" lon="11.289063096018085"><ele>306.0</ele><time>2026-04-08T15:09:01.998Z</time></trkpt><trkpt lat="43.36222865181789" lon="11.288937825653491"><ele>305.6666666666667</ele><time>2026-04-08T15:09:02.998Z</time></trkpt><trkpt lat="43.36239462956439" lon="11.28881168600084"><ele>305.33333333333337</ele><time>2026-04-08T15:09:03.998Z</time></trkpt><trkpt lat="43.36254564043208" lon="11.288695496709362"><ele>305.0</ele><time>2026-04-08T15:09:04.998Z</time></trkpt><trkpt lat="43.36267823879811" lon="11.288572224587197"><ele>305.0</ele><time>2026-04-08T15:09:05.998Z</time></trkpt><trkpt lat="43.362792924062944" lon="11.28841531063107"><ele>305.0</ele><time>2026-04-08T15:09:06.998Z</time></trkpt><trkpt lat="43.36288616425094" lon="11.288228117679182"><ele>305.0</ele><time>2026-04-08T15:09:07.998Z</time></trkpt><trkpt lat="43.362961101085496" lon="11.288019210335271"><ele>305.6666666666667</ele><time>2026-04-08T15:09:08.998Z</time></trkpt><trkpt lat="43.36303546997194" lon="11.287803866534093"><ele>306.3333333333333</ele><time>2026-04-08T15:09:09.998Z</time></trkpt><trkpt lat="43.36311914233179" lon="11.28758113764735"><ele>307.0</ele><time>2026-04-08T15:09:10.998Z</time></trkpt><trkpt lat="43.363211608107015" lon="11.287358748245998"><ele>307.0</ele><time>2026-04-08T15:09:11.998Z</time></trkpt><trkpt lat="43.36330525437917" lon="11.287132063222646"><ele>307.0</ele><time>2026-04-08T15:09:12.998Z</time></trkpt><trkpt lat="43.36339739456339" lon="11.286903712273743"><ele>307.0</ele><time>2026-04-08T15:09:13.998Z</time></trkpt><trkpt lat="43.36348927844481" lon="11.286672444051186"><ele>307.0</ele><time>2026-04-08T15:09:14.998Z</time></trkpt><trkpt lat="43.36358226691792" lon="11.28643923812579"><ele>307.0</ele><time>2026-04-08T15:09:15.998Z</time></trkpt><trkpt lat="43.36367797315965" lon="11.286206704810077"><ele>307.0</ele><time>2026-04-08T15:09:16.998Z</time></trkpt><trkpt lat="43.36377369600022" lon="11.285976897694285"><ele>304.3333333333333</ele><time>2026-04-08T15:09:17.998Z</time></trkpt><trkpt lat="43.363866222343816" lon="11.285748887064809"><ele>301.6666666666667</ele><time>2026-04-08T15:09:18.998Z</time></trkpt><trkpt lat="43.363959723666824" lon="11.28551649854191"><ele>299.0</ele><time>2026-04-08T15:09:19.998Z</time></trkpt><trkpt lat="43.36405422235114" lon="11.285284778203414"><ele>296.6666666666667</ele><time>2026-04-08T15:09:20.998Z</time></trkpt><trkpt lat="43.3641637677255" lon="11.285058756239108"><ele>294.3333333333333</ele><time>2026-04-08T15:09:21.998Z</time></trkpt><trkpt lat="43.364279774835936" lon="11.284836031605488"><ele>292.0</ele><time>2026-04-08T15:09:22.998Z</time></trkpt><trkpt lat="43.364398882081105" lon="11.284604455994362"><ele>289.3333333333333</ele><time>2026-04-08T15:09:23.998Z</time></trkpt><trkpt lat="43.36451646787542" lon="11.284371754954734"><ele>286.6666666666667</ele><time>2026-04-08T15:09:24.998Z</time></trkpt><trkpt lat="43.364634839356185" lon="11.284138151775206"><ele>284.0</ele><time>2026-04-08T15:09:25.998Z</time></trkpt><trkpt lat="43.3647490753321" lon="11.283905228798293"><ele>283.0</ele><time>2026-04-08T15:09:26.998Z</time></trkpt><trkpt lat="43.36486385089856" lon="11.283675484936518"><ele>282.0</ele><time>2026-04-08T15:09:27.998Z</time></trkpt><trkpt lat="43.36498126483519" lon="11.283451603473644"><ele>281.0</ele><time>2026-04-08T15:09:28.998Z</time></trkpt><trkpt lat="43.365109674004735" lon="11.283246793737513"><ele>280.6666666666667</ele><time>2026-04-08T15:09:29.998Z</time></trkpt><trkpt lat="43.36525303479521" lon="11.283061199034481"><ele>280.3333333333333</ele><time>2026-04-08T15:09:31Z</time></trkpt><trkpt lat="43.36540769646584" lon="11.282900214153267"><ele>280.0</ele><time>2026-04-08T15:09:32Z</time></trkpt><trkpt lat="43.36556566368597" lon="11.282754275070081"><ele>279.0</ele><time>2026-04-08T15:09:32.999Z</time></trkpt><trkpt lat="43.36573387702237" lon="11.28262509911291"><ele>278.0</ele><time>2026-04-08T15:09:34Z</time></trkpt><trkpt lat="43.36590635775906" lon="11.282507861096049"><ele>277.0</ele><time>2026-04-08T15:09:35Z</time></trkpt><trkpt lat="43.36608415843114" lon="11.2824169350478"><ele>277.0</ele><time>2026-04-08T15:09:36Z</time></trkpt><trkpt lat="43.36626458501603" lon="11.28235266587988"><ele>277.0</ele><time>2026-04-08T15:09:37Z</time></trkpt><trkpt lat="43.36644853641116" lon="11.282307450796663"><ele>277.0</ele><time>2026-04-08T15:09:38Z</time></trkpt><trkpt lat="43.366637575009236" lon="11.282276260055644"><ele>277.0</ele><time>2026-04-08T15:09:38.999Z</time></trkpt><trkpt lat="43.36683160325586" lon="11.282267878592405"><ele>277.0</ele><time>2026-04-08T15:09:39.999Z</time></trkpt><trkpt lat="43.367025621278536" lon="11.2822723828663"><ele>277.0</ele><time>2026-04-08T15:09:41Z</time></trkpt><trkpt lat="43.36721889292751" lon="11.282293645256736"><ele>278.3333333333333</ele><time>2026-04-08T15:09:41.999Z</time></trkpt><trkpt lat="43.36740990185782" lon="11.282332937144727"><ele>279.6666666666667</ele><time>2026-04-08T15:09:43Z</time></trkpt><trkpt lat="43.36759630856178" lon="11.282400910266158"><ele>281.0</ele><time>2026-04-08T15:09:44Z</time></trkpt><trkpt lat="43.367775306952424" lon="11.282512751434686"><ele>281.0</ele><time>2026-04-08T15:09:45Z</time></trkpt><trkpt lat="43.367958901667684" lon="11.282612368552241"><ele>281.0</ele><time>2026-04-08T15:09:46Z</time></trkpt><trkpt lat="43.36814907857898" lon="11.282690665827582"><ele>281.0</ele><time>2026-04-08T15:09:46.999Z</time></trkpt><trkpt lat="43.36833588541304" lon="11.282792284858726"><ele>280.6666666666667</ele><time>2026-04-08T15:09:47.999Z</time></trkpt><trkpt lat="43.36852228261641" lon="11.282894087071478"><ele>280.3333333333333</ele><time>2026-04-08T15:09:48.999Z</time></trkpt><trkpt lat="43.36871143500639" lon="11.2829938408773"><ele>280.0</ele><time>2026-04-08T15:09:49.999Z</time></trkpt><trkpt lat="43.368901545466535" lon="11.283079334186487"><ele>276.3333333333333</ele><time>2026-04-08T15:09:50.999Z</time></trkpt><trkpt lat="43.36909356835425" lon="11.283141771816386"><ele>272.6666666666667</ele><time>2026-04-08T15:09:51.999Z</time></trkpt><trkpt lat="43.36929073578443" lon="11.283173987037305"><ele>269.0</ele><time>2026-04-08T15:09:52.999Z</time></trkpt><trkpt lat="43.36949330459969" lon="11.283178332213588"><ele>268.6666666666667</ele><time>2026-04-08T15:09:53.999Z</time></trkpt><trkpt lat="43.36970113057358" lon="11.28315751123041"><ele>268.3333333333333</ele><time>2026-04-08T15:09:54.999Z</time></trkpt><trkpt lat="43.36991214920466" lon="11.283116512214194"><ele>268.0</ele><time>2026-04-08T15:09:55.999Z</time></trkpt><trkpt lat="43.37012419254587" lon="11.283069974439673"><ele>268.0</ele><time>2026-04-08T15:09:56.999Z</time></trkpt><trkpt lat="43.37033767458947" lon="11.283019752595745"><ele>268.0</ele><time>2026-04-08T15:09:57.999Z</time></trkpt><trkpt lat="43.37054924968317" lon="11.282976791834066"><ele>268.0</ele><time>2026-04-08T15:09:58.999Z</time></trkpt><trkpt lat="43.37076726322858" lon="11.282936687358333"><ele>263.3333333333333</ele><time>2026-04-08T15:09:59.999Z</time></trkpt><trkpt lat="43.370982267220356" lon="11.282892584912606"><ele>258.6666666666667</ele><time>2026-04-08T15:10:00.999Z</time></trkpt><trkpt lat="43.371200574088526" lon="11.282852027077539"><ele>254.0</ele><time>2026-04-08T15:10:01.999Z</time></trkpt><trkpt lat="43.3714193187495" lon="11.282813042647037"><ele>252.66666666666669</ele><time>2026-04-08T15:10:02.999Z</time></trkpt><trkpt lat="43.37164286985319" lon="11.282778943362601"><ele>251.33333333333331</ele><time>2026-04-08T15:10:03.999Z</time></trkpt><trkpt lat="43.371840972639625" lon="11.282735847474664"><ele>250.0</ele><time>2026-04-08T15:10:04.999Z</time></trkpt><trkpt lat="43.37204755142182" lon="11.282697887061287"><ele>250.66666666666666</ele><time>2026-04-08T15:10:05.999Z</time></trkpt><trkpt lat="43.37224203020495" lon="11.282642118223517"><ele>251.33333333333331</ele><time>2026-04-08T15:10:06.999Z</time></trkpt><trkpt lat="43.37242805683084" lon="11.282566421414074"><ele>252.0</ele><time>2026-04-08T15:10:07.999Z</time></trkpt><trkpt lat="43.37260917444091" lon="11.282471368149807"><ele>252.0</ele><time>2026-04-08T15:10:08.999Z</time></trkpt><trkpt lat="43.37278815976414" lon="11.282361025836924"><ele>252.0</ele><time>2026-04-08T15:10:09.999Z</time></trkpt><trkpt lat="43.37296506837821" lon="11.282230034513331"><ele>252.0</ele><time>2026-04-08T15:10:10.999Z</time></trkpt><trkpt lat="43.373142545492016" lon="11.282077953141583"><ele>252.33333333333331</ele><time>2026-04-08T15:10:11.999Z</time></trkpt><trkpt lat="43.373322841402626" lon="11.281921635084345"><ele>252.66666666666666</ele><time>2026-04-08T15:10:12.999Z</time></trkpt><trkpt lat="43.37349793796655" lon="11.281776231573716"><ele>253.0</ele><time>2026-04-08T15:10:13.999Z</time></trkpt><trkpt lat="43.37366499645167" lon="11.281643043203113"><ele>253.0</ele><time>2026-04-08T15:10:14.999Z</time></trkpt><trkpt lat="43.37383243411332" lon="11.281515125533152"><ele>253.0</ele><time>2026-04-08T15:10:15.999Z</time></trkpt><trkpt lat="43.373997036439086" lon="11.281385907059432"><ele>253.0</ele><time>2026-04-08T15:10:16.999Z</time></trkpt><trkpt lat="43.37416281434007" lon="11.281255359736758"><ele>253.0</ele><time>2026-04-08T15:10:17.999Z</time></trkpt><trkpt lat="43.374324014853194" lon="11.281106028350424"><ele>253.0</ele><time>2026-04-08T15:10:18.999Z</time></trkpt><trkpt lat="43.37448364926576" lon="11.280938743654964"><ele>253.0</ele><time>2026-04-08T15:10:19.999Z</time></trkpt><trkpt lat="43.374639727984935" lon="11.280757305604102"><ele>249.66666666666666</ele><time>2026-04-08T15:10:20.999Z</time></trkpt><trkpt lat="43.374778085040354" lon="11.28058212687177"><ele>246.33333333333331</ele><time>2026-04-08T15:10:21.999Z</time></trkpt><trkpt lat="43.37489435542843" lon="11.280425063547783"><ele>243.0</ele><time>2026-04-08T15:10:22.999Z</time></trkpt><trkpt lat="43.374994308269066" lon="11.28027496552768"><ele>243.0</ele><time>2026-04-08T15:10:23.999Z</time></trkpt><trkpt lat="43.375079063970695" lon="11.28010820018214"><ele>243.0</ele><time>2026-04-08T15:10:24.999Z</time></trkpt><trkpt lat="43.375146978265285" lon="11.279894831643404"><ele>243.0</ele><time>2026-04-08T15:10:25.999Z</time></trkpt><trkpt lat="43.375185982753344" lon="11.279636973453483"><ele>241.66666666666669</ele><time>2026-04-08T15:10:26.999Z</time></trkpt><trkpt lat="43.37519976280651" lon="11.279369528348306"><ele>240.33333333333334</ele><time>2026-04-08T15:10:27.999Z</time></trkpt><trkpt lat="43.375209365164494" lon="11.279122644101482"><ele>239.0</ele><time>2026-04-08T15:10:28.999Z</time></trkpt><trkpt lat="43.375244381546906" lon="11.278888529701124"><ele>236.33333333333334</ele><time>2026-04-08T15:10:29.999Z</time></trkpt><trkpt lat="43.375308084936364" lon="11.278647113260389"><ele>233.66666666666669</ele><time>2026-04-08T15:10:30.999Z</time></trkpt><trkpt lat="43.37538406368757" lon="11.27838868866409"><ele>231.0</ele><time>2026-04-08T15:10:31.999Z</time></trkpt><trkpt lat="43.37549541099308" lon="11.278148567788811"><ele>229.33333333333331</ele><time>2026-04-08T15:10:32.999Z</time></trkpt><trkpt lat="43.37560988261424" lon="11.277903652116388"><ele>227.66666666666666</ele><time>2026-04-08T15:10:33.999Z</time></trkpt><trkpt lat="43.375723208954135" lon="11.27765099066688"><ele>226.0</ele><time>2026-04-08T15:10:34.999Z</time></trkpt><trkpt lat="43.375852755536506" lon="11.277419619553346"><ele>225.0</ele><time>2026-04-08T15:10:35.999Z</time></trkpt><trkpt lat="43.37596602534686" lon="11.277200805542304"><ele>224.0</ele><time>2026-04-08T15:10:36.999Z</time></trkpt><trkpt lat="43.37606887243552" lon="11.276987598851772"><ele>223.0</ele><time>2026-04-08T15:10:37.999Z</time></trkpt><trkpt lat="43.37616753072324" lon="11.276779432493298"><ele>223.0</ele><time>2026-04-08T15:10:38.999Z</time></trkpt><trkpt lat="43.37627139394641" lon="11.276574956484664"><ele>223.0</ele><time>2026-04-08T15:10:39.999Z</time></trkpt><trkpt lat="43.37636651187432" lon="11.276382745499454"><ele>223.0</ele><time>2026-04-08T15:10:40.999Z</time></trkpt><trkpt lat="43.37646192087163" lon="11.276206771022961"><ele>224.0</ele><time>2026-04-08T15:10:41.999Z</time></trkpt><trkpt lat="43.37657790430382" lon="11.276055005197739"><ele>225.0</ele><time>2026-04-08T15:10:42.998Z</time></trkpt><trkpt lat="43.376716851316715" lon="11.275920909430257"><ele>226.0</ele><time>2026-04-08T15:10:43.998Z</time></trkpt><trkpt lat="43.376881510275254" lon="11.27583584877994"><ele>226.0</ele><time>2026-04-08T15:10:44.998Z</time></trkpt><trkpt lat="43.377045696120945" lon="11.275743493217353"><ele>226.0</ele><time>2026-04-08T15:10:45.998Z</time></trkpt><trkpt lat="43.37719071447008" lon="11.275644555326283"><ele>226.0</ele><time>2026-04-08T15:10:46.998Z</time></trkpt><trkpt lat="43.37734095263312" lon="11.275586903051366"><ele>225.75</ele><time>2026-04-08T15:10:47.998Z</time></trkpt><trkpt lat="43.37747106850251" lon="11.275516889603328"><ele>225.5</ele><time>2026-04-08T15:10:48.998Z</time></trkpt><trkpt lat="43.37757181916978" lon="11.275431098108498"><ele>225.25</ele><time>2026-04-08T15:10:49.998Z</time></trkpt><trkpt lat="43.377670370116725" lon="11.275329873746157"><ele>225.0</ele><time>2026-04-08T15:10:50.998Z</time></trkpt><trkpt lat="43.37777055702313" lon="11.275198417406811"><ele>225.0</ele><time>2026-04-08T15:10:51.998Z</time></trkpt><trkpt lat="43.37785416563191" lon="11.275059735753565"><ele>225.0</ele><time>2026-04-08T15:10:52.998Z</time></trkpt><trkpt lat="43.37791846333677" lon="11.274958441799493"><ele>225.0</ele><time>2026-04-08T15:10:53.998Z</time></trkpt><trkpt lat="43.37798336798795" lon="11.27487386576089"><ele>225.0</ele><time>2026-04-08T15:10:54.998Z</time></trkpt><trkpt lat="43.37805907697923" lon="11.274774856348468"><ele>225.0</ele><time>2026-04-08T15:10:55.998Z</time></trkpt><trkpt lat="43.37814592660951" lon="11.274652260728786"><ele>224.6</ele><time>2026-04-08T15:10:56.998Z</time></trkpt><trkpt lat="43.37824390959345" lon="11.274521727351882"><ele>224.2</ele><time>2026-04-08T15:10:57.998Z</time></trkpt><trkpt lat="43.37833632408103" lon="11.274418689278583"><ele>223.8</ele><time>2026-04-08T15:10:58.998Z</time></trkpt><trkpt lat="43.37842092851184" lon="11.274356572341114"><ele>223.4</ele><time>2026-04-08T15:10:59.998Z</time></trkpt><trkpt lat="43.37850741837852" lon="11.27432176507213"><ele>223.0</ele><time>2026-04-08T15:11:00.998Z</time></trkpt><trkpt lat="43.378601817505654" lon="11.274309758073594"><ele>223.0</ele><time>2026-04-08T15:11:01.998Z</time></trkpt><trkpt lat="43.37869618692375" lon="11.274333995344689"><ele>223.0</ele><time>2026-04-08T15:11:02.998Z</time></trkpt><trkpt lat="43.3787981680046" lon="11.274382258978047"><ele>223.0</ele><time>2026-04-08T15:11:03.998Z</time></trkpt><trkpt lat="43.37891002138371" lon="11.274439505283768"><ele>223.0</ele><time>2026-04-08T15:11:04.998Z</time></trkpt><trkpt lat="43.3790101602439" lon="11.274487051852235"><ele>223.0</ele><time>2026-04-08T15:11:05.998Z</time></trkpt><trkpt lat="43.379103052100035" lon="11.274527397553294"><ele>222.5</ele><time>2026-04-08T15:11:06.998Z</time></trkpt><trkpt lat="43.379194888637365" lon="11.274571371669744"><ele>222.0</ele><time>2026-04-08T15:11:07.998Z</time></trkpt><trkpt lat="43.37929883580928" lon="11.274614806211728"><ele>221.5</ele><time>2026-04-08T15:11:08.998Z</time></trkpt><trkpt lat="43.37942102270379" lon="11.274676213708945"><ele>221.0</ele><time>2026-04-08T15:11:09.998Z</time></trkpt><trkpt lat="43.379562856668365" lon="11.27474340761746"><ele>221.33333333333334</ele><time>2026-04-08T15:11:10.998Z</time></trkpt><trkpt lat="43.37971685139166" lon="11.274823351071072"><ele>221.66666666666669</ele><time>2026-04-08T15:11:11.998Z</time></trkpt><trkpt lat="43.37986536070801" lon="11.274924239845765"><ele>222.0</ele><time>2026-04-08T15:11:12.998Z</time></trkpt><trkpt lat="43.37999608126571" lon="11.275052250583729"><ele>222.0</ele><time>2026-04-08T15:11:13.998Z</time></trkpt><trkpt lat="43.38012544762268" lon="11.275213385107305"><ele>222.0</ele><time>2026-04-08T15:11:14.998Z</time></trkpt><trkpt lat="43.380239057894734" lon="11.27537325806281"><ele>222.0</ele><time>2026-04-08T15:11:15.998Z</time></trkpt><trkpt lat="43.380341229067135" lon="11.275520993843807"><ele>222.2</ele><time>2026-04-08T15:11:16.998Z</time></trkpt><trkpt lat="43.380428995120596" lon="11.275652008087055"><ele>222.39999999999998</ele><time>2026-04-08T15:11:17.998Z</time></trkpt><trkpt lat="43.3805037135297" lon="11.275768688754102"><ele>222.60000000000002</ele><time>2026-04-08T15:11:18.998Z</time></trkpt><trkpt lat="43.38054761601482" lon="11.275874113848332"><ele>222.8</ele><time>2026-04-08T15:11:19.998Z</time></trkpt><trkpt lat="43.380564651254154" lon="11.275984964795384"><ele>223.0</ele><time>2026-04-08T15:11:20.998Z</time></trkpt><trkpt lat="43.38058095177924" lon="11.27607502080862"><ele>223.0</ele><time>2026-04-08T15:11:21.998Z</time></trkpt><trkpt lat="43.3807015619711" lon="11.276142501491934"><ele>223.0</ele><time>2026-04-08T15:11:23.998Z</time></trkpt><trkpt lat="43.38079474084717" lon="11.276144671562474"><ele>223.0</ele><time>2026-04-08T15:11:24.998Z</time></trkpt><trkpt lat="43.38089659459927" lon="11.276131789587764"><ele>223.0</ele><time>2026-04-08T15:11:25.998Z</time></trkpt><trkpt lat="43.381012968048786" lon="11.276112384082642"><ele>223.0</ele><time>2026-04-08T15:11:26.998Z</time></trkpt><trkpt lat="43.381141253455" lon="11.276084088225428"><ele>223.0</ele><time>2026-04-08T15:11:27.998Z</time></trkpt><trkpt lat="43.381273655653274" lon="11.27604924517123"><ele>223.0</ele><time>2026-04-08T15:11:28.998Z</time></trkpt><trkpt lat="43.381405663742264" lon="11.276011495855402"><ele>223.0</ele><time>2026-04-08T15:11:29.998Z</time></trkpt><trkpt lat="43.38154518559993" lon="11.275960449397234"><ele>223.0</ele><time>2026-04-08T15:11:30.998Z</time></trkpt><trkpt lat="43.381679459437315" lon="11.275895732502594"><ele>223.66666666666666</ele><time>2026-04-08T15:11:31.998Z</time></trkpt><trkpt lat="43.381813294689" lon="11.275802871961783"><ele>224.33333333333331</ele><time>2026-04-08T15:11:32.998Z</time></trkpt><trkpt lat="43.38195022598637" lon="11.27568504670875"><ele>225.0</ele><time>2026-04-08T15:11:33.997Z</time></trkpt><trkpt lat="43.3820844590749" lon="11.275555091983819"><ele>224.66666666666669</ele><time>2026-04-08T15:11:34.997Z</time></trkpt><trkpt lat="43.38222103883524" lon="11.275432385218457"><ele>224.33333333333334</ele><time>2026-04-08T15:11:35.997Z</time></trkpt><trkpt lat="43.382355409192996" lon="11.275313765080135"><ele>224.0</ele><time>2026-04-08T15:11:36.999Z</time></trkpt><trkpt lat="43.38248441558501" lon="11.275194973468231"><ele>224.0</ele><time>2026-04-08T15:11:37.999Z</time></trkpt><trkpt lat="43.382611271710175" lon="11.27507162926044"><ele>224.0</ele><time>2026-04-08T15:11:38.999Z</time></trkpt><trkpt lat="43.38273599360633" lon="11.274941425785224"><ele>224.0</ele><time>2026-04-08T15:11:39.999Z</time></trkpt><trkpt lat="43.382852048299874" lon="11.274811399471805"><ele>223.33333333333334</ele><time>2026-04-08T15:11:40.999Z</time></trkpt><trkpt lat="43.38296711793336" lon="11.27467712904053"><ele>222.66666666666669</ele><time>2026-04-08T15:11:41.999Z</time></trkpt><trkpt lat="43.38309023275132" lon="11.274544383843656"><ele>222.0</ele><time>2026-04-08T15:11:42.999Z</time></trkpt><trkpt lat="43.383219549070866" lon="11.274410026246422"><ele>223.33333333333331</ele><time>2026-04-08T15:11:43.999Z</time></trkpt><trkpt lat="43.38335723698828" lon="11.274269936782659"><ele>224.66666666666666</ele><time>2026-04-08T15:11:44.999Z</time></trkpt><trkpt lat="43.38349245790091" lon="11.27412953812191"><ele>226.0</ele><time>2026-04-08T15:11:45.999Z</time></trkpt><trkpt lat="43.38362210087447" lon="11.273987130760036"><ele>225.33333333333331</ele><time>2026-04-08T15:11:46.999Z</time></trkpt><trkpt lat="43.38374369122166" lon="11.273842020224416"><ele>224.66666666666669</ele><time>2026-04-08T15:11:47.999Z</time></trkpt><trkpt lat="43.38385710415688" lon="11.273711161515202"><ele>224.0</ele><time>2026-04-08T15:11:48.999Z</time></trkpt><trkpt lat="43.38398275140218" lon="11.273590668505602"><ele>223.66666666666669</ele><time>2026-04-08T15:11:49.999Z</time></trkpt><trkpt lat="43.38412647041648" lon="11.27346945567479"><ele>223.33333333333331</ele><time>2026-04-08T15:11:50.999Z</time></trkpt><trkpt lat="43.38427554028285" lon="11.273347471792198"><ele>223.0</ele><time>2026-04-08T15:11:51.999Z</time></trkpt><trkpt lat="43.38441595872118" lon="11.273235483332288"><ele>223.0</ele><time>2026-04-08T15:11:52.999Z</time></trkpt><trkpt lat="43.3845455817051" lon="11.273134522071727"><ele>223.0</ele><time>2026-04-08T15:11:53.999Z</time></trkpt><trkpt lat="43.384671182744" lon="11.27304366840124"><ele>223.0</ele><time>2026-04-08T15:11:54.999Z</time></trkpt><trkpt lat="43.38478949113524" lon="11.272967757133316"><ele>223.0</ele><time>2026-04-08T15:11:55.999Z</time></trkpt><trkpt lat="43.384891257806" lon="11.272900944474651"><ele>223.16666666666666</ele><time>2026-04-08T15:11:56.999Z</time></trkpt><trkpt lat="43.38497636578278" lon="11.27285610088388"><ele>223.33333333333331</ele><time>2026-04-08T15:11:57.999Z</time></trkpt><trkpt lat="43.385055405149764" lon="11.272843651501862"><ele>223.5</ele><time>2026-04-08T15:11:58.999Z</time></trkpt><trkpt lat="43.38513790244646" lon="11.272868213256134"><ele>223.66666666666669</ele><time>2026-04-08T15:11:59.999Z</time></trkpt><trkpt lat="43.38522032111248" lon="11.272928878384327"><ele>223.83333333333334</ele><time>2026-04-08T15:12:00.999Z</time></trkpt><trkpt lat="43.3852880489598" lon="11.273001718182366"><ele>224.0</ele><time>2026-04-08T15:12:01.999Z</time></trkpt><trkpt lat="43.385342291148625" lon="11.27310987349025"><ele>224.0</ele><time>2026-04-08T15:12:02.999Z</time></trkpt><trkpt lat="43.38539289189434" lon="11.273252030003468"><ele>224.0</ele><time>2026-04-08T15:12:03.999Z</time></trkpt><trkpt lat="43.38543138111511" lon="11.273391088072525"><ele>224.0</ele><time>2026-04-08T15:12:04.999Z</time></trkpt><trkpt lat="43.38543992719945" lon="11.273548800025052"><ele>224.0</ele><time>2026-04-08T15:12:05.999Z</time></trkpt><trkpt lat="43.38551805058495" lon="11.273670164488806"><ele>223.79999999999998</ele><time>2026-04-08T15:12:06.999Z</time></trkpt><trkpt lat="43.38559562705428" lon="11.27379411403982"><ele>223.59999999999997</ele><time>2026-04-08T15:12:07.999Z</time></trkpt><trkpt lat="43.38561432259681" lon="11.273901513740649"><ele>223.4</ele><time>2026-04-08T15:12:08.999Z</time></trkpt><trkpt lat="43.38567559295414" lon="11.273967610544902"><ele>223.2</ele><time>2026-04-08T15:12:09.999Z</time></trkpt><trkpt lat="43.38575733409349" lon="11.273999448835282"><ele>223.0</ele><time>2026-04-08T15:12:10.999Z</time></trkpt><trkpt lat="43.38585169324102" lon="11.27400053948571"><ele>223.0</ele><time>2026-04-08T15:12:11.999Z</time></trkpt><trkpt lat="43.385957221451214" lon="11.273969276592547"><ele>223.0</ele><time>2026-04-08T15:12:12.999Z</time></trkpt><trkpt lat="43.386053833649996" lon="11.273883085228348"><ele>223.0</ele><time>2026-04-08T15:12:13.999Z</time></trkpt><trkpt lat="43.38614948643895" lon="11.273760135217103"><ele>223.0</ele><time>2026-04-08T15:12:14.999Z</time></trkpt><trkpt lat="43.386236857205624" lon="11.27362047067477"><ele>223.0</ele><time>2026-04-08T15:12:15.999Z</time></trkpt><trkpt lat="43.38632575275123" lon="11.273499103949604"><ele>223.0</ele><time>2026-04-08T15:12:16.999Z</time></trkpt><trkpt lat="43.38641386159318" lon="11.273390187915249"><ele>223.0</ele><time>2026-04-08T15:12:17.999Z</time></trkpt><trkpt lat="43.38650298236268" lon="11.273279062251497"><ele>223.0</ele><time>2026-04-08T15:12:18.999Z</time></trkpt><trkpt lat="43.38659126521373" lon="11.273169128009236"><ele>223.25</ele><time>2026-04-08T15:12:19.999Z</time></trkpt><trkpt lat="43.38668581000654" lon="11.273064240265782"><ele>223.5</ele><time>2026-04-08T15:12:20.999Z</time></trkpt><trkpt lat="43.38678308194085" lon="11.272962576557493"><ele>223.75</ele><time>2026-04-08T15:12:21.999Z</time></trkpt><trkpt lat="43.38688814444969" lon="11.272864985812964"><ele>224.0</ele><time>2026-04-08T15:12:22.999Z</time></trkpt><trkpt lat="43.38700166748364" lon="11.272771854487175"><ele>224.0</ele><time>2026-04-08T15:12:23.999Z</time></trkpt><trkpt lat="43.387127504013215" lon="11.27268357589721"><ele>224.0</ele><time>2026-04-08T15:12:24.999Z</time></trkpt><trkpt lat="43.38725589258708" lon="11.272598985201384"><ele>224.0</ele><time>2026-04-08T15:12:25.999Z</time></trkpt><trkpt lat="43.38739509804042" lon="11.272525696252643"><ele>224.0</ele><time>2026-04-08T15:12:26.999Z</time></trkpt><trkpt lat="43.387538927150004" lon="11.272465368410051"><ele>223.66666666666669</ele><time>2026-04-08T15:12:27.999Z</time></trkpt><trkpt lat="43.38769973176913" lon="11.272438655399863"><ele>223.33333333333331</ele><time>2026-04-08T15:12:28.999Z</time></trkpt><trkpt lat="43.387868777680666" lon="11.272446006643237"><ele>223.0</ele><time>2026-04-08T15:12:29.999Z</time></trkpt><trkpt lat="43.38801550756644" lon="11.272460488345851"><ele>223.0</ele><time>2026-04-08T15:12:30.999Z</time></trkpt><trkpt lat="43.38814716463301" lon="11.272471730779957"><ele>223.0</ele><time>2026-04-08T15:12:31.999Z</time></trkpt><trkpt lat="43.38827016914501" lon="11.272479518449558"><ele>223.0</ele><time>2026-04-08T15:12:32.999Z</time></trkpt><trkpt lat="43.388406913698915" lon="11.272492902909114"><ele>223.0</ele><time>2026-04-08T15:12:33.999Z</time></trkpt><trkpt lat="43.38856868527991" lon="11.272504562573705"><ele>223.0</ele><time>2026-04-08T15:12:34.999Z</time></trkpt><trkpt lat="43.38874632886768" lon="11.27252060173114"><ele>223.0</ele><time>2026-04-08T15:12:35.999Z</time></trkpt><trkpt lat="43.38892718897431" lon="11.272551224126305"><ele>223.0</ele><time>2026-04-08T15:12:36.999Z</time></trkpt><trkpt lat="43.38911641683888" lon="11.272595138555294"><ele>225.0</ele><time>2026-04-08T15:12:37.999Z</time></trkpt><trkpt lat="43.38929971783146" lon="11.272648674967808"><ele>227.0</ele><time>2026-04-08T15:12:38.999Z</time></trkpt><trkpt lat="43.38947293621755" lon="11.272675867675561"><ele>229.0</ele><time>2026-04-08T15:12:39.999Z</time></trkpt><trkpt lat="43.38965777226172" lon="11.272668811092025"><ele>231.0</ele><time>2026-04-08T15:12:40.999Z</time></trkpt><trkpt lat="43.38985536998779" lon="11.272621204756785"><ele>233.0</ele><time>2026-04-08T15:12:41.999Z</time></trkpt><trkpt lat="43.390062008884215" lon="11.272550527177806"><ele>235.0</ele><time>2026-04-08T15:12:42.999Z</time></trkpt><trkpt lat="43.39027875418074" lon="11.272478568254229"><ele>235.0</ele><time>2026-04-08T15:12:43.999Z</time></trkpt><trkpt lat="43.39050183490564" lon="11.272416506776448"><ele>235.0</ele><time>2026-04-08T15:12:44.999Z</time></trkpt><trkpt lat="43.390725474672934" lon="11.272359402337006"><ele>236.0</ele><time>2026-04-08T15:12:45.999Z</time></trkpt><trkpt lat="43.390937787070506" lon="11.272297614441852"><ele>237.0</ele><time>2026-04-08T15:12:46.999Z</time></trkpt><trkpt lat="43.39114495086778" lon="11.272237098753628"><ele>238.0</ele><time>2026-04-08T15:12:47.998Z</time></trkpt><trkpt lat="43.3913493481793" lon="11.272176083291251"><ele>240.33333333333331</ele><time>2026-04-08T15:12:48.998Z</time></trkpt><trkpt lat="43.391551647271434" lon="11.272107091299013"><ele>242.66666666666669</ele><time>2026-04-08T15:12:49.998Z</time></trkpt><trkpt lat="43.391762518277574" lon="11.27202249116686"><ele>245.0</ele><time>2026-04-08T15:12:50.998Z</time></trkpt><trkpt lat="43.391975408876185" lon="11.271927369882498"><ele>245.66666666666669</ele><time>2026-04-08T15:12:51.998Z</time></trkpt><trkpt lat="43.39218182846815" lon="11.271829978158172"><ele>246.33333333333331</ele><time>2026-04-08T15:12:52.998Z</time></trkpt><trkpt lat="43.39238278291539" lon="11.271733205069102"><ele>247.0</ele><time>2026-04-08T15:12:53.998Z</time></trkpt><trkpt lat="43.392575279452394" lon="11.271638724114519"><ele>247.0</ele><time>2026-04-08T15:12:54.998Z</time></trkpt><trkpt lat="43.392766017576236" lon="11.27154874083464"><ele>247.0</ele><time>2026-04-08T15:12:55.998Z</time></trkpt><trkpt lat="43.39295281352608" lon="11.271458107974965"><ele>247.0</ele><time>2026-04-08T15:12:56.998Z</time></trkpt><trkpt lat="43.393134734258844" lon="11.271372096405566"><ele>247.0</ele><time>2026-04-08T15:12:57.998Z</time></trkpt><trkpt lat="43.393315690811505" lon="11.271327901946144"><ele>247.0</ele><time>2026-04-08T15:12:58.998Z</time></trkpt><trkpt lat="43.39349485423331" lon="11.271319903379846"><ele>247.0</ele><time>2026-04-08T15:12:59.998Z</time></trkpt><trkpt lat="43.393685323504315" lon="11.271343609548339"><ele>249.33333333333331</ele><time>2026-04-08T15:13:00.998Z</time></trkpt><trkpt lat="43.393884942315886" lon="11.271373041972465"><ele>251.66666666666669</ele><time>2026-04-08T15:13:01.998Z</time></trkpt><trkpt lat="43.39409198669541" lon="11.271426993464697"><ele>254.0</ele><time>2026-04-08T15:13:02.998Z</time></trkpt><trkpt lat="43.39428986353279" lon="11.271452962095074"><ele>254.0</ele><time>2026-04-08T15:13:03.998Z</time></trkpt><trkpt lat="43.39448360480066" lon="11.271442373007307"><ele>254.0</ele><time>2026-04-08T15:13:04.998Z</time></trkpt><trkpt lat="43.39466648104886" lon="11.271399217791565"><ele>254.0</ele><time>2026-04-08T15:13:05.998Z</time></trkpt><trkpt lat="43.3948407734918" lon="11.271313110998587"><ele>258.0</ele><time>2026-04-08T15:13:06.998Z</time></trkpt><trkpt lat="43.39501995255339" lon="11.271184535532413"><ele>262.0</ele><time>2026-04-08T15:13:07.998Z</time></trkpt><trkpt lat="43.395167741551475" lon="11.271071116445917"><ele>266.0</ele><time>2026-04-08T15:13:08.998Z</time></trkpt><trkpt lat="43.39532220009029" lon="11.270881576813474"><ele>266.0</ele><time>2026-04-08T15:13:09.998Z</time></trkpt><trkpt lat="43.39547807151517" lon="11.270692500774244"><ele>266.0</ele><time>2026-04-08T15:13:10.998Z</time></trkpt><trkpt lat="43.39564014877586" lon="11.270520300137454"><ele>266.0</ele><time>2026-04-08T15:13:11.998Z</time></trkpt><trkpt lat="43.39579497768487" lon="11.270368997082453"><ele>270.0</ele><time>2026-04-08T15:13:12.998Z</time></trkpt><trkpt lat="43.39593495911272" lon="11.270240319868115"><ele>274.0</ele><time>2026-04-08T15:13:13.998Z</time></trkpt><trkpt lat="43.39607032203194" lon="11.27016772584421"><ele>278.0</ele><time>2026-04-08T15:13:14.998Z</time></trkpt><trkpt lat="43.39620482098015" lon="11.270130953321992"><ele>281.6666666666667</ele><time>2026-04-08T15:13:15.998Z</time></trkpt><trkpt lat="43.39635087235308" lon="11.270080227851947"><ele>285.3333333333333</ele><time>2026-04-08T15:13:16.998Z</time></trkpt><trkpt lat="43.39651562010611" lon="11.270057589499098"><ele>289.0</ele><time>2026-04-08T15:13:17.998Z</time></trkpt><trkpt lat="43.396666604258485" lon="11.270016327602336"><ele>289.0</ele><time>2026-04-08T15:13:18.998Z</time></trkpt><trkpt lat="43.39681132082608" lon="11.269951399871402"><ele>289.0</ele><time>2026-04-08T15:13:19.998Z</time></trkpt><trkpt lat="43.39694569083127" lon="11.269858797922778"><ele>289.0</ele><time>2026-04-08T15:13:20.998Z</time></trkpt><trkpt lat="43.397067172184265" lon="11.269736300757204"><ele>291.0</ele><time>2026-04-08T15:13:21.998Z</time></trkpt><trkpt lat="43.39719113658561" lon="11.26960959118915"><ele>293.0</ele><time>2026-04-08T15:13:22.998Z</time></trkpt><trkpt lat="43.3973040042045" lon="11.26950380975569"><ele>295.0</ele><time>2026-04-08T15:13:23.998Z</time></trkpt><trkpt lat="43.3974205328362" lon="11.269444101138141"><ele>297.0</ele><time>2026-04-08T15:13:24.998Z</time></trkpt><trkpt lat="43.397512379001455" lon="11.269405268110964"><ele>297.0</ele><time>2026-04-08T15:13:25.998Z</time></trkpt><trkpt lat="43.39759709963797" lon="11.269405518446307"><ele>297.0</ele><time>2026-04-08T15:13:26.998Z</time></trkpt><trkpt lat="43.397690210064326" lon="11.269410868123014"><ele>297.0</ele><time>2026-04-08T15:13:27.998Z</time></trkpt><trkpt lat="43.397781100274926" lon="11.269498656692488"><ele>297.0</ele><time>2026-04-08T15:13:28.998Z</time></trkpt><trkpt lat="43.3978687981702" lon="11.269603789295436"><ele>297.0</ele><time>2026-04-08T15:13:29.998Z</time></trkpt><trkpt lat="43.39796598091045" lon="11.26972050792345"><ele>296.5</ele><time>2026-04-08T15:13:30.998Z</time></trkpt><trkpt lat="43.39806634461357" lon="11.269795481960971"><ele>296.0</ele><time>2026-04-08T15:13:31.998Z</time></trkpt><trkpt lat="43.398179937196446" lon="11.269870065929036"><ele>295.5</ele><time>2026-04-08T15:13:32.998Z</time></trkpt><trkpt lat="43.398323916869394" lon="11.269883635951375"><ele>295.0</ele><time>2026-04-08T15:13:33.998Z</time></trkpt><trkpt lat="43.398491568864934" lon="11.26985719081594"><ele>295.0</ele><time>2026-04-08T15:13:34.998Z</time></trkpt><trkpt lat="43.398677676714954" lon="11.269807664908187"><ele>295.0</ele><time>2026-04-08T15:13:35.998Z</time></trkpt><trkpt lat="43.39887703258924" lon="11.269765467606586"><ele>295.0</ele><time>2026-04-08T15:13:36.998Z</time></trkpt><trkpt lat="43.39907683451817" lon="11.269732558733283"><ele>293.66666666666663</ele><time>2026-04-08T15:13:37.998Z</time></trkpt><trkpt lat="43.39927425079821" lon="11.269714823895557"><ele>292.3333333333333</ele><time>2026-04-08T15:13:38.998Z</time></trkpt><trkpt lat="43.39947634091155" lon="11.269682300490587"><ele>291.0</ele><time>2026-04-08T15:13:39.998Z</time></trkpt><trkpt lat="43.39967491697857" lon="11.269652350261499"><ele>291.0</ele><time>2026-04-08T15:13:40.997Z</time></trkpt><trkpt lat="43.39986959035006" lon="11.269628911283663"><ele>291.0</ele><time>2026-04-08T15:13:41.999Z</time></trkpt><trkpt lat="43.4000639423855" lon="11.269618975402855"><ele>291.0</ele><time>2026-04-08T15:13:42.999Z</time></trkpt><trkpt lat="43.4002544244425" lon="11.269640879444841"><ele>291.0</ele><time>2026-04-08T15:13:43.999Z</time></trkpt><trkpt lat="43.40043862573176" lon="11.269698813997998"><ele>291.0</ele><time>2026-04-08T15:13:44.999Z</time></trkpt><trkpt lat="43.40061137751996" lon="11.269774930462505"><ele>291.0</ele><time>2026-04-08T15:13:45.999Z</time></trkpt><trkpt lat="43.40076851678434" lon="11.269869771224855"><ele>291.3333333333333</ele><time>2026-04-08T15:13:46.999Z</time></trkpt><trkpt lat="43.40088544495653" lon="11.27002235888791"><ele>291.66666666666663</ele><time>2026-04-08T15:13:47.999Z</time></trkpt><trkpt lat="43.400998588680274" lon="11.27018831793145"><ele>292.0</ele><time>2026-04-08T15:13:48.999Z</time></trkpt><trkpt lat="43.401121439656954" lon="11.270378824462497"><ele>292.0</ele><time>2026-04-08T15:13:49.999Z</time></trkpt><trkpt lat="43.40126329286998" lon="11.270602310596049"><ele>292.0</ele><time>2026-04-08T15:13:50.999Z</time></trkpt><trkpt lat="43.40138517232888" lon="11.270831404434754"><ele>292.0</ele><time>2026-04-08T15:13:51.999Z</time></trkpt><trkpt lat="43.40152052615491" lon="11.271047518087855"><ele>290.0</ele><time>2026-04-08T15:13:52.999Z</time></trkpt><trkpt lat="43.40165876584111" lon="11.271267296783924"><ele>288.0</ele><time>2026-04-08T15:13:53.999Z</time></trkpt><trkpt lat="43.40179501011727" lon="11.271495837765924"><ele>286.0</ele><time>2026-04-08T15:13:54.999Z</time></trkpt><trkpt lat="43.401936292651285" lon="11.271734661220306"><ele>284.5</ele><time>2026-04-08T15:13:55.999Z</time></trkpt><trkpt lat="43.402083950940714" lon="11.271969322807752"><ele>283.0</ele><time>2026-04-08T15:13:56.999Z</time></trkpt><trkpt lat="43.40223469646411" lon="11.272215376052223"><ele>280.0</ele><time>2026-04-08T15:13:57.999Z</time></trkpt><trkpt lat="43.40238473744304" lon="11.272459796313306"><ele>277.0</ele><time>2026-04-08T15:13:58.999Z</time></trkpt><trkpt lat="43.40253225275499" lon="11.272709346317198"><ele>277.0</ele><time>2026-04-08T15:13:59.999Z</time></trkpt><trkpt lat="43.40268242140799" lon="11.272958660150323"><ele>277.0</ele><time>2026-04-08T15:14:00.999Z</time></trkpt><trkpt lat="43.4028328402988" lon="11.273204605402734"><ele>275.0</ele><time>2026-04-08T15:14:01.999Z</time></trkpt><trkpt lat="43.40298259677612" lon="11.273450236882114"><ele>273.0</ele><time>2026-04-08T15:14:02.999Z</time></trkpt><trkpt lat="43.403128967911094" lon="11.273695900281341"><ele>273.0</ele><time>2026-04-08T15:14:03.999Z</time></trkpt><trkpt lat="43.403264827807" lon="11.27393515790843"><ele>273.0</ele><time>2026-04-08T15:14:04.999Z</time></trkpt><trkpt lat="43.40336254727015" lon="11.274203662305094"><ele>273.0</ele><time>2026-04-08T15:14:05.999Z</time></trkpt><trkpt lat="43.40345739042112" lon="11.274469369744859"><ele>272.6666666666667</ele><time>2026-04-08T15:14:06.999Z</time></trkpt><trkpt lat="43.403552670009454" lon="11.2747364666155"><ele>272.33333333333337</ele><time>2026-04-08T15:14:07.999Z</time></trkpt><trkpt lat="43.40362907698363" lon="11.275021247804524"><ele>272.0</ele><time>2026-04-08T15:14:08.999Z</time></trkpt><trkpt lat="43.403701289745655" lon="11.275299759066474"><ele>272.6666666666667</ele><time>2026-04-08T15:14:09.999Z</time></trkpt><trkpt lat="43.40376405745908" lon="11.275584516200249"><ele>273.3333333333333</ele><time>2026-04-08T15:14:10.999Z</time></trkpt><trkpt lat="43.4037949281278" lon="11.275876251828715"><ele>274.0</ele><time>2026-04-08T15:14:11.999Z</time></trkpt><trkpt lat="43.40383957332678" lon="11.276180901728226"><ele>272.5</ele><time>2026-04-08T15:14:12.999Z</time></trkpt><trkpt lat="43.40389765783378" lon="11.276494416536577"><ele>271.0</ele><time>2026-04-08T15:14:13.999Z</time></trkpt><trkpt lat="43.40393694425547" lon="11.276809465235381"><ele>271.0</ele><time>2026-04-08T15:14:14.999Z</time></trkpt><trkpt lat="43.40398229669736" lon="11.277108849832029"><ele>271.0</ele><time>2026-04-08T15:14:15.999Z</time></trkpt><trkpt lat="43.404029843248786" lon="11.277413207083546"><ele>271.0</ele><time>2026-04-08T15:14:16.999Z</time></trkpt><trkpt lat="43.40409212615562" lon="11.277707812072006"><ele>271.66666666666663</ele><time>2026-04-08T15:14:17.999Z</time></trkpt><trkpt lat="43.404176318633276" lon="11.277992257113329"><ele>272.3333333333333</ele><time>2026-04-08T15:14:18.999Z</time></trkpt><trkpt lat="43.40427531765386" lon="11.278265960727506"><ele>273.0</ele><time>2026-04-08T15:14:19.999Z</time></trkpt><trkpt lat="43.40439826660162" lon="11.278524250234431"><ele>273.5</ele><time>2026-04-08T15:14:20.999Z</time></trkpt><trkpt lat="43.404540629111345" lon="11.278776777503825"><ele>274.0</ele><time>2026-04-08T15:14:21.999Z</time></trkpt><trkpt lat="43.40469634956358" lon="11.279017823411156"><ele>277.0</ele><time>2026-04-08T15:14:22.999Z</time></trkpt><trkpt lat="43.40485661423209" lon="11.279258137145844"><ele>280.0</ele><time>2026-04-08T15:14:23.999Z</time></trkpt><trkpt lat="43.40500757307402" lon="11.279483691386359"><ele>280.0</ele><time>2026-04-08T15:14:24.999Z</time></trkpt><trkpt lat="43.40514757221416" lon="11.279689531633224"><ele>280.0</ele><time>2026-04-08T15:14:25.999Z</time></trkpt><trkpt lat="43.40526558331666" lon="11.279887922957197"><ele>280.0</ele><time>2026-04-08T15:14:26.999Z</time></trkpt><trkpt lat="43.405335770166204" lon="11.280104423327144"><ele>283.3333333333333</ele><time>2026-04-08T15:14:27.999Z</time></trkpt><trkpt lat="43.40538826926118" lon="11.280328624917091"><ele>286.6666666666667</ele><time>2026-04-08T15:14:28.999Z</time></trkpt><trkpt lat="43.40544061836018" lon="11.280575301831265"><ele>290.0</ele><time>2026-04-08T15:14:29.999Z</time></trkpt><trkpt lat="43.4054764965244" lon="11.280846543620118"><ele>289.0</ele><time>2026-04-08T15:14:30.999Z</time></trkpt><trkpt lat="43.40553554445281" lon="11.281122053978583"><ele>288.0</ele><time>2026-04-08T15:14:31.999Z</time></trkpt><trkpt lat="43.40560791662817" lon="11.281386211280422"><ele>287.0</ele><time>2026-04-08T15:14:32.999Z</time></trkpt><trkpt lat="43.40568210322164" lon="11.281636547056527"><ele>289.6666666666667</ele><time>2026-04-08T15:14:33.999Z</time></trkpt><trkpt lat="43.405762835429535" lon="11.281881157480235"><ele>292.3333333333333</ele><time>2026-04-08T15:14:34.999Z</time></trkpt><trkpt lat="43.40583117402116" lon="11.282100466332796"><ele>295.0</ele><time>2026-04-08T15:14:35.999Z</time></trkpt><trkpt lat="43.40589197220425" lon="11.282304069641922"><ele>296.0</ele><time>2026-04-08T15:14:36.999Z</time></trkpt><trkpt lat="43.405958096961406" lon="11.282493860389355"><ele>297.0</ele><time>2026-04-08T15:14:37.999Z</time></trkpt><trkpt lat="43.40605053453947" lon="11.28265740699203"><ele>298.0</ele><time>2026-04-08T15:14:38.999Z</time></trkpt><trkpt lat="43.40618072261429" lon="11.282791406575694"><ele>298.0</ele><time>2026-04-08T15:14:39.999Z</time></trkpt><trkpt lat="43.40629996639648" lon="11.28297141543858"><ele>298.0</ele><time>2026-04-08T15:14:40.999Z</time></trkpt><trkpt lat="43.40643028047465" lon="11.283142463554844"><ele>298.0</ele><time>2026-04-08T15:14:41.999Z</time></trkpt><trkpt lat="43.406571665045384" lon="11.283305992708916"><ele>300.0</ele><time>2026-04-08T15:14:42.999Z</time></trkpt><trkpt lat="43.406892531398896" lon="11.283175561183453"><ele>302.0</ele><time>2026-04-08T15:14:43.999Z</time></trkpt><trkpt lat="43.4070400348701" lon="11.28325839551614"><ele>303.6666666666667</ele><time>2026-04-08T15:14:44.999Z</time></trkpt><trkpt lat="43.40717899830371" lon="11.28333798217516"><ele>305.3333333333333</ele><time>2026-04-08T15:14:45.999Z</time></trkpt><trkpt lat="43.40731992940421" lon="11.283418788535895"><ele>307.0</ele><time>2026-04-08T15:14:46.999Z</time></trkpt><trkpt lat="43.407464109237765" lon="11.283524588331101"><ele>307.0</ele><time>2026-04-08T15:14:47.999Z</time></trkpt><trkpt lat="43.407603724668796" lon="11.283663636659494"><ele>307.0</ele><time>2026-04-08T15:14:48.999Z</time></trkpt><trkpt lat="43.407734394168976" lon="11.28383190266702"><ele>307.0</ele><time>2026-04-08T15:14:49.999Z</time></trkpt><trkpt lat="43.407852190034674" lon="11.284024365473488"><ele>308.0</ele><time>2026-04-08T15:14:50.999Z</time></trkpt><trkpt lat="43.407956907438106" lon="11.284240887109775"><ele>309.0</ele><time>2026-04-08T15:14:51.999Z</time></trkpt><trkpt lat="43.40804925843279" lon="11.284474842363062"><ele>310.0</ele><time>2026-04-08T15:14:52.998Z</time></trkpt><trkpt lat="43.40814472061689" lon="11.284696687188285"><ele>307.66666666666663</ele><time>2026-04-08T15:14:53.998Z</time></trkpt><trkpt lat="43.40823963503503" lon="11.284898784469727"><ele>305.3333333333333</ele><time>2026-04-08T15:14:54.998Z</time></trkpt><trkpt lat="43.40833243462901" lon="11.285093655271677"><ele>303.0</ele><time>2026-04-08T15:14:55.998Z</time></trkpt><trkpt lat="43.40843043035304" lon="11.285268798079622"><ele>303.0</ele><time>2026-04-08T15:14:56.998Z</time></trkpt><trkpt lat="43.408546089630676" lon="11.285408941884578"><ele>303.0</ele><time>2026-04-08T15:14:57.998Z</time></trkpt><trkpt lat="43.408696745662354" lon="11.285523825977322"><ele>303.0</ele><time>2026-04-08T15:14:58.998Z</time></trkpt><trkpt lat="43.40887277437728" lon="11.285618522049809"><ele>301.6666666666667</ele><time>2026-04-08T15:14:59.998Z</time></trkpt><trkpt lat="43.40903869119733" lon="11.28570739290168"><ele>300.33333333333337</ele><time>2026-04-08T15:15:00.998Z</time></trkpt><trkpt lat="43.40917180279746" lon="11.285804496383067"><ele>299.0</ele><time>2026-04-08T15:15:01.998Z</time></trkpt><trkpt lat="43.40927122639451" lon="11.285924248739098"><ele>299.0</ele><time>2026-04-08T15:15:02.998Z</time></trkpt><trkpt lat="43.409345025953755" lon="11.286075330926508"><ele>299.0</ele><time>2026-04-08T15:15:03.998Z</time></trkpt><trkpt lat="43.409390012655166" lon="11.28625085026854"><ele>299.0</ele><time>2026-04-08T15:15:04.998Z</time></trkpt><trkpt lat="43.40939925772535" lon="11.286442750895795"><ele>299.0</ele><time>2026-04-08T15:15:05.998Z</time></trkpt><trkpt lat="43.40936704877375" lon="11.286658442763521"><ele>296.6666666666667</ele><time>2026-04-08T15:15:06.998Z</time></trkpt><trkpt lat="43.40931193274837" lon="11.286897063785258"><ele>294.3333333333333</ele><time>2026-04-08T15:15:07.998Z</time></trkpt><trkpt lat="43.409256733810906" lon="11.287157893950804"><ele>292.0</ele><time>2026-04-08T15:15:08.998Z</time></trkpt><trkpt lat="43.40920632794596" lon="11.287411086069966"><ele>291.0</ele><time>2026-04-08T15:15:09.998Z</time></trkpt><trkpt lat="43.40915277879914" lon="11.287643066860541"><ele>290.0</ele><time>2026-04-08T15:15:10.998Z</time></trkpt><trkpt lat="43.40908921228502" lon="11.28786040679797"><ele>289.0</ele><time>2026-04-08T15:15:11.998Z</time></trkpt><trkpt lat="43.40900747021835" lon="11.288069508188618"><ele>289.3333333333333</ele><time>2026-04-08T15:15:12.998Z</time></trkpt><trkpt lat="43.408906141655024" lon="11.288294005137477"><ele>289.6666666666667</ele><time>2026-04-08T15:15:13.998Z</time></trkpt><trkpt lat="43.40879847381097" lon="11.288525351180837"><ele>290.0</ele><time>2026-04-08T15:15:14.998Z</time></trkpt><trkpt lat="43.40870307519883" lon="11.288738181800712"><ele>290.6666666666667</ele><time>2026-04-08T15:15:15.998Z</time></trkpt><trkpt lat="43.40861968761903" lon="11.288955482420317"><ele>291.3333333333333</ele><time>2026-04-08T15:15:16.998Z</time></trkpt><trkpt lat="43.40856311494469" lon="11.289193716912102"><ele>292.0</ele><time>2026-04-08T15:15:17.998Z</time></trkpt><trkpt lat="43.40852376191691" lon="11.289457539105959"><ele>292.0</ele><time>2026-04-08T15:15:18.998Z</time></trkpt><trkpt lat="43.408492994405954" lon="11.289702857155737"><ele>292.0</ele><time>2026-04-08T15:15:19.998Z</time></trkpt><trkpt lat="43.40846029074518" lon="11.289929090722831"><ele>292.0</ele><time>2026-04-08T15:15:20.998Z</time></trkpt><trkpt lat="43.408436618848235" lon="11.290137453738822"><ele>292.5</ele><time>2026-04-08T15:15:21.998Z</time></trkpt><trkpt lat="43.40844045810157" lon="11.290339128056454"><ele>293.0</ele><time>2026-04-08T15:15:22.998Z</time></trkpt><trkpt lat="43.40847241259417" lon="11.290526180307971"><ele>293.5</ele><time>2026-04-08T15:15:23.998Z</time></trkpt><trkpt lat="43.40854168958917" lon="11.290681245366903"><ele>294.0</ele><time>2026-04-08T15:15:24.998Z</time></trkpt><trkpt lat="43.40864087515475" lon="11.290795965744456"><ele>294.0</ele><time>2026-04-08T15:15:25.998Z</time></trkpt><trkpt lat="43.4087661756502" lon="11.290895691179868"><ele>294.0</ele><time>2026-04-08T15:15:26.998Z</time></trkpt><trkpt lat="43.40890265898905" lon="11.29099756648337"><ele>294.0</ele><time>2026-04-08T15:15:27.998Z</time></trkpt><trkpt lat="43.409041405814065" lon="11.291113453138259"><ele>295.6666666666667</ele><time>2026-04-08T15:15:28.998Z</time></trkpt><trkpt lat="43.40917940843409" lon="11.291242676429228"><ele>297.33333333333337</ele><time>2026-04-08T15:15:29.998Z</time></trkpt><trkpt lat="43.40931421967397" lon="11.291385038584707"><ele>299.0</ele><time>2026-04-08T15:15:30.998Z</time></trkpt><trkpt lat="43.409444509923965" lon="11.291550751472736"><ele>301.0</ele><time>2026-04-08T15:15:31.998Z</time></trkpt><trkpt lat="43.409575171420116" lon="11.291726794629218"><ele>303.0</ele><time>2026-04-08T15:15:32.998Z</time></trkpt><trkpt lat="43.409698233806154" lon="11.291898473627345"><ele>305.0</ele><time>2026-04-08T15:15:33.998Z</time></trkpt><trkpt lat="43.40981154696671" lon="11.292053915428575"><ele>307.33333333333337</ele><time>2026-04-08T15:15:34.998Z</time></trkpt><trkpt lat="43.40992123914235" lon="11.292186103808582"><ele>309.6666666666667</ele><time>2026-04-08T15:15:35.998Z</time></trkpt><trkpt lat="43.410056238431366" lon="11.292287374268994"><ele>312.0</ele><time>2026-04-08T15:15:36.998Z</time></trkpt><trkpt lat="43.410212952663315" lon="11.292393119323002"><ele>312.0</ele><time>2026-04-08T15:15:37.998Z</time></trkpt><trkpt lat="43.41038191366205" lon="11.292519991668966"><ele>312.0</ele><time>2026-04-08T15:15:38.998Z</time></trkpt><trkpt lat="43.41053926791779" lon="11.292650746155353"><ele>312.0</ele><time>2026-04-08T15:15:39.998Z</time></trkpt><trkpt lat="43.410694886033525" lon="11.2927721291242"><ele>311.3333333333333</ele><time>2026-04-08T15:15:40.998Z</time></trkpt><trkpt lat="43.41085322334408" lon="11.29288446694004"><ele>310.66666666666663</ele><time>2026-04-08T15:15:41.998Z</time></trkpt><trkpt lat="43.41101529141135" lon="11.292978251098777"><ele>310.0</ele><time>2026-04-08T15:15:42.998Z</time></trkpt><trkpt lat="43.41118312088505" lon="11.293041406277302"><ele>310.0</ele><time>2026-04-08T15:15:43.998Z</time></trkpt><trkpt lat="43.41135956176436" lon="11.29306582927823"><ele>310.0</ele><time>2026-04-08T15:15:44.998Z</time></trkpt><trkpt lat="43.411542019272325" lon="11.29305035782392"><ele>310.0</ele><time>2026-04-08T15:15:45.998Z</time></trkpt><trkpt lat="43.41172299165345" lon="11.293014369946931"><ele>310.0</ele><time>2026-04-08T15:15:46.999Z</time></trkpt><trkpt lat="43.41189677865299" lon="11.292972807289726"><ele>310.0</ele><time>2026-04-08T15:15:47.999Z</time></trkpt><trkpt lat="43.41207107330038" lon="11.292933487651396"><ele>310.0</ele><time>2026-04-08T15:15:48.999Z</time></trkpt><trkpt lat="43.41224149411996" lon="11.292904922268766"><ele>312.0</ele><time>2026-04-08T15:15:49.999Z</time></trkpt><trkpt lat="43.41240367827161" lon="11.292874526788179"><ele>314.0</ele><time>2026-04-08T15:15:50.999Z</time></trkpt><trkpt lat="43.41256725800535" lon="11.292850912872964"><ele>316.0</ele><time>2026-04-08T15:15:51.999Z</time></trkpt><trkpt lat="43.41274370115906" lon="11.29282771791134"><ele>316.0</ele><time>2026-04-08T15:15:52.999Z</time></trkpt><trkpt lat="43.41293134229893" lon="11.292805140997194"><ele>316.0</ele><time>2026-04-08T15:15:53.999Z</time></trkpt><trkpt lat="43.41313187475678" lon="11.292781726929036"><ele>316.0</ele><time>2026-04-08T15:15:54.999Z</time></trkpt><trkpt lat="43.41334428973128" lon="11.292769673366163"><ele>318.0</ele><time>2026-04-08T15:15:55.999Z</time></trkpt><trkpt lat="43.4135627691028" lon="11.292773034964641"><ele>320.0</ele><time>2026-04-08T15:15:56.999Z</time></trkpt><trkpt lat="43.41378281938374" lon="11.292784601625845"><ele>322.0</ele><time>2026-04-08T15:15:57.999Z</time></trkpt><trkpt lat="43.414006485886546" lon="11.292797420531437"><ele>322.3333333333333</ele><time>2026-04-08T15:15:58.999Z</time></trkpt><trkpt lat="43.4142281993753" lon="11.292813014963672"><ele>322.6666666666667</ele><time>2026-04-08T15:15:59.999Z</time></trkpt><trkpt lat="43.41444065655778" lon="11.292829577758697"><ele>323.0</ele><time>2026-04-08T15:16:00.999Z</time></trkpt><trkpt lat="43.414645057433844" lon="11.292852727704252"><ele>323.0</ele><time>2026-04-08T15:16:01.999Z</time></trkpt><trkpt lat="43.414840160720296" lon="11.292884793577036"><ele>323.0</ele><time>2026-04-08T15:16:02.999Z</time></trkpt><trkpt lat="43.41502932881285" lon="11.29294195542775"><ele>323.0</ele><time>2026-04-08T15:16:03.999Z</time></trkpt><trkpt lat="43.415223959425994" lon="11.293028031298137"><ele>324.33333333333337</ele><time>2026-04-08T15:16:04.999Z</time></trkpt><trkpt lat="43.41541343441616" lon="11.293175069771705"><ele>325.6666666666667</ele><time>2026-04-08T15:16:05.999Z</time></trkpt><trkpt lat="43.415620700111056" lon="11.293289771348535"><ele>327.0</ele><time>2026-04-08T15:16:06.999Z</time></trkpt><trkpt lat="43.41580580437751" lon="11.293430335782048"><ele>328.0</ele><time>2026-04-08T15:16:07.999Z</time></trkpt><trkpt lat="43.41597905647978" lon="11.293556733580637"><ele>329.0</ele><time>2026-04-08T15:16:08.999Z</time></trkpt><trkpt lat="43.41612059712379" lon="11.293672796768652"><ele>330.0</ele><time>2026-04-08T15:16:09.999Z</time></trkpt><trkpt lat="43.4162300866919" lon="11.293805502684672"><ele>332.6666666666667</ele><time>2026-04-08T15:16:10.999Z</time></trkpt><trkpt lat="43.416320419352736" lon="11.293976526820959"><ele>335.33333333333337</ele><time>2026-04-08T15:16:11.999Z</time></trkpt><trkpt lat="43.41637727543995" lon="11.29419342014168"><ele>338.0</ele><time>2026-04-08T15:16:12.999Z</time></trkpt><trkpt lat="43.41642709074851" lon="11.294422571916694"><ele>338.0</ele><time>2026-04-08T15:16:13.999Z</time></trkpt><trkpt lat="43.416473239836094" lon="11.294650079065441"><ele>338.0</ele><time>2026-04-08T15:16:14.999Z</time></trkpt><trkpt lat="43.41652605087053" lon="11.29486445846662"><ele>338.0</ele><time>2026-04-08T15:16:15.999Z</time></trkpt><trkpt lat="43.41656855011212" lon="11.295078626540095"><ele>338.0</ele><time>2026-04-08T15:16:16.999Z</time></trkpt><trkpt lat="43.416615832802236" lon="11.295282306559468"><ele>338.0</ele><time>2026-04-08T15:16:17.999Z</time></trkpt><trkpt lat="43.41666506100654" lon="11.295478254673318"><ele>338.0</ele><time>2026-04-08T15:16:18.999Z</time></trkpt><trkpt lat="43.41672356616264" lon="11.295645402319698"><ele>338.0</ele><time>2026-04-08T15:16:19.999Z</time></trkpt><trkpt lat="43.416801488065545" lon="11.295794086321807"><ele>338.0</ele><time>2026-04-08T15:16:20.999Z</time></trkpt><trkpt lat="43.416897581926776" lon="11.295911263240136"><ele>338.0</ele><time>2026-04-08T15:16:21.999Z</time></trkpt><trkpt lat="43.417001113381225" lon="11.296012042887861"><ele>338.0</ele><time>2026-04-08T15:16:22.999Z</time></trkpt><trkpt lat="43.41711141816059" lon="11.296090159188232"><ele>338.0</ele><time>2026-04-08T15:16:23.999Z</time></trkpt><trkpt lat="43.41723124678184" lon="11.29615481497066"><ele>340.5</ele><time>2026-04-08T15:16:24.999Z</time></trkpt><trkpt lat="43.41735025919525" lon="11.29621312814294"><ele>343.0</ele><time>2026-04-08T15:16:25.999Z</time></trkpt><trkpt lat="43.41746529524494" lon="11.296265821753286"><ele>345.5</ele><time>2026-04-08T15:16:26.999Z</time></trkpt><trkpt lat="43.4175828214554" lon="11.296304240793976"><ele>348.0</ele><time>2026-04-08T15:16:27.999Z</time></trkpt><trkpt lat="43.417700960328595" lon="11.296332508314558"><ele>348.0</ele><time>2026-04-08T15:16:28.999Z</time></trkpt><trkpt lat="43.417817208372725" lon="11.296382917343145"><ele>348.0</ele><time>2026-04-08T15:16:29.999Z</time></trkpt><trkpt lat="43.41793084818794" lon="11.296467584653458"><ele>348.0</ele><time>2026-04-08T15:16:30.999Z</time></trkpt><trkpt lat="43.41804065179884" lon="11.296574330609582"><ele>348.0</ele><time>2026-04-08T15:16:31.999Z</time></trkpt><trkpt lat="43.418159557479626" lon="11.296670416750157"><ele>348.75</ele><time>2026-04-08T15:16:32.999Z</time></trkpt><trkpt lat="43.418277232109" lon="11.296761987694863"><ele>349.5</ele><time>2026-04-08T15:16:33.999Z</time></trkpt><trkpt lat="43.41839349123449" lon="11.2968582457699"><ele>350.25</ele><time>2026-04-08T15:16:34.999Z</time></trkpt><trkpt lat="43.41850978331765" lon="11.29695353879807"><ele>351.0</ele><time>2026-04-08T15:16:35.999Z</time></trkpt><trkpt lat="43.41863016233913" lon="11.2970311365583"><ele>351.0</ele><time>2026-04-08T15:16:36.999Z</time></trkpt><trkpt lat="43.41875149521451" lon="11.297096157244571"><ele>351.0</ele><time>2026-04-08T15:16:37.999Z</time></trkpt><trkpt lat="43.4188703270969" lon="11.297147268045514"><ele>351.0</ele><time>2026-04-08T15:16:38.999Z</time></trkpt><trkpt lat="43.418985954514554" lon="11.297166774021381"><ele>351.0</ele><time>2026-04-08T15:16:39.999Z</time></trkpt><trkpt lat="43.41910070787413" lon="11.297175523254502"><ele>352.25</ele><time>2026-04-08T15:16:40.999Z</time></trkpt><trkpt lat="43.419215385053114" lon="11.297184881164199"><ele>353.5</ele><time>2026-04-08T15:16:41.999Z</time></trkpt><trkpt lat="43.41934158813105" lon="11.297197590254752"><ele>354.75</ele><time>2026-04-08T15:16:42.999Z</time></trkpt><trkpt lat="43.419483118535474" lon="11.297231185129444"><ele>356.0</ele><time>2026-04-08T15:16:43.999Z</time></trkpt><trkpt lat="43.41959705131325" lon="11.297255267196766"><ele>358.25</ele><time>2026-04-08T15:16:44.999Z</time></trkpt><trkpt lat="43.41973988455696" lon="11.29730184962969"><ele>360.5</ele><time>2026-04-08T15:16:45.999Z</time></trkpt><trkpt lat="43.41986631958005" lon="11.297338786319559"><ele>362.75</ele><time>2026-04-08T15:16:46.999Z</time></trkpt><trkpt lat="43.419983696287275" lon="11.29736800970788"><ele>365.0</ele><time>2026-04-08T15:16:47.999Z</time></trkpt><trkpt lat="43.42009225480468" lon="11.297386758017568"><ele>365.0</ele><time>2026-04-08T15:16:48.999Z</time></trkpt><trkpt lat="43.42020556034232" lon="11.297393143850085"><ele>365.0</ele><time>2026-04-08T15:16:49.999Z</time></trkpt><trkpt lat="43.42032171961521" lon="11.29741267071933"><ele>365.0</ele><time>2026-04-08T15:16:50.999Z</time></trkpt><trkpt lat="43.4204254213131" lon="11.297488647768805"><ele>365.0</ele><time>2026-04-08T15:16:51.999Z</time></trkpt><trkpt lat="43.420529321419906" lon="11.29758691643458"><ele>366.0</ele><time>2026-04-08T15:16:52.999Z</time></trkpt><trkpt lat="43.42063468761149" lon="11.297695797354601"><ele>367.0</ele><time>2026-04-08T15:16:53.998Z</time></trkpt><trkpt lat="43.420749887191114" lon="11.297785040752629"><ele>368.0</ele><time>2026-04-08T15:16:54.998Z</time></trkpt><trkpt lat="43.42086181557794" lon="11.297884514715413"><ele>369.0</ele><time>2026-04-08T15:16:55.998Z</time></trkpt><trkpt lat="43.42100621294744" lon="11.29797054271216"><ele>369.0</ele><time>2026-04-08T15:16:56.998Z</time></trkpt><trkpt lat="43.421149492717255" lon="11.2980385315776"><ele>369.0</ele><time>2026-04-08T15:16:57.998Z</time></trkpt><trkpt lat="43.42130418953927" lon="11.298103141807362"><ele>369.0</ele><time>2026-04-08T15:16:58.998Z</time></trkpt><trkpt lat="43.42145627623811" lon="11.29816277894321"><ele>374.33333333333337</ele><time>2026-04-08T15:16:59.998Z</time></trkpt><trkpt lat="43.42160115934829" lon="11.298216104799744"><ele>379.6666666666667</ele><time>2026-04-08T15:17:00.998Z</time></trkpt><trkpt lat="43.42175124668701" lon="11.298270623837773"><ele>385.0</ele><time>2026-04-08T15:17:01.998Z</time></trkpt><trkpt lat="43.42189250357147" lon="11.298325669164434"><ele>385.0</ele><time>2026-04-08T15:17:02.998Z</time></trkpt><trkpt lat="43.42202816440168" lon="11.298382029050405"><ele>385.0</ele><time>2026-04-08T15:17:03.998Z</time></trkpt><trkpt lat="43.42215279916591" lon="11.298433857456747"><ele>385.0</ele><time>2026-04-08T15:17:04.998Z</time></trkpt><trkpt lat="43.42226839624075" lon="11.298500728090957"><ele>385.0</ele><time>2026-04-08T15:17:05.998Z</time></trkpt><trkpt lat="43.42237518163544" lon="11.298623546543926"><ele>388.33333333333337</ele><time>2026-04-08T15:17:06.998Z</time></trkpt><trkpt lat="43.4224807342922" lon="11.29875584089723"><ele>391.66666666666663</ele><time>2026-04-08T15:17:07.998Z</time></trkpt><trkpt lat="43.422588108365545" lon="11.298911017168923"><ele>395.0</ele><time>2026-04-08T15:17:08.998Z</time></trkpt><trkpt lat="43.42270511396975" lon="11.29905830774921"><ele>395.66666666666663</ele><time>2026-04-08T15:17:09.998Z</time></trkpt><trkpt lat="43.422814073364165" lon="11.29922043502057"><ele>396.33333333333337</ele><time>2026-04-08T15:17:10.998Z</time></trkpt><trkpt lat="43.4229203576285" lon="11.299361521123853"><ele>397.0</ele><time>2026-04-08T15:17:11.998Z</time></trkpt><trkpt lat="43.423030813454076" lon="11.29948442983506"><ele>399.25</ele><time>2026-04-08T15:17:12.998Z</time></trkpt><trkpt lat="43.42314317727651" lon="11.2995821138831"><ele>401.5</ele><time>2026-04-08T15:17:13.998Z</time></trkpt><trkpt lat="43.42326012604464" lon="11.299655980017242"><ele>403.75</ele><time>2026-04-08T15:17:14.998Z</time></trkpt><trkpt lat="43.423389101486876" lon="11.299727082624628"><ele>406.0</ele><time>2026-04-08T15:17:15.998Z</time></trkpt><trkpt lat="43.423527827816145" lon="11.299811790089134"><ele>406.0</ele><time>2026-04-08T15:17:16.998Z</time></trkpt><trkpt lat="43.42367369858521" lon="11.299906021109011"><ele>406.0</ele><time>2026-04-08T15:17:17.998Z</time></trkpt><trkpt lat="43.42381481757087" lon="11.299997018483339"><ele>406.0</ele><time>2026-04-08T15:17:18.998Z</time></trkpt><trkpt lat="43.42394696944443" lon="11.300085965510927"><ele>408.0</ele><time>2026-04-08T15:17:19.998Z</time></trkpt><trkpt lat="43.424080344524214" lon="11.300174986950545"><ele>410.0</ele><time>2026-04-08T15:17:20.998Z</time></trkpt><trkpt lat="43.42420929838679" lon="11.300272918412855"><ele>412.0</ele><time>2026-04-08T15:17:21.998Z</time></trkpt><trkpt lat="43.42431654303063" lon="11.300423160348926"><ele>414.0</ele><time>2026-04-08T15:17:22.998Z</time></trkpt><trkpt lat="43.424426910489636" lon="11.300578051916675"><ele>414.66666666666663</ele><time>2026-04-08T15:17:23.998Z</time></trkpt><trkpt lat="43.42451910533153" lon="11.300741286447554"><ele>415.3333333333333</ele><time>2026-04-08T15:17:24.998Z</time></trkpt><trkpt lat="43.42459901064021" lon="11.300915840887278"><ele>416.0</ele><time>2026-04-08T15:17:25.998Z</time></trkpt><trkpt lat="43.424664325770564" lon="11.301102258282588"><ele>416.0</ele><time>2026-04-08T15:17:26.998Z</time></trkpt><trkpt lat="43.4247254172454" lon="11.301293952361112"><ele>416.0</ele><time>2026-04-08T15:17:27.998Z</time></trkpt><trkpt lat="43.42479822904784" lon="11.301476387807018"><ele>416.0</ele><time>2026-04-08T15:17:28.998Z</time></trkpt><trkpt lat="43.424859856709304" lon="11.301653834316264"><ele>416.0</ele><time>2026-04-08T15:17:29.998Z</time></trkpt><trkpt lat="43.42493615903658" lon="11.301824294288377"><ele>415.66666666666663</ele><time>2026-04-08T15:17:30.998Z</time></trkpt><trkpt lat="43.425029455301065" lon="11.301986311216691"><ele>415.33333333333337</ele><time>2026-04-08T15:17:31.998Z</time></trkpt><trkpt lat="43.425134742772286" lon="11.302145984355876"><ele>415.0</ele><time>2026-04-08T15:17:32.998Z</time></trkpt><trkpt lat="43.425246711128715" lon="11.30229538320684"><ele>413.6666666666667</ele><time>2026-04-08T15:17:33.998Z</time></trkpt><trkpt lat="43.42536906599311" lon="11.302448933655933"><ele>412.33333333333337</ele><time>2026-04-08T15:17:34.998Z</time></trkpt><trkpt lat="43.42549727325916" lon="11.302598094033723"><ele>411.0</ele><time>2026-04-08T15:17:35.998Z</time></trkpt><trkpt lat="43.425622321904626" lon="11.302749654453226"><ele>411.0</ele><time>2026-04-08T15:17:36.998Z</time></trkpt><trkpt lat="43.425743132571924" lon="11.302908221530162"><ele>411.0</ele><time>2026-04-08T15:17:37.998Z</time></trkpt><trkpt lat="43.425858379798186" lon="11.30306860803357"><ele>411.0</ele><time>2026-04-08T15:17:38.998Z</time></trkpt><trkpt lat="43.42596199640732" lon="11.303230455889526"><ele>412.0</ele><time>2026-04-08T15:17:39.998Z</time></trkpt><trkpt lat="43.4260520342865" lon="11.303400153520565"><ele>413.0</ele><time>2026-04-08T15:17:40.998Z</time></trkpt><trkpt lat="43.42613013455317" lon="11.303574806463562"><ele>414.0</ele><time>2026-04-08T15:17:41.998Z</time></trkpt><trkpt lat="43.42619612889647" lon="11.30374134756368"><ele>415.0</ele><time>2026-04-08T15:17:42.998Z</time></trkpt><trkpt lat="43.42625584396477" lon="11.303906526059333"><ele>416.0</ele><time>2026-04-08T15:17:43.998Z</time></trkpt><trkpt lat="43.42631481099685" lon="11.304060863536185"><ele>417.0</ele><time>2026-04-08T15:17:44.998Z</time></trkpt><trkpt lat="43.42635656345429" lon="11.304224673598382"><ele>418.0</ele><time>2026-04-08T15:17:45.998Z</time></trkpt><trkpt lat="43.42641228315876" lon="11.304379000717166"><ele>419.0</ele><time>2026-04-08T15:17:46.998Z</time></trkpt><trkpt lat="43.42647707618516" lon="11.304520222517171"><ele>418.99999999999994</ele><time>2026-04-08T15:17:47.998Z</time></trkpt><trkpt lat="43.426526734569" lon="11.304659084727529"><ele>419.0</ele><time>2026-04-08T15:17:48.998Z</time></trkpt><trkpt lat="43.42656862794525" lon="11.304788000757553"><ele>419.0</ele><time>2026-04-08T15:17:49.998Z</time></trkpt><trkpt lat="43.42660162582827" lon="11.304901470204522"><ele>419.0</ele><time>2026-04-08T15:17:50.998Z</time></trkpt><trkpt lat="43.42662258623157" lon="11.305005538958525"><ele>418.99999999999994</ele><time>2026-04-08T15:17:51.998Z</time></trkpt><trkpt lat="43.42663803294407" lon="11.305094071137955"><ele>419.0</ele><time>2026-04-08T15:17:52.999Z</time></trkpt><trkpt lat="43.42667051432877" lon="11.305180304317318"><ele>420.0</ele><time>2026-04-08T15:17:53.999Z</time></trkpt><trkpt lat="43.42672963431858" lon="11.305277236115991"><ele>421.0</ele><time>2026-04-08T15:17:54.999Z</time></trkpt><trkpt lat="43.426814644214176" lon="11.305384203551409"><ele>422.0</ele><time>2026-04-08T15:17:55.999Z</time></trkpt><trkpt lat="43.426884895906916" lon="11.305512234110928"><ele>423.0</ele><time>2026-04-08T15:17:56.999Z</time></trkpt><trkpt lat="43.42696696501956" lon="11.30565314271481"><ele>425.0</ele><time>2026-04-08T15:17:57.999Z</time></trkpt><trkpt lat="43.42705401453044" lon="11.305787484805451"><ele>427.0</ele><time>2026-04-08T15:17:58.999Z</time></trkpt><trkpt lat="43.42715758668178" lon="11.3058902638075"><ele>429.0</ele><time>2026-04-08T15:17:59.999Z</time></trkpt><trkpt lat="43.42724700879116" lon="11.305997772695688"><ele>431.0</ele><time>2026-04-08T15:18:00.999Z</time></trkpt><trkpt lat="43.42734606652612" lon="11.306094870835938"><ele>431.25</ele><time>2026-04-08T15:18:01.999Z</time></trkpt><trkpt lat="43.42745122202934" lon="11.306198647001686"><ele>431.5</ele><time>2026-04-08T15:18:02.999Z</time></trkpt><trkpt lat="43.427577405555844" lon="11.306296708522705"><ele>431.75</ele><time>2026-04-08T15:18:03.999Z</time></trkpt><trkpt lat="43.42770841539031" lon="11.30638234052809"><ele>432.0</ele><time>2026-04-08T15:18:04.999Z</time></trkpt><trkpt lat="43.42783413763064" lon="11.306450052032952"><ele>434.40000000000003</ele><time>2026-04-08T15:18:05.999Z</time></trkpt><trkpt lat="43.42795434956093" lon="11.306502851168398"><ele>436.80000000000007</ele><time>2026-04-08T15:18:06.999Z</time></trkpt><trkpt lat="43.42806470884834" lon="11.3065340608536"><ele>439.2</ele><time>2026-04-08T15:18:07.999Z</time></trkpt><trkpt lat="43.42816680880701" lon="11.306538197867678"><ele>441.6</ele><time>2026-04-08T15:18:08.999Z</time></trkpt><trkpt lat="43.428260669084956" lon="11.306500324439158"><ele>444.0</ele><time>2026-04-08T15:18:09.999Z</time></trkpt><trkpt lat="43.428332490949494" lon="11.30640623609717"><ele>444.0</ele><time>2026-04-08T15:18:10.999Z</time></trkpt><trkpt lat="43.428367854963255" lon="11.30625810523507"><ele>444.0</ele><time>2026-04-08T15:18:11.999Z</time></trkpt><trkpt lat="43.42836553268968" lon="11.306081183847354"><ele>444.0</ele><time>2026-04-08T15:18:12.999Z</time></trkpt><trkpt lat="43.42834121408382" lon="11.305891658960233"><ele>444.0</ele><time>2026-04-08T15:18:13.999Z</time></trkpt><trkpt lat="43.42831956773479" lon="11.3056921317632"><ele>443.5</ele><time>2026-04-08T15:18:14.999Z</time></trkpt><trkpt lat="43.428312194375266" lon="11.305498200418606"><ele>443.0</ele><time>2026-04-08T15:18:15.999Z</time></trkpt><trkpt lat="43.428312351323015" lon="11.305314000973429"><ele>442.5</ele><time>2026-04-08T15:18:16.999Z</time></trkpt><trkpt lat="43.42832858399275" lon="11.3051423667609"><ele>442.0</ele><time>2026-04-08T15:18:17.999Z</time></trkpt><trkpt lat="43.428374100202326" lon="11.304977948547776"><ele>442.0</ele><time>2026-04-08T15:18:18.999Z</time></trkpt><trkpt lat="43.428449379799055" lon="11.304829398232235"><ele>442.0</ele><time>2026-04-08T15:18:19.999Z</time></trkpt><trkpt lat="43.42854311653606" lon="11.304690534130925"><ele>442.0</ele><time>2026-04-08T15:18:20.999Z</time></trkpt><trkpt lat="43.4286488168014" lon="11.30458331325039"><ele>442.0</ele><time>2026-04-08T15:18:21.999Z</time></trkpt><trkpt lat="43.428774453190314" lon="11.30454468762751"><ele>442.0</ele><time>2026-04-08T15:18:22.999Z</time></trkpt><trkpt lat="43.42890213583666" lon="11.304496504215095"><ele>442.0</ele><time>2026-04-08T15:18:23.999Z</time></trkpt><trkpt lat="43.42903913879333" lon="11.304486477217658"><ele>442.0</ele><time>2026-04-08T15:18:24.999Z</time></trkpt><trkpt lat="43.42916977644454" lon="11.304507473169075"><ele>442.0</ele><time>2026-04-08T15:18:25.999Z</time></trkpt><trkpt lat="43.42928705746536" lon="11.304596015773207"><ele>442.0</ele><time>2026-04-08T15:18:26.999Z</time></trkpt><trkpt lat="43.42941407999574" lon="11.30467794260797"><ele>442.0</ele><time>2026-04-08T15:18:27.999Z</time></trkpt><trkpt lat="43.42951738974329" lon="11.30480135871593"><ele>442.0</ele><time>2026-04-08T15:18:28.999Z</time></trkpt><trkpt lat="43.429590955482865" lon="11.304947516218611"><ele>442.0</ele><time>2026-04-08T15:18:29.999Z</time></trkpt><trkpt lat="43.42959686452623" lon="11.305128873915846"><ele>443.75</ele><time>2026-04-08T15:18:30.999Z</time></trkpt><trkpt lat="43.42963106069175" lon="11.305308872811622"><ele>445.5</ele><time>2026-04-08T15:18:31.999Z</time></trkpt><trkpt lat="43.429646709110756" lon="11.305506307078677"><ele>447.25</ele><time>2026-04-08T15:18:32.999Z</time></trkpt><trkpt lat="43.429677317722046" lon="11.305700764671874"><ele>449.0</ele><time>2026-04-08T15:18:33.999Z</time></trkpt><trkpt lat="43.429708306096586" lon="11.305890913603687"><ele>451.75</ele><time>2026-04-08T15:18:34.999Z</time></trkpt><trkpt lat="43.42975290957937" lon="11.306072425547423"><ele>454.5</ele><time>2026-04-08T15:18:35.999Z</time></trkpt><trkpt lat="43.429823176327425" lon="11.306239163481875"><ele>457.25</ele><time>2026-04-08T15:18:36.999Z</time></trkpt><trkpt lat="43.42991712541447" lon="11.306392444171625"><ele>460.0</ele><time>2026-04-08T15:18:37.999Z</time></trkpt><trkpt lat="43.43000013969989" lon="11.306568064793982"><ele>462.33333333333337</ele><time>2026-04-08T15:18:38.999Z</time></trkpt><trkpt lat="43.430092089769666" lon="11.306742555093134"><ele>464.66666666666663</ele><time>2026-04-08T15:18:39.999Z</time></trkpt><trkpt lat="43.43019433369659" lon="11.306906845120077"><ele>467.0</ele><time>2026-04-08T15:18:40.999Z</time></trkpt><trkpt lat="43.43028353320724" lon="11.307086868688122"><ele>465.75</ele><time>2026-04-08T15:18:41.999Z</time></trkpt><trkpt lat="43.430365811882304" lon="11.307253726419416"><ele>464.5</ele><time>2026-04-08T15:18:42.999Z</time></trkpt><trkpt lat="43.430437090557014" lon="11.307425482394297"><ele>463.25</ele><time>2026-04-08T15:18:43.999Z</time></trkpt><trkpt lat="43.430488947238445" lon="11.307600144388827"><ele>462.0</ele><time>2026-04-08T15:18:44.999Z</time></trkpt><trkpt lat="43.430529627705276" lon="11.307778924715556"><ele>462.0</ele><time>2026-04-08T15:18:45.999Z</time></trkpt><trkpt lat="43.43056799059042" lon="11.30795090038718"><ele>462.0</ele><time>2026-04-08T15:18:46.999Z</time></trkpt><trkpt lat="43.43059667975909" lon="11.308129297945147"><ele>462.0</ele><time>2026-04-08T15:18:47.999Z</time></trkpt><trkpt lat="43.43058288988885" lon="11.308322371572851"><ele>462.0</ele><time>2026-04-08T15:18:48.999Z</time></trkpt><trkpt lat="43.43059103282178" lon="11.3085219052366"><ele>464.33333333333337</ele><time>2026-04-08T15:18:49.999Z</time></trkpt><trkpt lat="43.43061656073192" lon="11.308721597108821"><ele>466.6666666666667</ele><time>2026-04-08T15:18:50.999Z</time></trkpt><trkpt lat="43.43068411980954" lon="11.308912162937748"><ele>469.0</ele><time>2026-04-08T15:18:51.999Z</time></trkpt><trkpt lat="43.43075968747855" lon="11.309099308205733"><ele>471.5</ele><time>2026-04-08T15:18:52.999Z</time></trkpt><trkpt lat="43.43082688527602" lon="11.309285598207802"><ele>474.0</ele><time>2026-04-08T15:18:53.999Z</time></trkpt><trkpt lat="43.43088761073867" lon="11.309470795086352"><ele>476.5</ele><time>2026-04-08T15:18:54.999Z</time></trkpt><trkpt lat="43.43095140914779" lon="11.309644397155415"><ele>479.0</ele><time>2026-04-08T15:18:55.999Z</time></trkpt><trkpt lat="43.4310239438734" lon="11.309794225518084"><ele>482.0</ele><time>2026-04-08T15:18:56.999Z</time></trkpt><trkpt lat="43.43110772148377" lon="11.309902689452688"><ele>485.0</ele><time>2026-04-08T15:18:57.999Z</time></trkpt><trkpt lat="43.43120866436555" lon="11.309956306730996"><ele>488.0</ele><time>2026-04-08T15:18:58.999Z</time></trkpt><trkpt lat="43.43131416995872" lon="11.309950763701446"><ele>491.0</ele><time>2026-04-08T15:18:59.999Z</time></trkpt><trkpt lat="43.431415108895166" lon="11.309881254859256"><ele>494.0</ele><time>2026-04-08T15:19:00.999Z</time></trkpt><trkpt lat="43.431502385249786" lon="11.30975578462304"><ele>490.25</ele><time>2026-04-08T15:19:01.999Z</time></trkpt><trkpt lat="43.43157921315083" lon="11.309599744559925"><ele>486.5</ele><time>2026-04-08T15:19:02.998Z</time></trkpt><trkpt lat="43.431667395114225" lon="11.309453672043675"><ele>482.75</ele><time>2026-04-08T15:19:03.998Z</time></trkpt><trkpt lat="43.43178594631557" lon="11.30934148931139"><ele>479.0</ele><time>2026-04-08T15:19:04.998Z</time></trkpt><trkpt lat="43.43192568409037" lon="11.309257096618822"><ele>479.0</ele><time>2026-04-08T15:19:05.998Z</time></trkpt><trkpt lat="43.432080804993085" lon="11.309242772787256"><ele>479.0</ele><time>2026-04-08T15:19:06.998Z</time></trkpt><trkpt lat="43.432242872691994" lon="11.309208375681296"><ele>479.0</ele><time>2026-04-08T15:19:07.998Z</time></trkpt><trkpt lat="43.43239686274313" lon="11.309173283855802"><ele>478.75</ele><time>2026-04-08T15:19:08.998Z</time></trkpt><trkpt lat="43.43254561945744" lon="11.309151073359718"><ele>478.5</ele><time>2026-04-08T15:19:09.998Z</time></trkpt><trkpt lat="43.432685624797486" lon="11.309116266437691"><ele>478.25</ele><time>2026-04-08T15:19:10.998Z</time></trkpt><trkpt lat="43.43281069523474" lon="11.309030814719838"><ele>478.0</ele><time>2026-04-08T15:19:11.998Z</time></trkpt><trkpt lat="43.43291782659642" lon="11.308897571221138"><ele>483.0</ele><time>2026-04-08T15:19:12.998Z</time></trkpt><trkpt lat="43.43302084908541" lon="11.308736897308359"><ele>488.0</ele><time>2026-04-08T15:19:13.998Z</time></trkpt><trkpt lat="43.433124335858004" lon="11.30856705215435"><ele>493.0</ele><time>2026-04-08T15:19:14.998Z</time></trkpt><trkpt lat="43.43323345228967" lon="11.308400341062821"><ele>493.0</ele><time>2026-04-08T15:19:15.998Z</time></trkpt><trkpt lat="43.43334332260124" lon="11.308243246035277"><ele>493.0</ele><time>2026-04-08T15:19:16.998Z</time></trkpt><trkpt lat="43.43346076061067" lon="11.308103300493727"><ele>493.0</ele><time>2026-04-08T15:19:17.998Z</time></trkpt><trkpt lat="43.433602855971344" lon="11.308003550670525"><ele>493.0</ele><time>2026-04-08T15:19:18.998Z</time></trkpt><trkpt lat="43.433761855431904" lon="11.307942813506696"><ele>493.0</ele><time>2026-04-08T15:19:19.998Z</time></trkpt><trkpt lat="43.43392936915813" lon="11.307910569192195"><ele>493.0</ele><time>2026-04-08T15:19:20.998Z</time></trkpt><trkpt lat="43.43410048055842" lon="11.307874940395788"><ele>493.0</ele><time>2026-04-08T15:19:21.998Z</time></trkpt><trkpt lat="43.4342666887944" lon="11.307805141915226"><ele>493.0</ele><time>2026-04-08T15:19:22.998Z</time></trkpt><trkpt lat="43.43442952293509" lon="11.30769102705593"><ele>493.0</ele><time>2026-04-08T15:19:23.998Z</time></trkpt><trkpt lat="43.43458292595874" lon="11.307546459188293"><ele>495.6666666666667</ele><time>2026-04-08T15:19:24.998Z</time></trkpt><trkpt lat="43.434733449367236" lon="11.307393662461916"><ele>498.33333333333337</ele><time>2026-04-08T15:19:25.998Z</time></trkpt><trkpt lat="43.43488309712588" lon="11.307243441846532"><ele>501.0</ele><time>2026-04-08T15:19:26.998Z</time></trkpt><trkpt lat="43.43503014239087" lon="11.307099251356467"><ele>501.0</ele><time>2026-04-08T15:19:27.998Z</time></trkpt><trkpt lat="43.4351697334524" lon="11.306965679860488"><ele>501.0</ele><time>2026-04-08T15:19:28.998Z</time></trkpt><trkpt lat="43.43529308047801" lon="11.306844347415042"><ele>501.0</ele><time>2026-04-08T15:19:29.998Z</time></trkpt><trkpt lat="43.435410299817974" lon="11.306743367329037"><ele>503.5</ele><time>2026-04-08T15:19:30.998Z</time></trkpt><trkpt lat="43.43553009763263" lon="11.306672579831073"><ele>506.0</ele><time>2026-04-08T15:19:31.998Z</time></trkpt><trkpt lat="43.43566114559556" lon="11.306619944010501"><ele>508.5</ele><time>2026-04-08T15:19:32.998Z</time></trkpt><trkpt lat="43.435790265713315" lon="11.30657585597082"><ele>511.0</ele><time>2026-04-08T15:19:33.998Z</time></trkpt><trkpt lat="43.435912129462174" lon="11.306551595427203"><ele>511.0</ele><time>2026-04-08T15:19:34.998Z</time></trkpt><trkpt lat="43.436032713496616" lon="11.30656142390527"><ele>511.0</ele><time>2026-04-08T15:19:35.998Z</time></trkpt><trkpt lat="43.43614469850371" lon="11.306652739413206"><ele>511.0</ele><time>2026-04-08T15:19:36.998Z</time></trkpt><trkpt lat="43.436263779948376" lon="11.30676022104104"><ele>511.0</ele><time>2026-04-08T15:19:37.998Z</time></trkpt><trkpt lat="43.43640749699192" lon="11.306870093251208"><ele>510.6666666666667</ele><time>2026-04-08T15:19:38.998Z</time></trkpt><trkpt lat="43.436553442324524" lon="11.307019552530807"><ele>510.33333333333337</ele><time>2026-04-08T15:19:39.998Z</time></trkpt><trkpt lat="43.43670979159676" lon="11.3071643471763"><ele>510.0</ele><time>2026-04-08T15:19:40.998Z</time></trkpt><trkpt lat="43.43687676924731" lon="11.307307247465516"><ele>510.0</ele><time>2026-04-08T15:19:41.998Z</time></trkpt><trkpt lat="43.437047758823" lon="11.307449943879218"><ele>510.0</ele><time>2026-04-08T15:19:42.998Z</time></trkpt><trkpt lat="43.437221313344" lon="11.307587999103497"><ele>510.0</ele><time>2026-04-08T15:19:43.998Z</time></trkpt><trkpt lat="43.43739060437034" lon="11.307722406436385"><ele>509.33333333333337</ele><time>2026-04-08T15:19:44.998Z</time></trkpt><trkpt lat="43.43755953171871" lon="11.307845509762192"><ele>508.6666666666667</ele><time>2026-04-08T15:19:45.998Z</time></trkpt><trkpt lat="43.43771889419708" lon="11.307964520714519"><ele>508.0</ele><time>2026-04-08T15:19:46.998Z</time></trkpt><trkpt lat="43.437865720851065" lon="11.308072306094749"><ele>510.25</ele><time>2026-04-08T15:19:47.998Z</time></trkpt><trkpt lat="43.43800555871814" lon="11.308169834225598"><ele>512.5</ele><time>2026-04-08T15:19:48.998Z</time></trkpt><trkpt lat="43.438140011430455" lon="11.308232304437908"><ele>514.75</ele><time>2026-04-08T15:19:49.998Z</time></trkpt><trkpt lat="43.438265138342246" lon="11.308239351930643"><ele>517.0</ele><time>2026-04-08T15:19:50.998Z</time></trkpt><trkpt lat="43.438377170996304" lon="11.308195038336505"><ele>517.0</ele><time>2026-04-08T15:19:51.998Z</time></trkpt><trkpt lat="43.43847076056986" lon="11.308102719118953"><ele>517.0</ele><time>2026-04-08T15:19:52.998Z</time></trkpt><trkpt lat="43.438550069685206" lon="11.307966882215684"><ele>517.0</ele><time>2026-04-08T15:19:53.998Z</time></trkpt><trkpt lat="43.43859788770363" lon="11.307794998732007"><ele>517.0</ele><time>2026-04-08T15:19:54.998Z</time></trkpt><trkpt lat="43.43861070851837" lon="11.307594775845924"><ele>516.5</ele><time>2026-04-08T15:19:55.998Z</time></trkpt><trkpt lat="43.43860754652576" lon="11.307454069714629"><ele>516.0</ele><time>2026-04-08T15:19:56.998Z</time></trkpt><trkpt lat="43.43852610807579" lon="11.307285847895779"><ele>515.5</ele><time>2026-04-08T15:19:57.998Z</time></trkpt><trkpt lat="43.43842160168113" lon="11.307137338399318"><ele>515.0</ele><time>2026-04-08T15:19:58.999Z</time></trkpt><trkpt lat="43.43834147381222" lon="11.306956858550024"><ele>516.3333333333333</ele><time>2026-04-08T15:19:59.999Z</time></trkpt><trkpt lat="43.438298884045594" lon="11.306747213181973"><ele>517.6666666666666</ele><time>2026-04-08T15:20:00.999Z</time></trkpt><trkpt lat="43.43830525011099" lon="11.306529544292616"><ele>519.0</ele><time>2026-04-08T15:20:01.999Z</time></trkpt><trkpt lat="43.43831962531846" lon="11.306307887545675"><ele>519.0</ele><time>2026-04-08T15:20:02.999Z</time></trkpt><trkpt lat="43.43836222752157" lon="11.306099939694803"><ele>519.0</ele><time>2026-04-08T15:20:03.999Z</time></trkpt><trkpt lat="43.43842114387399" lon="11.30592194955982"><ele>519.0</ele><time>2026-04-08T15:20:04.999Z</time></trkpt><trkpt lat="43.4385102303275" lon="11.305768910181179"><ele>519.0</ele><time>2026-04-08T15:20:05.999Z</time></trkpt><trkpt lat="43.43862458951903" lon="11.305645449556641"><ele>520.0</ele><time>2026-04-08T15:20:06.999Z</time></trkpt><trkpt lat="43.43876024560103" lon="11.305550128536886"><ele>521.0</ele><time>2026-04-08T15:20:07.999Z</time></trkpt><trkpt lat="43.43891425996913" lon="11.305471502268327"><ele>522.0</ele><time>2026-04-08T15:20:08.999Z</time></trkpt><trkpt lat="43.43907748214195" lon="11.305414594618231"><ele>522.0</ele><time>2026-04-08T15:20:09.999Z</time></trkpt><trkpt lat="43.43923908906195" lon="11.30538763393073"><ele>522.0</ele><time>2026-04-08T15:20:10.999Z</time></trkpt><trkpt lat="43.439371859194104" lon="11.305325076845415"><ele>522.0</ele><time>2026-04-08T15:20:11.999Z</time></trkpt><trkpt lat="43.439512372389295" lon="11.305320337900545"><ele>522.0</ele><time>2026-04-08T15:20:12.999Z</time></trkpt><trkpt lat="43.439638438248714" lon="11.305166760718798"><ele>527.0</ele><time>2026-04-08T15:20:13.999Z</time></trkpt><trkpt lat="43.439660306019654" lon="11.304919215547892"><ele>532.0</ele><time>2026-04-08T15:20:14.999Z</time></trkpt><trkpt lat="43.439681144152836" lon="11.304700615116557"><ele>537.0</ele><time>2026-04-08T15:20:15.999Z</time></trkpt><trkpt lat="43.43968076389206" lon="11.304471286053998"><ele>537.0</ele><time>2026-04-08T15:20:16.999Z</time></trkpt><trkpt lat="43.43970151046556" lon="11.304236898371107"><ele>537.0</ele><time>2026-04-08T15:20:17.999Z</time></trkpt><trkpt lat="43.43975167767445" lon="11.30401990712527"><ele>537.0</ele><time>2026-04-08T15:20:18.999Z</time></trkpt><trkpt lat="43.43981360276882" lon="11.30381502960674"><ele>537.25</ele><time>2026-04-08T15:20:19.999Z</time></trkpt><trkpt lat="43.43985730547018" lon="11.303633129006496"><ele>537.5</ele><time>2026-04-08T15:20:20.999Z</time></trkpt><trkpt lat="43.43985155284034" lon="11.303444015102967"><ele>537.75</ele><time>2026-04-08T15:20:21.999Z</time></trkpt><trkpt lat="43.43978711006338" lon="11.303243344562684"><ele>538.0</ele><time>2026-04-08T15:20:22.999Z</time></trkpt><trkpt lat="43.43970515895714" lon="11.30302850250646"><ele>538.6666666666667</ele><time>2026-04-08T15:20:23.999Z</time></trkpt><trkpt lat="43.43965459271931" lon="11.302783227534887"><ele>539.3333333333334</ele><time>2026-04-08T15:20:24.999Z</time></trkpt><trkpt lat="43.43962873181061" lon="11.302551474138612"><ele>540.0</ele><time>2026-04-08T15:20:25.999Z</time></trkpt><trkpt lat="43.43959994188227" lon="11.302313542780862"><ele>536.3333333333334</ele><time>2026-04-08T15:20:26.999Z</time></trkpt><trkpt lat="43.43957066227944" lon="11.302062467749389"><ele>532.6666666666667</ele><time>2026-04-08T15:20:27.999Z</time></trkpt><trkpt lat="43.43954265751683" lon="11.30183782388467"><ele>529.0</ele><time>2026-04-08T15:20:28.999Z</time></trkpt><trkpt lat="43.43951990185602" lon="11.301644163890929"><ele>529.0</ele><time>2026-04-08T15:20:29.999Z</time></trkpt><trkpt lat="43.43951068994429" lon="11.301504907777394"><ele>529.0</ele><time>2026-04-08T15:20:30.999Z</time></trkpt><trkpt lat="43.43953689054052" lon="11.30138555219051"><ele>529.0</ele><time>2026-04-08T15:20:31.999Z</time></trkpt><trkpt lat="43.43960142311483" lon="11.301289799203547"><ele>529.0</ele><time>2026-04-08T15:20:32.999Z</time></trkpt><trkpt lat="43.43972115641485" lon="11.301270520653896"><ele>529.0</ele><time>2026-04-08T15:20:33.999Z</time></trkpt><trkpt lat="43.4398488826651" lon="11.301249169985525"><ele>529.0</ele><time>2026-04-08T15:20:34.999Z</time></trkpt><trkpt lat="43.43999203463991" lon="11.301200848042086"><ele>529.0</ele><time>2026-04-08T15:20:35.999Z</time></trkpt><trkpt lat="43.440152540470265" lon="11.301173479988813"><ele>529.0</ele><time>2026-04-08T15:20:36.999Z</time></trkpt><trkpt lat="43.44031246141826" lon="11.301139580042522"><ele>528.75</ele><time>2026-04-08T15:20:37.999Z</time></trkpt><trkpt lat="43.44046659819087" lon="11.301119076693622"><ele>528.5</ele><time>2026-04-08T15:20:38.999Z</time></trkpt><trkpt lat="43.44059982612933" lon="11.30108508380741"><ele>528.25</ele><time>2026-04-08T15:20:39.999Z</time></trkpt><trkpt lat="43.44071928816716" lon="11.30101357374451"><ele>528.0</ele><time>2026-04-08T15:20:40.999Z</time></trkpt><trkpt lat="43.44081867377147" lon="11.300882487202639"><ele>528.0</ele><time>2026-04-08T15:20:41.999Z</time></trkpt><trkpt lat="43.440901023719235" lon="11.300708976032235"><ele>528.0</ele><time>2026-04-08T15:20:42.999Z</time></trkpt><trkpt lat="43.44098113168175" lon="11.300545434416447"><ele>528.0</ele><time>2026-04-08T15:20:43.999Z</time></trkpt><trkpt lat="43.44108483731224" lon="11.300434807274051"><ele>528.0</ele><time>2026-04-08T15:20:44.999Z</time></trkpt><trkpt lat="43.44122513612157" lon="11.300429196212535"><ele>528.6666666666666</ele><time>2026-04-08T15:20:45.999Z</time></trkpt><trkpt lat="43.44137961297643" lon="11.30039713532491"><ele>529.3333333333333</ele><time>2026-04-08T15:20:46.999Z</time></trkpt><trkpt lat="43.4415523753132" lon="11.300403051361725"><ele>530.0</ele><time>2026-04-08T15:20:47.999Z</time></trkpt><trkpt lat="43.44171928787572" lon="11.300399430885351"><ele>530.0</ele><time>2026-04-08T15:20:48.999Z</time></trkpt><trkpt lat="43.441867031258234" lon="11.300405009910595"><ele>530.0</ele><time>2026-04-08T15:20:49.999Z</time></trkpt><trkpt lat="43.44200474892201" lon="11.300456864761635"><ele>530.0</ele><time>2026-04-08T15:20:50.999Z</time></trkpt><trkpt lat="43.44212486260583" lon="11.30059245586413"><ele>530.0</ele><time>2026-04-08T15:20:51.999Z</time></trkpt><trkpt lat="43.44226701606852" lon="11.30070125458825"><ele>530.75</ele><time>2026-04-08T15:20:52.999Z</time></trkpt><trkpt lat="43.44236133911664" lon="11.300796483679958"><ele>531.5</ele><time>2026-04-08T15:20:53.999Z</time></trkpt><trkpt lat="43.44244517645358" lon="11.30087231229994"><ele>532.25</ele><time>2026-04-08T15:20:54.999Z</time></trkpt><trkpt lat="43.442550925741415" lon="11.300958239727626"><ele>533.0</ele><time>2026-04-08T15:20:55.999Z</time></trkpt><trkpt lat="43.442674538727886" lon="11.301022159877974"><ele>533.0</ele><time>2026-04-08T15:20:56.999Z</time></trkpt><trkpt lat="43.44280569188366" lon="11.301031904296043"><ele>533.0</ele><time>2026-04-08T15:20:57.999Z</time></trkpt><trkpt lat="43.44294264799791" lon="11.300975626654472"><ele>533.0</ele><time>2026-04-08T15:20:58.999Z</time></trkpt><trkpt lat="43.44307982491038" lon="11.300892234460761"><ele>533.0</ele><time>2026-04-08T15:20:59.999Z</time></trkpt><trkpt lat="43.44318801974072" lon="11.30079697042726"><ele>535.0</ele><time>2026-04-08T15:21:00.999Z</time></trkpt><trkpt lat="43.44326191741002" lon="11.300684534198336"><ele>537.0</ele><time>2026-04-08T15:21:01.999Z</time></trkpt><trkpt lat="43.4432890091517" lon="11.300528138025337"><ele>539.0</ele><time>2026-04-08T15:21:02.999Z</time></trkpt><trkpt lat="43.44327350361639" lon="11.300339538945149"><ele>541.0</ele><time>2026-04-08T15:21:03.999Z</time></trkpt><trkpt lat="43.4432485605804" lon="11.300136323695735"><ele>541.0</ele><time>2026-04-08T15:21:04.999Z</time></trkpt><trkpt lat="43.44326162824407" lon="11.299956075480827"><ele>541.0</ele><time>2026-04-08T15:21:05.999Z</time></trkpt><trkpt lat="43.443349609191905" lon="11.299796745229902"><ele>541.0</ele><time>2026-04-08T15:21:06.999Z</time></trkpt><trkpt lat="43.44342317793871" lon="11.299630855075769"><ele>541.0</ele><time>2026-04-08T15:21:07.999Z</time></trkpt><trkpt lat="43.44350268435949" lon="11.299503898938"><ele>541.4</ele><time>2026-04-08T15:21:08.999Z</time></trkpt><trkpt lat="43.443568690596145" lon="11.299381678609503"><ele>541.8</ele><time>2026-04-08T15:21:09.999Z</time></trkpt><trkpt lat="43.44362707664124" lon="11.299270531757971"><ele>542.1999999999999</ele><time>2026-04-08T15:21:10.999Z</time></trkpt><trkpt lat="43.443685711702855" lon="11.299172599326871"><ele>542.6</ele><time>2026-04-08T15:21:11.999Z</time></trkpt><trkpt lat="43.44377063786011" lon="11.299131972913536"><ele>543.0</ele><time>2026-04-08T15:21:12.999Z</time></trkpt><trkpt lat="43.44384959473137" lon="11.299088911786827"><ele>543.0</ele><time>2026-04-08T15:21:13.999Z</time></trkpt><trkpt lat="43.44395277900271" lon="11.299124683322582"><ele>543.0</ele><time>2026-04-08T15:21:14.998Z</time></trkpt><trkpt lat="43.44407149663784" lon="11.299160468750365"><ele>543.0</ele><time>2026-04-08T15:21:15.998Z</time></trkpt><trkpt lat="43.44417534149753" lon="11.299232519955748"><ele>543.0</ele><time>2026-04-08T15:21:16.998Z</time></trkpt><trkpt lat="43.44427578893816" lon="11.29932295796183"><ele>543.0</ele><time>2026-04-08T15:21:17.998Z</time></trkpt><trkpt lat="43.4443828917934" lon="11.29942615955044"><ele>543.0</ele><time>2026-04-08T15:21:18.998Z</time></trkpt><trkpt lat="43.4444895001912" lon="11.299529215675959"><ele>543.0</ele><time>2026-04-08T15:21:19.998Z</time></trkpt><trkpt lat="43.444601483934925" lon="11.299616448043903"><ele>543.0</ele><time>2026-04-08T15:21:20.998Z</time></trkpt><trkpt lat="43.44470158379666" lon="11.299703907789107"><ele>545.5</ele><time>2026-04-08T15:21:21.998Z</time></trkpt><trkpt lat="43.44480586293814" lon="11.299782140121682"><ele>548.0</ele><time>2026-04-08T15:21:22.998Z</time></trkpt><trkpt lat="43.44492063837307" lon="11.299847787939816"><ele>550.5</ele><time>2026-04-08T15:21:23.998Z</time></trkpt><trkpt lat="43.44504304281043" lon="11.299884713055315"><ele>553.0</ele><time>2026-04-08T15:21:24.998Z</time></trkpt><trkpt lat="43.44517632456008" lon="11.299887552018696"><ele>553.0</ele><time>2026-04-08T15:21:25.998Z</time></trkpt><trkpt lat="43.44530275988852" lon="11.299862588590196"><ele>553.0</ele><time>2026-04-08T15:21:26.998Z</time></trkpt><trkpt lat="43.445419381933704" lon="11.299833219087642"><ele>553.0</ele><time>2026-04-08T15:21:27.998Z</time></trkpt><trkpt lat="43.44553726898107" lon="11.299802924329793"><ele>553.0</ele><time>2026-04-08T15:21:28.998Z</time></trkpt><trkpt lat="43.44565711153487" lon="11.299769120459407"><ele>550.75</ele><time>2026-04-08T15:21:29.998Z</time></trkpt><trkpt lat="43.445774780679244" lon="11.299728809286535"><ele>548.5</ele><time>2026-04-08T15:21:30.998Z</time></trkpt><trkpt lat="43.44588517532395" lon="11.299671662504151"><ele>546.25</ele><time>2026-04-08T15:21:31.998Z</time></trkpt><trkpt lat="43.445989455084174" lon="11.299595658778276"><ele>544.0</ele><time>2026-04-08T15:21:32.998Z</time></trkpt><trkpt lat="43.44609525910891" lon="11.299498443879141"><ele>544.0</ele><time>2026-04-08T15:21:33.998Z</time></trkpt><trkpt lat="43.446223778104894" lon="11.299382139147713"><ele>544.0</ele><time>2026-04-08T15:21:34.998Z</time></trkpt><trkpt lat="43.446350154593844" lon="11.299206797884171"><ele>544.0</ele><time>2026-04-08T15:21:35.998Z</time></trkpt><trkpt lat="43.44648074970401" lon="11.299003769802775"><ele>546.6666666666667</ele><time>2026-04-08T15:21:36.998Z</time></trkpt><trkpt lat="43.44662575409994" lon="11.298799469925932"><ele>549.3333333333334</ele><time>2026-04-08T15:21:37.998Z</time></trkpt><trkpt lat="43.446770996800176" lon="11.298588226546142"><ele>552.0</ele><time>2026-04-08T15:21:38.998Z</time></trkpt><trkpt lat="43.4469305492949" lon="11.298397591000208"><ele>552.0</ele><time>2026-04-08T15:21:39.998Z</time></trkpt><trkpt lat="43.44707617834457" lon="11.298187929174896"><ele>552.0</ele><time>2026-04-08T15:21:40.998Z</time></trkpt><trkpt lat="43.447206615365694" lon="11.29793915318981"><ele>552.0</ele><time>2026-04-08T15:21:41.998Z</time></trkpt><trkpt lat="43.447324102544954" lon="11.297729189000338"><ele>553.6666666666666</ele><time>2026-04-08T15:21:42.998Z</time></trkpt><trkpt lat="43.447480248268775" lon="11.297591923008207"><ele>555.3333333333333</ele><time>2026-04-08T15:21:43.998Z</time></trkpt><trkpt lat="43.447609852633676" lon="11.297416711198847"><ele>557.0</ele><time>2026-04-08T15:21:44.998Z</time></trkpt><trkpt lat="43.44773560881979" lon="11.297254899209147"><ele>556.3333333333333</ele><time>2026-04-08T15:21:45.998Z</time></trkpt><trkpt lat="43.44784118112533" lon="11.297078451229222"><ele>555.6666666666666</ele><time>2026-04-08T15:21:46.998Z</time></trkpt><trkpt lat="43.447918919573695" lon="11.296899532424614"><ele>555.0</ele><time>2026-04-08T15:21:47.998Z</time></trkpt><trkpt lat="43.44795773653577" lon="11.296708521186032"><ele>555.0</ele><time>2026-04-08T15:21:48.998Z</time></trkpt><trkpt lat="43.447950613042494" lon="11.296487308410928"><ele>555.0</ele><time>2026-04-08T15:21:49.998Z</time></trkpt><trkpt lat="43.44792143139442" lon="11.29626760157136"><ele>555.0</ele><time>2026-04-08T15:21:50.998Z</time></trkpt><trkpt lat="43.44792271403175" lon="11.296072506075475"><ele>558.0</ele><time>2026-04-08T15:21:51.998Z</time></trkpt><trkpt lat="43.448001118022376" lon="11.295888975610014"><ele>561.0</ele><time>2026-04-08T15:21:52.998Z</time></trkpt><trkpt lat="43.44809643617956" lon="11.295684815681392"><ele>564.0</ele><time>2026-04-08T15:21:53.998Z</time></trkpt><trkpt lat="43.44818483371534" lon="11.29546662189621"><ele>564.0</ele><time>2026-04-08T15:21:54.998Z</time></trkpt><trkpt lat="43.44827603147117" lon="11.295288839179124"><ele>564.0</ele><time>2026-04-08T15:21:55.998Z</time></trkpt><trkpt lat="43.4483519678378" lon="11.295131834033088"><ele>564.0</ele><time>2026-04-08T15:21:56.998Z</time></trkpt><trkpt lat="43.44844293465441" lon="11.295009929459203"><ele>564.0</ele><time>2026-04-08T15:21:57.998Z</time></trkpt><trkpt lat="43.44856690351326" lon="11.294922095642553"><ele>564.0</ele><time>2026-04-08T15:21:58.998Z</time></trkpt><trkpt lat="43.44872075560241" lon="11.294840246395326"><ele>564.0</ele><time>2026-04-08T15:21:59.998Z</time></trkpt><trkpt lat="43.448896813951215" lon="11.29478858298636"><ele>564.0</ele><time>2026-04-08T15:22:00.998Z</time></trkpt><trkpt lat="43.44906341114012" lon="11.294699981634535"><ele>561.3333333333334</ele><time>2026-04-08T15:22:01.998Z</time></trkpt><trkpt lat="43.449226704495175" lon="11.294617868609162"><ele>558.6666666666667</ele><time>2026-04-08T15:22:02.998Z</time></trkpt><trkpt lat="43.44937992867136" lon="11.294495338737935"><ele>556.0</ele><time>2026-04-08T15:22:03.998Z</time></trkpt><trkpt lat="43.449540479122206" lon="11.294345818256232"><ele>556.6666666666667</ele><time>2026-04-08T15:22:04.999Z</time></trkpt><trkpt lat="43.4496883620686" lon="11.294167145969249"><ele>557.3333333333334</ele><time>2026-04-08T15:22:05.999Z</time></trkpt><trkpt lat="43.44981039226241" lon="11.293945368646177"><ele>558.0</ele><time>2026-04-08T15:22:06.999Z</time></trkpt><trkpt lat="43.44991443415532" lon="11.293701569677216"><ele>559.0</ele><time>2026-04-08T15:22:07.999Z</time></trkpt><trkpt lat="43.45001886764235" lon="11.293488307568605"><ele>560.0</ele><time>2026-04-08T15:22:08.999Z</time></trkpt><trkpt lat="43.450139982004245" lon="11.293357197616626"><ele>561.0</ele><time>2026-04-08T15:22:09.999Z</time></trkpt><trkpt lat="43.45026884781613" lon="11.293282236929228"><ele>561.0</ele><time>2026-04-08T15:22:10.999Z</time></trkpt><trkpt lat="43.45041909377112" lon="11.2932049416468"><ele>561.0</ele><time>2026-04-08T15:22:11.999Z</time></trkpt><trkpt lat="43.45058248866566" lon="11.293107947767249"><ele>561.0</ele><time>2026-04-08T15:22:12.999Z</time></trkpt><trkpt lat="43.45076036239626" lon="11.293021786230526"><ele>565.3333333333334</ele><time>2026-04-08T15:22:13.999Z</time></trkpt><trkpt lat="43.45094704407773" lon="11.292926998440379"><ele>569.6666666666667</ele><time>2026-04-08T15:22:14.999Z</time></trkpt><trkpt lat="43.451123100827395" lon="11.292841903367675"><ele>574.0</ele><time>2026-04-08T15:22:15.999Z</time></trkpt><trkpt lat="43.451274414610154" lon="11.292771028331948"><ele>574.25</ele><time>2026-04-08T15:22:16.999Z</time></trkpt><trkpt lat="43.45140769332796" lon="11.292701994199245"><ele>574.5</ele><time>2026-04-08T15:22:17.999Z</time></trkpt><trkpt lat="43.45153057242354" lon="11.292612194222599"><ele>574.75</ele><time>2026-04-08T15:22:18.999Z</time></trkpt><trkpt lat="43.45164455469407" lon="11.292483427910962"><ele>575.0</ele><time>2026-04-08T15:22:19.999Z</time></trkpt><trkpt lat="43.45176302674301" lon="11.292329369390284"><ele>575.5</ele><time>2026-04-08T15:22:20.999Z</time></trkpt><trkpt lat="43.45188687390967" lon="11.292200048786567"><ele>576.0</ele><time>2026-04-08T15:22:21.999Z</time></trkpt><trkpt lat="43.452015559949714" lon="11.292113284601442"><ele>576.5</ele><time>2026-04-08T15:22:22.999Z</time></trkpt><trkpt lat="43.452146468218324" lon="11.292056655574003"><ele>577.0</ele><time>2026-04-08T15:22:23.999Z</time></trkpt><trkpt lat="43.452277476410494" lon="11.292083783547081"><ele>578.0</ele><time>2026-04-08T15:22:24.999Z</time></trkpt><trkpt lat="43.45241607743965" lon="11.292137645874595"><ele>579.0</ele><time>2026-04-08T15:22:25.999Z</time></trkpt><trkpt lat="43.45257686814897" lon="11.29218734498036"><ele>580.0</ele><time>2026-04-08T15:22:26.999Z</time></trkpt><trkpt lat="43.452749838926415" lon="11.292258161988155"><ele>578.0</ele><time>2026-04-08T15:22:27.999Z</time></trkpt><trkpt lat="43.45294579605047" lon="11.292326174856791"><ele>576.0</ele><time>2026-04-08T15:22:28.999Z</time></trkpt><trkpt lat="43.45314588176114" lon="11.292384075764577"><ele>574.0</ele><time>2026-04-08T15:22:29.999Z</time></trkpt><trkpt lat="43.453339944520835" lon="11.29243031090313"><ele>574.0</ele><time>2026-04-08T15:22:30.999Z</time></trkpt><trkpt lat="43.45353000249585" lon="11.29244040431213"><ele>574.0</ele><time>2026-04-08T15:22:31.999Z</time></trkpt><trkpt lat="43.45371706513615" lon="11.292405305082013"><ele>574.0</ele><time>2026-04-08T15:22:32.999Z</time></trkpt><trkpt lat="43.45389627786205" lon="11.292324532593298"><ele>575.6666666666667</ele><time>2026-04-08T15:22:33.999Z</time></trkpt><trkpt lat="43.454076173176375" lon="11.292225075941253"><ele>577.3333333333334</ele><time>2026-04-08T15:22:34.999Z</time></trkpt><trkpt lat="43.454263313217695" lon="11.292117620338923"><ele>579.0</ele><time>2026-04-08T15:22:35.999Z</time></trkpt><trkpt lat="43.45444853583825" lon="11.292031529855429"><ele>577.3333333333334</ele><time>2026-04-08T15:22:36.999Z</time></trkpt><trkpt lat="43.45462371990061" lon="11.29197606022693"><ele>575.6666666666667</ele><time>2026-04-08T15:22:37.999Z</time></trkpt><trkpt lat="43.45480467149435" lon="11.291954058271477"><ele>574.0</ele><time>2026-04-08T15:22:38.999Z</time></trkpt><trkpt lat="43.454991045030674" lon="11.291962182995237"><ele>574.0</ele><time>2026-04-08T15:22:39.999Z</time></trkpt><trkpt lat="43.4551897140781" lon="11.292002046112664"><ele>574.0</ele><time>2026-04-08T15:22:40.999Z</time></trkpt><trkpt lat="43.45539414502648" lon="11.292060978490872"><ele>574.0</ele><time>2026-04-08T15:22:41.999Z</time></trkpt><trkpt lat="43.45557481067332" lon="11.29211489538947"><ele>575.0</ele><time>2026-04-08T15:22:42.999Z</time></trkpt><trkpt lat="43.45572019242258" lon="11.292154376651936"><ele>576.0</ele><time>2026-04-08T15:22:43.999Z</time></trkpt><trkpt lat="43.45585241680665" lon="11.292187585634542"><ele>577.0</ele><time>2026-04-08T15:22:44.999Z</time></trkpt><trkpt lat="43.45597585398684" lon="11.292223940221803"><ele>578.0</ele><time>2026-04-08T15:22:45.999Z</time></trkpt><trkpt lat="43.456106116843664" lon="11.292260483858005"><ele>577.3333333333333</ele><time>2026-04-08T15:22:46.999Z</time></trkpt><trkpt lat="43.45625202468442" lon="11.29230491018479"><ele>576.6666666666666</ele><time>2026-04-08T15:22:47.999Z</time></trkpt><trkpt lat="43.456414201126634" lon="11.292349401033265"><ele>576.0</ele><time>2026-04-08T15:22:48.999Z</time></trkpt><trkpt lat="43.45659306381087" lon="11.292373785756434"><ele>576.0</ele><time>2026-04-08T15:22:49.999Z</time></trkpt><trkpt lat="43.45676997315288" lon="11.292354258158571"><ele>576.0</ele><time>2026-04-08T15:22:50.999Z</time></trkpt><trkpt lat="43.456953978603764" lon="11.292307735334955"><ele>576.0</ele><time>2026-04-08T15:22:51.999Z</time></trkpt><trkpt lat="43.457150336171814" lon="11.292258451746394"><ele>571.3333333333334</ele><time>2026-04-08T15:22:52.999Z</time></trkpt><trkpt lat="43.457341914741356" lon="11.29221981524383"><ele>566.6666666666667</ele><time>2026-04-08T15:22:53.999Z</time></trkpt><trkpt lat="43.457536789093716" lon="11.292183311865575"><ele>562.0</ele><time>2026-04-08T15:22:54.999Z</time></trkpt><trkpt lat="43.45772755283156" lon="11.292149662344636"><ele>562.0</ele><time>2026-04-08T15:22:55.999Z</time></trkpt><trkpt lat="43.4579066609186" lon="11.292115230734538"><ele>562.0</ele><time>2026-04-08T15:22:56.999Z</time></trkpt><trkpt lat="43.45808761346157" lon="11.292078673103104"><ele>562.0</ele><time>2026-04-08T15:22:57.999Z</time></trkpt><trkpt lat="43.45827063076971" lon="11.292029493856672"><ele>562.3333333333334</ele><time>2026-04-08T15:22:58.999Z</time></trkpt><trkpt lat="43.45845354546716" lon="11.29196349508444"><ele>562.6666666666666</ele><time>2026-04-08T15:22:59.999Z</time></trkpt><trkpt lat="43.45863659355834" lon="11.291877610745983"><ele>563.0</ele><time>2026-04-08T15:23:00.999Z</time></trkpt><trkpt lat="43.458822864324404" lon="11.29177880079455"><ele>565.0</ele><time>2026-04-08T15:23:01.999Z</time></trkpt><trkpt lat="43.45901492190789" lon="11.291680549136618"><ele>567.0</ele><time>2026-04-08T15:23:02.999Z</time></trkpt><trkpt lat="43.45921336785735" lon="11.291587020872013"><ele>569.0</ele><time>2026-04-08T15:23:03.999Z</time></trkpt><trkpt lat="43.459417132649584" lon="11.291495014563795"><ele>566.0</ele><time>2026-04-08T15:23:04.999Z</time></trkpt><trkpt lat="43.459618333062345" lon="11.291391909260641"><ele>563.0</ele><time>2026-04-08T15:23:05.999Z</time></trkpt><trkpt lat="43.45982044631634" lon="11.291289398176183"><ele>560.0</ele><time>2026-04-08T15:23:06.999Z</time></trkpt><trkpt lat="43.460017443934014" lon="11.291189685606888"><ele>560.0</ele><time>2026-04-08T15:23:07.999Z</time></trkpt><trkpt lat="43.460204744817716" lon="11.291094445037709"><ele>560.0</ele><time>2026-04-08T15:23:08.999Z</time></trkpt><trkpt lat="43.46038220021041" lon="11.29100425690285"><ele>560.0</ele><time>2026-04-08T15:23:09.999Z</time></trkpt><trkpt lat="43.46054986862929" lon="11.29091933573821"><ele>562.6666666666666</ele><time>2026-04-08T15:23:10.999Z</time></trkpt><trkpt lat="43.460710328181" lon="11.290831466763143"><ele>565.3333333333334</ele><time>2026-04-08T15:23:11.999Z</time></trkpt><trkpt lat="43.4608746183717" lon="11.29073795350574"><ele>568.0</ele><time>2026-04-08T15:23:12.999Z</time></trkpt><trkpt lat="43.46104167836892" lon="11.290641058877807"><ele>566.25</ele><time>2026-04-08T15:23:13.999Z</time></trkpt><trkpt lat="43.461198877157535" lon="11.29054644342866"><ele>564.5</ele><time>2026-04-08T15:23:14.999Z</time></trkpt><trkpt lat="43.46133511268792" lon="11.29047654782345"><ele>562.75</ele><time>2026-04-08T15:23:15.999Z</time></trkpt><trkpt lat="43.46144588263043" lon="11.290422856363046"><ele>561.0</ele><time>2026-04-08T15:23:16.999Z</time></trkpt><trkpt lat="43.46155804992356" lon="11.290367622091681"><ele>561.0</ele><time>2026-04-08T15:23:17.999Z</time></trkpt><trkpt lat="43.46168312956171" lon="11.290308382805534"><ele>561.0</ele><time>2026-04-08T15:23:18.999Z</time></trkpt><trkpt lat="43.46181902552895" lon="11.290255380825615"><ele>561.0</ele><time>2026-04-08T15:23:19.999Z</time></trkpt><trkpt lat="43.46194034782733" lon="11.290211804586852"><ele>561.0</ele><time>2026-04-08T15:23:20.999Z</time></trkpt><trkpt lat="43.462048057922836" lon="11.290183045565955"><ele>561.25</ele><time>2026-04-08T15:23:21.999Z</time></trkpt><trkpt lat="43.46215177396069" lon="11.290184523621189"><ele>561.5</ele><time>2026-04-08T15:23:22.999Z</time></trkpt><trkpt lat="43.46225782371122" lon="11.290166563243384"><ele>561.75</ele><time>2026-04-08T15:23:23.999Z</time></trkpt><trkpt lat="43.46239336403599" lon="11.290142521120146"><ele>562.0</ele><time>2026-04-08T15:23:24.999Z</time></trkpt><trkpt lat="43.46255186814722" lon="11.290106911728003"><ele>562.0</ele><time>2026-04-08T15:23:25.999Z</time></trkpt><trkpt lat="43.46273291679186" lon="11.290059004393074"><ele>562.0</ele><time>2026-04-08T15:23:26.999Z</time></trkpt><trkpt lat="43.46292440444423" lon="11.290005688220782"><ele>562.0</ele><time>2026-04-08T15:23:27.999Z</time></trkpt><trkpt lat="43.46310835020225" lon="11.289927708442141"><ele>562.6666666666667</ele><time>2026-04-08T15:23:28.999Z</time></trkpt><trkpt lat="43.46328609605244" lon="11.289892841612877"><ele>563.3333333333334</ele><time>2026-04-08T15:23:29.999Z</time></trkpt><trkpt lat="43.46346727845145" lon="11.289846115333992"><ele>564.0</ele><time>2026-04-08T15:23:30.999Z</time></trkpt><trkpt lat="43.46364703426915" lon="11.289793903460653"><ele>563.0</ele><time>2026-04-08T15:23:31.998Z</time></trkpt><trkpt lat="43.46381623373009" lon="11.289740630230739"><ele>562.0</ele><time>2026-04-08T15:23:32.998Z</time></trkpt><trkpt lat="43.4639637869317" lon="11.289691296788478"><ele>561.0</ele><time>2026-04-08T15:23:33.998Z</time></trkpt><trkpt lat="43.46409112748276" lon="11.289653753894457"><ele>561.0</ele><time>2026-04-08T15:23:34.998Z</time></trkpt><trkpt lat="43.46421033664267" lon="11.28961672259846"><ele>561.0</ele><time>2026-04-08T15:23:35.998Z</time></trkpt><trkpt lat="43.464327435139715" lon="11.289584736857044"><ele>561.0</ele><time>2026-04-08T15:23:36.998Z</time></trkpt><trkpt lat="43.464445897026735" lon="11.289551628461853"><ele>561.0</ele><time>2026-04-08T15:23:37.998Z</time></trkpt><trkpt lat="43.46457919733173" lon="11.289513957390984"><ele>562.0</ele><time>2026-04-08T15:23:38.998Z</time></trkpt><trkpt lat="43.46472836867008" lon="11.289466184433744"><ele>563.0</ele><time>2026-04-08T15:23:39.998Z</time></trkpt><trkpt lat="43.46489953230409" lon="11.289412089503154"><ele>564.0</ele><time>2026-04-08T15:23:40.998Z</time></trkpt><trkpt lat="43.465079514739266" lon="11.289359992325224"><ele>564.0</ele><time>2026-04-08T15:23:41.998Z</time></trkpt><trkpt lat="43.46525777413178" lon="11.289311040378932"><ele>564.0</ele><time>2026-04-08T15:23:42.998Z</time></trkpt><trkpt lat="43.46543276509978" lon="11.289264928223973"><ele>564.0</ele><time>2026-04-08T15:23:43.998Z</time></trkpt><trkpt lat="43.46559690816485" lon="11.289219254235134"><ele>564.75</ele><time>2026-04-08T15:23:44.998Z</time></trkpt><trkpt lat="43.465751448591305" lon="11.289169541921677"><ele>565.5</ele><time>2026-04-08T15:23:45.998Z</time></trkpt><trkpt lat="43.465892541182455" lon="11.289120877192252"><ele>566.25</ele><time>2026-04-08T15:23:46.998Z</time></trkpt><trkpt lat="43.46602363424772" lon="11.289070303699615"><ele>567.0</ele><time>2026-04-08T15:23:47.998Z</time></trkpt><trkpt lat="43.466164207083075" lon="11.289039810780334"><ele>566.0</ele><time>2026-04-08T15:23:48.998Z</time></trkpt><trkpt lat="43.46629209190757" lon="11.288966925095448"><ele>565.0</ele><time>2026-04-08T15:23:49.998Z</time></trkpt><trkpt lat="43.466424403298284" lon="11.288897132902015"><ele>564.0</ele><time>2026-04-08T15:23:50.998Z</time></trkpt><trkpt lat="43.46657485206155" lon="11.288798201108829"><ele>563.0</ele><time>2026-04-08T15:23:51.998Z</time></trkpt><trkpt lat="43.466726534812956" lon="11.2886988903629"><ele>564.0</ele><time>2026-04-08T15:23:52.998Z</time></trkpt><trkpt lat="43.466865403771976" lon="11.288613499255039"><ele>565.0</ele><time>2026-04-08T15:23:53.998Z</time></trkpt><trkpt lat="43.46698906969008" lon="11.28853177683442"><ele>566.0</ele><time>2026-04-08T15:23:54.998Z</time></trkpt><trkpt lat="43.46709666589534" lon="11.288440471996015"><ele>567.0</ele><time>2026-04-08T15:23:55.998Z</time></trkpt><trkpt lat="43.46719534179498" lon="11.288310144698643"><ele>567.0</ele><time>2026-04-08T15:23:56.998Z</time></trkpt><trkpt lat="43.467294933076275" lon="11.28813584898637"><ele>567.0</ele><time>2026-04-08T15:23:57.998Z</time></trkpt><trkpt lat="43.46738735929208" lon="11.287940351256697"><ele>567.0</ele><time>2026-04-08T15:23:58.998Z</time></trkpt><trkpt lat="43.467466769204925" lon="11.287768752590395"><ele>567.4</ele><time>2026-04-08T15:23:59.998Z</time></trkpt><trkpt lat="43.467539895478" lon="11.287623412178299"><ele>567.8000000000001</ele><time>2026-04-08T15:24:00.998Z</time></trkpt><trkpt lat="43.46759958776746" lon="11.287524028513623"><ele>568.2</ele><time>2026-04-08T15:24:01.998Z</time></trkpt><trkpt lat="43.4676696545607" lon="11.287431368536659"><ele>568.6</ele><time>2026-04-08T15:24:02.998Z</time></trkpt><trkpt lat="43.46777264852254" lon="11.287363873361429"><ele>569.0</ele><time>2026-04-08T15:24:03.998Z</time></trkpt><trkpt lat="43.4678935139931" lon="11.287277880230612"><ele>568.25</ele><time>2026-04-08T15:24:04.998Z</time></trkpt><trkpt lat="43.468021960945" lon="11.287227035731975"><ele>567.5</ele><time>2026-04-08T15:24:05.998Z</time></trkpt><trkpt lat="43.46813776525866" lon="11.287172495628939"><ele>566.75</ele><time>2026-04-08T15:24:06.998Z</time></trkpt><trkpt lat="43.468246572952545" lon="11.287097501737291"><ele>566.0</ele><time>2026-04-08T15:24:07.998Z</time></trkpt><trkpt lat="43.46835949799504" lon="11.286990967587611"><ele>566.0</ele><time>2026-04-08T15:24:08.998Z</time></trkpt><trkpt lat="43.468471145501745" lon="11.286817302943188"><ele>566.0</ele><time>2026-04-08T15:24:10Z</time></trkpt><trkpt lat="43.468568883981106" lon="11.286669039007306"><ele>566.0</ele><time>2026-04-08T15:24:11Z</time></trkpt><trkpt lat="43.468661874535535" lon="11.286536257311896"><ele>566.0</ele><time>2026-04-08T15:24:12Z</time></trkpt><trkpt lat="43.46875394442254" lon="11.286414880818832"><ele>566.0</ele><time>2026-04-08T15:24:13Z</time></trkpt><trkpt lat="43.46884901760401" lon="11.286312296071"><ele>566.0</ele><time>2026-04-08T15:24:14Z</time></trkpt><trkpt lat="43.4689562574294" lon="11.286229215604457"><ele>566.0</ele><time>2026-04-08T15:24:15Z</time></trkpt><trkpt lat="43.46907853761913" lon="11.286170543378713"><ele>566.0</ele><time>2026-04-08T15:24:16Z</time></trkpt><trkpt lat="43.4692145909693" lon="11.28613437772398"><ele>566.0</ele><time>2026-04-08T15:24:17Z</time></trkpt><trkpt lat="43.46936008363601" lon="11.286112426783442"><ele>566.0</ele><time>2026-04-08T15:24:18Z</time></trkpt><trkpt lat="43.46949359505663" lon="11.286096199720287"><ele>566.0</ele><time>2026-04-08T15:24:19Z</time></trkpt><trkpt lat="43.4696224887345" lon="11.286085617248244"><ele>566.0</ele><time>2026-04-08T15:24:20Z</time></trkpt><trkpt lat="43.46974960139058" lon="11.286064084591352"><ele>566.5</ele><time>2026-04-08T15:24:21Z</time></trkpt><trkpt lat="43.46988252201759" lon="11.286024315316766"><ele>567.0</ele><time>2026-04-08T15:24:22Z</time></trkpt><trkpt lat="43.470020243168605" lon="11.285963198823426"><ele>567.5</ele><time>2026-04-08T15:24:23Z</time></trkpt><trkpt lat="43.470127067979" lon="11.285902300316259"><ele>568.0</ele><time>2026-04-08T15:24:24Z</time></trkpt><trkpt lat="43.470223845571276" lon="11.285847752902962"><ele>568.0</ele><time>2026-04-08T15:24:25Z</time></trkpt><trkpt lat="43.47031865227791" lon="11.28579582842889"><ele>568.0</ele><time>2026-04-08T15:24:26Z</time></trkpt><trkpt lat="43.47042731699773" lon="11.285734700602527"><ele>568.0</ele><time>2026-04-08T15:24:27Z</time></trkpt><trkpt lat="43.47054777929588" lon="11.285669123032815"><ele>568.0</ele><time>2026-04-08T15:24:28Z</time></trkpt><trkpt lat="43.47066662639295" lon="11.28560362926737"><ele>566.5</ele><time>2026-04-08T15:24:29Z</time></trkpt><trkpt lat="43.470777733014" lon="11.28553848650303"><ele>565.0</ele><time>2026-04-08T15:24:30Z</time></trkpt><trkpt lat="43.47094273327748" lon="11.285461700424717"><ele>563.5</ele><time>2026-04-08T15:24:31Z</time></trkpt><trkpt lat="43.47107181459685" lon="11.285444081520009"><ele>562.0</ele><time>2026-04-08T15:24:32Z</time></trkpt><trkpt lat="43.4711985922952" lon="11.285439226873805"><ele>565.5</ele><time>2026-04-08T15:24:33Z</time></trkpt><trkpt lat="43.47132620024608" lon="11.285460278814922"><ele>569.0</ele><time>2026-04-08T15:24:33.999Z</time></trkpt><trkpt lat="43.47146699657569" lon="11.28548770661113"><ele>572.5</ele><time>2026-04-08T15:24:34.999Z</time></trkpt><trkpt lat="43.47161807041678" lon="11.28554180550942"><ele>576.0</ele><time>2026-04-08T15:24:35.999Z</time></trkpt><trkpt lat="43.471776339354435" lon="11.285584735098636"><ele>576.5</ele><time>2026-04-08T15:24:36.999Z</time></trkpt><trkpt lat="43.47194282357772" lon="11.285638664905434"><ele>577.0</ele><time>2026-04-08T15:24:37.999Z</time></trkpt><trkpt lat="43.472082830986274" lon="11.285678592386388"><ele>577.5</ele><time>2026-04-08T15:24:38.999Z</time></trkpt><trkpt lat="43.47220397285658" lon="11.285713294254467"><ele>578.0</ele><time>2026-04-08T15:24:39.999Z</time></trkpt><trkpt lat="43.47231516789883" lon="11.285747603192625"><ele>578.0</ele><time>2026-04-08T15:24:40.999Z</time></trkpt><trkpt lat="43.47241441491571" lon="11.285782780586832"><ele>578.0</ele><time>2026-04-08T15:24:41.999Z</time></trkpt><trkpt lat="43.47252573869099" lon="11.285821635513866"><ele>578.0</ele><time>2026-04-08T15:24:42.999Z</time></trkpt><trkpt lat="43.47265223969024" lon="11.285863836478523"><ele>578.0</ele><time>2026-04-08T15:24:43.999Z</time></trkpt><trkpt lat="43.472763046016034" lon="11.285950089774119"><ele>578.0</ele><time>2026-04-08T15:24:44.999Z</time></trkpt><trkpt lat="43.47285436224926" lon="11.286070122064213"><ele>578.0</ele><time>2026-04-08T15:24:45.999Z</time></trkpt><trkpt lat="43.47293653124859" lon="11.28622642551416"><ele>578.0</ele><time>2026-04-08T15:24:46.999Z</time></trkpt><trkpt lat="43.47301603995616" lon="11.28641529766337"><ele>578.0</ele><time>2026-04-08T15:24:47.999Z</time></trkpt><trkpt lat="43.47307345989482" lon="11.286613165422912"><ele>576.25</ele><time>2026-04-08T15:24:48.999Z</time></trkpt><trkpt lat="43.47310393852236" lon="11.28680646340362"><ele>574.5</ele><time>2026-04-08T15:24:49.999Z</time></trkpt><trkpt lat="43.473105650135935" lon="11.286995194277196"><ele>572.75</ele><time>2026-04-08T15:24:50.999Z</time></trkpt><trkpt lat="43.47311812030824" lon="11.287212671635508"><ele>571.0</ele><time>2026-04-08T15:24:51.999Z</time></trkpt><trkpt lat="43.47308074675594" lon="11.287457058793866"><ele>570.6666666666667</ele><time>2026-04-08T15:24:52.999Z</time></trkpt><trkpt lat="43.47303848203549" lon="11.287711552148254"><ele>570.3333333333334</ele><time>2026-04-08T15:24:53.999Z</time></trkpt><trkpt lat="43.47300289354524" lon="11.287944334463173"><ele>570.0</ele><time>2026-04-08T15:24:54.999Z</time></trkpt><trkpt lat="43.47296941212407" lon="11.288161954873756"><ele>569.25</ele><time>2026-04-08T15:24:55.999Z</time></trkpt><trkpt lat="43.4729470631681" lon="11.288340614827131"><ele>568.5</ele><time>2026-04-08T15:24:56.999Z</time></trkpt><trkpt lat="43.47294369012128" lon="11.288500153704732"><ele>567.75</ele><time>2026-04-08T15:24:57.999Z</time></trkpt><trkpt lat="43.47296940189295" lon="11.288651191716443"><ele>567.0</ele><time>2026-04-08T15:24:58.999Z</time></trkpt><trkpt lat="43.47302965520511" lon="11.288775478221188"><ele>567.0</ele><time>2026-04-08T15:24:59.999Z</time></trkpt><trkpt lat="43.47311966115699" lon="11.28885959136065"><ele>567.0</ele><time>2026-04-08T15:25:00.999Z</time></trkpt><trkpt lat="43.47324173946425" lon="11.288864528747075"><ele>567.0</ele><time>2026-04-08T15:25:01.999Z</time></trkpt><trkpt lat="43.47334977116023" lon="11.288833844873809"><ele>567.0</ele><time>2026-04-08T15:25:02.999Z</time></trkpt><trkpt lat="43.47345115077842" lon="11.288748227746686"><ele>567.0</ele><time>2026-04-08T15:25:03.999Z</time></trkpt><trkpt lat="43.473536390948574" lon="11.28861697836759"><ele>567.0</ele><time>2026-04-08T15:25:04.999Z</time></trkpt><trkpt lat="43.47360055975462" lon="11.288453520431311"><ele>567.0</ele><time>2026-04-08T15:25:05.999Z</time></trkpt><trkpt lat="43.4736548978066" lon="11.288279908713909"><ele>567.0</ele><time>2026-04-08T15:25:06.999Z</time></trkpt><trkpt lat="43.4737195642964" lon="11.2880863209021"><ele>562.3333333333334</ele><time>2026-04-08T15:25:07.999Z</time></trkpt><trkpt lat="43.473786598577064" lon="11.287864262658315"><ele>557.6666666666667</ele><time>2026-04-08T15:25:08.999Z</time></trkpt><trkpt lat="43.473836795087685" lon="11.287603325401552"><ele>553.0</ele><time>2026-04-08T15:25:09.999Z</time></trkpt><trkpt lat="43.473876036961116" lon="11.287347091500726"><ele>553.3333333333334</ele><time>2026-04-08T15:25:10.999Z</time></trkpt><trkpt lat="43.47391059402684" lon="11.287106797511628"><ele>553.6666666666666</ele><time>2026-04-08T15:25:11.999Z</time></trkpt><trkpt lat="43.473940976657104" lon="11.286870974251396"><ele>554.0</ele><time>2026-04-08T15:25:12.999Z</time></trkpt><trkpt lat="43.473970419510685" lon="11.286650093977162"><ele>554.0</ele><time>2026-04-08T15:25:13.999Z</time></trkpt><trkpt lat="43.47400417297874" lon="11.286440548817"><ele>554.0</ele><time>2026-04-08T15:25:14.999Z</time></trkpt><trkpt lat="43.474044252091" lon="11.28625692687575"><ele>554.0</ele><time>2026-04-08T15:25:15.999Z</time></trkpt><trkpt lat="43.474100058346856" lon="11.286098680244278"><ele>554.0</ele><time>2026-04-08T15:25:16.999Z</time></trkpt><trkpt lat="43.47417544128004" lon="11.285969908912053"><ele>554.2</ele><time>2026-04-08T15:25:17.999Z</time></trkpt><trkpt lat="43.47427086219034" lon="11.285900776352827"><ele>554.4</ele><time>2026-04-08T15:25:18.999Z</time></trkpt><trkpt lat="43.474381591109434" lon="11.285918607404135"><ele>554.6</ele><time>2026-04-08T15:25:19.999Z</time></trkpt><trkpt lat="43.47448405568099" lon="11.285936444899697"><ele>554.8</ele><time>2026-04-08T15:25:20.999Z</time></trkpt><trkpt lat="43.47456601065317" lon="11.286039494204035"><ele>555.0</ele><time>2026-04-08T15:25:21.999Z</time></trkpt><trkpt lat="43.474593168165995" lon="11.286198860821859"><ele>557.5</ele><time>2026-04-08T15:25:22.999Z</time></trkpt><trkpt lat="43.47460942160854" lon="11.28637551723251"><ele>560.0</ele><time>2026-04-08T15:25:23.999Z</time></trkpt><trkpt lat="43.47463758892367" lon="11.286582822156578"><ele>562.5</ele><time>2026-04-08T15:25:24.999Z</time></trkpt><trkpt lat="43.474657641799965" lon="11.286811015696237"><ele>565.0</ele><time>2026-04-08T15:25:25.999Z</time></trkpt><trkpt lat="43.47469662389019" lon="11.287050031932605"><ele>562.3333333333334</ele><time>2026-04-08T15:25:26.999Z</time></trkpt><trkpt lat="43.47474080823215" lon="11.287289414941961"><ele>559.6666666666666</ele><time>2026-04-08T15:25:27.999Z</time></trkpt><trkpt lat="43.47478724003164" lon="11.287534311930754"><ele>557.0</ele><time>2026-04-08T15:25:28.999Z</time></trkpt><trkpt lat="43.47483360238276" lon="11.287763668138536"><ele>557.0</ele><time>2026-04-08T15:25:29.999Z</time></trkpt><trkpt lat="43.47488206630105" lon="11.287969279887408"><ele>557.0</ele><time>2026-04-08T15:25:30.999Z</time></trkpt><trkpt lat="43.474938077781445" lon="11.288139698003201"><ele>557.0</ele><time>2026-04-08T15:25:31.999Z</time></trkpt><trkpt lat="43.47500880183027" lon="11.288283869779175"><ele>557.0</ele><time>2026-04-08T15:25:32.999Z</time></trkpt><trkpt lat="43.47509783055927" lon="11.28840486481333"><ele>555.0</ele><time>2026-04-08T15:25:33.999Z</time></trkpt><trkpt lat="43.47521738217031" lon="11.288502350046915"><ele>553.0</ele><time>2026-04-08T15:25:34.999Z</time></trkpt><trkpt lat="43.475368492943055" lon="11.288570527909398"><ele>551.0</ele><time>2026-04-08T15:25:35.999Z</time></trkpt><trkpt lat="43.475534578766734" lon="11.28861592084783"><ele>551.0</ele><time>2026-04-08T15:25:36.999Z</time></trkpt><trkpt lat="43.475688027334236" lon="11.288657532744809"><ele>551.0</ele><time>2026-04-08T15:25:37.999Z</time></trkpt><trkpt lat="43.47582329792514" lon="11.288731916651276"><ele>551.0</ele><time>2026-04-08T15:25:38.999Z</time></trkpt><trkpt lat="43.47595533514167" lon="11.288790305423584"><ele>551.0</ele><time>2026-04-08T15:25:39.999Z</time></trkpt><trkpt lat="43.47604063117004" lon="11.288940589053132"><ele>549.25</ele><time>2026-04-08T15:25:40.999Z</time></trkpt><trkpt lat="43.4761222613595" lon="11.289086511394771"><ele>547.5</ele><time>2026-04-08T15:25:41.999Z</time></trkpt><trkpt lat="43.47618282049834" lon="11.289264294006612"><ele>545.75</ele><time>2026-04-08T15:25:42.999Z</time></trkpt><trkpt lat="43.47622703683897" lon="11.28947041253694"><ele>544.0</ele><time>2026-04-08T15:25:43.999Z</time></trkpt><trkpt lat="43.47628652167395" lon="11.289700043920961"><ele>544.6666666666667</ele><time>2026-04-08T15:25:44.999Z</time></trkpt><trkpt lat="43.4763289024603" lon="11.289950946677028"><ele>545.3333333333334</ele><time>2026-04-08T15:25:45.999Z</time></trkpt><trkpt lat="43.47637409224601" lon="11.290202284996665"><ele>546.0</ele><time>2026-04-08T15:25:46.999Z</time></trkpt><trkpt lat="43.47641715483014" lon="11.290434244669983"><ele>546.0</ele><time>2026-04-08T15:25:47.999Z</time></trkpt><trkpt lat="43.47645818785882" lon="11.290642807165783"><ele>546.0</ele><time>2026-04-08T15:25:48.999Z</time></trkpt><trkpt lat="43.47649827007362" lon="11.29083331156098"><ele>546.0</ele><time>2026-04-08T15:25:49.999Z</time></trkpt><trkpt lat="43.4764980648553" lon="11.290986793116236"><ele>546.0</ele><time>2026-04-08T15:25:50.999Z</time></trkpt><trkpt lat="43.47650054497008" lon="11.29109685375752"><ele>546.0</ele><time>2026-04-08T15:25:51.999Z</time></trkpt><trkpt lat="43.476442726316115" lon="11.291190136943998"><ele>546.0</ele><time>2026-04-08T15:25:52.999Z</time></trkpt><trkpt lat="43.47633997578972" lon="11.291240880934454"><ele>546.0</ele><time>2026-04-08T15:25:53.999Z</time></trkpt><trkpt lat="43.47622353332567" lon="11.29128976676829"><ele>546.0</ele><time>2026-04-08T15:25:54.998Z</time></trkpt><trkpt lat="43.476098149138274" lon="11.291360514518269"><ele>545.6666666666666</ele><time>2026-04-08T15:25:55.998Z</time></trkpt><trkpt lat="43.47597152861717" lon="11.291452140887623"><ele>545.3333333333333</ele><time>2026-04-08T15:25:56.998Z</time></trkpt><trkpt lat="43.475854595414255" lon="11.291601610470606"><ele>545.0</ele><time>2026-04-08T15:25:57.998Z</time></trkpt><trkpt lat="43.475739279023095" lon="11.291792273040157"><ele>545.0</ele><time>2026-04-08T15:25:58.998Z</time></trkpt><trkpt lat="43.47563944168675" lon="11.291977352044894"><ele>545.0</ele><time>2026-04-08T15:25:59.998Z</time></trkpt><trkpt lat="43.475538750588164" lon="11.292160605397777"><ele>545.0</ele><time>2026-04-08T15:26:00.998Z</time></trkpt><trkpt lat="43.475455001324356" lon="11.292345753519186"><ele>542.0</ele><time>2026-04-08T15:26:01.998Z</time></trkpt><trkpt lat="43.4753899365261" lon="11.292546087610262"><ele>539.0</ele><time>2026-04-08T15:26:02.998Z</time></trkpt><trkpt lat="43.47534391213043" lon="11.292778472825214"><ele>536.0</ele><time>2026-04-08T15:26:03.998Z</time></trkpt><trkpt lat="43.475317414959726" lon="11.293041343424656"><ele>537.3333333333333</ele><time>2026-04-08T15:26:04.998Z</time></trkpt><trkpt lat="43.47530449611435" lon="11.293325376235831"><ele>538.6666666666666</ele><time>2026-04-08T15:26:05.998Z</time></trkpt><trkpt lat="43.47528602090146" lon="11.293631259317243"><ele>540.0</ele><time>2026-04-08T15:26:06.998Z</time></trkpt><trkpt lat="43.475258748430626" lon="11.293932503158722"><ele>542.6666666666666</ele><time>2026-04-08T15:26:07.998Z</time></trkpt><trkpt lat="43.47523415159475" lon="11.29423144754532"><ele>545.3333333333333</ele><time>2026-04-08T15:26:08.998Z</time></trkpt><trkpt lat="43.4752070710521" lon="11.294546782533084"><ele>548.0</ele><time>2026-04-08T15:26:09.998Z</time></trkpt><trkpt lat="43.47518480816358" lon="11.294834223823411"><ele>549.0</ele><time>2026-04-08T15:26:10.998Z</time></trkpt><trkpt lat="43.47516497994775" lon="11.295099905828247"><ele>550.0</ele><time>2026-04-08T15:26:11.998Z</time></trkpt><trkpt lat="43.475159458096634" lon="11.295343299460505"><ele>551.0</ele><time>2026-04-08T15:26:12.998Z</time></trkpt><trkpt lat="43.475178674780146" lon="11.295582227480253"><ele>550.3333333333333</ele><time>2026-04-08T15:26:13.998Z</time></trkpt><trkpt lat="43.475231284415166" lon="11.295819613882935"><ele>549.6666666666666</ele><time>2026-04-08T15:26:15Z</time></trkpt><trkpt lat="43.475309848663464" lon="11.296044028615446"><ele>549.0</ele><time>2026-04-08T15:26:16Z</time></trkpt><trkpt lat="43.47541472045567" lon="11.296256035519699"><ele>553.3333333333334</ele><time>2026-04-08T15:26:17Z</time></trkpt><trkpt lat="43.47554880132452" lon="11.296436722738381"><ele>557.6666666666667</ele><time>2026-04-08T15:26:18Z</time></trkpt><trkpt lat="43.475703678681654" lon="11.296581604307699"><ele>562.0</ele><time>2026-04-08T15:26:19Z</time></trkpt><trkpt lat="43.475860770351616" lon="11.296678783367506"><ele>562.0</ele><time>2026-04-08T15:26:20Z</time></trkpt><trkpt lat="43.47600280363299" lon="11.29674438305017"><ele>562.0</ele><time>2026-04-08T15:26:21Z</time></trkpt><trkpt lat="43.47612768808474" lon="11.296789784904119"><ele>562.0</ele><time>2026-04-08T15:26:22Z</time></trkpt><trkpt lat="43.47624471172111" lon="11.296835332014913"><ele>562.0</ele><time>2026-04-08T15:26:23Z</time></trkpt><trkpt lat="43.47635716000659" lon="11.296890090254553"><ele>563.25</ele><time>2026-04-08T15:26:24Z</time></trkpt><trkpt lat="43.47646231828069" lon="11.296948516765339"><ele>564.5</ele><time>2026-04-08T15:26:25Z</time></trkpt><trkpt lat="43.476563165334746" lon="11.297028779700385"><ele>565.75</ele><time>2026-04-08T15:26:26Z</time></trkpt><trkpt lat="43.47665824213508" lon="11.297120604049567"><ele>567.0</ele><time>2026-04-08T15:26:27Z</time></trkpt><trkpt lat="43.47671637624969" lon="11.297318076744306"><ele>567.0</ele><time>2026-04-08T15:26:28Z</time></trkpt><trkpt lat="43.47680655712479" lon="11.29747698005698"><ele>567.0</ele><time>2026-04-08T15:26:29Z</time></trkpt><trkpt lat="43.476872823713975" lon="11.297674822888562"><ele>567.0</ele><time>2026-04-08T15:26:30Z</time></trkpt><trkpt lat="43.476943960035335" lon="11.29788627019406"><ele>568.0</ele><time>2026-04-08T15:26:31Z</time></trkpt><trkpt lat="43.47701696868386" lon="11.298127880159388"><ele>569.0</ele><time>2026-04-08T15:26:32Z</time></trkpt><trkpt lat="43.47709910914333" lon="11.298399314484763"><ele>570.0</ele><time>2026-04-08T15:26:33Z</time></trkpt><trkpt lat="43.47717946317361" lon="11.298666931887452"><ele>570.0</ele><time>2026-04-08T15:26:34Z</time></trkpt><trkpt lat="43.477242732187506" lon="11.298886211136441"><ele>570.0</ele><time>2026-04-08T15:26:35Z</time></trkpt><trkpt lat="43.47729513444416" lon="11.299099311682355"><ele>570.0</ele><time>2026-04-08T15:26:36Z</time></trkpt><trkpt lat="43.477308118058104" lon="11.299302978015954"><ele>569.3333333333334</ele><time>2026-04-08T15:26:37Z</time></trkpt><trkpt lat="43.47728849907711" lon="11.29951102779329"><ele>568.6666666666667</ele><time>2026-04-08T15:26:38Z</time></trkpt><trkpt lat="43.47724004819507" lon="11.299743053231484"><ele>568.0</ele><time>2026-04-08T15:26:39Z</time></trkpt><trkpt lat="43.47719458466966" lon="11.300005681620608"><ele>569.3333333333334</ele><time>2026-04-08T15:26:40Z</time></trkpt><trkpt lat="43.47713305205928" lon="11.300263763532481"><ele>570.6666666666666</ele><time>2026-04-08T15:26:41Z</time></trkpt><trkpt lat="43.47707462759032" lon="11.30051939787194"><ele>572.0</ele><time>2026-04-08T15:26:42Z</time></trkpt><trkpt lat="43.477020853719964" lon="11.300769328897625"><ele>575.75</ele><time>2026-04-08T15:26:43Z</time></trkpt><trkpt lat="43.47697491009361" lon="11.300989843571637"><ele>579.5</ele><time>2026-04-08T15:26:44Z</time></trkpt><trkpt lat="43.47695269111183" lon="11.301169602795287"><ele>583.25</ele><time>2026-04-08T15:26:45Z</time></trkpt><trkpt lat="43.476974942986764" lon="11.301334755231588"><ele>587.0</ele><time>2026-04-08T15:26:46Z</time></trkpt><trkpt lat="43.477046856119856" lon="11.301495542957344"><ele>585.0</ele><time>2026-04-08T15:26:47Z</time></trkpt><trkpt lat="43.47716698521619" lon="11.301638951297292"><ele>583.0</ele><time>2026-04-08T15:26:48Z</time></trkpt><trkpt lat="43.47732755895542" lon="11.30175092956017"><ele>581.0</ele><time>2026-04-08T15:26:49Z</time></trkpt><trkpt lat="43.47750371738709" lon="11.3018455032491"><ele>581.0</ele><time>2026-04-08T15:26:50Z</time></trkpt><trkpt lat="43.47767871921427" lon="11.301945455873188"><ele>581.0</ele><time>2026-04-08T15:26:51Z</time></trkpt><trkpt lat="43.47783464038102" lon="11.302058793470291"><ele>581.0</ele><time>2026-04-08T15:26:52Z</time></trkpt><trkpt lat="43.47795604940428" lon="11.302212611900982"><ele>583.3333333333333</ele><time>2026-04-08T15:26:52.999Z</time></trkpt><trkpt lat="43.47805898040094" lon="11.302360129573527"><ele>585.6666666666666</ele><time>2026-04-08T15:26:53.999Z</time></trkpt><trkpt lat="43.478137215797545" lon="11.302536393194265"><ele>588.0</ele><time>2026-04-08T15:26:54.999Z</time></trkpt><trkpt lat="43.478199157483374" lon="11.302751808045823"><ele>588.0</ele><time>2026-04-08T15:26:55.999Z</time></trkpt><trkpt lat="43.47825568278976" lon="11.302994396368073"><ele>588.0</ele><time>2026-04-08T15:26:56.999Z</time></trkpt><trkpt lat="43.47832883029627" lon="11.303240958812738"><ele>588.0</ele><time>2026-04-08T15:26:57.999Z</time></trkpt><trkpt lat="43.478415879243485" lon="11.303481294413087"><ele>587.6666666666666</ele><time>2026-04-08T15:26:58.999Z</time></trkpt><trkpt lat="43.47854977599541" lon="11.303700629797206"><ele>587.3333333333333</ele><time>2026-04-08T15:26:59.999Z</time></trkpt><trkpt lat="43.4787105688629" lon="11.303907354779438"><ele>587.0</ele><time>2026-04-08T15:27:00.999Z</time></trkpt><trkpt lat="43.4788488126431" lon="11.304108143452684"><ele>586.0</ele><time>2026-04-08T15:27:01.999Z</time></trkpt><trkpt lat="43.47896962991739" lon="11.304299239452043"><ele>585.0</ele><time>2026-04-08T15:27:02.999Z</time></trkpt><trkpt lat="43.47908605756557" lon="11.30448943708571"><ele>584.0</ele><time>2026-04-08T15:27:03.999Z</time></trkpt><trkpt lat="43.479220597248556" lon="11.304673712086341"><ele>583.6666666666666</ele><time>2026-04-08T15:27:04.999Z</time></trkpt><trkpt lat="43.4793425590433" lon="11.304880318620118"><ele>583.3333333333334</ele><time>2026-04-08T15:27:05.999Z</time></trkpt><trkpt lat="43.47948618991204" lon="11.30507005457067"><ele>583.0</ele><time>2026-04-08T15:27:06.999Z</time></trkpt><trkpt lat="43.47964655168357" lon="11.3052372886387"><ele>581.6666666666667</ele><time>2026-04-08T15:27:07.999Z</time></trkpt><trkpt lat="43.47981164232433" lon="11.305399516853177"><ele>580.3333333333334</ele><time>2026-04-08T15:27:08.999Z</time></trkpt><trkpt lat="43.479991044052845" lon="11.305557840572556"><ele>579.0</ele><time>2026-04-08T15:27:09.999Z</time></trkpt><trkpt lat="43.480166678486285" lon="11.305683445650134"><ele>578.75</ele><time>2026-04-08T15:27:10.999Z</time></trkpt><trkpt lat="43.48029328257629" lon="11.305735133058537"><ele>578.5</ele><time>2026-04-08T15:27:11.999Z</time></trkpt><trkpt lat="43.48041668982859" lon="11.30576341552091"><ele>578.25</ele><time>2026-04-08T15:27:12.999Z</time></trkpt><trkpt lat="43.48052839025429" lon="11.30574268889752"><ele>578.0</ele><time>2026-04-08T15:27:13.999Z</time></trkpt><trkpt lat="43.48064131084344" lon="11.305659180850071"><ele>577.75</ele><time>2026-04-08T15:27:14.999Z</time></trkpt><trkpt lat="43.4807473027972" lon="11.305553085761726"><ele>577.5</ele><time>2026-04-08T15:27:15.999Z</time></trkpt><trkpt lat="43.480849899040145" lon="11.305515397987783"><ele>577.25</ele><time>2026-04-08T15:27:16.999Z</time></trkpt><trkpt lat="43.48095318188694" lon="11.305551828768191"><ele>577.0</ele><time>2026-04-08T15:27:17.999Z</time></trkpt><trkpt lat="43.481037314213474" lon="11.305648142582996"><ele>578.25</ele><time>2026-04-08T15:27:18.999Z</time></trkpt><trkpt lat="43.48108405316457" lon="11.305806271980769"><ele>579.5</ele><time>2026-04-08T15:27:19.999Z</time></trkpt><trkpt lat="43.481090073696265" lon="11.305978554959971"><ele>580.75</ele><time>2026-04-08T15:27:20.999Z</time></trkpt><trkpt lat="43.481031512290436" lon="11.306152582448027"><ele>582.0</ele><time>2026-04-08T15:27:21.999Z</time></trkpt><trkpt lat="43.48100381330973" lon="11.306363791682294"><ele>583.6666666666666</ele><time>2026-04-08T15:27:22.999Z</time></trkpt><trkpt lat="43.48099108471973" lon="11.306568855613932"><ele>585.3333333333333</ele><time>2026-04-08T15:27:23.999Z</time></trkpt><trkpt lat="43.48099942160202" lon="11.306831692045531"><ele>587.0</ele><time>2026-04-08T15:27:24.999Z</time></trkpt><trkpt lat="43.48102325423228" lon="11.307113735334712"><ele>589.3333333333333</ele><time>2026-04-08T15:27:25.999Z</time></trkpt><trkpt lat="43.48104768356212" lon="11.30737699947254"><ele>591.6666666666666</ele><time>2026-04-08T15:27:26.999Z</time></trkpt><trkpt lat="43.48109545753192" lon="11.307639472397241"><ele>594.0</ele><time>2026-04-08T15:27:27.999Z</time></trkpt><trkpt lat="43.481155588601275" lon="11.307922728864519"><ele>596.0</ele><time>2026-04-08T15:27:28.999Z</time></trkpt><trkpt lat="43.48122442412497" lon="11.30817789083519"><ele>598.0</ele><time>2026-04-08T15:27:29.999Z</time></trkpt><trkpt lat="43.48131545452948" lon="11.308402688941435"><ele>600.0</ele><time>2026-04-08T15:27:30.999Z</time></trkpt><trkpt lat="43.481416383449925" lon="11.30861685671455"><ele>600.6666666666666</ele><time>2026-04-08T15:27:31.999Z</time></trkpt><trkpt lat="43.48146872374911" lon="11.30885132034235"><ele>601.3333333333333</ele><time>2026-04-08T15:27:32.999Z</time></trkpt><trkpt lat="43.48151456144948" lon="11.309103664526052"><ele>602.0</ele><time>2026-04-08T15:27:33.999Z</time></trkpt><trkpt lat="43.481504363175254" lon="11.309370832704497"><ele>602.6666666666666</ele><time>2026-04-08T15:27:34.999Z</time></trkpt><trkpt lat="43.48148430231449" lon="11.309640454383759"><ele>603.3333333333334</ele><time>2026-04-08T15:27:35.999Z</time></trkpt><trkpt lat="43.48146184777936" lon="11.309901460140061"><ele>604.0</ele><time>2026-04-08T15:27:36.999Z</time></trkpt><trkpt lat="43.4814293638979" lon="11.310131903827628"><ele>604.5</ele><time>2026-04-08T15:27:37.999Z</time></trkpt><trkpt lat="43.481369720485645" lon="11.310295708940309"><ele>605.0</ele><time>2026-04-08T15:27:38.999Z</time></trkpt><trkpt lat="43.481269165204296" lon="11.310418337038579"><ele>605.5</ele><time>2026-04-08T15:27:39.999Z</time></trkpt><trkpt lat="43.481152195025736" lon="11.310556452052891"><ele>606.0</ele><time>2026-04-08T15:27:40.999Z</time></trkpt><trkpt lat="43.481080714348266" lon="11.31069519932081"><ele>606.0</ele><time>2026-04-08T15:27:41.999Z</time></trkpt><trkpt lat="43.48104741334453" lon="11.31085392713969"><ele>606.0</ele><time>2026-04-08T15:27:42.999Z</time></trkpt><trkpt lat="43.48105354391422" lon="11.31102443815605"><ele>606.0</ele><time>2026-04-08T15:27:43.999Z</time></trkpt><trkpt lat="43.481116235953145" lon="11.311201224132336"><ele>606.0</ele><time>2026-04-08T15:27:44.999Z</time></trkpt><trkpt lat="43.481230733369834" lon="11.311357583955184"><ele>606.0</ele><time>2026-04-08T15:27:45.999Z</time></trkpt><trkpt lat="43.48137648363062" lon="11.3115047079886"><ele>606.0</ele><time>2026-04-08T15:27:46.999Z</time></trkpt><trkpt lat="43.48153082147509" lon="11.311670675414126"><ele>606.0</ele><time>2026-04-08T15:27:47.999Z</time></trkpt><trkpt lat="43.48166829052918" lon="11.311842017397575"><ele>606.0</ele><time>2026-04-08T15:27:48.999Z</time></trkpt><trkpt lat="43.48179911935895" lon="11.311992859413158"><ele>606.0</ele><time>2026-04-08T15:27:49.999Z</time></trkpt><trkpt lat="43.48194800462261" lon="11.312098894326764"><ele>606.0</ele><time>2026-04-08T15:27:50.999Z</time></trkpt><trkpt lat="43.482134691119896" lon="11.312164491724488"><ele>605.3333333333334</ele><time>2026-04-08T15:27:51.999Z</time></trkpt><trkpt lat="43.48233777253249" lon="11.312196517240173"><ele>604.6666666666667</ele><time>2026-04-08T15:27:52.999Z</time></trkpt><trkpt lat="43.482524008080404" lon="11.312225329772387"><ele>604.0</ele><time>2026-04-08T15:27:53.999Z</time></trkpt><trkpt lat="43.482678509278976" lon="11.312313743879121"><ele>604.0</ele><time>2026-04-08T15:27:54.999Z</time></trkpt><trkpt lat="43.48281103046528" lon="11.312439077686959"><ele>604.0</ele><time>2026-04-08T15:27:55.999Z</time></trkpt><trkpt lat="43.482928700368305" lon="11.312595339925023"><ele>604.0</ele><time>2026-04-08T15:27:56.999Z</time></trkpt><trkpt lat="43.48305614475192" lon="11.312778380012041"><ele>602.3333333333334</ele><time>2026-04-08T15:27:57.999Z</time></trkpt><trkpt lat="43.483190190490134" lon="11.312939917246162"><ele>600.6666666666666</ele><time>2026-04-08T15:27:58.999Z</time></trkpt><trkpt lat="43.483323742657255" lon="11.313092654084121"><ele>599.0</ele><time>2026-04-08T15:27:59.999Z</time></trkpt><trkpt lat="43.48346603699778" lon="11.313194108003195"><ele>599.0</ele><time>2026-04-08T15:28:00.999Z</time></trkpt><trkpt lat="43.48362323257134" lon="11.313266636482899"><ele>599.0</ele><time>2026-04-08T15:28:01.999Z</time></trkpt><trkpt lat="43.483798732394476" lon="11.31330122609713"><ele>599.0</ele><time>2026-04-08T15:28:02.999Z</time></trkpt><trkpt lat="43.48398281182165" lon="11.31331466842588"><ele>601.6666666666666</ele><time>2026-04-08T15:28:03.999Z</time></trkpt><trkpt lat="43.484151068422356" lon="11.313325079427056"><ele>604.3333333333334</ele><time>2026-04-08T15:28:04.999Z</time></trkpt><trkpt lat="43.48430349741993" lon="11.313389150448447"><ele>607.0</ele><time>2026-04-08T15:28:05.999Z</time></trkpt><trkpt lat="43.484429626233634" lon="11.313476926346402"><ele>607.0</ele><time>2026-04-08T15:28:06.999Z</time></trkpt><trkpt lat="43.484530367255516" lon="11.313597254353878"><ele>607.0</ele><time>2026-04-08T15:28:07.999Z</time></trkpt><trkpt lat="43.484611231046244" lon="11.313744082294912"><ele>607.0</ele><time>2026-04-08T15:28:08.999Z</time></trkpt><trkpt lat="43.48467727300746" lon="11.31392498322278"><ele>607.0</ele><time>2026-04-08T15:28:09.998Z</time></trkpt><trkpt lat="43.48470714252206" lon="11.314132536828224"><ele>606.0</ele><time>2026-04-08T15:28:10.998Z</time></trkpt><trkpt lat="43.48472661919553" lon="11.314376032028603"><ele>605.0</ele><time>2026-04-08T15:28:11.998Z</time></trkpt><trkpt lat="43.484757492896534" lon="11.314638859139087"><ele>604.0</ele><time>2026-04-08T15:28:12.998Z</time></trkpt><trkpt lat="43.484810961725714" lon="11.314866847723096"><ele>604.0</ele><time>2026-04-08T15:28:13.998Z</time></trkpt><trkpt lat="43.48486574010792" lon="11.315078407675621"><ele>604.0</ele><time>2026-04-08T15:28:14.998Z</time></trkpt><trkpt lat="43.48494097952747" lon="11.315260432496828"><ele>604.0</ele><time>2026-04-08T15:28:15.998Z</time></trkpt><trkpt lat="43.485035537396755" lon="11.315407629324092"><ele>604.0</ele><time>2026-04-08T15:28:16.998Z</time></trkpt><trkpt lat="43.485160496626385" lon="11.315517740846404"><ele>604.0</ele><time>2026-04-08T15:28:17.998Z</time></trkpt><trkpt lat="43.485302015548726" lon="11.315599409834306"><ele>604.0</ele><time>2026-04-08T15:28:18.998Z</time></trkpt><trkpt lat="43.485421187366406" lon="11.315691679689554"><ele>604.0</ele><time>2026-04-08T15:28:19.998Z</time></trkpt><trkpt lat="43.48547622143129" lon="11.31584286387772"><ele>604.5</ele><time>2026-04-08T15:28:21Z</time></trkpt><trkpt lat="43.48548501484182" lon="11.316001842683466"><ele>605.0</ele><time>2026-04-08T15:28:22Z</time></trkpt><trkpt lat="43.48548394632169" lon="11.316201640048451"><ele>605.5</ele><time>2026-04-08T15:28:23Z</time></trkpt><trkpt lat="43.48549698845806" lon="11.316432402844608"><ele>606.0</ele><time>2026-04-08T15:28:24Z</time></trkpt><trkpt lat="43.48554902523478" lon="11.316672636069175"><ele>606.0</ele><time>2026-04-08T15:28:25Z</time></trkpt><trkpt lat="43.485614641146135" lon="11.316899636938189"><ele>606.0</ele><time>2026-04-08T15:28:26Z</time></trkpt><trkpt lat="43.48569700741962" lon="11.317095540784706"><ele>606.0</ele><time>2026-04-08T15:28:27Z</time></trkpt><trkpt lat="43.485810702729175" lon="11.317273266140855"><ele>603.75</ele><time>2026-04-08T15:28:28Z</time></trkpt><trkpt lat="43.485928222840556" lon="11.31741209058443"><ele>601.5</ele><time>2026-04-08T15:28:29Z</time></trkpt><trkpt lat="43.48599229593293" lon="11.317532535057795"><ele>599.25</ele><time>2026-04-08T15:28:30Z</time></trkpt><trkpt lat="43.48603102513092" lon="11.317658937700466"><ele>597.0</ele><time>2026-04-08T15:28:31Z</time></trkpt><trkpt lat="43.48600944140885" lon="11.317791497883109"><ele>597.0</ele><time>2026-04-08T15:28:32Z</time></trkpt><trkpt lat="43.485967613436785" lon="11.31793397915159"><ele>597.0</ele><time>2026-04-08T15:28:33Z</time></trkpt><trkpt lat="43.485868585846134" lon="11.318071093188207"><ele>597.0</ele><time>2026-04-08T15:28:34Z</time></trkpt><trkpt lat="43.48575807752327" lon="11.318244276939465"><ele>597.0</ele><time>2026-04-08T15:28:35Z</time></trkpt><trkpt lat="43.485640751251815" lon="11.318407698297557"><ele>598.0</ele><time>2026-04-08T15:28:36Z</time></trkpt><trkpt lat="43.485538749844004" lon="11.31856226161566"><ele>599.0</ele><time>2026-04-08T15:28:37Z</time></trkpt><trkpt lat="43.48543231563257" lon="11.318745751020094"><ele>600.0</ele><time>2026-04-08T15:28:38Z</time></trkpt><trkpt lat="43.48533897007838" lon="11.318954088768404"><ele>602.0</ele><time>2026-04-08T15:28:39Z</time></trkpt><trkpt lat="43.48526776120563" lon="11.31917716043435"><ele>604.0</ele><time>2026-04-08T15:28:40Z</time></trkpt><trkpt lat="43.4852205238473" lon="11.31939899304158"><ele>606.0</ele><time>2026-04-08T15:28:41Z</time></trkpt><trkpt lat="43.48519608839505" lon="11.319613638795865"><ele>607.0</ele><time>2026-04-08T15:28:42Z</time></trkpt><trkpt lat="43.48519717483882" lon="11.319841416334896"><ele>608.0</ele><time>2026-04-08T15:28:43Z</time></trkpt><trkpt lat="43.4852245623292" lon="11.320093439979697"><ele>609.0</ele><time>2026-04-08T15:28:44Z</time></trkpt><trkpt lat="43.48521627101128" lon="11.320322848320803"><ele>609.0</ele><time>2026-04-08T15:28:45Z</time></trkpt><trkpt lat="43.48518722879725" lon="11.320534309837718"><ele>609.0</ele><time>2026-04-08T15:28:46Z</time></trkpt><trkpt lat="43.485127672812126" lon="11.320764865205401"><ele>609.0</ele><time>2026-04-08T15:28:47Z</time></trkpt><trkpt lat="43.485043060882944" lon="11.321020231579539"><ele>606.3333333333334</ele><time>2026-04-08T15:28:48Z</time></trkpt><trkpt lat="43.4849581802205" lon="11.321303136061738"><ele>603.6666666666667</ele><time>2026-04-08T15:28:49Z</time></trkpt><trkpt lat="43.48485632648637" lon="11.321575779148027"><ele>601.0</ele><time>2026-04-08T15:28:50Z</time></trkpt><trkpt lat="43.48477480801215" lon="11.32182868507814"><ele>600.3333333333334</ele><time>2026-04-08T15:28:51Z</time></trkpt><trkpt lat="43.484705753739185" lon="11.322075448744842"><ele>599.6666666666666</ele><time>2026-04-08T15:28:52Z</time></trkpt><trkpt lat="43.48463927536568" lon="11.322329055101186"><ele>599.0</ele><time>2026-04-08T15:28:53Z</time></trkpt><trkpt lat="43.48458300504812" lon="11.322611800111893"><ele>596.5</ele><time>2026-04-08T15:28:54Z</time></trkpt><trkpt lat="43.4845377482657" lon="11.32292753415098"><ele>594.0</ele><time>2026-04-08T15:28:55Z</time></trkpt><trkpt lat="43.4845026490581" lon="11.323265704858887"><ele>594.0</ele><time>2026-04-08T15:28:56Z</time></trkpt><trkpt lat="43.48446597819147" lon="11.323570652371515"><ele>594.0</ele><time>2026-04-08T15:28:57Z</time></trkpt><trkpt lat="43.48440680020414" lon="11.323849501358058"><ele>594.0</ele><time>2026-04-08T15:28:58Z</time></trkpt><trkpt lat="43.484343472816185" lon="11.32410922496613"><ele>596.0</ele><time>2026-04-08T15:28:59Z</time></trkpt><trkpt lat="43.48427432768741" lon="11.324345725147147"><ele>598.0</ele><time>2026-04-08T15:29:00Z</time></trkpt><trkpt lat="43.48419531513386" lon="11.324560069627545"><ele>600.0</ele><time>2026-04-08T15:29:01Z</time></trkpt><trkpt lat="43.48411884503272" lon="11.32476088440217"><ele>601.6666666666666</ele><time>2026-04-08T15:29:01.999Z</time></trkpt><trkpt lat="43.48400071345187" lon="11.32490539380459"><ele>603.3333333333333</ele><time>2026-04-08T15:29:02.999Z</time></trkpt><trkpt lat="43.483877924196996" lon="11.325028226495197"><ele>605.0</ele><time>2026-04-08T15:29:03.999Z</time></trkpt><trkpt lat="43.48373476714886" lon="11.325137992424299"><ele>606.25</ele><time>2026-04-08T15:29:04.999Z</time></trkpt><trkpt lat="43.48359945232772" lon="11.325228898923498"><ele>607.5</ele><time>2026-04-08T15:29:05.999Z</time></trkpt><trkpt lat="43.483480689354465" lon="11.325319142801487"><ele>608.75</ele><time>2026-04-08T15:29:06.999Z</time></trkpt><trkpt lat="43.48336557189103" lon="11.325389829023326"><ele>610.0</ele><time>2026-04-08T15:29:07.999Z</time></trkpt><trkpt lat="43.48326153706199" lon="11.32545749668114"><ele>610.0</ele><time>2026-04-08T15:29:08.999Z</time></trkpt><trkpt lat="43.48315788665076" lon="11.325520310919657"><ele>610.0</ele><time>2026-04-08T15:29:09.999Z</time></trkpt><trkpt lat="43.48305065836308" lon="11.325576309644608"><ele>610.0</ele><time>2026-04-08T15:29:10.999Z</time></trkpt><trkpt lat="43.48293874202118" lon="11.325625169618652"><ele>610.0</ele><time>2026-04-08T15:29:11.999Z</time></trkpt><trkpt lat="43.48283025312881" lon="11.325651977853447"><ele>609.6</ele><time>2026-04-08T15:29:12.999Z</time></trkpt><trkpt lat="43.48272436484119" lon="11.3256576981872"><ele>609.2</ele><time>2026-04-08T15:29:13.999Z</time></trkpt><trkpt lat="43.48262123185563" lon="11.32564138469081"><ele>608.8</ele><time>2026-04-08T15:29:14.999Z</time></trkpt><trkpt lat="43.48250887536089" lon="11.32561811603938"><ele>608.4</ele><time>2026-04-08T15:29:15.999Z</time></trkpt><trkpt lat="43.482389226412344" lon="11.32556652673433"><ele>608.0</ele><time>2026-04-08T15:29:16.999Z</time></trkpt><trkpt lat="43.48224934665652" lon="11.325529473277333"><ele>611.0</ele><time>2026-04-08T15:29:17.999Z</time></trkpt><trkpt lat="43.482079377796545" lon="11.325487734914727"><ele>614.0</ele><time>2026-04-08T15:29:18.999Z</time></trkpt><trkpt lat="43.481882294560684" lon="11.325445619430605"><ele>617.0</ele><time>2026-04-08T15:29:19.999Z</time></trkpt><trkpt lat="43.481698974633595" lon="11.325427339430892"><ele>617.0</ele><time>2026-04-08T15:29:20.999Z</time></trkpt><trkpt lat="43.48154645652968" lon="11.32539281560523"><ele>617.0</ele><time>2026-04-08T15:29:21.999Z</time></trkpt><trkpt lat="43.48142970540159" lon="11.32536283264089"><ele>617.0</ele><time>2026-04-08T15:29:22.999Z</time></trkpt><trkpt lat="43.481343128303806" lon="11.325339220269951"><ele>617.0</ele><time>2026-04-08T15:29:23.999Z</time></trkpt><trkpt lat="43.48125653468982" lon="11.325340890631214"><ele>617.0</ele><time>2026-04-08T15:29:24.999Z</time></trkpt><trkpt lat="43.481172086167106" lon="11.325370561270141"><ele>617.2</ele><time>2026-04-08T15:29:25.999Z</time></trkpt><trkpt lat="43.48108588730427" lon="11.32544395088866"><ele>617.4000000000001</ele><time>2026-04-08T15:29:26.999Z</time></trkpt><trkpt lat="43.48100409752937" lon="11.325551415573711"><ele>617.5999999999999</ele><time>2026-04-08T15:29:27.999Z</time></trkpt><trkpt lat="43.480925443387626" lon="11.325667005095974"><ele>617.8</ele><time>2026-04-08T15:29:28.999Z</time></trkpt><trkpt lat="43.4808619797838" lon="11.325793371515978"><ele>618.0</ele><time>2026-04-08T15:29:29.999Z</time></trkpt><trkpt lat="43.48080111548675" lon="11.325919209671168"><ele>617.5</ele><time>2026-04-08T15:29:30.999Z</time></trkpt><trkpt lat="43.48073617178121" lon="11.326046299297314"><ele>617.0</ele><time>2026-04-08T15:29:31.999Z</time></trkpt><trkpt lat="43.48066715097075" lon="11.326172464963813"><ele>616.5</ele><time>2026-04-08T15:29:32.999Z</time></trkpt><trkpt lat="43.48059108202925" lon="11.32629634263691"><ele>616.0</ele><time>2026-04-08T15:29:33.999Z</time></trkpt><trkpt lat="43.48051171274012" lon="11.326417901134596"><ele>615.0</ele><time>2026-04-08T15:29:34.999Z</time></trkpt><trkpt lat="43.48044151918394" lon="11.326548883314869"><ele>614.0</ele><time>2026-04-08T15:29:35.999Z</time></trkpt><trkpt lat="43.48036834229958" lon="11.32666521638394"><ele>613.0</ele><time>2026-04-08T15:29:36.999Z</time></trkpt><trkpt lat="43.48030914961647" lon="11.326778400481368"><ele>612.0</ele><time>2026-04-08T15:29:37.999Z</time></trkpt><trkpt lat="43.48027367722565" lon="11.326883688534963"><ele>611.0</ele><time>2026-04-08T15:29:38.999Z</time></trkpt><trkpt lat="43.48025456847818" lon="11.326997724997062"><ele>611.0</ele><time>2026-04-08T15:29:39.999Z</time></trkpt><trkpt lat="43.48025312986198" lon="11.327114130781077"><ele>611.0</ele><time>2026-04-08T15:29:40.999Z</time></trkpt><trkpt lat="43.48027079956001" lon="11.327245820538472"><ele>611.0</ele><time>2026-04-08T15:29:41.999Z</time></trkpt><trkpt lat="43.48030516574036" lon="11.327392778835174"><ele>611.0</ele><time>2026-04-08T15:29:42.999Z</time></trkpt><trkpt lat="43.48034402569091" lon="11.327556786483925"><ele>611.0</ele><time>2026-04-08T15:29:43.999Z</time></trkpt><trkpt lat="43.48037917512183" lon="11.327717230381111"><ele>610.25</ele><time>2026-04-08T15:29:44.999Z</time></trkpt><trkpt lat="43.48040351685022" lon="11.327873176205037"><ele>609.5</ele><time>2026-04-08T15:29:45.999Z</time></trkpt><trkpt lat="43.480396703978" lon="11.328040379672522"><ele>608.75</ele><time>2026-04-08T15:29:46.999Z</time></trkpt><trkpt lat="43.48039158604568" lon="11.328202827917206"><ele>608.0</ele><time>2026-04-08T15:29:47.999Z</time></trkpt><trkpt lat="43.480371403478536" lon="11.328361080831481"><ele>608.0</ele><time>2026-04-08T15:29:48.999Z</time></trkpt><trkpt lat="43.48033972612307" lon="11.328510383870821"><ele>608.0</ele><time>2026-04-08T15:29:49.999Z</time></trkpt><trkpt lat="43.48030218781853" lon="11.32864090967899"><ele>608.0</ele><time>2026-04-08T15:29:50.999Z</time></trkpt><trkpt lat="43.480268279669275" lon="11.3287628823296"><ele>608.0</ele><time>2026-04-08T15:29:51.999Z</time></trkpt><trkpt lat="43.48021108376914" lon="11.32885671566319"><ele>608.0</ele><time>2026-04-08T15:29:52.999Z</time></trkpt><trkpt lat="43.48013183703194" lon="11.328905219807096"><ele>609.5</ele><time>2026-04-08T15:29:53.999Z</time></trkpt><trkpt lat="43.480052347711606" lon="11.328945079477075"><ele>611.0</ele><time>2026-04-08T15:29:54.999Z</time></trkpt><trkpt lat="43.479959642015864" lon="11.328959366906574"><ele>612.5</ele><time>2026-04-08T15:29:55.999Z</time></trkpt><trkpt lat="43.47988048178203" lon="11.328972442046695"><ele>614.0</ele><time>2026-04-08T15:29:56.999Z</time></trkpt><trkpt lat="43.47980271733656" lon="11.328965841786498"><ele>615.5</ele><time>2026-04-08T15:29:57.999Z</time></trkpt><trkpt lat="43.47971786428609" lon="11.328986821266046"><ele>617.0</ele><time>2026-04-08T15:29:58.999Z</time></trkpt><trkpt lat="43.479634221368016" lon="11.329038138294505"><ele>615.4</ele><time>2026-04-08T15:29:59.999Z</time></trkpt><trkpt lat="43.479561964593124" lon="11.329117112871769"><ele>613.8000000000001</ele><time>2026-04-08T15:30:00.999Z</time></trkpt><trkpt lat="43.47949822331789" lon="11.329226837572971"><ele>612.2</ele><time>2026-04-08T15:30:01.999Z</time></trkpt><trkpt lat="43.479443758567626" lon="11.329350531362481"><ele>610.6</ele><time>2026-04-08T15:30:02.999Z</time></trkpt><trkpt lat="43.4794003476753" lon="11.329476444116077"><ele>609.0</ele><time>2026-04-08T15:30:03.999Z</time></trkpt><trkpt lat="43.47935638900301" lon="11.32960102111742"><ele>610.8</ele><time>2026-04-08T15:30:04.999Z</time></trkpt><trkpt lat="43.47931577629288" lon="11.329731519121731"><ele>612.5999999999999</ele><time>2026-04-08T15:30:05.999Z</time></trkpt><trkpt lat="43.479266481816076" lon="11.329868463074655"><ele>614.4</ele><time>2026-04-08T15:30:06.999Z</time></trkpt><trkpt lat="43.47921897641498" lon="11.330002393035816"><ele>616.1999999999999</ele><time>2026-04-08T15:30:07.999Z</time></trkpt><trkpt lat="43.4791821252656" lon="11.330128373741584"><ele>618.0</ele><time>2026-04-08T15:30:08.999Z</time></trkpt><trkpt lat="43.47916060107909" lon="11.330253645706506"><ele>618.0</ele><time>2026-04-08T15:30:09.999Z</time></trkpt><trkpt lat="43.47915390450943" lon="11.330380111482562"><ele>618.0</ele><time>2026-04-08T15:30:10.999Z</time></trkpt><trkpt lat="43.47916212909986" lon="11.330519352376367"><ele>618.0</ele><time>2026-04-08T15:30:11.999Z</time></trkpt><trkpt lat="43.479175049445914" lon="11.330662595873777"><ele>618.0</ele><time>2026-04-08T15:30:12.999Z</time></trkpt><trkpt lat="43.479188484432875" lon="11.330806832944653"><ele>618.0</ele><time>2026-04-08T15:30:13.999Z</time></trkpt><trkpt lat="43.47919968172947" lon="11.330949472445008"><ele>618.3333333333334</ele><time>2026-04-08T15:30:14.999Z</time></trkpt><trkpt lat="43.47920714766" lon="11.331091761785437"><ele>618.6666666666666</ele><time>2026-04-08T15:30:15.999Z</time></trkpt><trkpt lat="43.47921303027086" lon="11.331227799460876"><ele>619.0</ele><time>2026-04-08T15:30:16.999Z</time></trkpt><trkpt lat="43.47921163362127" lon="11.331341722435766"><ele>619.3333333333333</ele><time>2026-04-08T15:30:17.998Z</time></trkpt><trkpt lat="43.47919480219376" lon="11.331435893989852"><ele>619.6666666666666</ele><time>2026-04-08T15:30:18.998Z</time></trkpt><trkpt lat="43.47916176353471" lon="11.331523801040898"><ele>620.0</ele><time>2026-04-08T15:30:19.998Z</time></trkpt><trkpt lat="43.479109044424185" lon="11.331603154775802"><ele>619.5</ele><time>2026-04-08T15:30:20.998Z</time></trkpt><trkpt lat="43.47902748815327" lon="11.331686769927003"><ele>619.0</ele><time>2026-04-08T15:30:21.998Z</time></trkpt><trkpt lat="43.47890553159763" lon="11.331734505293943"><ele>618.5</ele><time>2026-04-08T15:30:22.998Z</time></trkpt><trkpt lat="43.478790644868965" lon="11.331808497909801"><ele>618.0</ele><time>2026-04-08T15:30:23.998Z</time></trkpt><trkpt lat="43.47868510060166" lon="11.331886084223838"><ele>618.0</ele><time>2026-04-08T15:30:24.998Z</time></trkpt><trkpt lat="43.47854797170442" lon="11.331964744222732"><ele>618.0</ele><time>2026-04-08T15:30:25.998Z</time></trkpt><trkpt lat="43.47838025648613" lon="11.332105792094811"><ele>618.0</ele><time>2026-04-08T15:30:27Z</time></trkpt><trkpt lat="43.47821822114242" lon="11.332317474859277"><ele>615.5</ele><time>2026-04-08T15:30:28Z</time></trkpt><trkpt lat="43.47802427142696" lon="11.33250974222944"><ele>613.0</ele><time>2026-04-08T15:30:29Z</time></trkpt><trkpt lat="43.47784019606261" lon="11.332666875045737"><ele>613.0</ele><time>2026-04-08T15:30:30Z</time></trkpt><trkpt lat="43.47766477911708" lon="11.33279338510631"><ele>613.0</ele><time>2026-04-08T15:30:31Z</time></trkpt><trkpt lat="43.47750917671841" lon="11.332899148894091"><ele>613.0</ele><time>2026-04-08T15:30:32Z</time></trkpt><trkpt lat="43.47736848275416" lon="11.332976164758994"><ele>613.0</ele><time>2026-04-08T15:30:33Z</time></trkpt><trkpt lat="43.47721696503199" lon="11.333013398462327"><ele>613.0</ele><time>2026-04-08T15:30:34Z</time></trkpt><trkpt lat="43.47706317869863" lon="11.333013416663757"><ele>613.0</ele><time>2026-04-08T15:30:35Z</time></trkpt><trkpt lat="43.4769151562294" lon="11.332952582593004"><ele>612.25</ele><time>2026-04-08T15:30:36Z</time></trkpt><trkpt lat="43.476750406437354" lon="11.332912558518894"><ele>611.5</ele><time>2026-04-08T15:30:37Z</time></trkpt><trkpt lat="43.476600601795234" lon="11.33285433899354"><ele>610.75</ele><time>2026-04-08T15:30:38Z</time></trkpt><trkpt lat="43.47647856502419" lon="11.332830538081868"><ele>610.0</ele><time>2026-04-08T15:30:39Z</time></trkpt><trkpt lat="43.47637628110722" lon="11.332867829300895"><ele>610.0</ele><time>2026-04-08T15:30:40Z</time></trkpt><trkpt lat="43.47628499199561" lon="11.333003812621243"><ele>610.0</ele><time>2026-04-08T15:30:41Z</time></trkpt><trkpt lat="43.47619551556746" lon="11.333150618885387"><ele>610.0</ele><time>2026-04-08T15:30:42Z</time></trkpt><trkpt lat="43.47609634534499" lon="11.333325155996084"><ele>610.0</ele><time>2026-04-08T15:30:43Z</time></trkpt><trkpt lat="43.475994439499665" lon="11.333482180579809"><ele>608.75</ele><time>2026-04-08T15:30:44Z</time></trkpt><trkpt lat="43.47588685869787" lon="11.33360360656262"><ele>607.5</ele><time>2026-04-08T15:30:45Z</time></trkpt><trkpt lat="43.475760866848866" lon="11.333685133654658"><ele>606.25</ele><time>2026-04-08T15:30:46Z</time></trkpt><trkpt lat="43.475607641509036" lon="11.333716547309947"><ele>605.0</ele><time>2026-04-08T15:30:47Z</time></trkpt><trkpt lat="43.47542720103137" lon="11.33369603590773"><ele>604.0</ele><time>2026-04-08T15:30:48Z</time></trkpt><trkpt lat="43.47522918920321" lon="11.333686364425729"><ele>603.0</ele><time>2026-04-08T15:30:49Z</time></trkpt><trkpt lat="43.47503370660617" lon="11.33367932925763"><ele>602.0</ele><time>2026-04-08T15:30:50Z</time></trkpt><trkpt lat="43.47483634126549" lon="11.33365653462279"><ele>602.0</ele><time>2026-04-08T15:30:51Z</time></trkpt><trkpt lat="43.47466801962067" lon="11.333647894382436"><ele>602.0</ele><time>2026-04-08T15:30:52Z</time></trkpt><trkpt lat="43.474493741247855" lon="11.333632448812644"><ele>602.0</ele><time>2026-04-08T15:30:53Z</time></trkpt><trkpt lat="43.47434013416416" lon="11.333609573500647"><ele>601.6</ele><time>2026-04-08T15:30:54Z</time></trkpt><trkpt lat="43.47423110959733" lon="11.333598680801579"><ele>601.2</ele><time>2026-04-08T15:30:55Z</time></trkpt><trkpt lat="43.47415240437266" lon="11.333614703157671"><ele>600.8</ele><time>2026-04-08T15:30:56Z</time></trkpt><trkpt lat="43.47407481762091" lon="11.333679595734518"><ele>600.4</ele><time>2026-04-08T15:30:57Z</time></trkpt><trkpt lat="43.47401499282921" lon="11.333796228630288"><ele>600.0</ele><time>2026-04-08T15:30:58Z</time></trkpt><trkpt lat="43.47400532628977" lon="11.333938277829148"><ele>598.6666666666666</ele><time>2026-04-08T15:30:59Z</time></trkpt><trkpt lat="43.47403740228574" lon="11.334109567409293"><ele>597.3333333333333</ele><time>2026-04-08T15:31:00Z</time></trkpt><trkpt lat="43.47410731498691" lon="11.334316494758914"><ele>596.0</ele><time>2026-04-08T15:31:01Z</time></trkpt><trkpt lat="43.47419616301415" lon="11.334547496881141"><ele>598.0</ele><time>2026-04-08T15:31:02Z</time></trkpt><trkpt lat="43.474286460052866" lon="11.334764313503014"><ele>600.0</ele><time>2026-04-08T15:31:03Z</time></trkpt><trkpt lat="43.47439520301007" lon="11.334995983346246"><ele>602.0</ele><time>2026-04-08T15:31:04Z</time></trkpt><trkpt lat="43.47452155812616" lon="11.335241497510145"><ele>598.3333333333333</ele><time>2026-04-08T15:31:05Z</time></trkpt><trkpt lat="43.474641105693" lon="11.3354914825952"><ele>594.6666666666666</ele><time>2026-04-08T15:31:06Z</time></trkpt><trkpt lat="43.47475937101942" lon="11.335760063332415"><ele>591.0</ele><time>2026-04-08T15:31:07Z</time></trkpt><trkpt lat="43.47487499159601" lon="11.336016643814936"><ele>591.0</ele><time>2026-04-08T15:31:08Z</time></trkpt><trkpt lat="43.475012883473234" lon="11.336285483532526"><ele>591.0</ele><time>2026-04-08T15:31:08.999Z</time></trkpt><trkpt lat="43.475176876945945" lon="11.33655165242477"><ele>590.0</ele><time>2026-04-08T15:31:09.999Z</time></trkpt><trkpt lat="43.47535327857942" lon="11.336803037527682"><ele>589.0</ele><time>2026-04-08T15:31:10.999Z</time></trkpt><trkpt lat="43.47551358012176" lon="11.337040276354903"><ele>592.0</ele><time>2026-04-08T15:31:11.999Z</time></trkpt><trkpt lat="43.4756569135577" lon="11.337253374697775"><ele>595.0</ele><time>2026-04-08T15:31:12.999Z</time></trkpt><trkpt lat="43.47577871664169" lon="11.337439474767462"><ele>598.0</ele><time>2026-04-08T15:31:13.999Z</time></trkpt><trkpt lat="43.47585014553701" lon="11.337617534724277"><ele>598.0</ele><time>2026-04-08T15:31:14.999Z</time></trkpt><trkpt lat="43.47589875185199" lon="11.33779056182322"><ele>598.0</ele><time>2026-04-08T15:31:15.999Z</time></trkpt><trkpt lat="43.47595114578159" lon="11.3379910625303"><ele>598.0</ele><time>2026-04-08T15:31:16.999Z</time></trkpt><trkpt lat="43.476005431243905" lon="11.338219439629732"><ele>597.0</ele><time>2026-04-08T15:31:17.999Z</time></trkpt><trkpt lat="43.47602024168399" lon="11.338437230688841"><ele>596.0</ele><time>2026-04-08T15:31:18.999Z</time></trkpt><trkpt lat="43.47600421885117" lon="11.338647532812264"><ele>595.0</ele><time>2026-04-08T15:31:19.999Z</time></trkpt><trkpt lat="43.47595823613514" lon="11.338908790651002"><ele>593.3333333333334</ele><time>2026-04-08T15:31:20.999Z</time></trkpt><trkpt lat="43.47591189943719" lon="11.339186770621557"><ele>591.6666666666666</ele><time>2026-04-08T15:31:21.999Z</time></trkpt><trkpt lat="43.475841227089646" lon="11.339466910663027"><ele>590.0</ele><time>2026-04-08T15:31:22.999Z</time></trkpt><trkpt lat="43.47578507814984" lon="11.33972348156127"><ele>590.0</ele><time>2026-04-08T15:31:23.999Z</time></trkpt><trkpt lat="43.47574399373275" lon="11.339965395102178"><ele>590.0</ele><time>2026-04-08T15:31:24.999Z</time></trkpt><trkpt lat="43.47573451866006" lon="11.340204843600947"><ele>590.0</ele><time>2026-04-08T15:31:25.999Z</time></trkpt><trkpt lat="43.47576239162886" lon="11.340463153604661"><ele>589.0</ele><time>2026-04-08T15:31:26.999Z</time></trkpt><trkpt lat="43.47579513624359" lon="11.340728198063545"><ele>588.0</ele><time>2026-04-08T15:31:27.999Z</time></trkpt><trkpt lat="43.47575827520692" lon="11.340971446089942"><ele>587.0</ele><time>2026-04-08T15:31:28.999Z</time></trkpt><trkpt lat="43.475714114905884" lon="11.34123881295129"><ele>586.3333333333333</ele><time>2026-04-08T15:31:29.999Z</time></trkpt><trkpt lat="43.47568042858097" lon="11.341521326027687"><ele>585.6666666666666</ele><time>2026-04-08T15:31:30.999Z</time></trkpt><trkpt lat="43.47563867117123" lon="11.341771367241467"><ele>585.0</ele><time>2026-04-08T15:31:31.999Z</time></trkpt><trkpt lat="43.475609619707676" lon="11.341969927306272"><ele>585.0</ele><time>2026-04-08T15:31:32.999Z</time></trkpt><trkpt lat="43.47558376122534" lon="11.342127727875068"><ele>585.0</ele><time>2026-04-08T15:31:33.999Z</time></trkpt><trkpt lat="43.47555796836889" lon="11.342280034671052"><ele>585.0</ele><time>2026-04-08T15:31:34.999Z</time></trkpt><trkpt lat="43.47553247611184" lon="11.342429616027479"><ele>585.0</ele><time>2026-04-08T15:31:35.999Z</time></trkpt><trkpt lat="43.47550920154504" lon="11.342577347111703"><ele>584.5</ele><time>2026-04-08T15:31:36.999Z</time></trkpt><trkpt lat="43.47549586246534" lon="11.342748469453284"><ele>584.0</ele><time>2026-04-08T15:31:37.999Z</time></trkpt><trkpt lat="43.47550750574215" lon="11.342938678468197"><ele>583.5</ele><time>2026-04-08T15:31:38.999Z</time></trkpt><trkpt lat="43.47554312839431" lon="11.343108402826761"><ele>583.0</ele><time>2026-04-08T15:31:39.999Z</time></trkpt><trkpt lat="43.475596344574875" lon="11.343256244974901"><ele>582.0</ele><time>2026-04-08T15:31:40.999Z</time></trkpt><trkpt lat="43.47565026530608" lon="11.343393039923518"><ele>581.0</ele><time>2026-04-08T15:31:41.999Z</time></trkpt><trkpt lat="43.475696944031874" lon="11.343525726160074"><ele>580.0</ele><time>2026-04-08T15:31:42.999Z</time></trkpt><trkpt lat="43.47573684291937" lon="11.343659525392699"><ele>579.0</ele><time>2026-04-08T15:31:43.999Z</time></trkpt><trkpt lat="43.475775958277175" lon="11.343802776661061"><ele>578.0</ele><time>2026-04-08T15:31:44.999Z</time></trkpt><trkpt lat="43.475805962637956" lon="11.343966271974388"><ele>577.75</ele><time>2026-04-08T15:31:45.999Z</time></trkpt><trkpt lat="43.47580611944446" lon="11.344141663414403"><ele>577.5</ele><time>2026-04-08T15:31:46.999Z</time></trkpt><trkpt lat="43.47581931357304" lon="11.34431617474248"><ele>577.25</ele><time>2026-04-08T15:31:47.999Z</time></trkpt><trkpt lat="43.475809609144854" lon="11.344487138707139"><ele>577.0</ele><time>2026-04-08T15:31:48.999Z</time></trkpt><trkpt lat="43.47579700860727" lon="11.344652660388714"><ele>576.25</ele><time>2026-04-08T15:31:49.999Z</time></trkpt><trkpt lat="43.475743225706836" lon="11.344820796500228"><ele>575.5</ele><time>2026-04-08T15:31:50.999Z</time></trkpt><trkpt lat="43.47568803669178" lon="11.345009312959315"><ele>574.75</ele><time>2026-04-08T15:31:51.999Z</time></trkpt><trkpt lat="43.475623915694044" lon="11.34521670142305"><ele>574.0</ele><time>2026-04-08T15:31:52.999Z</time></trkpt><trkpt lat="43.47555037372848" lon="11.345457296217955"><ele>572.0</ele><time>2026-04-08T15:31:53.999Z</time></trkpt><trkpt lat="43.47548134234837" lon="11.345692690409264"><ele>570.0</ele><time>2026-04-08T15:31:54.999Z</time></trkpt><trkpt lat="43.47541917726365" lon="11.345895580084411"><ele>568.0</ele><time>2026-04-08T15:31:55.999Z</time></trkpt><trkpt lat="43.475365305095295" lon="11.346070664578244"><ele>570.6666666666667</ele><time>2026-04-08T15:31:56.999Z</time></trkpt><trkpt lat="43.475320561028674" lon="11.346214517043126"><ele>573.3333333333334</ele><time>2026-04-08T15:31:57.999Z</time></trkpt><trkpt lat="43.47530141618433" lon="11.346330715106804"><ele>576.0</ele><time>2026-04-08T15:31:58.999Z</time></trkpt><trkpt lat="43.47527404459568" lon="11.346435052301066"><ele>578.6666666666666</ele><time>2026-04-08T15:31:59.999Z</time></trkpt><trkpt lat="43.475267442078405" lon="11.346532960986899"><ele>581.3333333333333</ele><time>2026-04-08T15:32:00.999Z</time></trkpt><trkpt lat="43.47528096228076" lon="11.346632576981108"><ele>584.0</ele><time>2026-04-08T15:32:01.999Z</time></trkpt><trkpt lat="43.47532406592951" lon="11.346730646357928"><ele>584.25</ele><time>2026-04-08T15:32:02.999Z</time></trkpt><trkpt lat="43.47540151433064" lon="11.346821689606058"><ele>584.5</ele><time>2026-04-08T15:32:03.999Z</time></trkpt><trkpt lat="43.475503550540964" lon="11.346870626461667"><ele>584.75</ele><time>2026-04-08T15:32:04.999Z</time></trkpt><trkpt lat="43.4756226555965" lon="11.346857867583518"><ele>585.0</ele><time>2026-04-08T15:32:05.999Z</time></trkpt><trkpt lat="43.475741986963236" lon="11.346799241901595"><ele>581.25</ele><time>2026-04-08T15:32:06.999Z</time></trkpt><trkpt lat="43.475844886579566" lon="11.346756431045616"><ele>577.5</ele><time>2026-04-08T15:32:07.999Z</time></trkpt><trkpt lat="43.47594342092818" lon="11.346733931324977"><ele>573.75</ele><time>2026-04-08T15:32:08.999Z</time></trkpt><trkpt lat="43.476059606377476" lon="11.346713946739085"><ele>570.0</ele><time>2026-04-08T15:32:09.999Z</time></trkpt><trkpt lat="43.47618730535167" lon="11.346692493848991"><ele>568.2</ele><time>2026-04-08T15:32:10.999Z</time></trkpt><trkpt lat="43.47630711335152" lon="11.346715401685557"><ele>566.4</ele><time>2026-04-08T15:32:11.999Z</time></trkpt><trkpt lat="43.476413345372265" lon="11.34674760590307"><ele>564.6</ele><time>2026-04-08T15:32:12.999Z</time></trkpt><trkpt lat="43.47650707694538" lon="11.346811150932052"><ele>562.8</ele><time>2026-04-08T15:32:13.999Z</time></trkpt><trkpt lat="43.47658511123671" lon="11.346905084389503"><ele>561.0</ele><time>2026-04-08T15:32:14.999Z</time></trkpt><trkpt lat="43.47665224159174" lon="11.347027057441077"><ele>561.0</ele><time>2026-04-08T15:32:15.999Z</time></trkpt><trkpt lat="43.47670687201887" lon="11.347168036701758"><ele>561.0</ele><time>2026-04-08T15:32:16.998Z</time></trkpt><trkpt lat="43.47675081685927" lon="11.347319372493102"><ele>561.0</ele><time>2026-04-08T15:32:17.998Z</time></trkpt><trkpt lat="43.47679001979188" lon="11.347493606674757"><ele>561.0</ele><time>2026-04-08T15:32:18.998Z</time></trkpt><trkpt lat="43.4768249144817" lon="11.347701595542855"><ele>564.6666666666666</ele><time>2026-04-08T15:32:19.998Z</time></trkpt><trkpt lat="43.47686073725886" lon="11.347949134840444"><ele>568.3333333333333</ele><time>2026-04-08T15:32:20.998Z</time></trkpt><trkpt lat="43.47689105962436" lon="11.348157764177275"><ele>572.0</ele><time>2026-04-08T15:32:21.998Z</time></trkpt><trkpt lat="43.4769138245776" lon="11.348310687674067"><ele>573.2</ele><time>2026-04-08T15:32:22.998Z</time></trkpt><trkpt lat="43.47693327273521" lon="11.348441330609646"><ele>574.4000000000001</ele><time>2026-04-08T15:32:23.998Z</time></trkpt><trkpt lat="43.476952326106556" lon="11.348571484782502"><ele>575.5999999999999</ele><time>2026-04-08T15:32:24.998Z</time></trkpt><trkpt lat="43.47697633942003" lon="11.348715008834706"><ele>576.8</ele><time>2026-04-08T15:32:25.998Z</time></trkpt><trkpt lat="43.47702792751963" lon="11.348849971633738"><ele>578.0</ele><time>2026-04-08T15:32:26.998Z</time></trkpt><trkpt lat="43.477089634316414" lon="11.348975036221384"><ele>574.4</ele><time>2026-04-08T15:32:27.998Z</time></trkpt><trkpt lat="43.47716605570667" lon="11.349069360131539"><ele>570.8</ele><time>2026-04-08T15:32:28.998Z</time></trkpt><trkpt lat="43.477243308112854" lon="11.349142248713298"><ele>567.2</ele><time>2026-04-08T15:32:29.998Z</time></trkpt><trkpt lat="43.477301037236906" lon="11.349239159479877"><ele>563.6</ele><time>2026-04-08T15:32:30.998Z</time></trkpt><trkpt lat="43.47737511957388" lon="11.349327315067637"><ele>560.0</ele><time>2026-04-08T15:32:32Z</time></trkpt><trkpt lat="43.47743645004513" lon="11.349426222909763"><ele>560.0</ele><time>2026-04-08T15:32:33Z</time></trkpt><trkpt lat="43.477492304221094" lon="11.34953225611483"><ele>560.0</ele><time>2026-04-08T15:32:34Z</time></trkpt><trkpt lat="43.47752858449873" lon="11.349657405329811"><ele>560.0</ele><time>2026-04-08T15:32:35Z</time></trkpt><trkpt lat="43.477549313857196" lon="11.349793574621437"><ele>560.0</ele><time>2026-04-08T15:32:36Z</time></trkpt><trkpt lat="43.4775437361924" lon="11.349941431393939"><ele>560.0</ele><time>2026-04-08T15:32:37Z</time></trkpt><trkpt lat="43.47752630324121" lon="11.35009074276467"><ele>561.8</ele><time>2026-04-08T15:32:38Z</time></trkpt><trkpt lat="43.47750259271594" lon="11.350236174266339"><ele>563.6</ele><time>2026-04-08T15:32:39Z</time></trkpt><trkpt lat="43.477492519726624" lon="11.350383793365769"><ele>565.4</ele><time>2026-04-08T15:32:40Z</time></trkpt><trkpt lat="43.4774789974355" lon="11.350516594365697"><ele>567.2</ele><time>2026-04-08T15:32:41Z</time></trkpt><trkpt lat="43.47748063023224" lon="11.350644489316053"><ele>569.0</ele><time>2026-04-08T15:32:42Z</time></trkpt><trkpt lat="43.47749059452776" lon="11.350778695223388"><ele>569.5</ele><time>2026-04-08T15:32:43Z</time></trkpt><trkpt lat="43.47751336990845" lon="11.350898346860038"><ele>570.0</ele><time>2026-04-08T15:32:44Z</time></trkpt><trkpt lat="43.477529826579456" lon="11.351002089960028"><ele>570.5</ele><time>2026-04-08T15:32:45Z</time></trkpt><trkpt lat="43.477556480450154" lon="11.351120327913016"><ele>571.0</ele><time>2026-04-08T15:32:46Z</time></trkpt><trkpt lat="43.477584253355246" lon="11.351239800983029"><ele>571.5</ele><time>2026-04-08T15:32:47Z</time></trkpt><trkpt lat="43.477615797092554" lon="11.35134835170238"><ele>572.0</ele><time>2026-04-08T15:32:48Z</time></trkpt><trkpt lat="43.477664622632965" lon="11.351452757288257"><ele>573.4</ele><time>2026-04-08T15:32:49Z</time></trkpt><trkpt lat="43.47773880229697" lon="11.351572337952431"><ele>574.8000000000001</ele><time>2026-04-08T15:32:50Z</time></trkpt><trkpt lat="43.47780836214814" lon="11.351684631648038"><ele>576.2</ele><time>2026-04-08T15:32:51Z</time></trkpt><trkpt lat="43.47785806348195" lon="11.3517935147328"><ele>577.6</ele><time>2026-04-08T15:32:52Z</time></trkpt><trkpt lat="43.47787399196354" lon="11.351917628115379"><ele>579.0</ele><time>2026-04-08T15:32:53Z</time></trkpt><trkpt lat="43.47788646520602" lon="11.352042800006274"><ele>579.0</ele><time>2026-04-08T15:32:54Z</time></trkpt><trkpt lat="43.47788446413715" lon="11.352202324507354"><ele>579.0</ele><time>2026-04-08T15:32:55Z</time></trkpt><trkpt lat="43.4778715335362" lon="11.35238272260361"><ele>579.0</ele><time>2026-04-08T15:32:56Z</time></trkpt><trkpt lat="43.47787502424225" lon="11.352540964781674"><ele>579.0</ele><time>2026-04-08T15:32:57Z</time></trkpt><trkpt lat="43.477868500569016" lon="11.352677787789842"><ele>580.25</ele><time>2026-04-08T15:32:58Z</time></trkpt><trkpt lat="43.477889283488345" lon="11.352809381435828"><ele>581.5</ele><time>2026-04-08T15:32:59Z</time></trkpt><trkpt lat="43.47793564813752" lon="11.352978988461503"><ele>582.75</ele><time>2026-04-08T15:33:00Z</time></trkpt><trkpt lat="43.47804865832702" lon="11.353160861697367"><ele>584.0</ele><time>2026-04-08T15:33:01Z</time></trkpt><trkpt lat="43.47814912749138" lon="11.353356869180965"><ele>577.3333333333333</ele><time>2026-04-08T15:33:02Z</time></trkpt><trkpt lat="43.47823303865031" lon="11.353551189724833"><ele>570.6666666666666</ele><time>2026-04-08T15:33:03Z</time></trkpt><trkpt lat="43.478308595253345" lon="11.353731607268914"><ele>564.0</ele><time>2026-04-08T15:33:04Z</time></trkpt><trkpt lat="43.47839357063294" lon="11.353938279762042"><ele>564.0</ele><time>2026-04-08T15:33:05Z</time></trkpt><trkpt lat="43.47847175440719" lon="11.354148933403383"><ele>564.0</ele><time>2026-04-08T15:33:06Z</time></trkpt><trkpt lat="43.47853845658187" lon="11.354357945562972"><ele>564.0</ele><time>2026-04-08T15:33:07Z</time></trkpt><trkpt lat="43.4785908947875" lon="11.354593267751625"><ele>563.25</ele><time>2026-04-08T15:33:08Z</time></trkpt><trkpt lat="43.47863551721276" lon="11.354830416203253"><ele>562.5</ele><time>2026-04-08T15:33:09Z</time></trkpt><trkpt lat="43.47868534654499" lon="11.35501453674058"><ele>561.75</ele><time>2026-04-08T15:33:10Z</time></trkpt><trkpt lat="43.478697993958974" lon="11.355178278285488"><ele>561.0</ele><time>2026-04-08T15:33:11Z</time></trkpt><trkpt lat="43.478733554229834" lon="11.355376275388815"><ele>560.6666666666666</ele><time>2026-04-08T15:33:12Z</time></trkpt><trkpt lat="43.478775982949095" lon="11.355623329249031"><ele>560.3333333333333</ele><time>2026-04-08T15:33:13Z</time></trkpt><trkpt lat="43.47882837839948" lon="11.355918119918789"><ele>560.0</ele><time>2026-04-08T15:33:14Z</time></trkpt><trkpt lat="43.478876885135506" lon="11.356190592387591"><ele>560.5</ele><time>2026-04-08T15:33:14.999Z</time></trkpt><trkpt lat="43.478927952141184" lon="11.35640494452215"><ele>561.0</ele><time>2026-04-08T15:33:15.999Z</time></trkpt><trkpt lat="43.47895952845734" lon="11.356577154697188"><ele>561.5</ele><time>2026-04-08T15:33:16.999Z</time></trkpt><trkpt lat="43.47898780965216" lon="11.356713449031016"><ele>562.0</ele><time>2026-04-08T15:33:17.999Z</time></trkpt><trkpt lat="43.47901216400356" lon="11.35684756709238"><ele>562.0</ele><time>2026-04-08T15:33:18.999Z</time></trkpt><trkpt lat="43.479016514584835" lon="11.356981076437807"><ele>562.0</ele><time>2026-04-08T15:33:19.999Z</time></trkpt><trkpt lat="43.47902627660219" lon="11.357105604632212"><ele>562.0</ele><time>2026-04-08T15:33:20.999Z</time></trkpt><trkpt lat="43.479043440230065" lon="11.357233038916595"><ele>562.0</ele><time>2026-04-08T15:33:21.999Z</time></trkpt><trkpt lat="43.47901388065891" lon="11.357367208223703"><ele>562.0</ele><time>2026-04-08T15:33:22.999Z</time></trkpt><trkpt lat="43.47896271894393" lon="11.357477865018978"><ele>563.5</ele><time>2026-04-08T15:33:23.999Z</time></trkpt><trkpt lat="43.47889394957882" lon="11.35759433706485"><ele>565.0</ele><time>2026-04-08T15:33:24.999Z</time></trkpt><trkpt lat="43.478811731999485" lon="11.357728382469004"><ele>566.5</ele><time>2026-04-08T15:33:25.999Z</time></trkpt><trkpt lat="43.478728860903395" lon="11.357847674958062"><ele>568.0</ele><time>2026-04-08T15:33:26.999Z</time></trkpt><trkpt lat="43.4786474033193" lon="11.357967131983946"><ele>564.0</ele><time>2026-04-08T15:33:27.999Z</time></trkpt><trkpt lat="43.47857636656847" lon="11.358100961704682"><ele>560.0</ele><time>2026-04-08T15:33:28.999Z</time></trkpt><trkpt lat="43.47852319669402" lon="11.358244881886575"><ele>556.0</ele><time>2026-04-08T15:33:29.999Z</time></trkpt><trkpt lat="43.47849672339513" lon="11.35838866478968"><ele>552.0</ele><time>2026-04-08T15:33:30.999Z</time></trkpt><trkpt lat="43.478506786214034" lon="11.358539096585234"><ele>552.0</ele><time>2026-04-08T15:33:31.999Z</time></trkpt><trkpt lat="43.47855773396307" lon="11.358716693472424"><ele>552.0</ele><time>2026-04-08T15:33:32.999Z</time></trkpt><trkpt lat="43.478635599801564" lon="11.358950201043445"><ele>552.0</ele><time>2026-04-08T15:33:33.999Z</time></trkpt><trkpt lat="43.47872287188647" lon="11.359193448904135"><ele>554.5</ele><time>2026-04-08T15:33:34.999Z</time></trkpt><trkpt lat="43.4787932471816" lon="11.359403425925477"><ele>557.0</ele><time>2026-04-08T15:33:35.999Z</time></trkpt><trkpt lat="43.47884346232621" lon="11.359565497110337"><ele>559.5</ele><time>2026-04-08T15:33:36.999Z</time></trkpt><trkpt lat="43.478887076196855" lon="11.35971371446515"><ele>562.0</ele><time>2026-04-08T15:33:37.999Z</time></trkpt><trkpt lat="43.47894104547654" lon="11.359844706678846"><ele>562.0</ele><time>2026-04-08T15:33:38.999Z</time></trkpt><trkpt lat="43.478980236398996" lon="11.359991723190568"><ele>562.0</ele><time>2026-04-08T15:33:39.999Z</time></trkpt><trkpt lat="43.47902570195102" lon="11.36015708120337"><ele>562.0</ele><time>2026-04-08T15:33:40.999Z</time></trkpt><trkpt lat="43.47905767408549" lon="11.360339342661273"><ele>562.0</ele><time>2026-04-08T15:33:41.999Z</time></trkpt><trkpt lat="43.47910161003052" lon="11.360504154677061"><ele>560.75</ele><time>2026-04-08T15:33:42.999Z</time></trkpt><trkpt lat="43.479150670881914" lon="11.360636560363906"><ele>559.5</ele><time>2026-04-08T15:33:43.999Z</time></trkpt><trkpt lat="43.479183410727906" lon="11.360799995202308"><ele>558.25</ele><time>2026-04-08T15:33:44.999Z</time></trkpt><trkpt lat="43.47921838604939" lon="11.360963827288895"><ele>557.0</ele><time>2026-04-08T15:33:45.999Z</time></trkpt><trkpt lat="43.47923877139077" lon="11.361115815754056"><ele>557.0</ele><time>2026-04-08T15:33:46.999Z</time></trkpt><trkpt lat="43.47924859771557" lon="11.361281422904428"><ele>557.0</ele><time>2026-04-08T15:33:47.999Z</time></trkpt><trkpt lat="43.479252202719564" lon="11.361451329423424"><ele>557.0</ele><time>2026-04-08T15:33:48.999Z</time></trkpt><trkpt lat="43.479261776650354" lon="11.361628406502058"><ele>557.0</ele><time>2026-04-08T15:33:49.999Z</time></trkpt><trkpt lat="43.47930263569916" lon="11.361853827539296"><ele>556.6</ele><time>2026-04-08T15:33:50.999Z</time></trkpt><trkpt lat="43.47935903609616" lon="11.36205088995753"><ele>556.2</ele><time>2026-04-08T15:33:51.999Z</time></trkpt><trkpt lat="43.479398898582595" lon="11.362206729127864"><ele>555.8</ele><time>2026-04-08T15:33:52.999Z</time></trkpt><trkpt lat="43.47941791284108" lon="11.36233357915705"><ele>555.4</ele><time>2026-04-08T15:33:53.999Z</time></trkpt><trkpt lat="43.47941709449387" lon="11.362445063091064"><ele>555.0</ele><time>2026-04-08T15:33:54.999Z</time></trkpt><trkpt lat="43.47939784902447" lon="11.362556696987117"><ele>554.4</ele><time>2026-04-08T15:33:55.999Z</time></trkpt><trkpt lat="43.47936580224423" lon="11.362673155222394"><ele>553.8</ele><time>2026-04-08T15:33:56.999Z</time></trkpt><trkpt lat="43.47930839110501" lon="11.362783152671522"><ele>553.2</ele><time>2026-04-08T15:33:57.999Z</time></trkpt><trkpt lat="43.47923205258888" lon="11.362908125392336"><ele>552.6</ele><time>2026-04-08T15:33:58.999Z</time></trkpt><trkpt lat="43.47912395076563" lon="11.363015980688557"><ele>552.0</ele><time>2026-04-08T15:33:59.999Z</time></trkpt><trkpt lat="43.47899187410878" lon="11.36307036314289"><ele>550.6666666666666</ele><time>2026-04-08T15:34:00.999Z</time></trkpt><trkpt lat="43.478847421477596" lon="11.363134573162093"><ele>549.3333333333333</ele><time>2026-04-08T15:34:01.999Z</time></trkpt><trkpt lat="43.4787237212604" lon="11.363216554235992"><ele>548.0</ele><time>2026-04-08T15:34:02.999Z</time></trkpt><trkpt lat="43.47858352972997" lon="11.36334749534021"><ele>548.0</ele><time>2026-04-08T15:34:03.999Z</time></trkpt><trkpt lat="43.478428083026735" lon="11.3635398896178"><ele>548.0</ele><time>2026-04-08T15:34:04.999Z</time></trkpt><trkpt lat="43.47825663478966" lon="11.363722837879076"><ele>548.0</ele><time>2026-04-08T15:34:05.999Z</time></trkpt><trkpt lat="43.478051159185455" lon="11.363850026750772"><ele>548.5</ele><time>2026-04-08T15:34:06.999Z</time></trkpt><trkpt lat="43.47783051048021" lon="11.364015839105226"><ele>549.0</ele><time>2026-04-08T15:34:07.999Z</time></trkpt><trkpt lat="43.47761275712594" lon="11.36414144751233"><ele>549.0</ele><time>2026-04-08T15:34:08.999Z</time></trkpt><trkpt lat="43.47742425680196" lon="11.364257497574776"><ele>549.0</ele><time>2026-04-08T15:34:09.999Z</time></trkpt><trkpt lat="43.477271177020874" lon="11.36438144265574"><ele>549.0</ele><time>2026-04-08T15:34:10.999Z</time></trkpt><trkpt lat="43.47713535109825" lon="11.36454928902882"><ele>546.6666666666666</ele><time>2026-04-08T15:34:11.999Z</time></trkpt><trkpt lat="43.47700573284719" lon="11.364780534221245"><ele>544.3333333333333</ele><time>2026-04-08T15:34:12.999Z</time></trkpt><trkpt lat="43.47688526750559" lon="11.365012455244617"><ele>542.0</ele><time>2026-04-08T15:34:13.999Z</time></trkpt><trkpt lat="43.476777044042926" lon="11.365269775573179"><ele>542.0</ele><time>2026-04-08T15:34:14.999Z</time></trkpt><trkpt lat="43.47669428286243" lon="11.365520114824502"><ele>542.0</ele><time>2026-04-08T15:34:15.999Z</time></trkpt><trkpt lat="43.47662326974945" lon="11.365750265804389"><ele>542.0</ele><time>2026-04-08T15:34:16.999Z</time></trkpt><trkpt lat="43.47657529214407" lon="11.365922920634917"><ele>541.8000000000001</ele><time>2026-04-08T15:34:17.999Z</time></trkpt><trkpt lat="43.476551460948" lon="11.366064502573746"><ele>541.6</ele><time>2026-04-08T15:34:18.999Z</time></trkpt><trkpt lat="43.47656602026711" lon="11.366211558333212"><ele>541.4000000000001</ele><time>2026-04-08T15:34:19.999Z</time></trkpt><trkpt lat="43.476625558674066" lon="11.366346596304687"><ele>541.2</ele><time>2026-04-08T15:34:20.999Z</time></trkpt><trkpt lat="43.47672474592116" lon="11.366438525359609"><ele>541.0</ele><time>2026-04-08T15:34:21.999Z</time></trkpt><trkpt lat="43.47685311392738" lon="11.366473516752716"><ele>541.0</ele><time>2026-04-08T15:34:22.998Z</time></trkpt><trkpt lat="43.4770113528467" lon="11.366441681501543"><ele>541.0</ele><time>2026-04-08T15:34:23.998Z</time></trkpt><trkpt lat="43.47717969595047" lon="11.366376130779614"><ele>541.0</ele><time>2026-04-08T15:34:24.998Z</time></trkpt><trkpt lat="43.477374170853494" lon="11.366343078688507"><ele>540.6666666666667</ele><time>2026-04-08T15:34:25.998Z</time></trkpt><trkpt lat="43.477545911051706" lon="11.366402948510554"><ele>540.3333333333334</ele><time>2026-04-08T15:34:26.998Z</time></trkpt><trkpt lat="43.477709693833305" lon="11.366428979463114"><ele>540.0</ele><time>2026-04-08T15:34:27.998Z</time></trkpt><trkpt lat="43.477854191790904" lon="11.366458050162807"><ele>537.6666666666666</ele><time>2026-04-08T15:34:28.998Z</time></trkpt><trkpt lat="43.47801859189093" lon="11.366404249903221"><ele>535.3333333333333</ele><time>2026-04-08T15:34:29.998Z</time></trkpt><trkpt lat="43.47820453296943" lon="11.366301835678223"><ele>533.0</ele><time>2026-04-08T15:34:30.998Z</time></trkpt><trkpt lat="43.47841147986979" lon="11.366218618037552"><ele>535.0</ele><time>2026-04-08T15:34:31.998Z</time></trkpt><trkpt lat="43.47862803270022" lon="11.366181805083746"><ele>537.0</ele><time>2026-04-08T15:34:32.998Z</time></trkpt><trkpt lat="43.47885722282967" lon="11.3661421358851"><ele>539.0</ele><time>2026-04-08T15:34:33.998Z</time></trkpt><trkpt lat="43.47906834986081" lon="11.366096549382014"><ele>539.0</ele><time>2026-04-08T15:34:34.998Z</time></trkpt><trkpt lat="43.47926939655596" lon="11.366054622119991"><ele>539.0</ele><time>2026-04-08T15:34:35.998Z</time></trkpt><trkpt lat="43.47946463162658" lon="11.36599566125016"><ele>539.0</ele><time>2026-04-08T15:34:36.998Z</time></trkpt><trkpt lat="43.47965852426567" lon="11.365902560451142"><ele>535.0</ele><time>2026-04-08T15:34:38Z</time></trkpt><trkpt lat="43.47985285926661" lon="11.365786482023655"><ele>531.0</ele><time>2026-04-08T15:34:39Z</time></trkpt><trkpt lat="43.48004623569964" lon="11.365683720391482"><ele>527.0</ele><time>2026-04-08T15:34:40Z</time></trkpt><trkpt lat="43.48024279741914" lon="11.365674834527802"><ele>524.6666666666666</ele><time>2026-04-08T15:34:41Z</time></trkpt><trkpt lat="43.480441728633146" lon="11.365655704520389"><ele>522.3333333333334</ele><time>2026-04-08T15:34:42Z</time></trkpt><trkpt lat="43.480650275541294" lon="11.365628035423663"><ele>520.0</ele><time>2026-04-08T15:34:43Z</time></trkpt><trkpt lat="43.480848665353896" lon="11.365625253827352"><ele>520.0</ele><time>2026-04-08T15:34:44Z</time></trkpt><trkpt lat="43.48103957559131" lon="11.365674418686362"><ele>520.0</ele><time>2026-04-08T15:34:45Z</time></trkpt><trkpt lat="43.481229610695486" lon="11.365694673088226"><ele>520.0</ele><time>2026-04-08T15:34:46Z</time></trkpt><trkpt lat="43.48141409220812" lon="11.365718804975126"><ele>518.75</ele><time>2026-04-08T15:34:47Z</time></trkpt><trkpt lat="43.48158610965469" lon="11.3657092043891"><ele>517.5</ele><time>2026-04-08T15:34:48Z</time></trkpt><trkpt lat="43.48172302965484" lon="11.365682134013635"><ele>516.25</ele><time>2026-04-08T15:34:49Z</time></trkpt><trkpt lat="43.48183324585816" lon="11.365604505249886"><ele>515.0</ele><time>2026-04-08T15:34:50Z</time></trkpt><trkpt lat="43.4819501583102" lon="11.365465004226293"><ele>516.0</ele><time>2026-04-08T15:34:51Z</time></trkpt><trkpt lat="43.48208418392478" lon="11.365293454603012"><ele>517.0</ele><time>2026-04-08T15:34:52Z</time></trkpt><trkpt lat="43.48220925384968" lon="11.365147875692001"><ele>518.0</ele><time>2026-04-08T15:34:53Z</time></trkpt><trkpt lat="43.4823062201742" lon="11.365049737661193"><ele>518.0</ele><time>2026-04-08T15:34:54Z</time></trkpt><trkpt lat="43.482373697621" lon="11.365016085765303"><ele>518.0</ele><time>2026-04-08T15:34:55Z</time></trkpt><trkpt lat="43.48248589368695" lon="11.36510726810064"><ele>518.0</ele><time>2026-04-08T15:34:57Z</time></trkpt><trkpt lat="43.48253546515955" lon="11.365216490992271"><ele>518.0</ele><time>2026-04-08T15:34:58Z</time></trkpt><trkpt lat="43.48260079128606" lon="11.365357536554798"><ele>518.0</ele><time>2026-04-08T15:34:59Z</time></trkpt><trkpt lat="43.4826909836038" lon="11.365523548175089"><ele>515.5</ele><time>2026-04-08T15:35:00Z</time></trkpt><trkpt lat="43.48278341457943" lon="11.365679805932098"><ele>513.0</ele><time>2026-04-08T15:35:01Z</time></trkpt><trkpt lat="43.482863752489514" lon="11.365807538168566"><ele>510.5</ele><time>2026-04-08T15:35:02Z</time></trkpt><trkpt lat="43.48294121438533" lon="11.365914967786015"><ele>508.0</ele><time>2026-04-08T15:35:03Z</time></trkpt><trkpt lat="43.48303642170796" lon="11.365989541485298"><ele>507.75</ele><time>2026-04-08T15:35:04Z</time></trkpt><trkpt lat="43.48315006762345" lon="11.366011465228347"><ele>507.5</ele><time>2026-04-08T15:35:05Z</time></trkpt><trkpt lat="43.48328641136656" lon="11.365989842329748"><ele>507.25</ele><time>2026-04-08T15:35:06Z</time></trkpt><trkpt lat="43.48342837966439" lon="11.365928113863383"><ele>507.0</ele><time>2026-04-08T15:35:07Z</time></trkpt><trkpt lat="43.483546763930846" lon="11.365836149458909"><ele>507.0</ele><time>2026-04-08T15:35:08Z</time></trkpt><trkpt lat="43.48365788860914" lon="11.36570737004462"><ele>507.0</ele><time>2026-04-08T15:35:09Z</time></trkpt><trkpt lat="43.48376248419833" lon="11.365569930003486"><ele>507.0</ele><time>2026-04-08T15:35:10Z</time></trkpt><trkpt lat="43.48385125091519" lon="11.365472559266154"><ele>507.0</ele><time>2026-04-08T15:35:11Z</time></trkpt><trkpt lat="43.48393095543635" lon="11.36544246304711"><ele>507.75</ele><time>2026-04-08T15:35:12Z</time></trkpt><trkpt lat="43.48402120629527" lon="11.365473623008732"><ele>508.5</ele><time>2026-04-08T15:35:13Z</time></trkpt><trkpt lat="43.48413823614829" lon="11.365540889279679"><ele>509.25</ele><time>2026-04-08T15:35:14Z</time></trkpt><trkpt lat="43.484255866509194" lon="11.365633358637758"><ele>510.0</ele><time>2026-04-08T15:35:15Z</time></trkpt><trkpt lat="43.484346533777504" lon="11.365714980847388"><ele>507.75</ele><time>2026-04-08T15:35:16Z</time></trkpt><trkpt lat="43.48441195604124" lon="11.365816338521109"><ele>505.5</ele><time>2026-04-08T15:35:17Z</time></trkpt><trkpt lat="43.484433778807386" lon="11.365949857180805"><ele>503.25</ele><time>2026-04-08T15:35:17.999Z</time></trkpt><trkpt lat="43.484393957101936" lon="11.36610817601046"><ele>501.0</ele><time>2026-04-08T15:35:18.999Z</time></trkpt><trkpt lat="43.484382647755915" lon="11.366298081099615"><ele>499.5</ele><time>2026-04-08T15:35:19.999Z</time></trkpt><trkpt lat="43.4843480587406" lon="11.366477893826826"><ele>498.0</ele><time>2026-04-08T15:35:20.999Z</time></trkpt><trkpt lat="43.48433343344747" lon="11.366648495616383"><ele>496.5</ele><time>2026-04-08T15:35:21.999Z</time></trkpt><trkpt lat="43.48435193348028" lon="11.366811935289746"><ele>495.0</ele><time>2026-04-08T15:35:22.999Z</time></trkpt><trkpt lat="43.484404424701914" lon="11.366980224354053"><ele>495.0</ele><time>2026-04-08T15:35:23.999Z</time></trkpt><trkpt lat="43.48446386385294" lon="11.367142640921577"><ele>495.0</ele><time>2026-04-08T15:35:24.999Z</time></trkpt><trkpt lat="43.484490615297524" lon="11.36730377065278"><ele>495.0</ele><time>2026-04-08T15:35:25.999Z</time></trkpt><trkpt lat="43.484540986880695" lon="11.36744971354009"><ele>495.0</ele><time>2026-04-08T15:35:26.999Z</time></trkpt><trkpt lat="43.484582946206395" lon="11.367644172688033"><ele>493.66666666666663</ele><time>2026-04-08T15:35:27.999Z</time></trkpt><trkpt lat="43.48460744868542" lon="11.367874169231138"><ele>492.3333333333333</ele><time>2026-04-08T15:35:28.999Z</time></trkpt><trkpt lat="43.484652939738616" lon="11.36812167694484"><ele>491.0</ele><time>2026-04-08T15:35:29.999Z</time></trkpt><trkpt lat="43.48468088583525" lon="11.368370330188815"><ele>494.66666666666663</ele><time>2026-04-08T15:35:30.999Z</time></trkpt><trkpt lat="43.484714375158966" lon="11.36862497750993"><ele>498.33333333333337</ele><time>2026-04-08T15:35:31.999Z</time></trkpt><trkpt lat="43.484747474508225" lon="11.36887152472256"><ele>502.0</ele><time>2026-04-08T15:35:32.999Z</time></trkpt><trkpt lat="43.48477702915727" lon="11.369086947799016"><ele>503.25</ele><time>2026-04-08T15:35:33.999Z</time></trkpt><trkpt lat="43.484812402211986" lon="11.369265080202519"><ele>504.5</ele><time>2026-04-08T15:35:34.999Z</time></trkpt><trkpt lat="43.48487894371601" lon="11.369414345287227"><ele>505.75</ele><time>2026-04-08T15:35:35.999Z</time></trkpt><trkpt lat="43.48498208131214" lon="11.369556162390166"><ele>507.0</ele><time>2026-04-08T15:35:36.999Z</time></trkpt><trkpt lat="43.48509812102095" lon="11.369699655496198"><ele>508.25</ele><time>2026-04-08T15:35:37.999Z</time></trkpt><trkpt lat="43.48521192703834" lon="11.369802076589941"><ele>509.5</ele><time>2026-04-08T15:35:38.999Z</time></trkpt><trkpt lat="43.4853422137862" lon="11.369856428144914"><ele>510.75</ele><time>2026-04-08T15:35:39.999Z</time></trkpt><trkpt lat="43.485494926532105" lon="11.369887404386438"><ele>512.0</ele><time>2026-04-08T15:35:40.999Z</time></trkpt><trkpt lat="43.48562654328249" lon="11.369917912597806"><ele>512.0</ele><time>2026-04-08T15:35:41.999Z</time></trkpt><trkpt lat="43.485732009810434" lon="11.36997638077264"><ele>512.0</ele><time>2026-04-08T15:35:42.999Z</time></trkpt><trkpt lat="43.48582166215382" lon="11.370070508597232"><ele>512.0</ele><time>2026-04-08T15:35:43.999Z</time></trkpt><trkpt lat="43.485883146781646" lon="11.370221455105787"><ele>512.0</ele><time>2026-04-08T15:35:44.999Z</time></trkpt><trkpt lat="43.485962120511466" lon="11.37037255261002"><ele>514.3333333333333</ele><time>2026-04-08T15:35:45.999Z</time></trkpt><trkpt lat="43.486017733003884" lon="11.370562881241625"><ele>516.6666666666666</ele><time>2026-04-08T15:35:46.999Z</time></trkpt><trkpt lat="43.48608417552261" lon="11.370774010471427"><ele>519.0</ele><time>2026-04-08T15:35:47.999Z</time></trkpt><trkpt lat="43.48616377763783" lon="11.370982617129197"><ele>519.0</ele><time>2026-04-08T15:35:48.999Z</time></trkpt><trkpt lat="43.48619699128053" lon="11.371198844132723"><ele>519.0</ele><time>2026-04-08T15:35:49.999Z</time></trkpt><trkpt lat="43.48623656876551" lon="11.37140417329755"><ele>519.0</ele><time>2026-04-08T15:35:50.999Z</time></trkpt><trkpt lat="43.48626867948117" lon="11.371618209389469"><ele>517.6666666666666</ele><time>2026-04-08T15:35:51.999Z</time></trkpt><trkpt lat="43.486304708161704" lon="11.371828235518048"><ele>516.3333333333333</ele><time>2026-04-08T15:35:52.999Z</time></trkpt><trkpt lat="43.486325925311164" lon="11.37204234929785"><ele>515.0</ele><time>2026-04-08T15:35:53.999Z</time></trkpt><trkpt lat="43.48634678837529" lon="11.372245421849065"><ele>515.0</ele><time>2026-04-08T15:35:54.999Z</time></trkpt><trkpt lat="43.486365579385264" lon="11.37243648804889"><ele>515.0</ele><time>2026-04-08T15:35:55.999Z</time></trkpt><trkpt lat="43.4863862677236" lon="11.372617341976602"><ele>515.0</ele><time>2026-04-08T15:35:56.999Z</time></trkpt><trkpt lat="43.48640374335143" lon="11.372787911322977"><ele>515.0</ele><time>2026-04-08T15:35:57.999Z</time></trkpt><trkpt lat="43.486398940883475" lon="11.37295154322684"><ele>518.75</ele><time>2026-04-08T15:35:58.999Z</time></trkpt><trkpt lat="43.48639738283866" lon="11.37309819614343"><ele>522.5</ele><time>2026-04-08T15:35:59.999Z</time></trkpt><trkpt lat="43.48638451365156" lon="11.373211281863815"><ele>526.25</ele><time>2026-04-08T15:36:00.999Z</time></trkpt><trkpt lat="43.48635842883758" lon="11.37335204792531"><ele>530.0</ele><time>2026-04-08T15:36:02.999Z</time></trkpt><trkpt lat="43.486305321817945" lon="11.373555901032908"><ele>527.75</ele><time>2026-04-08T15:36:04.999Z</time></trkpt><trkpt lat="43.486253857664664" lon="11.373708766471408"><ele>525.5</ele><time>2026-04-08T15:36:05.999Z</time></trkpt><trkpt lat="43.486206233845785" lon="11.373871545890571"><ele>523.25</ele><time>2026-04-08T15:36:06.999Z</time></trkpt><trkpt lat="43.4861643724769" lon="11.374045028165432"><ele>521.0</ele><time>2026-04-08T15:36:07.999Z</time></trkpt><trkpt lat="43.48612857384034" lon="11.37421551747034"><ele>521.0</ele><time>2026-04-08T15:36:08.999Z</time></trkpt><trkpt lat="43.48610723071524" lon="11.374368614439659"><ele>521.0</ele><time>2026-04-08T15:36:09.999Z</time></trkpt><trkpt lat="43.48612328300136" lon="11.37450515240841"><ele>521.0</ele><time>2026-04-08T15:36:10.999Z</time></trkpt><trkpt lat="43.48616569364216" lon="11.374624854951646"><ele>521.0</ele><time>2026-04-08T15:36:11.999Z</time></trkpt><trkpt lat="43.48623185469258" lon="11.374723436360759"><ele>521.0</ele><time>2026-04-08T15:36:12.999Z</time></trkpt><trkpt lat="43.48628976949425" lon="11.374852680454278"><ele>523.75</ele><time>2026-04-08T15:36:13.999Z</time></trkpt><trkpt lat="43.48637128130571" lon="11.374987332913351"><ele>526.5</ele><time>2026-04-08T15:36:14.999Z</time></trkpt><trkpt lat="43.48647631484429" lon="11.37513214707995"><ele>529.25</ele><time>2026-04-08T15:36:15.999Z</time></trkpt><trkpt lat="43.486569995292555" lon="11.375287417710096"><ele>532.0</ele><time>2026-04-08T15:36:16.999Z</time></trkpt><trkpt lat="43.48665537453537" lon="11.375426727983289"><ele>530.0</ele><time>2026-04-08T15:36:17.999Z</time></trkpt><trkpt lat="43.486731898928376" lon="11.37555481135969"><ele>528.0</ele><time>2026-04-08T15:36:18.999Z</time></trkpt><trkpt lat="43.486796881675026" lon="11.375661254497668"><ele>526.0</ele><time>2026-04-08T15:36:19.999Z</time></trkpt><trkpt lat="43.4868480622457" lon="11.375749285448729"><ele>524.0</ele><time>2026-04-08T15:36:20.998Z</time></trkpt><trkpt lat="43.486890082681384" lon="11.375842662282077"><ele>522.0</ele><time>2026-04-08T15:36:21.998Z</time></trkpt><trkpt lat="43.486917949268175" lon="11.375953492924959"><ele>522.0</ele><time>2026-04-08T15:36:22.998Z</time></trkpt><trkpt lat="43.48691021940425" lon="11.376089406184233"><ele>522.0</ele><time>2026-04-08T15:36:23.998Z</time></trkpt><trkpt lat="43.486899282317246" lon="11.376229407802569"><ele>522.0</ele><time>2026-04-08T15:36:24.998Z</time></trkpt><trkpt lat="43.486903901262345" lon="11.376397742322487"><ele>522.0</ele><time>2026-04-08T15:36:25.998Z</time></trkpt><trkpt lat="43.48688832996042" lon="11.376571097111864"><ele>520.25</ele><time>2026-04-08T15:36:26.998Z</time></trkpt><trkpt lat="43.48687333377446" lon="11.376756283140425"><ele>518.5</ele><time>2026-04-08T15:36:27.998Z</time></trkpt><trkpt lat="43.486861500467285" lon="11.376950039864283"><ele>516.75</ele><time>2026-04-08T15:36:28.998Z</time></trkpt><trkpt lat="43.48684704177862" lon="11.377142951919385"><ele>515.0</ele><time>2026-04-08T15:36:29.998Z</time></trkpt><trkpt lat="43.48683500105819" lon="11.37732490938423"><ele>515.0</ele><time>2026-04-08T15:36:30.998Z</time></trkpt><trkpt lat="43.486821467874755" lon="11.377499787900168"><ele>515.0</ele><time>2026-04-08T15:36:31.998Z</time></trkpt><trkpt lat="43.48681038007549" lon="11.377671625504133"><ele>515.0</ele><time>2026-04-08T15:36:32.998Z</time></trkpt><trkpt lat="43.48680713993549" lon="11.377836323897196"><ele>515.0</ele><time>2026-04-08T15:36:33.998Z</time></trkpt><trkpt lat="43.486826448350655" lon="11.378006570772824"><ele>513.75</ele><time>2026-04-08T15:36:34.998Z</time></trkpt><trkpt lat="43.48686685696623" lon="11.378183502080995"><ele>512.5</ele><time>2026-04-08T15:36:35.998Z</time></trkpt><trkpt lat="43.486922208971635" lon="11.378362877233107"><ele>511.25</ele><time>2026-04-08T15:36:36.998Z</time></trkpt><trkpt lat="43.48698656684198" lon="11.378528931622297"><ele>510.0</ele><time>2026-04-08T15:36:37.998Z</time></trkpt><trkpt lat="43.48706351444793" lon="11.378684433525066"><ele>509.0</ele><time>2026-04-08T15:36:38.998Z</time></trkpt><trkpt lat="43.487148281584716" lon="11.378831602096506"><ele>508.0</ele><time>2026-04-08T15:36:39.998Z</time></trkpt><trkpt lat="43.48723944156808" lon="11.378987247806146"><ele>507.0</ele><time>2026-04-08T15:36:40.998Z</time></trkpt><trkpt lat="43.48732626587931" lon="11.379140454428013"><ele>506.0</ele><time>2026-04-08T15:36:41.998Z</time></trkpt><trkpt lat="43.487407847582226" lon="11.37928753897292"><ele>506.0</ele><time>2026-04-08T15:36:43Z</time></trkpt><trkpt lat="43.48748479558558" lon="11.37943089269727"><ele>506.0</ele><time>2026-04-08T15:36:44Z</time></trkpt><trkpt lat="43.48758626247379" lon="11.379516104768285"><ele>506.0</ele><time>2026-04-08T15:36:45Z</time></trkpt><trkpt lat="43.48767443915688" lon="11.379594375186715"><ele>506.0</ele><time>2026-04-08T15:36:46Z</time></trkpt><trkpt lat="43.487743596303226" lon="11.379700485598624"><ele>505.4</ele><time>2026-04-08T15:36:47Z</time></trkpt><trkpt lat="43.487797250447784" lon="11.379807022696992"><ele>504.8</ele><time>2026-04-08T15:36:48Z</time></trkpt><trkpt lat="43.48781550347561" lon="11.37992176473034"><ele>504.19999999999993</ele><time>2026-04-08T15:36:49Z</time></trkpt><trkpt lat="43.4878341425812" lon="11.380068926026606"><ele>503.59999999999997</ele><time>2026-04-08T15:36:50Z</time></trkpt><trkpt lat="43.48786198597682" lon="11.380235717639021"><ele>503.0</ele><time>2026-04-08T15:36:51Z</time></trkpt><trkpt lat="43.487877100551316" lon="11.380408277588765"><ele>502.5</ele><time>2026-04-08T15:36:52Z</time></trkpt><trkpt lat="43.48789713466836" lon="11.380583992971285"><ele>502.0</ele><time>2026-04-08T15:36:53Z</time></trkpt><trkpt lat="43.487922759800036" lon="11.380757374947068"><ele>501.5</ele><time>2026-04-08T15:36:54Z</time></trkpt><trkpt lat="43.487953904102476" lon="11.38092599293958"><ele>501.0</ele><time>2026-04-08T15:36:55Z</time></trkpt><trkpt lat="43.487976587534654" lon="11.381098998285193"><ele>497.25</ele><time>2026-04-08T15:36:56Z</time></trkpt><trkpt lat="43.48803442339103" lon="11.381247986765507"><ele>493.5</ele><time>2026-04-08T15:36:57Z</time></trkpt><trkpt lat="43.48808293531015" lon="11.381398370377735"><ele>489.75</ele><time>2026-04-08T15:36:58Z</time></trkpt><trkpt lat="43.48814078873345" lon="11.381548703113019"><ele>486.0</ele><time>2026-04-08T15:36:59Z</time></trkpt><trkpt lat="43.48818370028816" lon="11.381707654225988"><ele>486.0</ele><time>2026-04-08T15:37:00Z</time></trkpt><trkpt lat="43.488241130305994" lon="11.381853431716435"><ele>486.0</ele><time>2026-04-08T15:37:01Z</time></trkpt><trkpt lat="43.488315896828155" lon="11.381984746839576"><ele>486.0</ele><time>2026-04-08T15:37:02Z</time></trkpt><trkpt lat="43.48837982814864" lon="11.382125373070874"><ele>486.0</ele><time>2026-04-08T15:37:03Z</time></trkpt><trkpt lat="43.48844890313682" lon="11.382260424691736"><ele>484.5</ele><time>2026-04-08T15:37:04Z</time></trkpt><trkpt lat="43.488526274421496" lon="11.382390932576428"><ele>483.0</ele><time>2026-04-08T15:37:05Z</time></trkpt><trkpt lat="43.48861589858681" lon="11.382516705027562"><ele>481.5</ele><time>2026-04-08T15:37:06Z</time></trkpt><trkpt lat="43.48871268123967" lon="11.382629264928424"><ele>480.0</ele><time>2026-04-08T15:37:07Z</time></trkpt><trkpt lat="43.48881597036098" lon="11.382727787149745"><ele>479.5</ele><time>2026-04-08T15:37:08Z</time></trkpt><trkpt lat="43.488926120886354" lon="11.382823235166901"><ele>479.0</ele><time>2026-04-08T15:37:09Z</time></trkpt><trkpt lat="43.48903925630032" lon="11.382917063485944"><ele>478.5</ele><time>2026-04-08T15:37:10Z</time></trkpt><trkpt lat="43.48914627530422" lon="11.383039319929104"><ele>478.0</ele><time>2026-04-08T15:37:11Z</time></trkpt><trkpt lat="43.48924933388778" lon="11.383124573099197"><ele>476.0</ele><time>2026-04-08T15:37:12Z</time></trkpt><trkpt lat="43.48935663726581" lon="11.383239437203537"><ele>474.0</ele><time>2026-04-08T15:37:13Z</time></trkpt><trkpt lat="43.48946390961501" lon="11.383357706118383"><ele>472.0</ele><time>2026-04-08T15:37:14Z</time></trkpt><trkpt lat="43.48956826766132" lon="11.383470931578836"><ele>470.0</ele><time>2026-04-08T15:37:15Z</time></trkpt><trkpt lat="43.48967116261853" lon="11.383583921331589"><ele>468.25</ele><time>2026-04-08T15:37:16Z</time></trkpt><trkpt lat="43.489775090163334" lon="11.383697880526249"><ele>466.5</ele><time>2026-04-08T15:37:17Z</time></trkpt><trkpt lat="43.48986152006337" lon="11.38382835017771"><ele>464.75</ele><time>2026-04-08T15:37:18Z</time></trkpt><trkpt lat="43.489931978599074" lon="11.38395145620736"><ele>463.0</ele><time>2026-04-08T15:37:19Z</time></trkpt><trkpt lat="43.489981493460085" lon="11.384070060975962"><ele>463.0</ele><time>2026-04-08T15:37:19.999Z</time></trkpt><trkpt lat="43.49001474556002" lon="11.384194015076865"><ele>462.99999999999994</ele><time>2026-04-08T15:37:20.999Z</time></trkpt><trkpt lat="43.490024917079964" lon="11.384335580465978"><ele>462.99999999999994</ele><time>2026-04-08T15:37:21.999Z</time></trkpt><trkpt lat="43.49004965543925" lon="11.384468199971117"><ele>463.0</ele><time>2026-04-08T15:37:22.999Z</time></trkpt><trkpt lat="43.490063476063234" lon="11.38459972168058"><ele>463.0</ele><time>2026-04-08T15:37:23.999Z</time></trkpt><trkpt lat="43.49008329046846" lon="11.384723428126204"><ele>462.0</ele><time>2026-04-08T15:37:24.999Z</time></trkpt><trkpt lat="43.49011480744509" lon="11.384838849947585"><ele>460.99999999999994</ele><time>2026-04-08T15:37:25.999Z</time></trkpt><trkpt lat="43.490168565242755" lon="11.384941512527558"><ele>459.99999999999994</ele><time>2026-04-08T15:37:26.999Z</time></trkpt><trkpt lat="43.49023711552855" lon="11.385048205147031"><ele>459.0</ele><time>2026-04-08T15:37:27.999Z</time></trkpt><trkpt lat="43.4902920441737" lon="11.385136722020826"><ele>458.0</ele><time>2026-04-08T15:37:28.999Z</time></trkpt><trkpt lat="43.49031587505735" lon="11.385258824307899"><ele>458.0</ele><time>2026-04-08T15:37:29.999Z</time></trkpt><trkpt lat="43.490322030511685" lon="11.38542569215355"><ele>458.0</ele><time>2026-04-08T15:37:30.999Z</time></trkpt><trkpt lat="43.49031811407089" lon="11.385623161994236"><ele>458.0</ele><time>2026-04-08T15:37:31.999Z</time></trkpt><trkpt lat="43.490308669661" lon="11.385795499383567"><ele>458.0</ele><time>2026-04-08T15:37:32.999Z</time></trkpt><trkpt lat="43.490289125982784" lon="11.385931065204081"><ele>458.2</ele><time>2026-04-08T15:37:33.999Z</time></trkpt><trkpt lat="43.490250433092825" lon="11.386047067320213"><ele>458.4</ele><time>2026-04-08T15:37:34.999Z</time></trkpt><trkpt lat="43.49017865221117" lon="11.38614173756487"><ele>458.59999999999997</ele><time>2026-04-08T15:37:35.999Z</time></trkpt><trkpt lat="43.49009355930037" lon="11.386224717819546"><ele>458.79999999999995</ele><time>2026-04-08T15:37:36.999Z</time></trkpt><trkpt lat="43.49001227525832" lon="11.386282221681716"><ele>459.0</ele><time>2026-04-08T15:37:37.999Z</time></trkpt><trkpt lat="43.489950281679555" lon="11.386303135128484"><ele>459.0</ele><time>2026-04-08T15:37:38.999Z</time></trkpt><trkpt lat="43.489834137183884" lon="11.386229528678758"><ele>459.0</ele><time>2026-04-08T15:37:40.999Z</time></trkpt><trkpt lat="43.4897830329796" lon="11.386172880261345"><ele>459.0</ele><time>2026-04-08T15:37:41.999Z</time></trkpt><trkpt lat="43.48969424269102" lon="11.386218149032423"><ele>459.0</ele><time>2026-04-08T15:37:43.999Z</time></trkpt><trkpt lat="43.48966265788746" lon="11.386298329472902"><ele>459.0</ele><time>2026-04-08T15:37:44.999Z</time></trkpt><trkpt lat="43.489649021298646" lon="11.386417095238887"><ele>459.0</ele><time>2026-04-08T15:37:45.999Z</time></trkpt><trkpt lat="43.48963092596103" lon="11.386564826089103"><ele>460.0</ele><time>2026-04-08T15:37:46.999Z</time></trkpt><trkpt lat="43.48960315569134" lon="11.386709356393048"><ele>461.0</ele><time>2026-04-08T15:37:47.999Z</time></trkpt><trkpt lat="43.48956840592509" lon="11.386891803216724"><ele>462.0</ele><time>2026-04-08T15:37:48.999Z</time></trkpt><trkpt lat="43.48953705390301" lon="11.387122376288094"><ele>463.0</ele><time>2026-04-08T15:37:49.999Z</time></trkpt><trkpt lat="43.48951536117032" lon="11.387354033510665"><ele>459.0</ele><time>2026-04-08T15:37:50.999Z</time></trkpt><trkpt lat="43.48947861267002" lon="11.387600352429581"><ele>455.0</ele><time>2026-04-08T15:37:51.999Z</time></trkpt><trkpt lat="43.48947180873468" lon="11.387874200980269"><ele>451.0</ele><time>2026-04-08T15:37:52.999Z</time></trkpt><trkpt lat="43.489445712101556" lon="11.388144144595975"><ele>451.0</ele><time>2026-04-08T15:37:53.999Z</time></trkpt><trkpt lat="43.48941034291307" lon="11.388413811628514"><ele>451.0</ele><time>2026-04-08T15:37:54.999Z</time></trkpt><trkpt lat="43.48937234082312" lon="11.38868416016481"><ele>451.0</ele><time>2026-04-08T15:37:55.999Z</time></trkpt><trkpt lat="43.489309411011" lon="11.388896106760543"><ele>452.0</ele><time>2026-04-08T15:37:56.999Z</time></trkpt><trkpt lat="43.48927854088128" lon="11.389051984302"><ele>453.0</ele><time>2026-04-08T15:37:57.999Z</time></trkpt><trkpt lat="43.489245567081106" lon="11.3891764790823"><ele>454.0</ele><time>2026-04-08T15:37:58.999Z</time></trkpt><trkpt lat="43.48926371591034" lon="11.389331300415538"><ele>455.0</ele><time>2026-04-08T15:37:59.999Z</time></trkpt><trkpt lat="43.48931783446304" lon="11.38951054931814"><ele>454.3333333333333</ele><time>2026-04-08T15:38:00.999Z</time></trkpt><trkpt lat="43.4893942633513" lon="11.389695629079982"><ele>453.66666666666663</ele><time>2026-04-08T15:38:01.999Z</time></trkpt><trkpt lat="43.4894707617677" lon="11.389877390032822"><ele>453.0</ele><time>2026-04-08T15:38:02.999Z</time></trkpt><trkpt lat="43.48951799181685" lon="11.390063343702225"><ele>453.0</ele><time>2026-04-08T15:38:03.999Z</time></trkpt><trkpt lat="43.489574749244085" lon="11.390235567856848"><ele>453.0</ele><time>2026-04-08T15:38:04.999Z</time></trkpt><trkpt lat="43.48965856868822" lon="11.390406825385242"><ele>453.0</ele><time>2026-04-08T15:38:05.999Z</time></trkpt><trkpt lat="43.48972453383452" lon="11.39058681164062"><ele>453.0</ele><time>2026-04-08T15:38:06.999Z</time></trkpt><trkpt lat="43.489799843462535" lon="11.3907413327585"><ele>454.5</ele><time>2026-04-08T15:38:07.999Z</time></trkpt><trkpt lat="43.48988276903797" lon="11.390882439232938"><ele>456.0</ele><time>2026-04-08T15:38:08.999Z</time></trkpt><trkpt lat="43.48997600971744" lon="11.391009622631925"><ele>457.5</ele><time>2026-04-08T15:38:09.999Z</time></trkpt><trkpt lat="43.490075797862616" lon="11.3911264690662"><ele>459.0</ele><time>2026-04-08T15:38:10.999Z</time></trkpt><trkpt lat="43.490142896638986" lon="11.391262085435523"><ele>458.4</ele><time>2026-04-08T15:38:11.999Z</time></trkpt><trkpt lat="43.49019000581574" lon="11.391403737343097"><ele>457.79999999999995</ele><time>2026-04-08T15:38:12.999Z</time></trkpt><trkpt lat="43.49018754986869" lon="11.39154725608888"><ele>457.20000000000005</ele><time>2026-04-08T15:38:13.999Z</time></trkpt><trkpt lat="43.49019586977495" lon="11.39169335211257"><ele>456.6</ele><time>2026-04-08T15:38:14.999Z</time></trkpt><trkpt lat="43.490180011775664" lon="11.391853309929585"><ele>456.0</ele><time>2026-04-08T15:38:15.999Z</time></trkpt><trkpt lat="43.490172304439795" lon="11.392020629423664"><ele>456.0</ele><time>2026-04-08T15:38:16.999Z</time></trkpt><trkpt lat="43.490172600505055" lon="11.392172133114503"><ele>456.0</ele><time>2026-04-08T15:38:17.999Z</time></trkpt><trkpt lat="43.490182620073746" lon="11.392315086000002"><ele>456.0</ele><time>2026-04-08T15:38:18.999Z</time></trkpt><trkpt lat="43.49018516623224" lon="11.39245675540762"><ele>456.0</ele><time>2026-04-08T15:38:19.999Z</time></trkpt><trkpt lat="43.49023836354044" lon="11.392603255832759"><ele>456.0</ele><time>2026-04-08T15:38:20.998Z</time></trkpt><trkpt lat="43.490278643362075" lon="11.392762378693112"><ele>456.20000000000005</ele><time>2026-04-08T15:38:21.998Z</time></trkpt><trkpt lat="43.49032071400411" lon="11.392908919179023"><ele>456.40000000000003</ele><time>2026-04-08T15:38:22.998Z</time></trkpt><trkpt lat="43.490367911267256" lon="11.393033308972923"><ele>456.6</ele><time>2026-04-08T15:38:23.998Z</time></trkpt><trkpt lat="43.49040612124116" lon="11.393156624736413"><ele>456.8</ele><time>2026-04-08T15:38:24.998Z</time></trkpt><trkpt lat="43.49041946088228" lon="11.393300353974732"><ele>457.0</ele><time>2026-04-08T15:38:25.998Z</time></trkpt><trkpt lat="43.490415834826" lon="11.393442417056836"><ele>457.6</ele><time>2026-04-08T15:38:26.998Z</time></trkpt><trkpt lat="43.49037634428393" lon="11.393575959747926"><ele>458.20000000000005</ele><time>2026-04-08T15:38:27.998Z</time></trkpt><trkpt lat="43.49036015024857" lon="11.393705721413584"><ele>458.8</ele><time>2026-04-08T15:38:28.998Z</time></trkpt><trkpt lat="43.49030769508592" lon="11.393823476291752"><ele>459.4</ele><time>2026-04-08T15:38:29.998Z</time></trkpt><trkpt lat="43.490253156231006" lon="11.393950597589777"><ele>460.0</ele><time>2026-04-08T15:38:30.998Z</time></trkpt><trkpt lat="43.490203108633835" lon="11.39407465809508"><ele>461.0</ele><time>2026-04-08T15:38:31.998Z</time></trkpt><trkpt lat="43.49015286738669" lon="11.394195984337188"><ele>462.0</ele><time>2026-04-08T15:38:32.998Z</time></trkpt><trkpt lat="43.49010644201571" lon="11.394345544792943"><ele>463.0</ele><time>2026-04-08T15:38:33.998Z</time></trkpt><trkpt lat="43.49008373702697" lon="11.394520846485428"><ele>464.0</ele><time>2026-04-08T15:38:34.998Z</time></trkpt><trkpt lat="43.490074780290854" lon="11.394736878031823"><ele>465.66666666666663</ele><time>2026-04-08T15:38:35.998Z</time></trkpt><trkpt lat="43.490090546631066" lon="11.394991639314524"><ele>467.33333333333337</ele><time>2026-04-08T15:38:36.998Z</time></trkpt><trkpt lat="43.49010767806924" lon="11.395269925158162"><ele>469.0</ele><time>2026-04-08T15:38:37.998Z</time></trkpt><trkpt lat="43.49010509925024" lon="11.395550346779109"><ele>470.33333333333337</ele><time>2026-04-08T15:38:38.998Z</time></trkpt><trkpt lat="43.49009826865295" lon="11.395822353631921"><ele>471.66666666666663</ele><time>2026-04-08T15:38:39.998Z</time></trkpt><trkpt lat="43.4900661084596" lon="11.396067347012039"><ele>473.0</ele><time>2026-04-08T15:38:40.998Z</time></trkpt><trkpt lat="43.4900107554177" lon="11.39625872063958"><ele>473.0</ele><time>2026-04-08T15:38:41.998Z</time></trkpt><trkpt lat="43.489965360902396" lon="11.396396446604216"><ele>473.0</ele><time>2026-04-08T15:38:42.998Z</time></trkpt><trkpt lat="43.489902529226484" lon="11.396532776176036"><ele>473.0</ele><time>2026-04-08T15:38:43.998Z</time></trkpt><trkpt lat="43.48978618064575" lon="11.396651087981775"><ele>473.0</ele><time>2026-04-08T15:38:44.998Z</time></trkpt><trkpt lat="43.489657829153984" lon="11.396788508375641"><ele>478.0</ele><time>2026-04-08T15:38:45.998Z</time></trkpt><trkpt lat="43.489553464012744" lon="11.396987357602598"><ele>483.0</ele><time>2026-04-08T15:38:46.998Z</time></trkpt><trkpt lat="43.48946389071056" lon="11.397225132000719"><ele>488.0</ele><time>2026-04-08T15:38:48Z</time></trkpt><trkpt lat="43.489357156128996" lon="11.397482603284269"><ele>488.66666666666663</ele><time>2026-04-08T15:38:49Z</time></trkpt><trkpt lat="43.48923316299583" lon="11.3977424109129"><ele>489.33333333333337</ele><time>2026-04-08T15:38:50Z</time></trkpt><trkpt lat="43.48911076139754" lon="11.397987867593434"><ele>490.0</ele><time>2026-04-08T15:38:51Z</time></trkpt><trkpt lat="43.48898921949991" lon="11.398237407417264"><ele>487.0</ele><time>2026-04-08T15:38:52Z</time></trkpt><trkpt lat="43.48886271339874" lon="11.398510154102182"><ele>484.0</ele><time>2026-04-08T15:38:53Z</time></trkpt><trkpt lat="43.48873886245229" lon="11.398785540277691"><ele>489.33333333333337</ele><time>2026-04-08T15:38:54Z</time></trkpt><trkpt lat="43.488630241798504" lon="11.399023879516845"><ele>494.66666666666663</ele><time>2026-04-08T15:38:55Z</time></trkpt><trkpt lat="43.4885304191605" lon="11.399239998093012"><ele>500.0</ele><time>2026-04-08T15:38:56Z</time></trkpt><trkpt lat="43.48844191448004" lon="11.399422306421037"><ele>500.0</ele><time>2026-04-08T15:38:57Z</time></trkpt><trkpt lat="43.48835164332349" lon="11.39955687408562"><ele>500.0</ele><time>2026-04-08T15:38:58Z</time></trkpt><trkpt lat="43.488240042399575" lon="11.399656884425973"><ele>500.0</ele><time>2026-04-08T15:38:59Z</time></trkpt><trkpt lat="43.48810368873593" lon="11.399693312171998"><ele>500.0</ele><time>2026-04-08T15:39:00Z</time></trkpt><trkpt lat="43.48796466214644" lon="11.3997345910023"><ele>500.25</ele><time>2026-04-08T15:39:01Z</time></trkpt><trkpt lat="43.4878170805809" lon="11.39973656315949"><ele>500.5</ele><time>2026-04-08T15:39:02Z</time></trkpt><trkpt lat="43.48768882622731" lon="11.399724930392507"><ele>500.75</ele><time>2026-04-08T15:39:03Z</time></trkpt><trkpt lat="43.48756316316738" lon="11.399696509121993"><ele>501.0</ele><time>2026-04-08T15:39:04Z</time></trkpt><trkpt lat="43.48740922882091" lon="11.399663532106825"><ele>501.0</ele><time>2026-04-08T15:39:05Z</time></trkpt><trkpt lat="43.48722452095159" lon="11.399633626124782"><ele>501.0</ele><time>2026-04-08T15:39:06Z</time></trkpt><trkpt lat="43.48702625699615" lon="11.399596856877743"><ele>501.0</ele><time>2026-04-08T15:39:07Z</time></trkpt><trkpt lat="43.48682692925988" lon="11.399548330772973"><ele>501.0</ele><time>2026-04-08T15:39:08Z</time></trkpt><trkpt lat="43.48663685262319" lon="11.399498625759561"><ele>501.0</ele><time>2026-04-08T15:39:09Z</time></trkpt><trkpt lat="43.48645557600126" lon="11.399449902167325"><ele>501.0</ele><time>2026-04-08T15:39:10Z</time></trkpt><trkpt lat="43.48628981033859" lon="11.399406174573743"><ele>496.25</ele><time>2026-04-08T15:39:11Z</time></trkpt><trkpt lat="43.48616156793351" lon="11.399351562827697"><ele>491.5</ele><time>2026-04-08T15:39:12Z</time></trkpt><trkpt lat="43.48606967619662" lon="11.399266739197325"><ele>486.75</ele><time>2026-04-08T15:39:13Z</time></trkpt><trkpt lat="43.48600979300784" lon="11.39915251810052"><ele>482.0</ele><time>2026-04-08T15:39:14Z</time></trkpt><trkpt lat="43.48597979149517" lon="11.399006416169492"><ele>483.25</ele><time>2026-04-08T15:39:15Z</time></trkpt><trkpt lat="43.48598843858823" lon="11.398830416602015"><ele>484.5</ele><time>2026-04-08T15:39:16Z</time></trkpt><trkpt lat="43.48602536204197" lon="11.398627210298955"><ele>485.75</ele><time>2026-04-08T15:39:17Z</time></trkpt><trkpt lat="43.486046472084055" lon="11.398434934076642"><ele>487.0</ele><time>2026-04-08T15:39:18Z</time></trkpt><trkpt lat="43.48602243262888" lon="11.398261608045708"><ele>487.0</ele><time>2026-04-08T15:39:19Z</time></trkpt><trkpt lat="43.48595175615994" lon="11.39810928715247"><ele>487.0</ele><time>2026-04-08T15:39:20Z</time></trkpt><trkpt lat="43.485859090707" lon="11.397984024487911"><ele>487.0</ele><time>2026-04-08T15:39:20.999Z</time></trkpt><trkpt lat="43.48574092279952" lon="11.397908303377081"><ele>487.0</ele><time>2026-04-08T15:39:21.999Z</time></trkpt><trkpt lat="43.48559618266476" lon="11.397887536689602"><ele>486.6666666666667</ele><time>2026-04-08T15:39:22.999Z</time></trkpt><trkpt lat="43.48541975031427" lon="11.397909764655324"><ele>486.33333333333337</ele><time>2026-04-08T15:39:23.999Z</time></trkpt><trkpt lat="43.48524790170139" lon="11.397941902407783"><ele>486.0</ele><time>2026-04-08T15:39:24.999Z</time></trkpt><trkpt lat="43.48509796014687" lon="11.397937664660535"><ele>486.0</ele><time>2026-04-08T15:39:25.999Z</time></trkpt><trkpt lat="43.484964390472584" lon="11.397886547819713"><ele>486.0</ele><time>2026-04-08T15:39:26.999Z</time></trkpt><trkpt lat="43.48485192238223" lon="11.397784245702598"><ele>486.0</ele><time>2026-04-08T15:39:27.999Z</time></trkpt><trkpt lat="43.4847480011889" lon="11.397627952770426"><ele>486.0</ele><time>2026-04-08T15:39:28.999Z</time></trkpt><trkpt lat="43.484643629980916" lon="11.397446396865346"><ele>482.25</ele><time>2026-04-08T15:39:29.999Z</time></trkpt><trkpt lat="43.48454603867847" lon="11.397293155861158"><ele>478.5</ele><time>2026-04-08T15:39:30.999Z</time></trkpt><trkpt lat="43.48448150177488" lon="11.397165802728809"><ele>474.75</ele><time>2026-04-08T15:39:31.999Z</time></trkpt><trkpt lat="43.48445450791232" lon="11.397029104261858"><ele>471.0</ele><time>2026-04-08T15:39:32.999Z</time></trkpt><trkpt lat="43.48446682648586" lon="11.396871638466322"><ele>471.0</ele><time>2026-04-08T15:39:33.999Z</time></trkpt><trkpt lat="43.48451448333724" lon="11.396685013490641"><ele>471.0</ele><time>2026-04-08T15:39:34.999Z</time></trkpt><trkpt lat="43.48455085546567" lon="11.396509396312252"><ele>471.0</ele><time>2026-04-08T15:39:35.999Z</time></trkpt><trkpt lat="43.48454770232047" lon="11.396343342358822"><ele>471.0</ele><time>2026-04-08T15:39:36.999Z</time></trkpt><trkpt lat="43.484498369264124" lon="11.396185541721083"><ele>472.5</ele><time>2026-04-08T15:39:37.999Z</time></trkpt><trkpt lat="43.48440818593376" lon="11.396043550158465"><ele>474.0</ele><time>2026-04-08T15:39:38.999Z</time></trkpt><trkpt lat="43.48428461548491" lon="11.395931891213445"><ele>475.5</ele><time>2026-04-08T15:39:39.999Z</time></trkpt><trkpt lat="43.484136178884285" lon="11.395862696315652"><ele>477.0</ele><time>2026-04-08T15:39:40.999Z</time></trkpt><trkpt lat="43.483967738484914" lon="11.395842591646383"><ele>477.0</ele><time>2026-04-08T15:39:41.999Z</time></trkpt><trkpt lat="43.48377858111313" lon="11.395871138789726"><ele>477.0</ele><time>2026-04-08T15:39:42.999Z</time></trkpt><trkpt lat="43.48357151811286" lon="11.395945101849355"><ele>477.0</ele><time>2026-04-08T15:39:43.999Z</time></trkpt><trkpt lat="43.48338915012286" lon="11.396007598452657"><ele>474.66666666666663</ele><time>2026-04-08T15:39:44.999Z</time></trkpt><trkpt lat="43.48321657883332" lon="11.396080683236587"><ele>472.3333333333333</ele><time>2026-04-08T15:39:45.999Z</time></trkpt><trkpt lat="43.48305576525604" lon="11.396164405471202"><ele>470.0</ele><time>2026-04-08T15:39:46.999Z</time></trkpt><trkpt lat="43.4829068850059" lon="11.396234263127882"><ele>469.0</ele><time>2026-04-08T15:39:47.999Z</time></trkpt><trkpt lat="43.48278843521272" lon="11.396258314688268"><ele>468.0</ele><time>2026-04-08T15:39:48.999Z</time></trkpt><trkpt lat="43.4826960918835" lon="11.396236095022392"><ele>467.0</ele><time>2026-04-08T15:39:49.999Z</time></trkpt><trkpt lat="43.48262201194047" lon="11.396166319611305"><ele>466.0</ele><time>2026-04-08T15:39:50.999Z</time></trkpt><trkpt lat="43.48255275576849" lon="11.396061889807063"><ele>465.0</ele><time>2026-04-08T15:39:51.999Z</time></trkpt><trkpt lat="43.48248380028673" lon="11.395900380183885"><ele>465.0</ele><time>2026-04-08T15:39:52.999Z</time></trkpt><trkpt lat="43.48240260382115" lon="11.395759767688089"><ele>465.0</ele><time>2026-04-08T15:39:53.999Z</time></trkpt><trkpt lat="43.48230281809722" lon="11.395651352699815"><ele>465.0</ele><time>2026-04-08T15:39:54.999Z</time></trkpt><trkpt lat="43.48218684180218" lon="11.395578642012934"><ele>465.0</ele><time>2026-04-08T15:39:55.999Z</time></trkpt><trkpt lat="43.4820449549011" lon="11.395542446407799"><ele>462.33333333333337</ele><time>2026-04-08T15:39:56.999Z</time></trkpt><trkpt lat="43.48188970640625" lon="11.395567130086357"><ele>459.6666666666667</ele><time>2026-04-08T15:39:57.999Z</time></trkpt><trkpt lat="43.48173748851612" lon="11.395629152240918"><ele>457.0</ele><time>2026-04-08T15:39:58.999Z</time></trkpt><trkpt lat="43.48160299021892" lon="11.395698369370669"><ele>457.0</ele><time>2026-04-08T15:39:59.999Z</time></trkpt><trkpt lat="43.481480258718776" lon="11.395759060823346"><ele>457.0</ele><time>2026-04-08T15:40:00.999Z</time></trkpt><trkpt lat="43.48136077846134" lon="11.395755854678598"><ele>457.0</ele><time>2026-04-08T15:40:01.999Z</time></trkpt><trkpt lat="43.48123199600881" lon="11.395752427000717"><ele>457.0</ele><time>2026-04-08T15:40:02.999Z</time></trkpt><trkpt lat="43.48109224472437" lon="11.395705111118314"><ele>456.20000000000005</ele><time>2026-04-08T15:40:03.999Z</time></trkpt><trkpt lat="43.48096533703306" lon="11.395659206292285"><ele>455.40000000000003</ele><time>2026-04-08T15:40:04.999Z</time></trkpt><trkpt lat="43.48087756655815" lon="11.395596732702282"><ele>454.59999999999997</ele><time>2026-04-08T15:40:05.999Z</time></trkpt><trkpt lat="43.48080354455331" lon="11.395510920106155"><ele>453.79999999999995</ele><time>2026-04-08T15:40:06.999Z</time></trkpt><trkpt lat="43.48074796638121" lon="11.395398939207421"><ele>453.0</ele><time>2026-04-08T15:40:07.999Z</time></trkpt><trkpt lat="43.480714564087975" lon="11.39526751955737"><ele>453.0</ele><time>2026-04-08T15:40:08.999Z</time></trkpt><trkpt lat="43.48070053445833" lon="11.395115503870523"><ele>453.0</ele><time>2026-04-08T15:40:09.999Z</time></trkpt><trkpt lat="43.48073232678318" lon="11.394943019738518"><ele>453.0</ele><time>2026-04-08T15:40:10.999Z</time></trkpt><trkpt lat="43.480809773099985" lon="11.394741972508555"><ele>453.0</ele><time>2026-04-08T15:40:11.999Z</time></trkpt><trkpt lat="43.48089071159552" lon="11.394547039419946"><ele>453.25</ele><time>2026-04-08T15:40:12.999Z</time></trkpt><trkpt lat="43.480971386764615" lon="11.394333062254411"><ele>453.5</ele><time>2026-04-08T15:40:13.999Z</time></trkpt><trkpt lat="43.481005048929674" lon="11.394149369011862"><ele>453.75</ele><time>2026-04-08T15:40:15.999Z</time></trkpt><trkpt lat="43.48101103634399" lon="11.39399398806747"><ele>454.0</ele><time>2026-04-08T15:40:16.999Z</time></trkpt><trkpt lat="43.48098277827564" lon="11.393833353759046"><ele>454.0</ele><time>2026-04-08T15:40:17.999Z</time></trkpt><trkpt lat="43.48090812272827" lon="11.393684405589934"><ele>454.0</ele><time>2026-04-08T15:40:18.999Z</time></trkpt><trkpt lat="43.480792961611435" lon="11.393560820144518"><ele>454.0</ele><time>2026-04-08T15:40:19.999Z</time></trkpt><trkpt lat="43.48065845144619" lon="11.393475392512682"><ele>454.0</ele><time>2026-04-08T15:40:20.998Z</time></trkpt><trkpt lat="43.48052918487696" lon="11.393443367945483"><ele>451.75</ele><time>2026-04-08T15:40:21.998Z</time></trkpt><trkpt lat="43.480401744255445" lon="11.393464505734709"><ele>449.5</ele><time>2026-04-08T15:40:22.998Z</time></trkpt><trkpt lat="43.48027469557341" lon="11.393526997123868"><ele>447.25</ele><time>2026-04-08T15:40:23.998Z</time></trkpt><trkpt lat="43.48015345725811" lon="11.393563255837782"><ele>445.0</ele><time>2026-04-08T15:40:24.998Z</time></trkpt><trkpt lat="43.48004288262026" lon="11.393526396759846"><ele>445.0</ele><time>2026-04-08T15:40:25.998Z</time></trkpt><trkpt lat="43.47996996060732" lon="11.393430654401957"><ele>445.0</ele><time>2026-04-08T15:40:26.998Z</time></trkpt><trkpt lat="43.4799134988274" lon="11.393306920687065"><ele>445.0</ele><time>2026-04-08T15:40:27.998Z</time></trkpt><trkpt lat="43.479828538042575" lon="11.393150257783507"><ele>445.0</ele><time>2026-04-08T15:40:28.998Z</time></trkpt><trkpt lat="43.479739450571685" lon="11.393012253194728"><ele>445.5</ele><time>2026-04-08T15:40:29.998Z</time></trkpt><trkpt lat="43.479638293374684" lon="11.3929182661681"><ele>446.0</ele><time>2026-04-08T15:40:30.998Z</time></trkpt><trkpt lat="43.47952613557699" lon="11.39290201077132"><ele>446.5</ele><time>2026-04-08T15:40:31.998Z</time></trkpt><trkpt lat="43.47940850096234" lon="11.392953566748918"><ele>447.0</ele><time>2026-04-08T15:40:32.998Z</time></trkpt><trkpt lat="43.47928464036086" lon="11.393071241556207"><ele>444.75</ele><time>2026-04-08T15:40:33.998Z</time></trkpt><trkpt lat="43.47917617194849" lon="11.393233122029248"><ele>442.5</ele><time>2026-04-08T15:40:34.998Z</time></trkpt><trkpt lat="43.47908780334088" lon="11.39338072989581"><ele>440.25</ele><time>2026-04-08T15:40:35.998Z</time></trkpt><trkpt lat="43.47899538478474" lon="11.39346974868205"><ele>438.0</ele><time>2026-04-08T15:40:36.998Z</time></trkpt><trkpt lat="43.47890482034401" lon="11.393484074416074"><ele>438.0</ele><time>2026-04-08T15:40:37.998Z</time></trkpt><trkpt lat="43.478810035096686" lon="11.393432439184172"><ele>438.0</ele><time>2026-04-08T15:40:38.998Z</time></trkpt><trkpt lat="43.47871110418435" lon="11.393307054672213"><ele>438.0</ele><time>2026-04-08T15:40:39.998Z</time></trkpt><trkpt lat="43.47858760273075" lon="11.393165968118813"><ele>438.0</ele><time>2026-04-08T15:40:40.998Z</time></trkpt><trkpt lat="43.478464372220174" lon="11.393004698205127"><ele>437.33333333333337</ele><time>2026-04-08T15:40:41.998Z</time></trkpt><trkpt lat="43.47832898203991" lon="11.392849832165322"><ele>436.6666666666667</ele><time>2026-04-08T15:40:42.998Z</time></trkpt><trkpt lat="43.478244507979255" lon="11.392662413133689"><ele>436.0</ele><time>2026-04-08T15:40:43.998Z</time></trkpt><trkpt lat="43.47815491202115" lon="11.392518008259547"><ele>436.0</ele><time>2026-04-08T15:40:44.998Z</time></trkpt><trkpt lat="43.47810241074091" lon="11.392388388382496"><ele>436.0</ele><time>2026-04-08T15:40:45.998Z</time></trkpt><trkpt lat="43.47803544287162" lon="11.3923034200616"><ele>436.0</ele><time>2026-04-08T15:40:46.998Z</time></trkpt><trkpt lat="43.47795181576454" lon="11.392278210423797"><ele>436.0</ele><time>2026-04-08T15:40:47.998Z</time></trkpt><trkpt lat="43.477861790525786" lon="11.392316502379039"><ele>436.0</ele><time>2026-04-08T15:40:48.998Z</time></trkpt><trkpt lat="43.47778912807904" lon="11.392411972499065"><ele>431.5</ele><time>2026-04-08T15:40:49.998Z</time></trkpt><trkpt lat="43.47774728804969" lon="11.392536808750751"><ele>427.0</ele><time>2026-04-08T15:40:50.998Z</time></trkpt><trkpt lat="43.47775776518479" lon="11.392671008977633"><ele>422.5</ele><time>2026-04-08T15:40:51.998Z</time></trkpt><trkpt lat="43.47780981684295" lon="11.39282475160029"><ele>418.0</ele><time>2026-04-08T15:40:52.998Z</time></trkpt><trkpt lat="43.47790525148542" lon="11.392995134213944"><ele>420.75</ele><time>2026-04-08T15:40:54Z</time></trkpt><trkpt lat="43.478010529318325" lon="11.393143733575178"><ele>423.5</ele><time>2026-04-08T15:40:55Z</time></trkpt><trkpt lat="43.47808452078611" lon="11.39328733544754"><ele>426.25</ele><time>2026-04-08T15:40:56Z</time></trkpt><trkpt lat="43.478069990382984" lon="11.393453787535572"><ele>429.0</ele><time>2026-04-08T15:40:57Z</time></trkpt><trkpt lat="43.47803846441982" lon="11.393613634030473"><ele>429.0</ele><time>2026-04-08T15:40:58Z</time></trkpt><trkpt lat="43.477997539399446" lon="11.393812386700636"><ele>429.0</ele><time>2026-04-08T15:40:59Z</time></trkpt><trkpt lat="43.47797734855367" lon="11.393994511428257"><ele>429.0</ele><time>2026-04-08T15:41:00Z</time></trkpt><trkpt lat="43.47800261851933" lon="11.394154869963693"><ele>429.0</ele><time>2026-04-08T15:41:01Z</time></trkpt><trkpt lat="43.47807001022014" lon="11.394308018182048"><ele>426.33333333333337</ele><time>2026-04-08T15:41:02Z</time></trkpt><trkpt lat="43.47817498489045" lon="11.394458508171693"><ele>423.6666666666667</ele><time>2026-04-08T15:41:03Z</time></trkpt><trkpt lat="43.47830897563751" lon="11.394578468621976"><ele>421.0</ele><time>2026-04-08T15:41:04Z</time></trkpt><trkpt lat="43.47845423436152" lon="11.394655873523892"><ele>421.4</ele><time>2026-04-08T15:41:05Z</time></trkpt><trkpt lat="43.47858835287284" lon="11.394698266838777"><ele>421.8</ele><time>2026-04-08T15:41:06Z</time></trkpt><trkpt lat="43.478693286438755" lon="11.394776251105828"><ele>422.2</ele><time>2026-04-08T15:41:07Z</time></trkpt><trkpt lat="43.47876318340599" lon="11.39484766305737"><ele>422.59999999999997</ele><time>2026-04-08T15:41:08Z</time></trkpt><trkpt lat="43.478816934427776" lon="11.394930702264292"><ele>423.0</ele><time>2026-04-08T15:41:09Z</time></trkpt><trkpt lat="43.478827466306775" lon="11.395056884191177"><ele>423.0</ele><time>2026-04-08T15:41:10Z</time></trkpt><trkpt lat="43.4787970913463" lon="11.395173237551468"><ele>423.0</ele><time>2026-04-08T15:41:11Z</time></trkpt><trkpt lat="43.4787311954623" lon="11.395254069356968"><ele>423.0</ele><time>2026-04-08T15:41:12Z</time></trkpt><trkpt lat="43.478642169006214" lon="11.395288772088968"><ele>423.0</ele><time>2026-04-08T15:41:13Z</time></trkpt><trkpt lat="43.47852963675104" lon="11.395269382109046"><ele>423.0</ele><time>2026-04-08T15:41:14Z</time></trkpt><trkpt lat="43.47839811166143" lon="11.39517671188593"><ele>419.0</ele><time>2026-04-08T15:41:15Z</time></trkpt><trkpt lat="43.478248012432054" lon="11.395103879179066"><ele>415.0</ele><time>2026-04-08T15:41:16Z</time></trkpt><trkpt lat="43.47809267528074" lon="11.395007592076784"><ele>411.0</ele><time>2026-04-08T15:41:17Z</time></trkpt><trkpt lat="43.4779273017813" lon="11.39492186810158"><ele>409.33333333333337</ele><time>2026-04-08T15:41:18Z</time></trkpt><trkpt lat="43.477767815722004" lon="11.394838922421659"><ele>407.6666666666667</ele><time>2026-04-08T15:41:19Z</time></trkpt><trkpt lat="43.47762452529945" lon="11.394752703715882"><ele>406.0</ele><time>2026-04-08T15:41:19.999Z</time></trkpt><trkpt lat="43.47749070641177" lon="11.394644719631918"><ele>406.0</ele><time>2026-04-08T15:41:20.999Z</time></trkpt><trkpt lat="43.477360720065825" lon="11.394497898991364"><ele>406.0</ele><time>2026-04-08T15:41:21.999Z</time></trkpt><trkpt lat="43.47722746657178" lon="11.394336333838615"><ele>406.0</ele><time>2026-04-08T15:41:22.999Z</time></trkpt><trkpt lat="43.47709381041468" lon="11.394190509697445"><ele>404.25</ele><time>2026-04-08T15:41:23.999Z</time></trkpt><trkpt lat="43.47696170985824" lon="11.394069133248818"><ele>402.5</ele><time>2026-04-08T15:41:24.999Z</time></trkpt><trkpt lat="43.476833742812346" lon="11.393962844389982"><ele>400.75</ele><time>2026-04-08T15:41:25.999Z</time></trkpt><trkpt lat="43.47672123618557" lon="11.3938853669668"><ele>399.0</ele><time>2026-04-08T15:41:26.999Z</time></trkpt><trkpt lat="43.47661999217681" lon="11.393842696239185"><ele>399.0</ele><time>2026-04-08T15:41:27.999Z</time></trkpt><trkpt lat="43.476523749639405" lon="11.393855089181189"><ele>399.0</ele><time>2026-04-08T15:41:28.999Z</time></trkpt><trkpt lat="43.476424635239944" lon="11.393930475175361"><ele>399.0</ele><time>2026-04-08T15:41:29.999Z</time></trkpt><trkpt lat="43.47633871939709" lon="11.394061854496227"><ele>399.0</ele><time>2026-04-08T15:41:30.999Z</time></trkpt><trkpt lat="43.476284301001996" lon="11.394235971296775"><ele>398.75</ele><time>2026-04-08T15:41:31.999Z</time></trkpt><trkpt lat="43.476252547275124" lon="11.39442278873624"><ele>398.5</ele><time>2026-04-08T15:41:32.999Z</time></trkpt><trkpt lat="43.47620969009945" lon="11.394570947682315"><ele>398.25</ele><time>2026-04-08T15:41:33.999Z</time></trkpt><trkpt lat="43.47612625391863" lon="11.394670266649857"><ele>398.0</ele><time>2026-04-08T15:41:34.999Z</time></trkpt><trkpt lat="43.47598600019009" lon="11.394730117792257"><ele>400.3333333333333</ele><time>2026-04-08T15:41:35.999Z</time></trkpt><trkpt lat="43.47582143706427" lon="11.394801468734077"><ele>402.66666666666663</ele><time>2026-04-08T15:41:36.999Z</time></trkpt><trkpt lat="43.475645377755306" lon="11.394889445627323"><ele>405.0</ele><time>2026-04-08T15:41:37.999Z</time></trkpt><trkpt lat="43.475463087051324" lon="11.394966785589553"><ele>401.66666666666663</ele><time>2026-04-08T15:41:38.999Z</time></trkpt><trkpt lat="43.4752864716037" lon="11.39504604915689"><ele>398.3333333333333</ele><time>2026-04-08T15:41:39.999Z</time></trkpt><trkpt lat="43.475119939846195" lon="11.395125249615665"><ele>395.0</ele><time>2026-04-08T15:41:40.999Z</time></trkpt><trkpt lat="43.47495790660912" lon="11.395241687933307"><ele>395.0</ele><time>2026-04-08T15:41:41.999Z</time></trkpt><trkpt lat="43.47479611856792" lon="11.395415878287139"><ele>395.0</ele><time>2026-04-08T15:41:42.999Z</time></trkpt><trkpt lat="43.47462523552516" lon="11.395622774930466"><ele>395.0</ele><time>2026-04-08T15:41:43.999Z</time></trkpt><trkpt lat="43.47444288368358" lon="11.395832653102664"><ele>394.3333333333333</ele><time>2026-04-08T15:41:44.999Z</time></trkpt><trkpt lat="43.474273658918385" lon="11.396027700731826"><ele>393.66666666666663</ele><time>2026-04-08T15:41:45.999Z</time></trkpt><trkpt lat="43.47411068015704" lon="11.396215308205619"><ele>393.0</ele><time>2026-04-08T15:41:46.999Z</time></trkpt><trkpt lat="43.47394977164703" lon="11.396404156486525"><ele>391.66666666666663</ele><time>2026-04-08T15:41:47.999Z</time></trkpt><trkpt lat="43.473779291618825" lon="11.396599231700598"><ele>390.3333333333333</ele><time>2026-04-08T15:41:48.999Z</time></trkpt><trkpt lat="43.47360690681786" lon="11.396794679503222"><ele>389.0</ele><time>2026-04-08T15:41:49.999Z</time></trkpt><trkpt lat="43.473437265482815" lon="11.396987661644209"><ele>392.0</ele><time>2026-04-08T15:41:50.999Z</time></trkpt><trkpt lat="43.47327310322043" lon="11.397179549439144"><ele>395.0</ele><time>2026-04-08T15:41:51.999Z</time></trkpt><trkpt lat="43.47312590672307" lon="11.397367510487216"><ele>398.0</ele><time>2026-04-08T15:41:52.999Z</time></trkpt><trkpt lat="43.47299780998826" lon="11.397560308072256"><ele>394.0</ele><time>2026-04-08T15:41:53.999Z</time></trkpt><trkpt lat="43.47288509355171" lon="11.397736524142848"><ele>390.0</ele><time>2026-04-08T15:41:54.999Z</time></trkpt><trkpt lat="43.47273373934772" lon="11.39783169831787"><ele>386.0</ele><time>2026-04-08T15:41:55.999Z</time></trkpt><trkpt lat="43.47258282316264" lon="11.397930176402333"><ele>385.3333333333333</ele><time>2026-04-08T15:41:56.999Z</time></trkpt><trkpt lat="43.47240924983296" lon="11.398053989533164"><ele>384.66666666666663</ele><time>2026-04-08T15:41:57.999Z</time></trkpt><trkpt lat="43.47224141422714" lon="11.3981675517563"><ele>384.0</ele><time>2026-04-08T15:41:58.999Z</time></trkpt><trkpt lat="43.47209999318881" lon="11.398293993023492"><ele>384.0</ele><time>2026-04-08T15:41:59.999Z</time></trkpt><trkpt lat="43.471978511062304" lon="11.398451074808182"><ele>384.0</ele><time>2026-04-08T15:42:00.999Z</time></trkpt><trkpt lat="43.47187648022495" lon="11.398665906067592"><ele>384.0</ele><time>2026-04-08T15:42:01.999Z</time></trkpt><trkpt lat="43.47177920126592" lon="11.39892432776528"><ele>385.5</ele><time>2026-04-08T15:42:02.999Z</time></trkpt><trkpt lat="43.47167651222952" lon="11.399204838561095"><ele>387.0</ele><time>2026-04-08T15:42:03.999Z</time></trkpt><trkpt lat="43.47155525521909" lon="11.399463529987209"><ele>390.5</ele><time>2026-04-08T15:42:04.999Z</time></trkpt><trkpt lat="43.47145465476892" lon="11.399750114074102"><ele>394.0</ele><time>2026-04-08T15:42:05.999Z</time></trkpt><trkpt lat="43.47134065041962" lon="11.400018119176039"><ele>390.6666666666667</ele><time>2026-04-08T15:42:06.999Z</time></trkpt><trkpt lat="43.471238795939286" lon="11.400268298989195"><ele>387.33333333333337</ele><time>2026-04-08T15:42:07.999Z</time></trkpt><trkpt lat="43.47114631633079" lon="11.400507868014746"><ele>384.0</ele><time>2026-04-08T15:42:08.999Z</time></trkpt><trkpt lat="43.471045599334396" lon="11.400720625863846"><ele>384.0</ele><time>2026-04-08T15:42:09.999Z</time></trkpt><trkpt lat="43.47092017897503" lon="11.400910628841693"><ele>384.0</ele><time>2026-04-08T15:42:10.999Z</time></trkpt><trkpt lat="43.470779800355274" lon="11.401056013020703"><ele>384.0</ele><time>2026-04-08T15:42:11.999Z</time></trkpt><trkpt lat="43.47061755311575" lon="11.401166084851468"><ele>384.0</ele><time>2026-04-08T15:42:12.999Z</time></trkpt><trkpt lat="43.47042985656697" lon="11.401266909638624"><ele>384.0</ele><time>2026-04-08T15:42:13.999Z</time></trkpt><trkpt lat="43.47022759912632" lon="11.401395335927477"><ele>384.0</ele><time>2026-04-08T15:42:14.999Z</time></trkpt><trkpt lat="43.470024195614585" lon="11.401562121358976"><ele>384.0</ele><time>2026-04-08T15:42:15.999Z</time></trkpt><trkpt lat="43.46982602653669" lon="11.401746939254094"><ele>384.0</ele><time>2026-04-08T15:42:16.999Z</time></trkpt><trkpt lat="43.46964346901977" lon="11.401902039247476"><ele>381.3333333333333</ele><time>2026-04-08T15:42:17.999Z</time></trkpt><trkpt lat="43.46948302420135" lon="11.402018052606643"><ele>378.66666666666663</ele><time>2026-04-08T15:42:18.999Z</time></trkpt><trkpt lat="43.46931417791164" lon="11.402100865923224"><ele>376.0</ele><time>2026-04-08T15:42:19.999Z</time></trkpt><trkpt lat="43.469134960607214" lon="11.402144504204248"><ele>375.3333333333333</ele><time>2026-04-08T15:42:20.998Z</time></trkpt><trkpt lat="43.468951773496244" lon="11.402174197113935"><ele>374.6666666666667</ele><time>2026-04-08T15:42:21.998Z</time></trkpt><trkpt lat="43.46878686990815" lon="11.40223198109791"><ele>374.0</ele><time>2026-04-08T15:42:22.998Z</time></trkpt><trkpt lat="43.468626244283435" lon="11.402333301492236"><ele>374.0</ele><time>2026-04-08T15:42:23.998Z</time></trkpt><trkpt lat="43.46847165441225" lon="11.40248808437482"><ele>374.0</ele><time>2026-04-08T15:42:24.998Z</time></trkpt><trkpt lat="43.468317257227035" lon="11.402697776042672"><ele>374.0</ele><time>2026-04-08T15:42:25.998Z</time></trkpt><trkpt lat="43.46816619187142" lon="11.402938659353385"><ele>371.5</ele><time>2026-04-08T15:42:26.998Z</time></trkpt><trkpt lat="43.46799612088619" lon="11.403190727010902"><ele>369.0</ele><time>2026-04-08T15:42:27.998Z</time></trkpt><trkpt lat="43.46780892447383" lon="11.403445195299938"><ele>369.0</ele><time>2026-04-08T15:42:28.998Z</time></trkpt><trkpt lat="43.46761700123081" lon="11.403713030575748"><ele>369.0</ele><time>2026-04-08T15:42:29.998Z</time></trkpt><trkpt lat="43.46742642995409" lon="11.403985545457438"><ele>370.5</ele><time>2026-04-08T15:42:30.998Z</time></trkpt><trkpt lat="43.46723885927229" lon="11.404262713171649"><ele>372.0</ele><time>2026-04-08T15:42:31.998Z</time></trkpt><trkpt lat="43.4670535069655" lon="11.404533163683928"><ele>369.5</ele><time>2026-04-08T15:42:32.998Z</time></trkpt><trkpt lat="43.46687018281446" lon="11.40479661485646"><ele>367.0</ele><time>2026-04-08T15:42:33.998Z</time></trkpt><trkpt lat="43.46668711478117" lon="11.405056904891058"><ele>367.0</ele><time>2026-04-08T15:42:34.998Z</time></trkpt><trkpt lat="43.466509320589324" lon="11.405308799772106"><ele>367.0</ele><time>2026-04-08T15:42:35.998Z</time></trkpt><trkpt lat="43.466342736251946" lon="11.405552067960103"><ele>364.0</ele><time>2026-04-08T15:42:36.998Z</time></trkpt><trkpt lat="43.46618224412634" lon="11.405784235128019"><ele>361.0</ele><time>2026-04-08T15:42:37.998Z</time></trkpt><trkpt lat="43.466021171037" lon="11.406015741519893"><ele>361.0</ele><time>2026-04-08T15:42:38.998Z</time></trkpt><trkpt lat="43.4658734794875" lon="11.406256739075484"><ele>361.0</ele><time>2026-04-08T15:42:39.998Z</time></trkpt><trkpt lat="43.4657396589547" lon="11.406526973700228"><ele>360.5</ele><time>2026-04-08T15:42:40.998Z</time></trkpt><trkpt lat="43.46562205690875" lon="11.4068204112268"><ele>360.0</ele><time>2026-04-08T15:42:41.998Z</time></trkpt><trkpt lat="43.46551075144266" lon="11.407101516610041"><ele>359.0</ele><time>2026-04-08T15:42:42.998Z</time></trkpt><trkpt lat="43.46540025948814" lon="11.407360149303464"><ele>358.0</ele><time>2026-04-08T15:42:43.998Z</time></trkpt><trkpt lat="43.465298081200906" lon="11.407579753803377"><ele>357.0</ele><time>2026-04-08T15:42:44.998Z</time></trkpt><trkpt lat="43.46522217621561" lon="11.407745296519103"><ele>357.0</ele><time>2026-04-08T15:42:45.998Z</time></trkpt><trkpt lat="43.46512907407713" lon="11.407858190218493"><ele>357.0</ele><time>2026-04-08T15:42:46.998Z</time></trkpt><trkpt lat="43.465030720915465" lon="11.407976437418778"><ele>357.0</ele><time>2026-04-08T15:42:47.998Z</time></trkpt><trkpt lat="43.46487592357012" lon="11.408027473068753"><ele>357.0</ele><time>2026-04-08T15:42:48.998Z</time></trkpt><trkpt lat="43.464709190380404" lon="11.408112269142752"><ele>356.3333333333333</ele><time>2026-04-08T15:42:49.998Z</time></trkpt><trkpt lat="43.46456035904017" lon="11.408191724214069"><ele>355.66666666666663</ele><time>2026-04-08T15:42:50.998Z</time></trkpt><trkpt lat="43.46442460776847" lon="11.408326804989933"><ele>355.0</ele><time>2026-04-08T15:42:51.998Z</time></trkpt><trkpt lat="43.46430887805139" lon="11.408511883818393"><ele>355.0</ele><time>2026-04-08T15:42:52.998Z</time></trkpt><trkpt lat="43.46422361002067" lon="11.408737568123476"><ele>355.0</ele><time>2026-04-08T15:42:53.998Z</time></trkpt><trkpt lat="43.464179962665476" lon="11.4089998130924"><ele>355.0</ele><time>2026-04-08T15:42:54.998Z</time></trkpt><trkpt lat="43.46415055320729" lon="11.409302273188166"><ele>355.3333333333333</ele><time>2026-04-08T15:42:55.998Z</time></trkpt><trkpt lat="43.46412127516795" lon="11.409608407400949"><ele>355.6666666666667</ele><time>2026-04-08T15:42:56.998Z</time></trkpt><trkpt lat="43.46408533875438" lon="11.409897035998652"><ele>356.0</ele><time>2026-04-08T15:42:57.998Z</time></trkpt><trkpt lat="43.46401746934073" lon="11.4101531271959"><ele>355.6666666666667</ele><time>2026-04-08T15:42:58.998Z</time></trkpt><trkpt lat="43.46393548208412" lon="11.410387282183947"><ele>355.3333333333333</ele><time>2026-04-08T15:43:00Z</time></trkpt><trkpt lat="43.463817736225934" lon="11.410628641890412"><ele>355.0</ele><time>2026-04-08T15:43:01Z</time></trkpt><trkpt lat="43.46369249356956" lon="11.41089242505583"><ele>355.0</ele><time>2026-04-08T15:43:02Z</time></trkpt><trkpt lat="43.46353948275648" lon="11.4111566523203"><ele>355.0</ele><time>2026-04-08T15:43:03Z</time></trkpt><trkpt lat="43.46338599657544" lon="11.411438061551324"><ele>355.5</ele><time>2026-04-08T15:43:04Z</time></trkpt><trkpt lat="43.46323106731903" lon="11.411730920365613"><ele>356.0</ele><time>2026-04-08T15:43:05Z</time></trkpt><trkpt lat="43.46307164116132" lon="11.412030048824535"><ele>354.0</ele><time>2026-04-08T15:43:06Z</time></trkpt><trkpt lat="43.462914398828225" lon="11.412316338236906"><ele>352.0</ele><time>2026-04-08T15:43:07Z</time></trkpt><trkpt lat="43.46276841365555" lon="11.412589481680921"><ele>352.0</ele><time>2026-04-08T15:43:08Z</time></trkpt><trkpt lat="43.46263136638421" lon="11.412847570051204"><ele>352.0</ele><time>2026-04-08T15:43:09Z</time></trkpt><trkpt lat="43.46249633831252" lon="11.413091400372503"><ele>352.3333333333333</ele><time>2026-04-08T15:43:10Z</time></trkpt><trkpt lat="43.46237048907942" lon="11.413302138756482"><ele>352.6666666666667</ele><time>2026-04-08T15:43:11Z</time></trkpt><trkpt lat="43.46223834366225" lon="11.413483461683972"><ele>353.0</ele><time>2026-04-08T15:43:12Z</time></trkpt><trkpt lat="43.46208419959485" lon="11.413623810166024"><ele>351.6666666666667</ele><time>2026-04-08T15:43:13Z</time></trkpt><trkpt lat="43.46193967540156" lon="11.41376249373024"><ele>350.3333333333333</ele><time>2026-04-08T15:43:14Z</time></trkpt><trkpt lat="43.46181423398615" lon="11.413921730079224"><ele>349.0</ele><time>2026-04-08T15:43:15Z</time></trkpt><trkpt lat="43.46154730816944" lon="11.413856651752159"><ele>348.66666666666663</ele><time>2026-04-08T15:43:16Z</time></trkpt><trkpt lat="43.46139030205801" lon="11.413952979699058"><ele>348.3333333333333</ele><time>2026-04-08T15:43:17Z</time></trkpt><trkpt lat="43.461245515543695" lon="11.414119177746974"><ele>348.0</ele><time>2026-04-08T15:43:18Z</time></trkpt><trkpt lat="43.461097484142215" lon="11.414330221981258"><ele>348.0</ele><time>2026-04-08T15:43:19Z</time></trkpt><trkpt lat="43.4609420433245" lon="11.414537259800964"><ele>348.0</ele><time>2026-04-08T15:43:20Z</time></trkpt><trkpt lat="43.46080160701701" lon="11.414701402622068"><ele>348.0</ele><time>2026-04-08T15:43:21Z</time></trkpt><trkpt lat="43.46064776463958" lon="11.414820893619016"><ele>348.0</ele><time>2026-04-08T15:43:22Z</time></trkpt><trkpt lat="43.46045403268081" lon="11.414912921048023"><ele>348.0</ele><time>2026-04-08T15:43:22.999Z</time></trkpt><trkpt lat="43.46023737033831" lon="11.415023775806839"><ele>348.0</ele><time>2026-04-08T15:43:23.999Z</time></trkpt><trkpt lat="43.46000582049831" lon="11.415179526407014"><ele>348.0</ele><time>2026-04-08T15:43:24.999Z</time></trkpt><trkpt lat="43.459780980474235" lon="11.415350732025368"><ele>348.0</ele><time>2026-04-08T15:43:25.999Z</time></trkpt><trkpt lat="43.45956891436907" lon="11.415507610881404"><ele>347.6666666666667</ele><time>2026-04-08T15:43:26.999Z</time></trkpt><trkpt lat="43.459368933510504" lon="11.415655179558259"><ele>347.33333333333337</ele><time>2026-04-08T15:43:27.999Z</time></trkpt><trkpt lat="43.45917856852527" lon="11.415795014217291"><ele>347.0</ele><time>2026-04-08T15:43:28.999Z</time></trkpt><trkpt lat="43.45899834073035" lon="11.41593263733318"><ele>347.0</ele><time>2026-04-08T15:43:29.999Z</time></trkpt><trkpt lat="43.458807731173636" lon="11.416058370500815"><ele>347.0</ele><time>2026-04-08T15:43:30.999Z</time></trkpt><trkpt lat="43.4586008791414" lon="11.416163157197854"><ele>347.0</ele><time>2026-04-08T15:43:31.999Z</time></trkpt><trkpt lat="43.45839358618199" lon="11.416238468907434"><ele>347.33333333333337</ele><time>2026-04-08T15:43:32.999Z</time></trkpt><trkpt lat="43.45820517878589" lon="11.416299014652484"><ele>347.6666666666667</ele><time>2026-04-08T15:43:33.999Z</time></trkpt><trkpt lat="43.458040649112895" lon="11.41636824396284"><ele>348.0</ele><time>2026-04-08T15:43:34.999Z</time></trkpt><trkpt lat="43.45789552448979" lon="11.416456490187876"><ele>345.3333333333333</ele><time>2026-04-08T15:43:35.999Z</time></trkpt><trkpt lat="43.45775630168167" lon="11.416571331294596"><ele>342.66666666666663</ele><time>2026-04-08T15:43:36.999Z</time></trkpt><trkpt lat="43.457637415889096" lon="11.416707884761871"><ele>340.0</ele><time>2026-04-08T15:43:37.999Z</time></trkpt><trkpt lat="43.45753258379656" lon="11.416877643493269"><ele>340.0</ele><time>2026-04-08T15:43:38.999Z</time></trkpt><trkpt lat="43.45744280903472" lon="11.417082315842983"><ele>340.0</ele><time>2026-04-08T15:43:39.999Z</time></trkpt><trkpt lat="43.45736725614723" lon="11.417312009673676"><ele>340.0</ele><time>2026-04-08T15:43:40.999Z</time></trkpt><trkpt lat="43.45730801209142" lon="11.417566120980373"><ele>341.0</ele><time>2026-04-08T15:43:41.999Z</time></trkpt><trkpt lat="43.45727899749997" lon="11.417828586476038"><ele>342.0</ele><time>2026-04-08T15:43:42.999Z</time></trkpt><trkpt lat="43.45727940899363" lon="11.418076394775083"><ele>343.0</ele><time>2026-04-08T15:43:43.999Z</time></trkpt><trkpt lat="43.45726597047097" lon="11.418290550138497"><ele>343.3333333333333</ele><time>2026-04-08T15:43:44.999Z</time></trkpt><trkpt lat="43.45720338836887" lon="11.418470675061384"><ele>343.6666666666667</ele><time>2026-04-08T15:43:45.999Z</time></trkpt><trkpt lat="43.457093908317084" lon="11.418621660897465"><ele>344.0</ele><time>2026-04-08T15:43:46.999Z</time></trkpt><trkpt lat="43.456951536334685" lon="11.41877654754803"><ele>342.6666666666667</ele><time>2026-04-08T15:43:47.999Z</time></trkpt><trkpt lat="43.45679323171855" lon="11.418950056277433"><ele>341.3333333333333</ele><time>2026-04-08T15:43:48.999Z</time></trkpt><trkpt lat="43.45665235468376" lon="11.419116253933115"><ele>340.0</ele><time>2026-04-08T15:43:49.999Z</time></trkpt><trkpt lat="43.45652795948789" lon="11.419270920058123"><ele>340.0</ele><time>2026-04-08T15:43:50.999Z</time></trkpt><trkpt lat="43.45640277912329" lon="11.419413448024919"><ele>340.0</ele><time>2026-04-08T15:43:51.999Z</time></trkpt><trkpt lat="43.456254581894655" lon="11.419514960744266"><ele>340.0</ele><time>2026-04-08T15:43:52.999Z</time></trkpt><trkpt lat="43.456076040344804" lon="11.419589038904249"><ele>341.3333333333333</ele><time>2026-04-08T15:43:53.999Z</time></trkpt><trkpt lat="43.45588589697571" lon="11.419661892861615"><ele>342.6666666666667</ele><time>2026-04-08T15:43:54.999Z</time></trkpt><trkpt lat="43.4557160868545" lon="11.419732759466104"><ele>344.0</ele><time>2026-04-08T15:43:55.999Z</time></trkpt><trkpt lat="43.45555580017856" lon="11.41978609577831"><ele>345.0</ele><time>2026-04-08T15:43:56.999Z</time></trkpt><trkpt lat="43.455391595288425" lon="11.419792729109"><ele>346.0</ele><time>2026-04-08T15:43:57.999Z</time></trkpt><trkpt lat="43.455215893867795" lon="11.419755081484018"><ele>347.0</ele><time>2026-04-08T15:43:58.999Z</time></trkpt><trkpt lat="43.45503800230808" lon="11.419711232537031"><ele>347.0</ele><time>2026-04-08T15:43:59.999Z</time></trkpt><trkpt lat="43.454872755138254" lon="11.419666680928295"><ele>347.0</ele><time>2026-04-08T15:44:00.999Z</time></trkpt><trkpt lat="43.454719347354036" lon="11.4195839797206"><ele>347.0</ele><time>2026-04-08T15:44:01.999Z</time></trkpt><trkpt lat="43.45455614638815" lon="11.41946439619999"><ele>345.0</ele><time>2026-04-08T15:44:02.999Z</time></trkpt><trkpt lat="43.454387226481934" lon="11.41931360686977"><ele>343.0</ele><time>2026-04-08T15:44:03.999Z</time></trkpt><trkpt lat="43.45423940796826" lon="11.41916335177538"><ele>341.0</ele><time>2026-04-08T15:44:04.999Z</time></trkpt><trkpt lat="43.45409995280922" lon="11.41902551236252"><ele>341.0</ele><time>2026-04-08T15:44:05.999Z</time></trkpt><trkpt lat="43.45396709197776" lon="11.418898874858684"><ele>341.0</ele><time>2026-04-08T15:44:06.999Z</time></trkpt><trkpt lat="43.453837724468194" lon="11.41877762528721"><ele>341.0</ele><time>2026-04-08T15:44:07.999Z</time></trkpt><trkpt lat="43.45370242887414" lon="11.418680219548728"><ele>338.0</ele><time>2026-04-08T15:44:08.999Z</time></trkpt><trkpt lat="43.45355193171261" lon="11.41862131936929"><ele>335.0</ele><time>2026-04-08T15:44:09.999Z</time></trkpt><trkpt lat="43.4533731519245" lon="11.418608514617073"><ele>332.0</ele><time>2026-04-08T15:44:10.999Z</time></trkpt><trkpt lat="43.453168066934744" lon="11.418622268807786"><ele>331.5</ele><time>2026-04-08T15:44:11.999Z</time></trkpt><trkpt lat="43.45294042343379" lon="11.418634532677313"><ele>331.0</ele><time>2026-04-08T15:44:12.999Z</time></trkpt><trkpt lat="43.452698309439484" lon="11.418651084862578"><ele>331.0</ele><time>2026-04-08T15:44:13.999Z</time></trkpt><trkpt lat="43.45245183739153" lon="11.418663621237826"><ele>331.0</ele><time>2026-04-08T15:44:14.999Z</time></trkpt><trkpt lat="43.45222483202739" lon="11.418672059446719"><ele>330.3333333333333</ele><time>2026-04-08T15:44:15.999Z</time></trkpt><trkpt lat="43.4520102992985" lon="11.418674051058346"><ele>329.6666666666667</ele><time>2026-04-08T15:44:16.999Z</time></trkpt><trkpt lat="43.45180603014573" lon="11.418686540995978"><ele>329.0</ele><time>2026-04-08T15:44:17.999Z</time></trkpt><trkpt lat="43.45160264123709" lon="11.418713509596941"><ele>329.0</ele><time>2026-04-08T15:44:18.999Z</time></trkpt><trkpt lat="43.451399612903685" lon="11.418759675658821"><ele>329.0</ele><time>2026-04-08T15:44:19.999Z</time></trkpt><trkpt lat="43.45120504843876" lon="11.418800709482866"><ele>329.0</ele><time>2026-04-08T15:44:20.999Z</time></trkpt><trkpt lat="43.4510185882002" lon="11.418826284793404"><ele>328.0</ele><time>2026-04-08T15:44:21.999Z</time></trkpt><trkpt lat="43.450837682437076" lon="11.418842739452485"><ele>327.0</ele><time>2026-04-08T15:44:22.999Z</time></trkpt><trkpt lat="43.450664296558465" lon="11.418870485343714"><ele>326.0</ele><time>2026-04-08T15:44:23.998Z</time></trkpt><trkpt lat="43.45051524063369" lon="11.418915564894363"><ele>325.5</ele><time>2026-04-08T15:44:24.998Z</time></trkpt><trkpt lat="43.450412985896044" lon="11.418946050592464"><ele>325.0</ele><time>2026-04-08T15:44:25.998Z</time></trkpt><trkpt lat="43.45032990272979" lon="11.418961671768722"><ele>324.5</ele><time>2026-04-08T15:44:26.998Z</time></trkpt><trkpt lat="43.450209447450916" lon="11.418961797884306"><ele>324.0</ele><time>2026-04-08T15:44:27.998Z</time></trkpt><trkpt lat="43.45005485384196" lon="11.418931774928414"><ele>324.0</ele><time>2026-04-08T15:44:28.998Z</time></trkpt><trkpt lat="43.44988774935058" lon="11.418863862749184"><ele>324.0</ele><time>2026-04-08T15:44:29.998Z</time></trkpt><trkpt lat="43.44972982807598" lon="11.418783205206612"><ele>324.0</ele><time>2026-04-08T15:44:30.998Z</time></trkpt><trkpt lat="43.44959096639037" lon="11.418711131076288"><ele>326.3333333333333</ele><time>2026-04-08T15:44:31.998Z</time></trkpt><trkpt lat="43.44945421369454" lon="11.418646754844628"><ele>328.66666666666663</ele><time>2026-04-08T15:44:32.998Z</time></trkpt><trkpt lat="43.4492877781373" lon="11.418588645423878"><ele>331.0</ele><time>2026-04-08T15:44:33.998Z</time></trkpt><trkpt lat="43.44909643991952" lon="11.418544530111275"><ele>331.0</ele><time>2026-04-08T15:44:34.998Z</time></trkpt><trkpt lat="43.44890618984259" lon="11.418529266082317"><ele>331.0</ele><time>2026-04-08T15:44:35.998Z</time></trkpt><trkpt lat="43.448709142768216" lon="11.418524440216562"><ele>331.0</ele><time>2026-04-08T15:44:36.998Z</time></trkpt><trkpt lat="43.44852978823375" lon="11.41850826549641"><ele>331.0</ele><time>2026-04-08T15:44:37.998Z</time></trkpt><trkpt lat="43.44836744494693" lon="11.418454292066667"><ele>331.0</ele><time>2026-04-08T15:44:38.998Z</time></trkpt><trkpt lat="43.44820164380475" lon="11.418347476183019"><ele>331.0</ele><time>2026-04-08T15:44:39.998Z</time></trkpt><trkpt lat="43.44804561205675" lon="11.418210128500599"><ele>329.8</ele><time>2026-04-08T15:44:40.998Z</time></trkpt><trkpt lat="43.44795582177995" lon="11.418111841166825"><ele>328.6</ele><time>2026-04-08T15:44:41.998Z</time></trkpt><trkpt lat="43.447853443938094" lon="11.417993614737089"><ele>327.4</ele><time>2026-04-08T15:44:43.998Z</time></trkpt><trkpt lat="43.44778017938563" lon="11.417920906950435"><ele>326.2</ele><time>2026-04-08T15:44:44.998Z</time></trkpt><trkpt lat="43.44771684486523" lon="11.417864223234417"><ele>325.0</ele><time>2026-04-08T15:44:45.998Z</time></trkpt><trkpt lat="43.44765683080711" lon="11.417824437150145"><ele>327.6</ele><time>2026-04-08T15:44:46.998Z</time></trkpt><trkpt lat="43.44758452705194" lon="11.417787413392496"><ele>330.2</ele><time>2026-04-08T15:44:47.998Z</time></trkpt><trkpt lat="43.447500300341574" lon="11.417754304903227"><ele>332.79999999999995</ele><time>2026-04-08T15:44:48.998Z</time></trkpt><trkpt lat="43.44740791164252" lon="11.417745894976344"><ele>335.4</ele><time>2026-04-08T15:44:49.998Z</time></trkpt><trkpt lat="43.44731278289516" lon="11.417732362091549"><ele>338.0</ele><time>2026-04-08T15:44:50.998Z</time></trkpt><trkpt lat="43.44721298017686" lon="11.417697186594378"><ele>338.5</ele><time>2026-04-08T15:44:51.998Z</time></trkpt><trkpt lat="43.447094668334394" lon="11.417643754836316"><ele>339.0</ele><time>2026-04-08T15:44:52.998Z</time></trkpt><trkpt lat="43.44696949512659" lon="11.417609160010842"><ele>339.5</ele><time>2026-04-08T15:44:53.998Z</time></trkpt><trkpt lat="43.44679731370534" lon="11.417567653847746"><ele>340.0</ele><time>2026-04-08T15:44:54.998Z</time></trkpt><trkpt lat="43.44665569314928" lon="11.417533207575929"><ele>340.0</ele><time>2026-04-08T15:44:55.998Z</time></trkpt><trkpt lat="43.44652833779266" lon="11.417501221016364"><ele>340.0</ele><time>2026-04-08T15:44:56.998Z</time></trkpt><trkpt lat="43.446427770977074" lon="11.417478585254305"><ele>340.0</ele><time>2026-04-08T15:44:57.998Z</time></trkpt><trkpt lat="43.446344982156184" lon="11.417461916415618"><ele>340.0</ele><time>2026-04-08T15:44:58.998Z</time></trkpt><trkpt lat="43.44626359441183" lon="11.417452569609674"><ele>340.0</ele><time>2026-04-08T15:44:59.998Z</time></trkpt><trkpt lat="43.44618355296924" lon="11.417460265990545"><ele>342.4</ele><time>2026-04-08T15:45:00.998Z</time></trkpt><trkpt lat="43.44609324169439" lon="11.417489286061972"><ele>344.8</ele><time>2026-04-08T15:45:01.998Z</time></trkpt><trkpt lat="43.44600131462856" lon="11.417541124878714"><ele>347.20000000000005</ele><time>2026-04-08T15:45:02.998Z</time></trkpt><trkpt lat="43.445921850820795" lon="11.417635927179415"><ele>349.6</ele><time>2026-04-08T15:45:03.998Z</time></trkpt><trkpt lat="43.44585185579054" lon="11.417769677020608"><ele>352.0</ele><time>2026-04-08T15:45:05Z</time></trkpt><trkpt lat="43.44579694181639" lon="11.417927850304912"><ele>349.5</ele><time>2026-04-08T15:45:06Z</time></trkpt><trkpt lat="43.44574927122622" lon="11.418085356666314"><ele>347.0</ele><time>2026-04-08T15:45:07Z</time></trkpt><trkpt lat="43.44569925068822" lon="11.41822223516788"><ele>344.5</ele><time>2026-04-08T15:45:08Z</time></trkpt><trkpt lat="43.44566970398448" lon="11.418388017018644"><ele>342.0</ele><time>2026-04-08T15:45:09Z</time></trkpt><trkpt lat="43.445648037723636" lon="11.418579606903634"><ele>342.0</ele><time>2026-04-08T15:45:10Z</time></trkpt><trkpt lat="43.445631764461254" lon="11.418761723181383"><ele>342.0</ele><time>2026-04-08T15:45:11Z</time></trkpt><trkpt lat="43.44561999294801" lon="11.418962224026702"><ele>342.0</ele><time>2026-04-08T15:45:12Z</time></trkpt><trkpt lat="43.44562318213856" lon="11.419135288441437"><ele>342.0</ele><time>2026-04-08T15:45:13Z</time></trkpt><trkpt lat="43.44563293376908" lon="11.419287786436628"><ele>341.40000000000003</ele><time>2026-04-08T15:45:14Z</time></trkpt><trkpt lat="43.44563822116037" lon="11.419432101680886"><ele>340.8</ele><time>2026-04-08T15:45:15Z</time></trkpt><trkpt lat="43.44561908207979" lon="11.419563028496313"><ele>340.2</ele><time>2026-04-08T15:45:16Z</time></trkpt><trkpt lat="43.445574109813684" lon="11.419663548804344"><ele>339.6</ele><time>2026-04-08T15:45:17Z</time></trkpt><trkpt lat="43.44550393418345" lon="11.41973027457505"><ele>339.0</ele><time>2026-04-08T15:45:18Z</time></trkpt><trkpt lat="43.445413680871205" lon="11.419795922575789"><ele>339.0</ele><time>2026-04-08T15:45:19Z</time></trkpt><trkpt lat="43.44528333010307" lon="11.41987473315134"><ele>339.0</ele><time>2026-04-08T15:45:20Z</time></trkpt><trkpt lat="43.44511434085895" lon="11.419962778181256"><ele>339.0</ele><time>2026-04-08T15:45:21Z</time></trkpt><trkpt lat="43.44492727874724" lon="11.420060295775736"><ele>339.0</ele><time>2026-04-08T15:45:22Z</time></trkpt><trkpt lat="43.44475785762701" lon="11.420143026565286"><ele>339.0</ele><time>2026-04-08T15:45:23Z</time></trkpt><trkpt lat="43.444612501302096" lon="11.420238662425641"><ele>339.0</ele><time>2026-04-08T15:45:24Z</time></trkpt><trkpt lat="43.44448494197026" lon="11.420378716118488"><ele>338.3333333333333</ele><time>2026-04-08T15:45:25Z</time></trkpt><trkpt lat="43.444367025038055" lon="11.420579133904322"><ele>337.66666666666663</ele><time>2026-04-08T15:45:26Z</time></trkpt><trkpt lat="43.444261058891904" lon="11.420768838336794"><ele>337.0</ele><time>2026-04-08T15:45:27Z</time></trkpt><trkpt lat="43.444124459665794" lon="11.420901396139985"><ele>337.0</ele><time>2026-04-08T15:45:27.999Z</time></trkpt><trkpt lat="43.443969285351876" lon="11.421025646481626"><ele>337.0</ele><time>2026-04-08T15:45:28.999Z</time></trkpt><trkpt lat="43.44379667635229" lon="11.421146160001522"><ele>337.0</ele><time>2026-04-08T15:45:29.999Z</time></trkpt><trkpt lat="43.4436069109705" lon="11.42130535548455"><ele>334.0</ele><time>2026-04-08T15:45:30.999Z</time></trkpt><trkpt lat="43.44343399745732" lon="11.42142920666817"><ele>331.0</ele><time>2026-04-08T15:45:31.999Z</time></trkpt><trkpt lat="43.443279252130594" lon="11.42149560223019"><ele>328.0</ele><time>2026-04-08T15:45:32.999Z</time></trkpt><trkpt lat="43.44314019485089" lon="11.421540408337318"><ele>328.0</ele><time>2026-04-08T15:45:33.999Z</time></trkpt><trkpt lat="43.44299753731612" lon="11.421557488222481"><ele>328.0</ele><time>2026-04-08T15:45:34.999Z</time></trkpt><trkpt lat="43.44283776310004" lon="11.421559720550453"><ele>328.0</ele><time>2026-04-08T15:45:35.999Z</time></trkpt><trkpt lat="43.44264585427996" lon="11.421553406151107"><ele>328.0</ele><time>2026-04-08T15:45:36.999Z</time></trkpt><trkpt lat="43.44243066738061" lon="11.421532761911175"><ele>328.0</ele><time>2026-04-08T15:45:37.999Z</time></trkpt><trkpt lat="43.44220437556083" lon="11.421514029084925"><ele>328.0</ele><time>2026-04-08T15:45:38.999Z</time></trkpt><trkpt lat="43.4419582840968" lon="11.421471402999149"><ele>325.5</ele><time>2026-04-08T15:45:39.999Z</time></trkpt><trkpt lat="43.44170745727431" lon="11.421430819286222"><ele>323.0</ele><time>2026-04-08T15:45:40.999Z</time></trkpt><trkpt lat="43.44147217047977" lon="11.421399574295247"><ele>321.33333333333337</ele><time>2026-04-08T15:45:41.999Z</time></trkpt><trkpt lat="43.4412627701932" lon="11.4213608859893"><ele>319.6666666666667</ele><time>2026-04-08T15:45:42.999Z</time></trkpt><trkpt lat="43.44108245912983" lon="11.421303490651336"><ele>318.0</ele><time>2026-04-08T15:45:43.999Z</time></trkpt><trkpt lat="43.44093666346393" lon="11.421181201793628"><ele>317.6666666666667</ele><time>2026-04-08T15:45:44.999Z</time></trkpt><trkpt lat="43.44076364250359" lon="11.421044292162156"><ele>317.33333333333337</ele><time>2026-04-08T15:45:45.999Z</time></trkpt><trkpt lat="43.44057619148022" lon="11.420871557513081"><ele>317.0</ele><time>2026-04-08T15:45:46.999Z</time></trkpt><trkpt lat="43.44036599475904" lon="11.420698911035116"><ele>317.0</ele><time>2026-04-08T15:45:47.999Z</time></trkpt><trkpt lat="43.44015762257864" lon="11.420524434652505"><ele>317.0</ele><time>2026-04-08T15:45:48.999Z</time></trkpt><trkpt lat="43.43997442282444" lon="11.420367930753631"><ele>317.33333333333337</ele><time>2026-04-08T15:45:49.999Z</time></trkpt><trkpt lat="43.439799582787415" lon="11.420215725039144"><ele>317.6666666666667</ele><time>2026-04-08T15:45:50.999Z</time></trkpt><trkpt lat="43.439631780558564" lon="11.420075028641364"><ele>318.0</ele><time>2026-04-08T15:45:51.999Z</time></trkpt><trkpt lat="43.439469076872655" lon="11.419945999830327"><ele>318.0</ele><time>2026-04-08T15:45:52.999Z</time></trkpt><trkpt lat="43.43930813041313" lon="11.419827852441616"><ele>318.0</ele><time>2026-04-08T15:45:53.999Z</time></trkpt><trkpt lat="43.43912957564739" lon="11.419725584560538"><ele>318.0</ele><time>2026-04-08T15:45:54.999Z</time></trkpt><trkpt lat="43.43893091362837" lon="11.419656007401487"><ele>321.3333333333333</ele><time>2026-04-08T15:45:55.999Z</time></trkpt><trkpt lat="43.43871503144953" lon="11.419617717860854"><ele>324.66666666666663</ele><time>2026-04-08T15:45:56.999Z</time></trkpt><trkpt lat="43.43850865152207" lon="11.419603270017031"><ele>328.0</ele><time>2026-04-08T15:45:57.999Z</time></trkpt><trkpt lat="43.43831740752235" lon="11.419592538195563"><ele>328.0</ele><time>2026-04-08T15:45:58.999Z</time></trkpt><trkpt lat="43.43814493587039" lon="11.419573620243133"><ele>328.0</ele><time>2026-04-08T15:45:59.999Z</time></trkpt><trkpt lat="43.43798732932436" lon="11.419545766976734"><ele>328.0</ele><time>2026-04-08T15:46:00.999Z</time></trkpt><trkpt lat="43.43784430504883" lon="11.419517524834177"><ele>327.0</ele><time>2026-04-08T15:46:01.999Z</time></trkpt><trkpt lat="43.43772492383076" lon="11.419490929761116"><ele>326.0</ele><time>2026-04-08T15:46:02.999Z</time></trkpt><trkpt lat="43.43764493368437" lon="11.419472012463949"><ele>325.0</ele><time>2026-04-08T15:46:03.999Z</time></trkpt><trkpt lat="43.43755664767423" lon="11.419425650776867"><ele>324.0</ele><time>2026-04-08T15:46:05.999Z</time></trkpt><trkpt lat="43.43749036084801" lon="11.419456138766204"><ele>323.0</ele><time>2026-04-08T15:46:08.999Z</time></trkpt><trkpt lat="43.437574022897756" lon="11.419561589609993"><ele>323.0</ele><time>2026-04-08T15:46:12.999Z</time></trkpt><trkpt lat="43.43764153744618" lon="11.419646119820019"><ele>323.0</ele><time>2026-04-08T15:46:13.999Z</time></trkpt><trkpt lat="43.437742350232405" lon="11.419721504568772"><ele>323.0</ele><time>2026-04-08T15:46:14.999Z</time></trkpt><trkpt lat="43.43785535425001" lon="11.419806005779538"><ele>323.0</ele><time>2026-04-08T15:46:15.999Z</time></trkpt><trkpt lat="43.4379772788375" lon="11.41991596355655"><ele>319.0</ele><time>2026-04-08T15:46:16.999Z</time></trkpt><trkpt lat="43.43812755080529" lon="11.420030608196264"><ele>315.0</ele><time>2026-04-08T15:46:17.999Z</time></trkpt><trkpt lat="43.43814816290931" lon="11.420162639134736"><ele>311.0</ele><time>2026-04-08T15:46:18.999Z</time></trkpt><trkpt lat="43.438741942574524" lon="11.41965927091702"><ele>313.33333333333337</ele><time>2026-04-08T15:46:19.999Z</time></trkpt><trkpt lat="43.438951451594995" lon="11.419695952015955"><ele>315.6666666666667</ele><time>2026-04-08T15:46:20.999Z</time></trkpt><trkpt lat="43.43916246176861" lon="11.419772577287217"><ele>318.0</ele><time>2026-04-08T15:46:21.999Z</time></trkpt><trkpt lat="43.43936537012408" lon="11.419888331796415"><ele>318.0</ele><time>2026-04-08T15:46:22.999Z</time></trkpt><trkpt lat="43.43955567852143" lon="11.420029481775016"><ele>318.0</ele><time>2026-04-08T15:46:23.999Z</time></trkpt><trkpt lat="43.43975101483233" lon="11.42020111230019"><ele>318.0</ele><time>2026-04-08T15:46:24.999Z</time></trkpt><trkpt lat="43.43995132684378" lon="11.420375103646888"><ele>317.5</ele><time>2026-04-08T15:46:25.999Z</time></trkpt><trkpt lat="43.440164268874334" lon="11.42055698509326"><ele>317.0</ele><time>2026-04-08T15:46:26.999Z</time></trkpt><trkpt lat="43.44036581947385" lon="11.420728102283334"><ele>321.33333333333337</ele><time>2026-04-08T15:46:27.999Z</time></trkpt><trkpt lat="43.44054595314805" lon="11.420888734936826"><ele>325.6666666666667</ele><time>2026-04-08T15:46:28.999Z</time></trkpt><trkpt lat="43.440712101086135" lon="11.421037409267827"><ele>330.0</ele><time>2026-04-08T15:46:29.998Z</time></trkpt><trkpt lat="43.440873733154746" lon="11.421178044938339"><ele>330.0</ele><time>2026-04-08T15:46:30.998Z</time></trkpt><trkpt lat="43.44103400961274" lon="11.421301705987776"><ele>330.0</ele><time>2026-04-08T15:46:31.998Z</time></trkpt><trkpt lat="43.44122217065187" lon="11.421396720234737"><ele>330.0</ele><time>2026-04-08T15:46:32.998Z</time></trkpt><trkpt lat="43.441440719386186" lon="11.421448183977912"><ele>326.5</ele><time>2026-04-08T15:46:33.998Z</time></trkpt><trkpt lat="43.4416776309822" lon="11.421468502527471"><ele>323.0</ele><time>2026-04-08T15:46:34.998Z</time></trkpt><trkpt lat="43.44192282068998" lon="11.42149185361899"><ele>325.5</ele><time>2026-04-08T15:46:35.998Z</time></trkpt><trkpt lat="43.44216211054221" lon="11.421528806719833"><ele>328.0</ele><time>2026-04-08T15:46:36.998Z</time></trkpt><trkpt lat="43.44237940407854" lon="11.421568532484118"><ele>328.0</ele><time>2026-04-08T15:46:37.998Z</time></trkpt><trkpt lat="43.442596593126844" lon="11.421594585311128"><ele>328.0</ele><time>2026-04-08T15:46:38.998Z</time></trkpt><trkpt lat="43.44280826270844" lon="11.421601578713014"><ele>328.0</ele><time>2026-04-08T15:46:39.998Z</time></trkpt><trkpt lat="43.443003426211156" lon="11.421602285152826"><ele>328.0</ele><time>2026-04-08T15:46:40.998Z</time></trkpt><trkpt lat="43.44317887961261" lon="11.421585617568176"><ele>328.0</ele><time>2026-04-08T15:46:41.998Z</time></trkpt><trkpt lat="43.44334620063426" lon="11.421532162325176"><ele>328.0</ele><time>2026-04-08T15:46:42.998Z</time></trkpt><trkpt lat="43.44352016566807" lon="11.42141940187809"><ele>331.0</ele><time>2026-04-08T15:46:43.998Z</time></trkpt><trkpt lat="43.443700918167465" lon="11.421266715262668"><ele>334.0</ele><time>2026-04-08T15:46:44.998Z</time></trkpt><trkpt lat="43.44389029095023" lon="11.421115401674932"><ele>337.0</ele><time>2026-04-08T15:46:45.998Z</time></trkpt><trkpt lat="43.444065785673416" lon="11.420995013474329"><ele>337.0</ele><time>2026-04-08T15:46:46.998Z</time></trkpt><trkpt lat="43.44421670536756" lon="11.420880219912586"><ele>337.0</ele><time>2026-04-08T15:46:47.998Z</time></trkpt><trkpt lat="43.44435261785337" lon="11.420725259178683"><ele>337.0</ele><time>2026-04-08T15:46:48.998Z</time></trkpt><trkpt lat="43.444474866598746" lon="11.420514101639718"><ele>337.66666666666663</ele><time>2026-04-08T15:46:49.998Z</time></trkpt><trkpt lat="43.44459813473576" lon="11.420305924651094"><ele>338.3333333333333</ele><time>2026-04-08T15:46:50.998Z</time></trkpt><trkpt lat="43.44475287737786" lon="11.42018802566535"><ele>339.0</ele><time>2026-04-08T15:46:51.998Z</time></trkpt><trkpt lat="43.44492706850748" lon="11.420078074341271"><ele>339.0</ele><time>2026-04-08T15:46:52.998Z</time></trkpt><trkpt lat="43.4451171818577" lon="11.419948388617293"><ele>339.0</ele><time>2026-04-08T15:46:53.998Z</time></trkpt><trkpt lat="43.445304430132275" lon="11.419855581483676"><ele>339.0</ele><time>2026-04-08T15:46:54.998Z</time></trkpt><trkpt lat="43.4454436254343" lon="11.419772534680737"><ele>337.75</ele><time>2026-04-08T15:46:55.998Z</time></trkpt><trkpt lat="43.445537701252775" lon="11.419705177458464"><ele>336.5</ele><time>2026-04-08T15:46:56.998Z</time></trkpt><trkpt lat="43.4456128408474" lon="11.419613792043611"><ele>335.25</ele><time>2026-04-08T15:46:57.998Z</time></trkpt><trkpt lat="43.44566782768675" lon="11.419464592640567"><ele>334.0</ele><time>2026-04-08T15:46:58.998Z</time></trkpt><trkpt lat="43.44568639400692" lon="11.4192642599713"><ele>334.0</ele><time>2026-04-08T15:46:59.998Z</time></trkpt><trkpt lat="43.445673767581" lon="11.419029513057817"><ele>334.0</ele><time>2026-04-08T15:47:00.998Z</time></trkpt><trkpt lat="43.44566371815648" lon="11.41877224771414"><ele>334.0</ele><time>2026-04-08T15:47:01.998Z</time></trkpt><trkpt lat="43.44567969449472" lon="11.418514423872296"><ele>336.66666666666663</ele><time>2026-04-08T15:47:02.998Z</time></trkpt><trkpt lat="43.44574429800037" lon="11.418264908868187"><ele>339.3333333333333</ele><time>2026-04-08T15:47:03.998Z</time></trkpt><trkpt lat="43.44579787029455" lon="11.41801773048705"><ele>342.0</ele><time>2026-04-08T15:47:04.998Z</time></trkpt><trkpt lat="43.44587293558243" lon="11.417815435357712"><ele>344.5</ele><time>2026-04-08T15:47:05.998Z</time></trkpt><trkpt lat="43.44596628969043" lon="11.417671921330886"><ele>347.0</ele><time>2026-04-08T15:47:06.998Z</time></trkpt><trkpt lat="43.44605393804473" lon="11.417570981984296"><ele>349.5</ele><time>2026-04-08T15:47:07.998Z</time></trkpt><trkpt lat="43.44615058829393" lon="11.417516028460142"><ele>352.0</ele><time>2026-04-08T15:47:08.998Z</time></trkpt><trkpt lat="43.44626843657016" lon="11.41750745323652"><ele>348.0</ele><time>2026-04-08T15:47:09.998Z</time></trkpt><trkpt lat="43.44641282629407" lon="11.417529541783889"><ele>344.0</ele><time>2026-04-08T15:47:11Z</time></trkpt><trkpt lat="43.44659585887229" lon="11.417572361887654"><ele>340.0</ele><time>2026-04-08T15:47:12Z</time></trkpt><trkpt lat="43.44679410345799" lon="11.417609777961719"><ele>340.0</ele><time>2026-04-08T15:47:13Z</time></trkpt><trkpt lat="43.447016746694274" lon="11.417663730356304"><ele>340.0</ele><time>2026-04-08T15:47:14Z</time></trkpt><trkpt lat="43.44722321667288" lon="11.417708041324866"><ele>340.0</ele><time>2026-04-08T15:47:15Z</time></trkpt><trkpt lat="43.44741152803535" lon="11.417754338948185"><ele>339.3333333333333</ele><time>2026-04-08T15:47:16Z</time></trkpt><trkpt lat="43.4475678753265" lon="11.417832211925822"><ele>338.6666666666667</ele><time>2026-04-08T15:47:17Z</time></trkpt><trkpt lat="43.447709227746316" lon="11.417921814810125"><ele>338.0</ele><time>2026-04-08T15:47:18Z</time></trkpt><trkpt lat="43.44786353010343" lon="11.418060589455454"><ele>335.6666666666667</ele><time>2026-04-08T15:47:19Z</time></trkpt><trkpt lat="43.44803018165517" lon="11.41822979853806"><ele>333.3333333333333</ele><time>2026-04-08T15:47:20Z</time></trkpt><trkpt lat="43.44819934190297" lon="11.418361467258643"><ele>331.0</ele><time>2026-04-08T15:47:21Z</time></trkpt><trkpt lat="43.44834954151721" lon="11.418480339179538"><ele>331.0</ele><time>2026-04-08T15:47:22Z</time></trkpt><trkpt lat="43.448511956512796" lon="11.418549381025782"><ele>331.0</ele><time>2026-04-08T15:47:23Z</time></trkpt><trkpt lat="43.44871146476245" lon="11.418569742698862"><ele>331.0</ele><time>2026-04-08T15:47:24Z</time></trkpt><trkpt lat="43.44893298846677" lon="11.418568782937347"><ele>331.0</ele><time>2026-04-08T15:47:25Z</time></trkpt><trkpt lat="43.4491317585731" lon="11.418606637755138"><ele>331.0</ele><time>2026-04-08T15:47:26Z</time></trkpt><trkpt lat="43.44930435291817" lon="11.418643537804842"><ele>331.0</ele><time>2026-04-08T15:47:27Z</time></trkpt><trkpt lat="43.44946694666824" lon="11.41869824819335"><ele>330.0</ele><time>2026-04-08T15:47:28Z</time></trkpt><trkpt lat="43.44962730347573" lon="11.418772397622583"><ele>329.0</ele><time>2026-04-08T15:47:29Z</time></trkpt><trkpt lat="43.449790422836124" lon="11.418826681547078"><ele>328.0</ele><time>2026-04-08T15:47:30Z</time></trkpt><trkpt lat="43.44995001156854" lon="11.418905974998195"><ele>327.3333333333333</ele><time>2026-04-08T15:47:31Z</time></trkpt><trkpt lat="43.450116863078115" lon="11.418969441951479"><ele>326.6666666666667</ele><time>2026-04-08T15:47:32Z</time></trkpt><trkpt lat="43.45029593362436" lon="11.419009195401014"><ele>326.0</ele><time>2026-04-08T15:47:32.999Z</time></trkpt><trkpt lat="43.450464930852654" lon="11.419023340910092"><ele>326.0</ele><time>2026-04-08T15:47:33.999Z</time></trkpt><trkpt lat="43.45062759556689" lon="11.419045958895175"><ele>326.0</ele><time>2026-04-08T15:47:34.999Z</time></trkpt><trkpt lat="43.4507925758562" lon="11.419095382203178"><ele>326.0</ele><time>2026-04-08T15:47:35.999Z</time></trkpt><trkpt lat="43.450964126285044" lon="11.419155362224409"><ele>326.0</ele><time>2026-04-08T15:47:36.999Z</time></trkpt><trkpt lat="43.45110375397488" lon="11.419222248101983"><ele>326.0</ele><time>2026-04-08T15:47:37.999Z</time></trkpt><trkpt lat="43.451220066494265" lon="11.419361596224691"><ele>326.0</ele><time>2026-04-08T15:47:38.999Z</time></trkpt><trkpt lat="43.45137564054975" lon="11.419484855887797"><ele>327.6666666666667</ele><time>2026-04-08T15:47:39.999Z</time></trkpt><trkpt lat="43.4515204759457" lon="11.419625507624465"><ele>329.3333333333333</ele><time>2026-04-08T15:47:40.999Z</time></trkpt><trkpt lat="43.45163770872517" lon="11.41981038681266"><ele>331.0</ele><time>2026-04-08T15:47:41.999Z</time></trkpt><trkpt lat="43.45176749747188" lon="11.420026787553597"><ele>331.0</ele><time>2026-04-08T15:47:42.999Z</time></trkpt><trkpt lat="43.451933466084206" lon="11.420261388408031"><ele>331.0</ele><time>2026-04-08T15:47:43.999Z</time></trkpt><trkpt lat="43.45207683204203" lon="11.420500985644049"><ele>333.0</ele><time>2026-04-08T15:47:44.999Z</time></trkpt><trkpt lat="43.45223330087457" lon="11.420734543092474"><ele>335.0</ele><time>2026-04-08T15:47:45.999Z</time></trkpt><trkpt lat="43.45238473034398" lon="11.420955838155306"><ele>335.0</ele><time>2026-04-08T15:47:46.999Z</time></trkpt><trkpt lat="43.45253811602906" lon="11.421155629819786"><ele>335.0</ele><time>2026-04-08T15:47:47.999Z</time></trkpt><trkpt lat="43.4527124444534" lon="11.42132398171677"><ele>335.0</ele><time>2026-04-08T15:47:48.999Z</time></trkpt><trkpt lat="43.452896235175956" lon="11.421456727895798"><ele>334.0</ele><time>2026-04-08T15:47:49.999Z</time></trkpt><trkpt lat="43.453049781254585" lon="11.421603556671725"><ele>333.0</ele><time>2026-04-08T15:47:50.999Z</time></trkpt><trkpt lat="43.45318946845617" lon="11.421796777751311"><ele>332.0</ele><time>2026-04-08T15:47:51.999Z</time></trkpt><trkpt lat="43.4533431962495" lon="11.422033214712979"><ele>328.5</ele><time>2026-04-08T15:47:52.999Z</time></trkpt><trkpt lat="43.45350941350833" lon="11.42229194312364"><ele>325.0</ele><time>2026-04-08T15:47:53.999Z</time></trkpt><trkpt lat="43.45369368587201" lon="11.422546512117323"><ele>328.0</ele><time>2026-04-08T15:47:54.999Z</time></trkpt><trkpt lat="43.45384782249854" lon="11.42281923128862"><ele>331.0</ele><time>2026-04-08T15:47:55.999Z</time></trkpt><trkpt lat="43.45402321304287" lon="11.423092593309502"><ele>331.0</ele><time>2026-04-08T15:47:56.999Z</time></trkpt><trkpt lat="43.45420650779653" lon="11.42334693586683"><ele>331.0</ele><time>2026-04-08T15:47:57.999Z</time></trkpt><trkpt lat="43.45434684944455" lon="11.423556343242861"><ele>331.0</ele><time>2026-04-08T15:47:58.999Z</time></trkpt><trkpt lat="43.454469477539455" lon="11.423708688506848"><ele>331.0</ele><time>2026-04-08T15:47:59.999Z</time></trkpt><trkpt lat="43.45457202055849" lon="11.423815105188993"><ele>331.0</ele><time>2026-04-08T15:48:00.999Z</time></trkpt><trkpt lat="43.45464387055662" lon="11.423875329945917"><ele>331.0</ele><time>2026-04-08T15:48:01.999Z</time></trkpt><trkpt lat="43.45469171089837" lon="11.423949359176147"><ele>331.0</ele><time>2026-04-08T15:48:03.999Z</time></trkpt><trkpt lat="43.45451779340137" lon="11.424263688182748"><ele>331.0</ele><time>2026-04-08T15:48:07.999Z</time></trkpt><trkpt lat="43.45444755698787" lon="11.42439460798557"><ele>331.0</ele><time>2026-04-08T15:48:08.999Z</time></trkpt><trkpt lat="43.45434693747911" lon="11.424566500591096"><ele>331.3333333333333</ele><time>2026-04-08T15:48:09.999Z</time></trkpt><trkpt lat="43.45423813258194" lon="11.424746549626612"><ele>331.6666666666667</ele><time>2026-04-08T15:48:10.999Z</time></trkpt><trkpt lat="43.45411648731083" lon="11.424948616228622"><ele>332.0</ele><time>2026-04-08T15:48:11.999Z</time></trkpt><trkpt lat="43.45399475308146" lon="11.425138902812257"><ele>332.0</ele><time>2026-04-08T15:48:12.999Z</time></trkpt><trkpt lat="43.453860834555044" lon="11.425341986566467"><ele>332.0</ele><time>2026-04-08T15:48:13.999Z</time></trkpt><trkpt lat="43.45370392038725" lon="11.425566654525154"><ele>332.0</ele><time>2026-04-08T15:48:14.999Z</time></trkpt><trkpt lat="43.453538431218966" lon="11.425800679921881"><ele>335.5</ele><time>2026-04-08T15:48:15.999Z</time></trkpt><trkpt lat="43.45337301390898" lon="11.426029742998912"><ele>339.0</ele><time>2026-04-08T15:48:16.999Z</time></trkpt><trkpt lat="43.4532091275238" lon="11.42626173969553"><ele>338.0</ele><time>2026-04-08T15:48:17.999Z</time></trkpt><trkpt lat="43.45304051364434" lon="11.426507994141534"><ele>337.0</ele><time>2026-04-08T15:48:18.999Z</time></trkpt><trkpt lat="43.45285801852827" lon="11.426786968616499"><ele>340.0</ele><time>2026-04-08T15:48:19.999Z</time></trkpt><trkpt lat="43.45270333652837" lon="11.427002948684725"><ele>343.0</ele><time>2026-04-08T15:48:20.999Z</time></trkpt><trkpt lat="43.452562848816" lon="11.427195580811782"><ele>346.0</ele><time>2026-04-08T15:48:21.999Z</time></trkpt><trkpt lat="43.45245691795382" lon="11.42734621523568"><ele>346.0</ele><time>2026-04-08T15:48:22.999Z</time></trkpt><trkpt lat="43.452344334240294" lon="11.427436915808492"><ele>346.0</ele><time>2026-04-08T15:48:23.999Z</time></trkpt><trkpt lat="43.4522171093226" lon="11.427520545524732"><ele>346.0</ele><time>2026-04-08T15:48:24.999Z</time></trkpt><trkpt lat="43.45206228731016" lon="11.427596093118195"><ele>346.0</ele><time>2026-04-08T15:48:25.999Z</time></trkpt><trkpt lat="43.451885446686916" lon="11.42768297582879"><ele>349.66666666666663</ele><time>2026-04-08T15:48:26.999Z</time></trkpt><trkpt lat="43.451703456867435" lon="11.427792842276677"><ele>353.3333333333333</ele><time>2026-04-08T15:48:27.999Z</time></trkpt><trkpt lat="43.45151977411352" lon="11.42788576538186"><ele>357.0</ele><time>2026-04-08T15:48:28.999Z</time></trkpt><trkpt lat="43.45135901528306" lon="11.427966783482264"><ele>360.0</ele><time>2026-04-08T15:48:29.999Z</time></trkpt><trkpt lat="43.45121734193688" lon="11.42803391708415"><ele>363.0</ele><time>2026-04-08T15:48:30.999Z</time></trkpt><trkpt lat="43.45109491905603" lon="11.428121410798685"><ele>366.0</ele><time>2026-04-08T15:48:31.999Z</time></trkpt><trkpt lat="43.450996093110724" lon="11.428257519784005"><ele>369.0</ele><time>2026-04-08T15:48:32.999Z</time></trkpt><trkpt lat="43.45091636681486" lon="11.428412137708925"><ele>369.0</ele><time>2026-04-08T15:48:33.999Z</time></trkpt><trkpt lat="43.45088287732771" lon="11.428563810878337"><ele>369.0</ele><time>2026-04-08T15:48:34.998Z</time></trkpt><trkpt lat="43.45089358792111" lon="11.428722131737189"><ele>369.0</ele><time>2026-04-08T15:48:35.998Z</time></trkpt><trkpt lat="43.45095606906158" lon="11.428929695864873"><ele>369.0</ele><time>2026-04-08T15:48:36.998Z</time></trkpt><trkpt lat="43.451007039315584" lon="11.429136518047242"><ele>369.25</ele><time>2026-04-08T15:48:37.998Z</time></trkpt><trkpt lat="43.45104538414905" lon="11.429342958389892"><ele>369.5</ele><time>2026-04-08T15:48:38.998Z</time></trkpt><trkpt lat="43.45104697701101" lon="11.42952179356538"><ele>369.75</ele><time>2026-04-08T15:48:39.998Z</time></trkpt><trkpt lat="43.45099668957047" lon="11.429630262726207"><ele>370.0</ele><time>2026-04-08T15:48:40.998Z</time></trkpt><trkpt lat="43.450932818728944" lon="11.429713561475282"><ele>370.25</ele><time>2026-04-08T15:48:41.998Z</time></trkpt><trkpt lat="43.45085903675884" lon="11.429857412674806"><ele>370.5</ele><time>2026-04-08T15:48:42.998Z</time></trkpt><trkpt lat="43.45077747702199" lon="11.43004014646314"><ele>370.75</ele><time>2026-04-08T15:48:43.998Z</time></trkpt><trkpt lat="43.45072689229526" lon="11.430243215355448"><ele>371.0</ele><time>2026-04-08T15:48:44.998Z</time></trkpt><trkpt lat="43.45071417619189" lon="11.430461218997179"><ele>372.0</ele><time>2026-04-08T15:48:45.998Z</time></trkpt><trkpt lat="43.4507390001895" lon="11.430690122053694"><ele>373.0</ele><time>2026-04-08T15:48:46.998Z</time></trkpt><trkpt lat="43.450786524100124" lon="11.430902224747102"><ele>374.0</ele><time>2026-04-08T15:48:47.998Z</time></trkpt><trkpt lat="43.45081863803443" lon="11.43108553467173"><ele>374.0</ele><time>2026-04-08T15:48:48.998Z</time></trkpt><trkpt lat="43.450807690539094" lon="11.431255549013205"><ele>374.0</ele><time>2026-04-08T15:48:49.998Z</time></trkpt><trkpt lat="43.45075610469638" lon="11.431425932866466"><ele>374.0</ele><time>2026-04-08T15:48:50.998Z</time></trkpt><trkpt lat="43.450666260008575" lon="11.431616417254304"><ele>374.0</ele><time>2026-04-08T15:48:51.998Z</time></trkpt><trkpt lat="43.45055528786822" lon="11.431795141497274"><ele>378.0</ele><time>2026-04-08T15:48:52.998Z</time></trkpt><trkpt lat="43.450457790039756" lon="11.431941643770111"><ele>382.0</ele><time>2026-04-08T15:48:53.998Z</time></trkpt><trkpt lat="43.450392126005646" lon="11.432103464304385"><ele>386.0</ele><time>2026-04-08T15:48:54.998Z</time></trkpt><trkpt lat="43.450358221060185" lon="11.432329863665665"><ele>390.0</ele><time>2026-04-08T15:48:55.998Z</time></trkpt><trkpt lat="43.45034229426705" lon="11.432602828535156"><ele>391.66666666666663</ele><time>2026-04-08T15:48:56.998Z</time></trkpt><trkpt lat="43.45032965253552" lon="11.432876512375723"><ele>393.3333333333333</ele><time>2026-04-08T15:48:57.998Z</time></trkpt><trkpt lat="43.45031351982151" lon="11.433153268002753"><ele>395.0</ele><time>2026-04-08T15:48:58.998Z</time></trkpt><trkpt lat="43.45030268295574" lon="11.433401133116908"><ele>396.0</ele><time>2026-04-08T15:48:59.998Z</time></trkpt><trkpt lat="43.450304966948046" lon="11.43361611577912"><ele>397.0</ele><time>2026-04-08T15:49:00.998Z</time></trkpt><trkpt lat="43.450340967262626" lon="11.433825946737029"><ele>398.0</ele><time>2026-04-08T15:49:01.998Z</time></trkpt><trkpt lat="43.450412510310564" lon="11.434039422938813"><ele>398.2</ele><time>2026-04-08T15:49:02.998Z</time></trkpt><trkpt lat="43.450493201577515" lon="11.43421930640623"><ele>398.4</ele><time>2026-04-08T15:49:03.998Z</time></trkpt><trkpt lat="43.450547894960145" lon="11.434374729910097"><ele>398.59999999999997</ele><time>2026-04-08T15:49:04.998Z</time></trkpt><trkpt lat="43.450552364232074" lon="11.434472466076581"><ele>398.79999999999995</ele><time>2026-04-08T15:49:05.998Z</time></trkpt><trkpt lat="43.450519197201295" lon="11.434558141096373"><ele>399.0</ele><time>2026-04-08T15:49:06.998Z</time></trkpt><trkpt lat="43.45045350409728" lon="11.434636216771866"><ele>397.66666666666663</ele><time>2026-04-08T15:49:07.998Z</time></trkpt><trkpt lat="43.45034429496562" lon="11.434737033847618"><ele>396.3333333333333</ele><time>2026-04-08T15:49:08.998Z</time></trkpt><trkpt lat="43.45020930652155" lon="11.434858367100414"><ele>395.0</ele><time>2026-04-08T15:49:09.998Z</time></trkpt><trkpt lat="43.45007363715095" lon="11.435005563277379"><ele>395.0</ele><time>2026-04-08T15:49:10.998Z</time></trkpt><trkpt lat="43.44993581556339" lon="11.435191485448833"><ele>395.0</ele><time>2026-04-08T15:49:11.998Z</time></trkpt><trkpt lat="43.44981306499631" lon="11.435403618586042"><ele>395.0</ele><time>2026-04-08T15:49:12.998Z</time></trkpt><trkpt lat="43.449704653292045" lon="11.43560398419283"><ele>396.5</ele><time>2026-04-08T15:49:13.998Z</time></trkpt><trkpt lat="43.44960929450945" lon="11.43576600416501"><ele>398.0</ele><time>2026-04-08T15:49:14.998Z</time></trkpt><trkpt lat="43.44952121326778" lon="11.435884901869846"><ele>399.5</ele><time>2026-04-08T15:49:15.998Z</time></trkpt><trkpt lat="43.4494354103468" lon="11.435963452310874"><ele>401.0</ele><time>2026-04-08T15:49:17Z</time></trkpt><trkpt lat="43.449342021639055" lon="11.436002507034496"><ele>401.0</ele><time>2026-04-08T15:49:18Z</time></trkpt><trkpt lat="43.449224587571344" lon="11.435976660880353"><ele>401.0</ele><time>2026-04-08T15:49:19Z</time></trkpt><trkpt lat="43.44907191548071" lon="11.435971557384553"><ele>401.0</ele><time>2026-04-08T15:49:20Z</time></trkpt><trkpt lat="43.44889983521893" lon="11.435941558895218"><ele>401.0</ele><time>2026-04-08T15:49:21Z</time></trkpt><trkpt lat="43.448723194118486" lon="11.43591998530192"><ele>402.8</ele><time>2026-04-08T15:49:22Z</time></trkpt><trkpt lat="43.44859280283662" lon="11.435899387583765"><ele>404.6</ele><time>2026-04-08T15:49:23Z</time></trkpt><trkpt lat="43.448503256179194" lon="11.435857993126003"><ele>406.4</ele><time>2026-04-08T15:49:24Z</time></trkpt><trkpt lat="43.4484369352238" lon="11.43578704918675"><ele>408.2</ele><time>2026-04-08T15:49:25Z</time></trkpt><trkpt lat="43.44840816496064" lon="11.435691823980367"><ele>410.0</ele><time>2026-04-08T15:49:26Z</time></trkpt><trkpt lat="43.44842222552934" lon="11.435582606848664"><ele>410.0</ele><time>2026-04-08T15:49:27Z</time></trkpt><trkpt lat="43.44849994582508" lon="11.435482242537521"><ele>410.0</ele><time>2026-04-08T15:49:28Z</time></trkpt><trkpt lat="43.44860187515179" lon="11.435362454326613"><ele>410.0</ele><time>2026-04-08T15:49:29Z</time></trkpt><trkpt lat="43.44871393226988" lon="11.435205002989232"><ele>410.0</ele><time>2026-04-08T15:49:30Z</time></trkpt><trkpt lat="43.44882395402509" lon="11.435075146111776"><ele>409.5</ele><time>2026-04-08T15:49:31Z</time></trkpt><trkpt lat="43.44890973476924" lon="11.434947331088503"><ele>409.0</ele><time>2026-04-08T15:49:32Z</time></trkpt><trkpt lat="43.448977318575594" lon="11.434813586641086"><ele>408.5</ele><time>2026-04-08T15:49:33Z</time></trkpt><trkpt lat="43.449032223360625" lon="11.434664129157191"><ele>408.0</ele><time>2026-04-08T15:49:34Z</time></trkpt><trkpt lat="43.44909475254983" lon="11.434521216062258"><ele>408.79999999999995</ele><time>2026-04-08T15:49:35Z</time></trkpt><trkpt lat="43.44912676970078" lon="11.434375614641231"><ele>409.6</ele><time>2026-04-08T15:49:36Z</time></trkpt><trkpt lat="43.44916570074312" lon="11.434267852869448"><ele>410.4</ele><time>2026-04-08T15:49:36.999Z</time></trkpt><trkpt lat="43.44916755073372" lon="11.434159712454234"><ele>411.20000000000005</ele><time>2026-04-08T15:49:37.999Z</time></trkpt><trkpt lat="43.449134042784934" lon="11.434062477650286"><ele>412.0</ele><time>2026-04-08T15:49:38.999Z</time></trkpt><trkpt lat="43.44906703089119" lon="11.433933255770702"><ele>412.0</ele><time>2026-04-08T15:49:40.999Z</time></trkpt><trkpt lat="43.449004332335385" lon="11.433879321120028"><ele>412.0</ele><time>2026-04-08T15:49:41.999Z</time></trkpt><trkpt lat="43.44891312756517" lon="11.433835888869647"><ele>412.0</ele><time>2026-04-08T15:49:42.999Z</time></trkpt><trkpt lat="43.44880947687234" lon="11.4338214428336"><ele>412.0</ele><time>2026-04-08T15:49:43.999Z</time></trkpt><trkpt lat="43.44870894597862" lon="11.433850481227166"><ele>412.0</ele><time>2026-04-08T15:49:44.999Z</time></trkpt><trkpt lat="43.44860365596906" lon="11.433947037422653"><ele>415.25</ele><time>2026-04-08T15:49:45.999Z</time></trkpt><trkpt lat="43.44851190459418" lon="11.434103982849804"><ele>418.5</ele><time>2026-04-08T15:49:46.999Z</time></trkpt><trkpt lat="43.4484297893079" lon="11.434243025775674"><ele>421.75</ele><time>2026-04-08T15:49:47.999Z</time></trkpt><trkpt lat="43.448327864987796" lon="11.434334057699555"><ele>425.0</ele><time>2026-04-08T15:49:48.999Z</time></trkpt><trkpt lat="43.44818638437827" lon="11.434402261179944"><ele>425.0</ele><time>2026-04-08T15:49:49.999Z</time></trkpt><trkpt lat="43.448009579512735" lon="11.434456286859788"><ele>425.0</ele><time>2026-04-08T15:49:50.999Z</time></trkpt><trkpt lat="43.44782303418154" lon="11.434503653057732"><ele>425.0</ele><time>2026-04-08T15:49:51.999Z</time></trkpt><trkpt lat="43.44764820118645" lon="11.434554790950187"><ele>425.0</ele><time>2026-04-08T15:49:52.999Z</time></trkpt><trkpt lat="43.44745604103102" lon="11.434617030522398"><ele>425.0</ele><time>2026-04-08T15:49:53.999Z</time></trkpt><trkpt lat="43.44727546058901" lon="11.434676906242096"><ele>425.0</ele><time>2026-04-08T15:49:54.999Z</time></trkpt><trkpt lat="43.447117796215316" lon="11.434723287498482"><ele>429.3333333333333</ele><time>2026-04-08T15:49:55.999Z</time></trkpt><trkpt lat="43.44697190148892" lon="11.434777159432691"><ele>433.66666666666663</ele><time>2026-04-08T15:49:56.999Z</time></trkpt><trkpt lat="43.446834875890936" lon="11.434869111900914"><ele>438.0</ele><time>2026-04-08T15:49:57.999Z</time></trkpt><trkpt lat="43.446708604973644" lon="11.435019958498888"><ele>438.0</ele><time>2026-04-08T15:49:58.999Z</time></trkpt><trkpt lat="43.446593756139215" lon="11.4352165644227"><ele>438.0</ele><time>2026-04-08T15:49:59.999Z</time></trkpt><trkpt lat="43.44647820889191" lon="11.435444080703927"><ele>438.0</ele><time>2026-04-08T15:50:00.999Z</time></trkpt><trkpt lat="43.44634945386539" lon="11.4356767212101"><ele>440.66666666666663</ele><time>2026-04-08T15:50:01.999Z</time></trkpt><trkpt lat="43.446219427903046" lon="11.435892396669397"><ele>443.3333333333333</ele><time>2026-04-08T15:50:02.999Z</time></trkpt><trkpt lat="43.446090317792596" lon="11.436106881332174"><ele>446.0</ele><time>2026-04-08T15:50:03.999Z</time></trkpt><trkpt lat="43.44596624575956" lon="11.436314833069643"><ele>446.3333333333333</ele><time>2026-04-08T15:50:04.999Z</time></trkpt><trkpt lat="43.44585398722835" lon="11.436510888916127"><ele>446.66666666666663</ele><time>2026-04-08T15:50:05.999Z</time></trkpt><trkpt lat="43.44575065648776" lon="11.436695378164828"><ele>447.0</ele><time>2026-04-08T15:50:06.999Z</time></trkpt><trkpt lat="43.445641805386856" lon="11.436885254061664"><ele>447.0</ele><time>2026-04-08T15:50:07.999Z</time></trkpt><trkpt lat="43.445526058845836" lon="11.43708141569639"><ele>447.0</ele><time>2026-04-08T15:50:08.999Z</time></trkpt><trkpt lat="43.445409452565826" lon="11.437269353013972"><ele>447.0</ele><time>2026-04-08T15:50:09.999Z</time></trkpt><trkpt lat="43.445282206945905" lon="11.437435241549467"><ele>446.0</ele><time>2026-04-08T15:50:10.999Z</time></trkpt><trkpt lat="43.44513432968787" lon="11.437582547475065"><ele>445.0</ele><time>2026-04-08T15:50:11.999Z</time></trkpt><trkpt lat="43.44499294040186" lon="11.437714020211967"><ele>444.0</ele><time>2026-04-08T15:50:12.999Z</time></trkpt><trkpt lat="43.444835662969545" lon="11.437795777656923"><ele>444.0</ele><time>2026-04-08T15:50:13.999Z</time></trkpt><trkpt lat="43.44468053841946" lon="11.437875892455061"><ele>444.0</ele><time>2026-04-08T15:50:14.999Z</time></trkpt><trkpt lat="43.44451519576006" lon="11.437960769550198"><ele>444.0</ele><time>2026-04-08T15:50:15.999Z</time></trkpt><trkpt lat="43.444347567280246" lon="11.43801772745533"><ele>448.0</ele><time>2026-04-08T15:50:16.999Z</time></trkpt><trkpt lat="43.44418619661886" lon="11.438084283325184"><ele>452.0</ele><time>2026-04-08T15:50:17.999Z</time></trkpt><trkpt lat="43.44403056382388" lon="11.438156672075444"><ele>456.0</ele><time>2026-04-08T15:50:18.999Z</time></trkpt><trkpt lat="43.44388754026828" lon="11.438206861636061"><ele>455.25</ele><time>2026-04-08T15:50:19.999Z</time></trkpt><trkpt lat="43.4437671308494" lon="11.438244507907092"><ele>454.5</ele><time>2026-04-08T15:50:20.999Z</time></trkpt><trkpt lat="43.443670449921356" lon="11.438314808310434"><ele>453.75</ele><time>2026-04-08T15:50:21.999Z</time></trkpt><trkpt lat="43.44357950871165" lon="11.438445601097381"><ele>453.0</ele><time>2026-04-08T15:50:22.999Z</time></trkpt><trkpt lat="43.44349489061501" lon="11.438588175940723"><ele>453.0</ele><time>2026-04-08T15:50:23.999Z</time></trkpt><trkpt lat="43.44342718836428" lon="11.43870620093274"><ele>452.99999999999994</ele><time>2026-04-08T15:50:24.999Z</time></trkpt><trkpt lat="43.44337873508894" lon="11.438806972646024"><ele>452.99999999999994</ele><time>2026-04-08T15:50:25.999Z</time></trkpt><trkpt lat="43.44334228379049" lon="11.438902577494744"><ele>453.0</ele><time>2026-04-08T15:50:26.999Z</time></trkpt><trkpt lat="43.44338415514554" lon="11.439044835784715"><ele>453.0</ele><time>2026-04-08T15:50:27.999Z</time></trkpt><trkpt lat="43.443443702237886" lon="11.439198915784878"><ele>453.0</ele><time>2026-04-08T15:50:28.999Z</time></trkpt><trkpt lat="43.443524170457714" lon="11.439375475622127"><ele>453.0</ele><time>2026-04-08T15:50:29.999Z</time></trkpt><trkpt lat="43.44359562243269" lon="11.439536740344016"><ele>453.0</ele><time>2026-04-08T15:50:30.999Z</time></trkpt><trkpt lat="43.44361832013223" lon="11.439700876033912"><ele>453.0</ele><time>2026-04-08T15:50:31.999Z</time></trkpt><trkpt lat="43.44362892408964" lon="11.439866311081644"><ele>453.0</ele><time>2026-04-08T15:50:32.999Z</time></trkpt><trkpt lat="43.4436282429752" lon="11.44004557351325"><ele>453.0</ele><time>2026-04-08T15:50:33.999Z</time></trkpt><trkpt lat="43.44358133388483" lon="11.440228086186952"><ele>453.0</ele><time>2026-04-08T15:50:34.999Z</time></trkpt><trkpt lat="43.44350570663555" lon="11.440400248364526"><ele>453.0</ele><time>2026-04-08T15:50:35.999Z</time></trkpt><trkpt lat="43.44339090531779" lon="11.440550247534556"><ele>454.66666666666663</ele><time>2026-04-08T15:50:36.999Z</time></trkpt><trkpt lat="43.443272944327234" lon="11.44069308641005"><ele>456.3333333333333</ele><time>2026-04-08T15:50:37.999Z</time></trkpt><trkpt lat="43.44315597421421" lon="11.440841065557112"><ele>458.0</ele><time>2026-04-08T15:50:38.999Z</time></trkpt><trkpt lat="43.44305909207003" lon="11.440985065658216"><ele>458.0</ele><time>2026-04-08T15:50:39.998Z</time></trkpt><trkpt lat="43.44296726605984" lon="11.441095236337102"><ele>458.0</ele><time>2026-04-08T15:50:40.998Z</time></trkpt><trkpt lat="43.4428966922333" lon="11.44120158944892"><ele>458.0</ele><time>2026-04-08T15:50:41.998Z</time></trkpt><trkpt lat="43.44283120647826" lon="11.441325692054056"><ele>458.0</ele><time>2026-04-08T15:50:42.998Z</time></trkpt><trkpt lat="43.44276604461603" lon="11.441470255465479"><ele>455.75</ele><time>2026-04-08T15:50:43.998Z</time></trkpt><trkpt lat="43.44271737254893" lon="11.441631990296392"><ele>453.5</ele><time>2026-04-08T15:50:44.998Z</time></trkpt><trkpt lat="43.44269862839432" lon="11.441809173616486"><ele>451.25</ele><time>2026-04-08T15:50:45.998Z</time></trkpt><trkpt lat="43.44271137191175" lon="11.44199695556241"><ele>449.0</ele><time>2026-04-08T15:50:46.998Z</time></trkpt><trkpt lat="43.442750849005925" lon="11.442214056257626"><ele>449.0</ele><time>2026-04-08T15:50:47.998Z</time></trkpt><trkpt lat="43.442807087523306" lon="11.442446106279261"><ele>449.0</ele><time>2026-04-08T15:50:48.998Z</time></trkpt><trkpt lat="43.44283476975182" lon="11.44265826981139"><ele>449.0</ele><time>2026-04-08T15:50:49.998Z</time></trkpt><trkpt lat="43.442847780768226" lon="11.442871297265096"><ele>448.3333333333333</ele><time>2026-04-08T15:50:50.998Z</time></trkpt><trkpt lat="43.44282908126248" lon="11.443091561482838"><ele>447.66666666666663</ele><time>2026-04-08T15:50:51.998Z</time></trkpt><trkpt lat="43.44277877298398" lon="11.443317311567583"><ele>447.0</ele><time>2026-04-08T15:50:52.998Z</time></trkpt><trkpt lat="43.442712033122994" lon="11.44355541087571"><ele>447.0</ele><time>2026-04-08T15:50:53.998Z</time></trkpt><trkpt lat="43.442658105388" lon="11.443777658215966"><ele>447.0</ele><time>2026-04-08T15:50:54.998Z</time></trkpt><trkpt lat="43.442562545160996" lon="11.443963608174506"><ele>447.0</ele><time>2026-04-08T15:50:55.998Z</time></trkpt><trkpt lat="43.44245513000332" lon="11.444136241532311"><ele>447.66666666666663</ele><time>2026-04-08T15:50:56.998Z</time></trkpt><trkpt lat="43.44235193944358" lon="11.444272131508114"><ele>448.3333333333333</ele><time>2026-04-08T15:50:57.998Z</time></trkpt><trkpt lat="43.44221698584479" lon="11.444446520220351"><ele>449.0</ele><time>2026-04-08T15:50:58.998Z</time></trkpt><trkpt lat="43.44207421892301" lon="11.444622326109158"><ele>451.0</ele><time>2026-04-08T15:50:59.998Z</time></trkpt><trkpt lat="43.441949204289784" lon="11.444782920763794"><ele>453.0</ele><time>2026-04-08T15:51:00.998Z</time></trkpt><trkpt lat="43.44185184855802" lon="11.444942174725021"><ele>455.0</ele><time>2026-04-08T15:51:01.998Z</time></trkpt><trkpt lat="43.44175525641407" lon="11.445080421734925"><ele>455.0</ele><time>2026-04-08T15:51:02.998Z</time></trkpt><trkpt lat="43.441681118123206" lon="11.445231818927592"><ele>455.0</ele><time>2026-04-08T15:51:03.998Z</time></trkpt><trkpt lat="43.441635447477736" lon="11.445408769851882"><ele>455.0</ele><time>2026-04-08T15:51:04.998Z</time></trkpt><trkpt lat="43.44161816144513" lon="11.44561036777772"><ele>455.0</ele><time>2026-04-08T15:51:05.998Z</time></trkpt><trkpt lat="43.441635632791346" lon="11.445820930665025"><ele>456.0</ele><time>2026-04-08T15:51:06.998Z</time></trkpt><trkpt lat="43.44167910250166" lon="11.446030061390207"><ele>457.0</ele><time>2026-04-08T15:51:07.998Z</time></trkpt><trkpt lat="43.441740924911485" lon="11.44621187797712"><ele>458.0</ele><time>2026-04-08T15:51:08.998Z</time></trkpt><trkpt lat="43.44183300802265" lon="11.446381338186946"><ele>458.0</ele><time>2026-04-08T15:51:09.998Z</time></trkpt><trkpt lat="43.44195134175632" lon="11.446538247672466"><ele>458.0</ele><time>2026-04-08T15:51:10.998Z</time></trkpt><trkpt lat="43.44209695931118" lon="11.446684519240932"><ele>458.0</ele><time>2026-04-08T15:51:11.998Z</time></trkpt><trkpt lat="43.44225399757928" lon="11.446829807617211"><ele>460.0</ele><time>2026-04-08T15:51:12.998Z</time></trkpt><trkpt lat="43.44240446368925" lon="11.446970973098267"><ele>462.0</ele><time>2026-04-08T15:51:13.998Z</time></trkpt><trkpt lat="43.44253498301469" lon="11.447128409482628"><ele>464.0</ele><time>2026-04-08T15:51:14.998Z</time></trkpt><trkpt lat="43.44262048410645" lon="11.447305255343753"><ele>466.0</ele><time>2026-04-08T15:51:15.998Z</time></trkpt><trkpt lat="43.44267006280959" lon="11.447469676057548"><ele>468.0</ele><time>2026-04-08T15:51:16.998Z</time></trkpt><trkpt lat="43.44267811350177" lon="11.447608097068018"><ele>470.0</ele><time>2026-04-08T15:51:17.998Z</time></trkpt><trkpt lat="43.442656185115574" lon="11.447737935031373"><ele>472.0</ele><time>2026-04-08T15:51:18.998Z</time></trkpt><trkpt lat="43.44259222648" lon="11.447879300126345"><ele>474.0</ele><time>2026-04-08T15:51:19.998Z</time></trkpt><trkpt lat="43.442517814528244" lon="11.448036327502239"><ele>475.66666666666663</ele><time>2026-04-08T15:51:20.998Z</time></trkpt><trkpt lat="43.44244040340888" lon="11.448216492667628"><ele>477.3333333333333</ele><time>2026-04-08T15:51:21.998Z</time></trkpt><trkpt lat="43.442341887701964" lon="11.448414393282945"><ele>479.0</ele><time>2026-04-08T15:51:23Z</time></trkpt><trkpt lat="43.44224818236696" lon="11.44860753259012"><ele>479.0</ele><time>2026-04-08T15:51:24Z</time></trkpt><trkpt lat="43.442170817713944" lon="11.448768155038001"><ele>479.0</ele><time>2026-04-08T15:51:25Z</time></trkpt><trkpt lat="43.44212203590746" lon="11.448921574974058"><ele>479.0</ele><time>2026-04-08T15:51:26Z</time></trkpt><trkpt lat="43.44211002436143" lon="11.449063214051442"><ele>479.0</ele><time>2026-04-08T15:51:27Z</time></trkpt><trkpt lat="43.44212415680139" lon="11.449199808346393"><ele>479.0</ele><time>2026-04-08T15:51:28Z</time></trkpt><trkpt lat="43.44217424136638" lon="11.449355201843469"><ele>479.0</ele><time>2026-04-08T15:51:29Z</time></trkpt><trkpt lat="43.442250222765175" lon="11.449535062549145"><ele>479.0</ele><time>2026-04-08T15:51:30Z</time></trkpt><trkpt lat="43.44233267575407" lon="11.449737017019531"><ele>479.0</ele><time>2026-04-08T15:51:31Z</time></trkpt><trkpt lat="43.44240690921118" lon="11.44994082276239"><ele>479.0</ele><time>2026-04-08T15:51:32Z</time></trkpt><trkpt lat="43.44248636237288" lon="11.450165628781651"><ele>479.0</ele><time>2026-04-08T15:51:33Z</time></trkpt><trkpt lat="43.44257375243848" lon="11.45040966310229"><ele>479.0</ele><time>2026-04-08T15:51:34Z</time></trkpt><trkpt lat="43.442657900350056" lon="11.450634021881777"><ele>479.5</ele><time>2026-04-08T15:51:35Z</time></trkpt><trkpt lat="43.44273464019724" lon="11.45082357762833"><ele>480.0</ele><time>2026-04-08T15:51:36Z</time></trkpt><trkpt lat="43.44279933552724" lon="11.450999113260005"><ele>480.5</ele><time>2026-04-08T15:51:37Z</time></trkpt><trkpt lat="43.442835905052455" lon="11.451173702252161"><ele>481.0</ele><time>2026-04-08T15:51:38Z</time></trkpt><trkpt lat="43.44283354782858" lon="11.451351432612276"><ele>483.0</ele><time>2026-04-08T15:51:39Z</time></trkpt><trkpt lat="43.44276933589363" lon="11.451509745315567"><ele>485.0</ele><time>2026-04-08T15:51:40Z</time></trkpt><trkpt lat="43.442689134296174" lon="11.451672076183176"><ele>487.0</ele><time>2026-04-08T15:51:41Z</time></trkpt><trkpt lat="43.44260462970036" lon="11.451866785274316"><ele>489.0</ele><time>2026-04-08T15:51:42Z</time></trkpt><trkpt lat="43.4424911697791" lon="11.452053184623495"><ele>491.5</ele><time>2026-04-08T15:51:43Z</time></trkpt><trkpt lat="43.44237952138406" lon="11.452218364803809"><ele>494.0</ele><time>2026-04-08T15:51:44Z</time></trkpt><trkpt lat="43.442317193743804" lon="11.452391619927958"><ele>496.5</ele><time>2026-04-08T15:51:44.999Z</time></trkpt><trkpt lat="43.44226883758419" lon="11.452531927846366"><ele>499.0</ele><time>2026-04-08T15:51:45.999Z</time></trkpt><trkpt lat="43.44225638323727" lon="11.452676362383187"><ele>499.0</ele><time>2026-04-08T15:51:46.999Z</time></trkpt><trkpt lat="43.442269587017705" lon="11.452849902891577"><ele>499.0</ele><time>2026-04-08T15:51:47.999Z</time></trkpt><trkpt lat="43.442298325583145" lon="11.453056175409621"><ele>499.0</ele><time>2026-04-08T15:51:48.999Z</time></trkpt><trkpt lat="43.44232088970613" lon="11.453263848405086"><ele>499.0</ele><time>2026-04-08T15:51:49.999Z</time></trkpt><trkpt lat="43.44234095487066" lon="11.453466901874886"><ele>499.5</ele><time>2026-04-08T15:51:50.999Z</time></trkpt><trkpt lat="43.44234673087905" lon="11.453646493516075"><ele>500.0</ele><time>2026-04-08T15:51:51.999Z</time></trkpt><trkpt lat="43.44228958455348" lon="11.453821857009428"><ele>500.5</ele><time>2026-04-08T15:51:52.999Z</time></trkpt><trkpt lat="43.442251691488956" lon="11.454030323000605"><ele>501.0</ele><time>2026-04-08T15:51:53.999Z</time></trkpt><trkpt lat="43.44224250867024" lon="11.454276544946095"><ele>500.66666666666663</ele><time>2026-04-08T15:51:54.999Z</time></trkpt><trkpt lat="43.44224202761975" lon="11.454507572966428"><ele>500.3333333333333</ele><time>2026-04-08T15:51:55.999Z</time></trkpt><trkpt lat="43.44222896930672" lon="11.45473640646065"><ele>500.0</ele><time>2026-04-08T15:51:56.999Z</time></trkpt><trkpt lat="43.442227165774725" lon="11.454965797514365"><ele>500.0</ele><time>2026-04-08T15:51:57.999Z</time></trkpt><trkpt lat="43.44222444335962" lon="11.455176141014016"><ele>500.0</ele><time>2026-04-08T15:51:58.999Z</time></trkpt><trkpt lat="43.442216774982086" lon="11.455379898277673"><ele>500.0</ele><time>2026-04-08T15:51:59.999Z</time></trkpt><trkpt lat="43.44219242957203" lon="11.455603034658669"><ele>500.3333333333333</ele><time>2026-04-08T15:52:00.999Z</time></trkpt><trkpt lat="43.442158104404875" lon="11.455831731012708"><ele>500.66666666666663</ele><time>2026-04-08T15:52:01.999Z</time></trkpt><trkpt lat="43.442142453503" lon="11.456050734570407"><ele>501.0</ele><time>2026-04-08T15:52:02.999Z</time></trkpt><trkpt lat="43.442127378239284" lon="11.456253092935135"><ele>503.0</ele><time>2026-04-08T15:52:03.999Z</time></trkpt><trkpt lat="43.442114788347624" lon="11.45643718604754"><ele>505.0</ele><time>2026-04-08T15:52:04.999Z</time></trkpt><trkpt lat="43.442091538758014" lon="11.456595797304256"><ele>507.0</ele><time>2026-04-08T15:52:05.999Z</time></trkpt><trkpt lat="43.44208062186221" lon="11.4567419775281"><ele>509.0</ele><time>2026-04-08T15:52:06.999Z</time></trkpt><trkpt lat="43.442067350279785" lon="11.456893927888673"><ele>509.0</ele><time>2026-04-08T15:52:07.999Z</time></trkpt><trkpt lat="43.442049938310234" lon="11.457075562911607"><ele>509.0</ele><time>2026-04-08T15:52:08.999Z</time></trkpt><trkpt lat="43.442031248376495" lon="11.457257238018869"><ele>509.0</ele><time>2026-04-08T15:52:09.999Z</time></trkpt><trkpt lat="43.44201384040482" lon="11.45742565085364"><ele>509.0</ele><time>2026-04-08T15:52:10.999Z</time></trkpt><trkpt lat="43.44198591385542" lon="11.457575877803409"><ele>509.3333333333333</ele><time>2026-04-08T15:52:11.999Z</time></trkpt><trkpt lat="43.44194445162957" lon="11.457707371997941"><ele>509.66666666666663</ele><time>2026-04-08T15:52:12.999Z</time></trkpt><trkpt lat="43.44189753174084" lon="11.457808918944432"><ele>510.0</ele><time>2026-04-08T15:52:13.999Z</time></trkpt><trkpt lat="43.441855662575044" lon="11.457905349618716"><ele>510.33333333333337</ele><time>2026-04-08T15:52:14.999Z</time></trkpt><trkpt lat="43.441793771084306" lon="11.457977096800303"><ele>510.6666666666667</ele><time>2026-04-08T15:52:15.999Z</time></trkpt><trkpt lat="43.441718929041414" lon="11.458019535584869"><ele>511.0</ele><time>2026-04-08T15:52:16.999Z</time></trkpt><trkpt lat="43.44166857340233" lon="11.458083737375102"><ele>511.8</ele><time>2026-04-08T15:52:17.999Z</time></trkpt><trkpt lat="43.44160800182737" lon="11.458122526728719"><ele>512.6</ele><time>2026-04-08T15:52:18.999Z</time></trkpt><trkpt lat="43.44151293270275" lon="11.45818044733096"><ele>513.4</ele><time>2026-04-08T15:52:20.999Z</time></trkpt><trkpt lat="43.44139433653022" lon="11.458275789783157"><ele>514.2</ele><time>2026-04-08T15:52:22.999Z</time></trkpt><trkpt lat="43.44132675376457" lon="11.458343010235236"><ele>515.0</ele><time>2026-04-08T15:52:23.999Z</time></trkpt><trkpt lat="43.44126677145981" lon="11.45843283187749"><ele>513.6</ele><time>2026-04-08T15:52:24.999Z</time></trkpt><trkpt lat="43.441235560017226" lon="11.45855369002056"><ele>512.2</ele><time>2026-04-08T15:52:25.999Z</time></trkpt><trkpt lat="43.44122771858805" lon="11.45868380407628"><ele>510.79999999999995</ele><time>2026-04-08T15:52:26.999Z</time></trkpt><trkpt lat="43.44124036019611" lon="11.458815718401029"><ele>509.4</ele><time>2026-04-08T15:52:27.999Z</time></trkpt><trkpt lat="43.44127951010624" lon="11.45894303824896"><ele>508.0</ele><time>2026-04-08T15:52:28.999Z</time></trkpt><trkpt lat="43.44134975160358" lon="11.459057250731286"><ele>507.75</ele><time>2026-04-08T15:52:29.999Z</time></trkpt><trkpt lat="43.44144540881113" lon="11.459156859734057"><ele>507.5</ele><time>2026-04-08T15:52:30.999Z</time></trkpt><trkpt lat="43.441549180779425" lon="11.459252512212064"><ele>507.25</ele><time>2026-04-08T15:52:31.999Z</time></trkpt><trkpt lat="43.44165379717883" lon="11.459342589049394"><ele>507.0</ele><time>2026-04-08T15:52:32.999Z</time></trkpt><trkpt lat="43.441768478931714" lon="11.45940298860494"><ele>507.0</ele><time>2026-04-08T15:52:33.999Z</time></trkpt><trkpt lat="43.44189446327569" lon="11.459414159371736"><ele>507.0</ele><time>2026-04-08T15:52:34.999Z</time></trkpt><trkpt lat="43.44202201196464" lon="11.459384665832141"><ele>507.0</ele><time>2026-04-08T15:52:35.999Z</time></trkpt><trkpt lat="43.44214360616955" lon="11.459329334758085"><ele>507.0</ele><time>2026-04-08T15:52:36.999Z</time></trkpt><trkpt lat="43.44226742273867" lon="11.459294452117083"><ele>504.75</ele><time>2026-04-08T15:52:37.999Z</time></trkpt><trkpt lat="43.44238315500917" lon="11.459328178826082"><ele>502.5</ele><time>2026-04-08T15:52:38.999Z</time></trkpt><trkpt lat="43.442497915880324" lon="11.45936052244075"><ele>500.25</ele><time>2026-04-08T15:52:39.999Z</time></trkpt><trkpt lat="43.44259907556951" lon="11.459459686980031"><ele>498.0</ele><time>2026-04-08T15:52:40.999Z</time></trkpt><trkpt lat="43.44267241612972" lon="11.459616801728588"><ele>496.5</ele><time>2026-04-08T15:52:41.999Z</time></trkpt><trkpt lat="43.44274170560656" lon="11.459791352781856"><ele>495.0</ele><time>2026-04-08T15:52:42.999Z</time></trkpt><trkpt lat="43.44281709729563" lon="11.459966093724432"><ele>493.5</ele><time>2026-04-08T15:52:43.999Z</time></trkpt><trkpt lat="43.44285853343883" lon="11.46014266412728"><ele>492.0</ele><time>2026-04-08T15:52:44.999Z</time></trkpt><trkpt lat="43.44291299381389" lon="11.460291956434542"><ele>492.8</ele><time>2026-04-08T15:52:45.999Z</time></trkpt><trkpt lat="43.44298174411635" lon="11.460404835561748"><ele>493.6</ele><time>2026-04-08T15:52:46.998Z</time></trkpt><trkpt lat="43.44306307273635" lon="11.460478630949886"><ele>494.40000000000003</ele><time>2026-04-08T15:52:47.998Z</time></trkpt><trkpt lat="43.44316237360252" lon="11.46050530874296"><ele>495.20000000000005</ele><time>2026-04-08T15:52:48.998Z</time></trkpt><trkpt lat="43.443275666381744" lon="11.460479177031136"><ele>496.0</ele><time>2026-04-08T15:52:49.998Z</time></trkpt><trkpt lat="43.443407339535405" lon="11.460399047840633"><ele>496.0</ele><time>2026-04-08T15:52:50.998Z</time></trkpt><trkpt lat="43.4435304760414" lon="11.460312123590773"><ele>496.0</ele><time>2026-04-08T15:52:51.998Z</time></trkpt><trkpt lat="43.443646446855404" lon="11.46027714569109"><ele>496.0</ele><time>2026-04-08T15:52:52.998Z</time></trkpt><trkpt lat="43.44374868327642" lon="11.460351704349321"><ele>496.0</ele><time>2026-04-08T15:52:53.998Z</time></trkpt><trkpt lat="43.44384963465416" lon="11.460430355824679"><ele>494.0</ele><time>2026-04-08T15:52:54.998Z</time></trkpt><trkpt lat="43.44392501008812" lon="11.4605582299537"><ele>492.0</ele><time>2026-04-08T15:52:55.998Z</time></trkpt><trkpt lat="43.44399015710973" lon="11.460684361492817"><ele>490.0</ele><time>2026-04-08T15:52:56.998Z</time></trkpt><trkpt lat="43.44400698113924" lon="11.460845192765994"><ele>488.0</ele><time>2026-04-08T15:52:57.998Z</time></trkpt><trkpt lat="43.4439855215978" lon="11.461015238707883"><ele>488.0</ele><time>2026-04-08T15:52:58.998Z</time></trkpt><trkpt lat="43.443929766894655" lon="11.461178812321604"><ele>488.0</ele><time>2026-04-08T15:52:59.998Z</time></trkpt><trkpt lat="43.44386142935272" lon="11.461358707215258"><ele>488.0</ele><time>2026-04-08T15:53:00.998Z</time></trkpt><trkpt lat="43.44381318818404" lon="11.46153008326852"><ele>488.0</ele><time>2026-04-08T15:53:01.998Z</time></trkpt><trkpt lat="43.443784088316654" lon="11.461692038438592"><ele>485.66666666666663</ele><time>2026-04-08T15:53:02.998Z</time></trkpt><trkpt lat="43.443787853317964" lon="11.461883771313603"><ele>483.33333333333337</ele><time>2026-04-08T15:53:03.998Z</time></trkpt><trkpt lat="43.443821597854175" lon="11.462112380961518"><ele>481.0</ele><time>2026-04-08T15:53:04.998Z</time></trkpt><trkpt lat="43.44383346296636" lon="11.46232704096043"><ele>482.20000000000005</ele><time>2026-04-08T15:53:05.998Z</time></trkpt><trkpt lat="43.44381407193252" lon="11.462488713302747"><ele>483.40000000000003</ele><time>2026-04-08T15:53:06.998Z</time></trkpt><trkpt lat="43.44375417516077" lon="11.462622634793723"><ele>484.6</ele><time>2026-04-08T15:53:07.998Z</time></trkpt><trkpt lat="43.443722219814966" lon="11.462758489202958"><ele>485.8</ele><time>2026-04-08T15:53:08.998Z</time></trkpt><trkpt lat="43.443711616849214" lon="11.462877442061714"><ele>487.0</ele><time>2026-04-08T15:53:09.998Z</time></trkpt><trkpt lat="43.443746069815894" lon="11.46300145927947"><ele>491.5</ele><time>2026-04-08T15:53:10.998Z</time></trkpt><trkpt lat="43.44381896369735" lon="11.463113457406234"><ele>496.0</ele><time>2026-04-08T15:53:11.998Z</time></trkpt><trkpt lat="43.44392028607701" lon="11.463176153842143"><ele>500.5</ele><time>2026-04-08T15:53:12.998Z</time></trkpt><trkpt lat="43.444055314425164" lon="11.463208825540342"><ele>505.0</ele><time>2026-04-08T15:53:13.998Z</time></trkpt><trkpt lat="43.444194691511406" lon="11.463289248830076"><ele>505.0</ele><time>2026-04-08T15:53:14.998Z</time></trkpt><trkpt lat="43.444304322565586" lon="11.463370051472687"><ele>505.0</ele><time>2026-04-08T15:53:15.998Z</time></trkpt><trkpt lat="43.44438523951963" lon="11.463441504524258"><ele>505.0</ele><time>2026-04-08T15:53:16.998Z</time></trkpt><trkpt lat="43.44439277933683" lon="11.463575490514133"><ele>505.0</ele><time>2026-04-08T15:53:17.998Z</time></trkpt><trkpt lat="43.44438294987082" lon="11.463700920791672"><ele>505.0</ele><time>2026-04-08T15:53:18.998Z</time></trkpt><trkpt lat="43.44433477637324" lon="11.46383071212242"><ele>506.2</ele><time>2026-04-08T15:53:19.998Z</time></trkpt><trkpt lat="43.44424781312559" lon="11.463926317870413"><ele>507.4</ele><time>2026-04-08T15:53:20.998Z</time></trkpt><trkpt lat="43.444158067360725" lon="11.46405562985389"><ele>508.6</ele><time>2026-04-08T15:53:21.998Z</time></trkpt><trkpt lat="43.44408123304791" lon="11.464166332971862"><ele>509.8</ele><time>2026-04-08T15:53:22.998Z</time></trkpt><trkpt lat="43.44405391545204" lon="11.464290377050652"><ele>511.0</ele><time>2026-04-08T15:53:23.998Z</time></trkpt><trkpt lat="43.44406562878216" lon="11.464429254983346"><ele>511.0</ele><time>2026-04-08T15:53:24.998Z</time></trkpt><trkpt lat="43.44410541403012" lon="11.464599167050713"><ele>511.0</ele><time>2026-04-08T15:53:25.998Z</time></trkpt><trkpt lat="43.444116460050694" lon="11.46481233595387"><ele>511.0</ele><time>2026-04-08T15:53:26.998Z</time></trkpt><trkpt lat="43.44411887742793" lon="11.465027410540678"><ele>511.0</ele><time>2026-04-08T15:53:28Z</time></trkpt><trkpt lat="43.44415867067755" lon="11.465197059750983"><ele>512.0</ele><time>2026-04-08T15:53:29Z</time></trkpt><trkpt lat="43.4442154252485" lon="11.465353289771773"><ele>513.0</ele><time>2026-04-08T15:53:30Z</time></trkpt><trkpt lat="43.44429045068356" lon="11.465491797313986"><ele>514.0</ele><time>2026-04-08T15:53:31Z</time></trkpt><trkpt lat="43.444322081220804" lon="11.465591569275125"><ele>515.0</ele><time>2026-04-08T15:53:32Z</time></trkpt><trkpt lat="43.44432744990273" lon="11.465706707700742"><ele>516.0</ele><time>2026-04-08T15:53:33Z</time></trkpt><trkpt lat="43.44430097718202" lon="11.46583016628545"><ele>518.25</ele><time>2026-04-08T15:53:34Z</time></trkpt><trkpt lat="43.44423001230517" lon="11.465915034141812"><ele>520.5</ele><time>2026-04-08T15:53:35Z</time></trkpt><trkpt lat="43.44413147136948" lon="11.46593277653595"><ele>522.75</ele><time>2026-04-08T15:53:36Z</time></trkpt><trkpt lat="43.44401080176809" lon="11.465900934462754"><ele>525.0</ele><time>2026-04-08T15:53:37Z</time></trkpt><trkpt lat="43.44388171001548" lon="11.465835680511274"><ele>525.5</ele><time>2026-04-08T15:53:38Z</time></trkpt><trkpt lat="43.443754399101365" lon="11.465800791175791"><ele>526.0</ele><time>2026-04-08T15:53:39Z</time></trkpt><trkpt lat="43.44360598537424" lon="11.465810043136038"><ele>526.5</ele><time>2026-04-08T15:53:40Z</time></trkpt><trkpt lat="43.44344278868838" lon="11.465835007210583"><ele>527.0</ele><time>2026-04-08T15:53:41Z</time></trkpt><trkpt lat="43.44330430937604" lon="11.465860877544614"><ele>527.0</ele><time>2026-04-08T15:53:42Z</time></trkpt><trkpt lat="43.443182144350594" lon="11.4659052839403"><ele>527.0</ele><time>2026-04-08T15:53:43Z</time></trkpt><trkpt lat="43.44307431744602" lon="11.465981866005045"><ele>527.0</ele><time>2026-04-08T15:53:44Z</time></trkpt><trkpt lat="43.44299016538896" lon="11.466121929967626"><ele>527.0</ele><time>2026-04-08T15:53:45Z</time></trkpt><trkpt lat="43.44291274580378" lon="11.4662950958995"><ele>528.0</ele><time>2026-04-08T15:53:46Z</time></trkpt><trkpt lat="43.44278768630346" lon="11.466378727960109"><ele>529.0</ele><time>2026-04-08T15:53:47Z</time></trkpt><trkpt lat="43.44265510117908" lon="11.46643996715045"><ele>530.0</ele><time>2026-04-08T15:53:48Z</time></trkpt><trkpt lat="43.442557384837336" lon="11.466506475076697"><ele>531.0</ele><time>2026-04-08T15:53:48.999Z</time></trkpt><trkpt lat="43.44249863007005" lon="11.466590242245129"><ele>531.0</ele><time>2026-04-08T15:53:49.999Z</time></trkpt><trkpt lat="43.442487104464675" lon="11.466715659287212"><ele>531.0</ele><time>2026-04-08T15:53:50.999Z</time></trkpt><trkpt lat="43.442513240694744" lon="11.466860929054159"><ele>531.0</ele><time>2026-04-08T15:53:51.999Z</time></trkpt><trkpt lat="43.4425843646646" lon="11.466989610052362"><ele>531.0</ele><time>2026-04-08T15:53:52.999Z</time></trkpt><trkpt lat="43.44270166912634" lon="11.467102098528281"><ele>530.0</ele><time>2026-04-08T15:53:53.999Z</time></trkpt><trkpt lat="43.44284196389501" lon="11.467212139962879"><ele>529.0</ele><time>2026-04-08T15:53:54.999Z</time></trkpt><trkpt lat="43.4429813903483" lon="11.467335069741512"><ele>528.0</ele><time>2026-04-08T15:53:55.999Z</time></trkpt><trkpt lat="43.443085970126084" lon="11.467484365040317"><ele>535.0</ele><time>2026-04-08T15:53:56.999Z</time></trkpt><trkpt lat="43.443178334556954" lon="11.467635309767482"><ele>542.0</ele><time>2026-04-08T15:53:57.999Z</time></trkpt><trkpt lat="43.44326551111056" lon="11.467814250210171"><ele>549.0</ele><time>2026-04-08T15:53:58.999Z</time></trkpt><trkpt lat="43.443360913231835" lon="11.467987197600538"><ele>549.0</ele><time>2026-04-08T15:53:59.999Z</time></trkpt><trkpt lat="43.4434460247653" lon="11.468131807202614"><ele>549.0</ele><time>2026-04-08T15:54:00.999Z</time></trkpt><trkpt lat="43.44349188669764" lon="11.468265972392933"><ele>549.0</ele><time>2026-04-08T15:54:01.999Z</time></trkpt><trkpt lat="43.44348014998294" lon="11.46843504233908"><ele>549.0</ele><time>2026-04-08T15:54:02.999Z</time></trkpt><trkpt lat="43.443454273408186" lon="11.468629880137621"><ele>550.5</ele><time>2026-04-08T15:54:03.999Z</time></trkpt><trkpt lat="43.443455834837465" lon="11.468810481807482"><ele>552.0</ele><time>2026-04-08T15:54:04.999Z</time></trkpt><trkpt lat="43.443465292557235" lon="11.46895944368461"><ele>553.5</ele><time>2026-04-08T15:54:05.999Z</time></trkpt><trkpt lat="43.44353676912798" lon="11.469113424246334"><ele>555.0</ele><time>2026-04-08T15:54:06.999Z</time></trkpt><trkpt lat="43.44356771864551" lon="11.4692494233993"><ele>555.0</ele><time>2026-04-08T15:54:07.999Z</time></trkpt><trkpt lat="43.443540191949026" lon="11.469365982182419"><ele>555.0</ele><time>2026-04-08T15:54:08.999Z</time></trkpt><trkpt lat="43.443481044766834" lon="11.469480629782796"><ele>555.0</ele><time>2026-04-08T15:54:09.999Z</time></trkpt><trkpt lat="43.44335116319819" lon="11.469529650747342"><ele>555.0</ele><time>2026-04-08T15:54:10.999Z</time></trkpt><trkpt lat="43.4432481453228" lon="11.469607049807523"><ele>555.0</ele><time>2026-04-08T15:54:11.999Z</time></trkpt><trkpt lat="43.44316930831201" lon="11.469739552254543"><ele>557.5</ele><time>2026-04-08T15:54:12.999Z</time></trkpt><trkpt lat="43.443120298124335" lon="11.469936645642697"><ele>560.0</ele><time>2026-04-08T15:54:13.999Z</time></trkpt><trkpt lat="43.44306795010725" lon="11.470096183904351"><ele>562.5</ele><time>2026-04-08T15:54:14.999Z</time></trkpt><trkpt lat="43.44297674545671" lon="11.470183060898307"><ele>565.0</ele><time>2026-04-08T15:54:15.999Z</time></trkpt><trkpt lat="43.44286195234121" lon="11.470217473125267"><ele>565.0</ele><time>2026-04-08T15:54:16.999Z</time></trkpt><trkpt lat="43.44274994278424" lon="11.470178048403541"><ele>565.0</ele><time>2026-04-08T15:54:17.999Z</time></trkpt><trkpt lat="43.44264066789448" lon="11.47006839877099"><ele>565.0</ele><time>2026-04-08T15:54:18.999Z</time></trkpt><trkpt lat="43.442536868832505" lon="11.469956649301553"><ele>565.0</ele><time>2026-04-08T15:54:19.999Z</time></trkpt><trkpt lat="43.442431718328585" lon="11.469915561822416"><ele>565.0</ele><time>2026-04-08T15:54:20.999Z</time></trkpt><trkpt lat="43.44233759394788" lon="11.469938412665377"><ele>565.0</ele><time>2026-04-08T15:54:21.999Z</time></trkpt><trkpt lat="43.442263793222" lon="11.470041759714654"><ele>565.0</ele><time>2026-04-08T15:54:22.999Z</time></trkpt><trkpt lat="43.44219126066176" lon="11.470206006519245"><ele>565.0</ele><time>2026-04-08T15:54:23.999Z</time></trkpt><trkpt lat="43.442131902240725" lon="11.470419820935893"><ele>563.0</ele><time>2026-04-08T15:54:24.999Z</time></trkpt><trkpt lat="43.44208303199262" lon="11.470631390380305"><ele>561.0</ele><time>2026-04-08T15:54:25.999Z</time></trkpt><trkpt lat="43.442053345513024" lon="11.470859477962817"><ele>559.0</ele><time>2026-04-08T15:54:26.999Z</time></trkpt><trkpt lat="43.442044317491394" lon="11.471111665824859"><ele>562.3333333333334</ele><time>2026-04-08T15:54:27.999Z</time></trkpt><trkpt lat="43.44201806220194" lon="11.471369614061077"><ele>565.6666666666666</ele><time>2026-04-08T15:54:28.999Z</time></trkpt><trkpt lat="43.44200576140463" lon="11.471636657040204"><ele>569.0</ele><time>2026-04-08T15:54:29.999Z</time></trkpt><trkpt lat="43.44200827458186" lon="11.471890041234877"><ele>572.0</ele><time>2026-04-08T15:54:30.999Z</time></trkpt><trkpt lat="43.442031198921285" lon="11.472123977601942"><ele>575.0</ele><time>2026-04-08T15:54:31.999Z</time></trkpt><trkpt lat="43.44205024257222" lon="11.472331640269601"><ele>578.0</ele><time>2026-04-08T15:54:32.999Z</time></trkpt><trkpt lat="43.44204323212684" lon="11.472490998211041"><ele>581.0</ele><time>2026-04-08T15:54:33.999Z</time></trkpt><trkpt lat="43.44200123244649" lon="11.472604452760534"><ele>581.0</ele><time>2026-04-08T15:54:34.999Z</time></trkpt><trkpt lat="43.44193226129134" lon="11.472661950599502"><ele>581.0</ele><time>2026-04-08T15:54:35.999Z</time></trkpt><trkpt lat="43.44183813685082" lon="11.472682907042667"><ele>581.0</ele><time>2026-04-08T15:54:36.999Z</time></trkpt><trkpt lat="43.441715029714906" lon="11.472650991393682"><ele>581.0</ele><time>2026-04-08T15:54:37.999Z</time></trkpt><trkpt lat="43.44160271373132" lon="11.472661530239144"><ele>581.0</ele><time>2026-04-08T15:54:38.999Z</time></trkpt><trkpt lat="43.44152630873984" lon="11.472744510785077"><ele>581.0</ele><time>2026-04-08T15:54:39.999Z</time></trkpt><trkpt lat="43.44148571776333" lon="11.472892304690841"><ele>581.0</ele><time>2026-04-08T15:54:40.999Z</time></trkpt><trkpt lat="43.441466599943766" lon="11.47308987133178"><ele>581.0</ele><time>2026-04-08T15:54:41.999Z</time></trkpt><trkpt lat="43.4414739064588" lon="11.47332118249136"><ele>581.0</ele><time>2026-04-08T15:54:42.999Z</time></trkpt><trkpt lat="43.44148671442665" lon="11.473559192388565"><ele>583.75</ele><time>2026-04-08T15:54:43.999Z</time></trkpt><trkpt lat="43.44151388793333" lon="11.473778026229676"><ele>586.5</ele><time>2026-04-08T15:54:44.999Z</time></trkpt><trkpt lat="43.441570816389174" lon="11.473963573885042"><ele>589.25</ele><time>2026-04-08T15:54:45.999Z</time></trkpt><trkpt lat="43.4416545339708" lon="11.474110423065893"><ele>592.0</ele><time>2026-04-08T15:54:46.999Z</time></trkpt><trkpt lat="43.44177259966621" lon="11.474229689928153"><ele>592.0</ele><time>2026-04-08T15:54:47.999Z</time></trkpt><trkpt lat="43.44186727617621" lon="11.474366395050177"><ele>592.0</ele><time>2026-04-08T15:54:48.999Z</time></trkpt><trkpt lat="43.44193214781823" lon="11.474487730569146"><ele>592.0</ele><time>2026-04-08T15:54:49.999Z</time></trkpt><trkpt lat="43.44195353924098" lon="11.474655330267998"><ele>592.0</ele><time>2026-04-08T15:54:50.999Z</time></trkpt><trkpt lat="43.44193464290237" lon="11.47484984851276"><ele>590.75</ele><time>2026-04-08T15:54:51.999Z</time></trkpt><trkpt lat="43.44190560104213" lon="11.475033577891965"><ele>589.5</ele><time>2026-04-08T15:54:52.998Z</time></trkpt><trkpt lat="43.441908814982746" lon="11.475200101066001"><ele>588.25</ele><time>2026-04-08T15:54:53.998Z</time></trkpt><trkpt lat="43.44191707423677" lon="11.475360467803384"><ele>587.0</ele><time>2026-04-08T15:54:54.998Z</time></trkpt><trkpt lat="43.44200598009735" lon="11.475526163428414"><ele>586.3333333333333</ele><time>2026-04-08T15:54:55.998Z</time></trkpt><trkpt lat="43.442121834510374" lon="11.475709373545774"><ele>585.6666666666666</ele><time>2026-04-08T15:54:56.998Z</time></trkpt><trkpt lat="43.44222149823877" lon="11.475858944480102"><ele>585.0</ele><time>2026-04-08T15:54:57.998Z</time></trkpt><trkpt lat="43.44234091405185" lon="11.476017868347451"><ele>590.25</ele><time>2026-04-08T15:54:58.998Z</time></trkpt><trkpt lat="43.44245468952497" lon="11.47617925728278"><ele>595.5</ele><time>2026-04-08T15:54:59.998Z</time></trkpt><trkpt lat="43.44253498034822" lon="11.476327025808667"><ele>600.75</ele><time>2026-04-08T15:55:00.998Z</time></trkpt><trkpt lat="43.44255950548228" lon="11.476504081396216"><ele>606.0</ele><time>2026-04-08T15:55:01.998Z</time></trkpt><trkpt lat="43.44256411385513" lon="11.47668227133144"><ele>606.0</ele><time>2026-04-08T15:55:02.998Z</time></trkpt><trkpt lat="43.442571768830895" lon="11.476847511370899"><ele>606.0</ele><time>2026-04-08T15:55:03.998Z</time></trkpt><trkpt lat="43.44267755056878" lon="11.476985072082309"><ele>606.0</ele><time>2026-04-08T15:55:04.998Z</time></trkpt><trkpt lat="43.44274527749389" lon="11.477109013165036"><ele>606.0</ele><time>2026-04-08T15:55:05.998Z</time></trkpt><trkpt lat="43.442838421377154" lon="11.477210161098599"><ele>603.25</ele><time>2026-04-08T15:55:06.998Z</time></trkpt><trkpt lat="43.44296284022261" lon="11.477288061200445"><ele>600.5</ele><time>2026-04-08T15:55:07.998Z</time></trkpt><trkpt lat="43.44310853667122" lon="11.477342702472153"><ele>597.75</ele><time>2026-04-08T15:55:08.998Z</time></trkpt><trkpt lat="43.44322680431366" lon="11.477399536149656"><ele>595.0</ele><time>2026-04-08T15:55:09.998Z</time></trkpt><trkpt lat="43.443296753161725" lon="11.477520265283347"><ele>600.2</ele><time>2026-04-08T15:55:10.998Z</time></trkpt><trkpt lat="43.443349343793926" lon="11.477675963451738"><ele>605.4</ele><time>2026-04-08T15:55:11.998Z</time></trkpt><trkpt lat="43.44340924911117" lon="11.477835133038408"><ele>610.6</ele><time>2026-04-08T15:55:12.998Z</time></trkpt><trkpt lat="43.4434835646845" lon="11.477941118673527"><ele>615.8</ele><time>2026-04-08T15:55:13.998Z</time></trkpt><trkpt lat="43.44354563887119" lon="11.477997660650352"><ele>621.0</ele><time>2026-04-08T15:55:14.998Z</time></trkpt><trkpt lat="43.44362028896943" lon="11.477998816765242"><ele>621.0</ele><time>2026-04-08T15:55:15.998Z</time></trkpt><trkpt lat="43.44370442131279" lon="11.477939910321908"><ele>621.0</ele><time>2026-04-08T15:55:16.998Z</time></trkpt><trkpt lat="43.44375710246738" lon="11.477818243808903"><ele>621.0</ele><time>2026-04-08T15:55:17.998Z</time></trkpt><trkpt lat="43.44375774284741" lon="11.47768176679052"><ele>621.0</ele><time>2026-04-08T15:55:18.998Z</time></trkpt><trkpt lat="43.443702861881036" lon="11.47755779644716"><ele>621.0</ele><time>2026-04-08T15:55:19.998Z</time></trkpt><trkpt lat="43.44360071175941" lon="11.47745694910914"><ele>621.0</ele><time>2026-04-08T15:55:20.998Z</time></trkpt><trkpt lat="43.44349249865179" lon="11.477341528595627"><ele>621.0</ele><time>2026-04-08T15:55:21.998Z</time></trkpt><trkpt lat="43.4434130306702" lon="11.47725448896631"><ele>621.0</ele><time>2026-04-08T15:55:22.998Z</time></trkpt><trkpt lat="43.443371726755274" lon="11.477145561544754"><ele>621.0</ele><time>2026-04-08T15:55:23.998Z</time></trkpt><trkpt lat="43.44339117759489" lon="11.477043453826898"><ele>621.0</ele><time>2026-04-08T15:55:24.998Z</time></trkpt><trkpt lat="43.44345060975459" lon="11.476966927516193"><ele>621.0</ele><time>2026-04-08T15:55:25.998Z</time></trkpt><trkpt lat="43.44354306593523" lon="11.476938460511843"><ele>621.0</ele><time>2026-04-08T15:55:26.998Z</time></trkpt><trkpt lat="43.443638720786325" lon="11.476975339628058"><ele>621.0</ele><time>2026-04-08T15:55:27.998Z</time></trkpt><trkpt lat="43.44370576652446" lon="11.477104076284611"><ele>621.0</ele><time>2026-04-08T15:55:28.998Z</time></trkpt><trkpt lat="43.44371984030837" lon="11.477261705807349"><ele>621.0</ele><time>2026-04-08T15:55:29.998Z</time></trkpt><trkpt lat="43.44378609488338" lon="11.477369541683725"><ele>626.0</ele><time>2026-04-08T15:55:30.998Z</time></trkpt><trkpt lat="43.44386119403539" lon="11.477461303931264"><ele>631.0</ele><time>2026-04-08T15:55:31.998Z</time></trkpt><trkpt lat="43.4439699874573" lon="11.477494667748958"><ele>636.0</ele><time>2026-04-08T15:55:33Z</time></trkpt><trkpt lat="43.44410626366738" lon="11.477471295928334"><ele>641.0</ele><time>2026-04-08T15:55:34Z</time></trkpt><trkpt lat="43.44424772544538" lon="11.477432962219536"><ele>641.0</ele><time>2026-04-08T15:55:35Z</time></trkpt><trkpt lat="43.444341159912746" lon="11.477483857949649"><ele>641.0</ele><time>2026-04-08T15:55:36Z</time></trkpt><trkpt lat="43.444404473835014" lon="11.47757260600496"><ele>641.0</ele><time>2026-04-08T15:55:37Z</time></trkpt><trkpt lat="43.444426124246746" lon="11.47770434108237"><ele>641.0</ele><time>2026-04-08T15:55:38Z</time></trkpt><trkpt lat="43.44440651117076" lon="11.477845711390284"><ele>641.0</ele><time>2026-04-08T15:55:39Z</time></trkpt><trkpt lat="43.444354316570816" lon="11.477964897083798"><ele>642.75</ele><time>2026-04-08T15:55:40Z</time></trkpt><trkpt lat="43.44424363993763" lon="11.478014001276865"><ele>644.5</ele><time>2026-04-08T15:55:41Z</time></trkpt><trkpt lat="43.444106309598176" lon="11.47807535693431"><ele>646.25</ele><time>2026-04-08T15:55:42Z</time></trkpt><trkpt lat="43.443992811386984" lon="11.478167506981698"><ele>648.0</ele><time>2026-04-08T15:55:43Z</time></trkpt><trkpt lat="43.4438932334723" lon="11.478271655561224"><ele>648.0</ele><time>2026-04-08T15:55:44Z</time></trkpt><trkpt lat="43.44382755510284" lon="11.478447621842045"><ele>648.0</ele><time>2026-04-08T15:55:45Z</time></trkpt><trkpt lat="43.443774404417255" lon="11.47866713104488"><ele>648.0</ele><time>2026-04-08T15:55:46Z</time></trkpt><trkpt lat="43.443711750008596" lon="11.478895935311563"><ele>643.6666666666666</ele><time>2026-04-08T15:55:47Z</time></trkpt><trkpt lat="43.44364238502181" lon="11.47911963316015"><ele>639.3333333333333</ele><time>2026-04-08T15:55:48Z</time></trkpt><trkpt lat="43.4435905077967" lon="11.479311850286331"><ele>635.0</ele><time>2026-04-08T15:55:49Z</time></trkpt><trkpt lat="43.443545618297186" lon="11.479490001364084"><ele>635.25</ele><time>2026-04-08T15:55:50Z</time></trkpt><trkpt lat="43.44351966021633" lon="11.479652815413191"><ele>635.5</ele><time>2026-04-08T15:55:51Z</time></trkpt><trkpt lat="43.44352146913853" lon="11.479811517676163"><ele>635.75</ele><time>2026-04-08T15:55:52Z</time></trkpt><trkpt lat="43.44354924772959" lon="11.479986587848506"><ele>636.0</ele><time>2026-04-08T15:55:53Z</time></trkpt><trkpt lat="43.44358969347912" lon="11.480138621000306"><ele>636.0</ele><time>2026-04-08T15:55:53.999Z</time></trkpt><trkpt lat="43.443662297884416" lon="11.480288386539282"><ele>636.0</ele><time>2026-04-08T15:55:54.999Z</time></trkpt><trkpt lat="43.44375728478068" lon="11.480411833964054"><ele>636.0</ele><time>2026-04-08T15:55:55.999Z</time></trkpt><trkpt lat="43.443877056482016" lon="11.480500522213536"><ele>636.0</ele><time>2026-04-08T15:55:56.999Z</time></trkpt><trkpt lat="43.4440138305517" lon="11.480574659649045"><ele>639.3333333333334</ele><time>2026-04-08T15:55:57.999Z</time></trkpt><trkpt lat="43.44416405526301" lon="11.480632691831554"><ele>642.6666666666667</ele><time>2026-04-08T15:55:58.999Z</time></trkpt><trkpt lat="43.44432592359706" lon="11.480708352615931"><ele>646.0</ele><time>2026-04-08T15:55:59.999Z</time></trkpt><trkpt lat="43.444504672788" lon="11.480792915325917"><ele>650.0</ele><time>2026-04-08T15:56:00.999Z</time></trkpt><trkpt lat="43.44468429238055" lon="11.480875935616599"><ele>654.0</ele><time>2026-04-08T15:56:01.999Z</time></trkpt><trkpt lat="43.444837637488234" lon="11.480952818115469"><ele>658.0</ele><time>2026-04-08T15:56:02.999Z</time></trkpt><trkpt lat="43.44497672642954" lon="11.481019034095807"><ele>658.0</ele><time>2026-04-08T15:56:03.999Z</time></trkpt><trkpt lat="43.44510525573817" lon="11.481080526749853"><ele>658.0</ele><time>2026-04-08T15:56:04.999Z</time></trkpt><trkpt lat="43.44520213367056" lon="11.481149902756984"><ele>658.0</ele><time>2026-04-08T15:56:05.999Z</time></trkpt><trkpt lat="43.44527996687017" lon="11.481219703569687"><ele>658.0</ele><time>2026-04-08T15:56:06.999Z</time></trkpt><trkpt lat="43.445329220875465" lon="11.48133578665318"><ele>658.0</ele><time>2026-04-08T15:56:07.999Z</time></trkpt><trkpt lat="43.445368545700255" lon="11.481483306511738"><ele>655.0</ele><time>2026-04-08T15:56:08.999Z</time></trkpt><trkpt lat="43.44542893655359" lon="11.481656384362823"><ele>652.0</ele><time>2026-04-08T15:56:09.999Z</time></trkpt><trkpt lat="43.44549466752572" lon="11.481845070573577"><ele>649.0</ele><time>2026-04-08T15:56:10.999Z</time></trkpt><trkpt lat="43.445568813571654" lon="11.482058212936009"><ele>651.3333333333334</ele><time>2026-04-08T15:56:11.999Z</time></trkpt><trkpt lat="43.445643642788625" lon="11.482274856995614"><ele>653.6666666666666</ele><time>2026-04-08T15:56:12.999Z</time></trkpt><trkpt lat="43.445717923580204" lon="11.482496089458579"><ele>656.0</ele><time>2026-04-08T15:56:13.999Z</time></trkpt><trkpt lat="43.44579845161565" lon="11.482741721186406"><ele>657.6666666666666</ele><time>2026-04-08T15:56:14.999Z</time></trkpt><trkpt lat="43.44588512792369" lon="11.483006106760891"><ele>659.3333333333334</ele><time>2026-04-08T15:56:15.999Z</time></trkpt><trkpt lat="43.445975023958766" lon="11.483280313207908"><ele>661.0</ele><time>2026-04-08T15:56:16.999Z</time></trkpt><trkpt lat="43.44606895798881" lon="11.48356934426935"><ele>663.3333333333334</ele><time>2026-04-08T15:56:17.999Z</time></trkpt><trkpt lat="43.446154825297704" lon="11.483835215265703"><ele>665.6666666666666</ele><time>2026-04-08T15:56:18.999Z</time></trkpt><trkpt lat="43.44622608034183" lon="11.484067611602793"><ele>668.0</ele><time>2026-04-08T15:56:19.999Z</time></trkpt><trkpt lat="43.446275390960665" lon="11.484275763403158"><ele>668.0</ele><time>2026-04-08T15:56:20.999Z</time></trkpt><trkpt lat="43.44629727844425" lon="11.484467432041605"><ele>668.0</ele><time>2026-04-08T15:56:21.999Z</time></trkpt><trkpt lat="43.44629293003706" lon="11.484649235262793"><ele>668.0</ele><time>2026-04-08T15:56:22.999Z</time></trkpt><trkpt lat="43.4462786542131" lon="11.484860490481779"><ele>668.0</ele><time>2026-04-08T15:56:23.999Z</time></trkpt><trkpt lat="43.44628148162383" lon="11.485074010121412"><ele>668.0</ele><time>2026-04-08T15:56:24.999Z</time></trkpt><trkpt lat="43.446291461199536" lon="11.485285137817256"><ele>668.0</ele><time>2026-04-08T15:56:25.999Z</time></trkpt><trkpt lat="43.446329990864285" lon="11.485490889003673"><ele>668.0</ele><time>2026-04-08T15:56:26.999Z</time></trkpt><trkpt lat="43.44638818928693" lon="11.485686624315237"><ele>670.3333333333333</ele><time>2026-04-08T15:56:27.999Z</time></trkpt><trkpt lat="43.44646450327936" lon="11.485875376988018"><ele>672.6666666666666</ele><time>2026-04-08T15:56:28.999Z</time></trkpt><trkpt lat="43.446556073747786" lon="11.486077770122915"><ele>675.0</ele><time>2026-04-08T15:56:29.999Z</time></trkpt><trkpt lat="43.44664272684742" lon="11.48630944811312"><ele>677.6666666666666</ele><time>2026-04-08T15:56:30.999Z</time></trkpt><trkpt lat="43.44676215769091" lon="11.486532913113018"><ele>680.3333333333333</ele><time>2026-04-08T15:56:31.999Z</time></trkpt><trkpt lat="43.44685997465441" lon="11.486746734177197"><ele>683.0</ele><time>2026-04-08T15:56:32.999Z</time></trkpt><trkpt lat="43.44695014841066" lon="11.486927882918257"><ele>683.0</ele><time>2026-04-08T15:56:33.999Z</time></trkpt><trkpt lat="43.44704286957142" lon="11.487067939238592"><ele>683.0</ele><time>2026-04-08T15:56:34.999Z</time></trkpt><trkpt lat="43.44715582252497" lon="11.487185348107365"><ele>683.0</ele><time>2026-04-08T15:56:35.999Z</time></trkpt><trkpt lat="43.447294051327965" lon="11.487245835845858"><ele>683.0</ele><time>2026-04-08T15:56:36.999Z</time></trkpt><trkpt lat="43.447458749432336" lon="11.487259369047065"><ele>686.0</ele><time>2026-04-08T15:56:37.999Z</time></trkpt><trkpt lat="43.44760227741298" lon="11.48723241024766"><ele>689.0</ele><time>2026-04-08T15:56:38.999Z</time></trkpt><trkpt lat="43.44772054484171" lon="11.487277847831331"><ele>692.0</ele><time>2026-04-08T15:56:39.999Z</time></trkpt><trkpt lat="43.447826035403466" lon="11.487374209933884"><ele>695.0</ele><time>2026-04-08T15:56:40.999Z</time></trkpt><trkpt lat="43.4479411657187" lon="11.487503862566115"><ele>695.6666666666666</ele><time>2026-04-08T15:56:41.999Z</time></trkpt><trkpt lat="43.44804642467803" lon="11.487651878935232"><ele>696.3333333333334</ele><time>2026-04-08T15:56:42.999Z</time></trkpt><trkpt lat="43.44813150501779" lon="11.487818498964513"><ele>697.0</ele><time>2026-04-08T15:56:43.999Z</time></trkpt><trkpt lat="43.44820270653752" lon="11.488022044605856"><ele>697.0</ele><time>2026-04-08T15:56:44.999Z</time></trkpt><trkpt lat="43.44828591738457" lon="11.488262348426362"><ele>697.0</ele><time>2026-04-08T15:56:45.999Z</time></trkpt><trkpt lat="43.44839400857448" lon="11.488474676105504"><ele>697.0</ele><time>2026-04-08T15:56:46.999Z</time></trkpt><trkpt lat="43.4484777246736" lon="11.488660612337277"><ele>696.0</ele><time>2026-04-08T15:56:47.999Z</time></trkpt><trkpt lat="43.44851560817845" lon="11.48880817134863"><ele>695.0</ele><time>2026-04-08T15:56:48.999Z</time></trkpt><trkpt lat="43.448520951727296" lon="11.48892387668831"><ele>694.0</ele><time>2026-04-08T15:56:49.999Z</time></trkpt><trkpt lat="43.448540870719704" lon="11.489084975573398"><ele>693.0</ele><time>2026-04-08T15:56:50.999Z</time></trkpt><trkpt lat="43.448538492961504" lon="11.489296673291392"><ele>693.0</ele><time>2026-04-08T15:56:51.999Z</time></trkpt><trkpt lat="43.44854348677326" lon="11.489541945791947"><ele>693.0</ele><time>2026-04-08T15:56:52.999Z</time></trkpt><trkpt lat="43.44855229532338" lon="11.489809716096596"><ele>693.0</ele><time>2026-04-08T15:56:53.999Z</time></trkpt><trkpt lat="43.44854506529733" lon="11.490092450069572"><ele>691.0</ele><time>2026-04-08T15:56:54.999Z</time></trkpt><trkpt lat="43.44857287722838" lon="11.490373066264365"><ele>689.0</ele><time>2026-04-08T15:56:55.999Z</time></trkpt><trkpt lat="43.44857948876193" lon="11.490649048032816"><ele>687.0</ele><time>2026-04-08T15:56:56.998Z</time></trkpt><trkpt lat="43.44855884272626" lon="11.49092188599592"><ele>687.3333333333334</ele><time>2026-04-08T15:56:57.998Z</time></trkpt><trkpt lat="43.44852114285209" lon="11.491165332108308"><ele>687.6666666666667</ele><time>2026-04-08T15:56:58.998Z</time></trkpt><trkpt lat="43.44848070623657" lon="11.491377695643168"><ele>688.0</ele><time>2026-04-08T15:56:59.998Z</time></trkpt><trkpt lat="43.44847238073957" lon="11.491545860118014"><ele>688.0</ele><time>2026-04-08T15:57:00.998Z</time></trkpt><trkpt lat="43.4484746968789" lon="11.491716997360415"><ele>688.0</ele><time>2026-04-08T15:57:01.998Z</time></trkpt><trkpt lat="43.44851698332487" lon="11.491927268709873"><ele>688.0</ele><time>2026-04-08T15:57:02.998Z</time></trkpt><trkpt lat="43.448582314179525" lon="11.492175409724531"><ele>689.6666666666667</ele><time>2026-04-08T15:57:03.998Z</time></trkpt><trkpt lat="43.44862167741504" lon="11.492418718194045"><ele>691.3333333333334</ele><time>2026-04-08T15:57:04.998Z</time></trkpt><trkpt lat="43.44868590218887" lon="11.492650602160138"><ele>693.0</ele><time>2026-04-08T15:57:05.998Z</time></trkpt><trkpt lat="43.44879907729896" lon="11.492871352306889"><ele>694.3333333333334</ele><time>2026-04-08T15:57:06.998Z</time></trkpt><trkpt lat="43.44890912147257" lon="11.493075098641434"><ele>695.6666666666667</ele><time>2026-04-08T15:57:07.998Z</time></trkpt><trkpt lat="43.44899197263821" lon="11.493263145315835"><ele>697.0</ele><time>2026-04-08T15:57:08.998Z</time></trkpt><trkpt lat="43.44905183155211" lon="11.493411569463447"><ele>697.0</ele><time>2026-04-08T15:57:09.998Z</time></trkpt><trkpt lat="43.44908133080571" lon="11.493540655697773"><ele>697.0</ele><time>2026-04-08T15:57:10.998Z</time></trkpt><trkpt lat="43.44908514594935" lon="11.49368209986244"><ele>697.0</ele><time>2026-04-08T15:57:11.998Z</time></trkpt><trkpt lat="43.44905870176782" lon="11.493823919815181"><ele>697.0</ele><time>2026-04-08T15:57:12.998Z</time></trkpt><trkpt lat="43.449020123976666" lon="11.494001306616768"><ele>697.0</ele><time>2026-04-08T15:57:13.998Z</time></trkpt><trkpt lat="43.449016440123444" lon="11.494208518946168"><ele>697.0</ele><time>2026-04-08T15:57:14.998Z</time></trkpt><trkpt lat="43.44898566404431" lon="11.49445202921292"><ele>697.0</ele><time>2026-04-08T15:57:15.998Z</time></trkpt><trkpt lat="43.448970763558954" lon="11.494712332471787"><ele>697.0</ele><time>2026-04-08T15:57:16.998Z</time></trkpt><trkpt lat="43.4489559444084" lon="11.494967077334385"><ele>697.3333333333334</ele><time>2026-04-08T15:57:17.998Z</time></trkpt><trkpt lat="43.448954714063234" lon="11.495196649142263"><ele>697.6666666666666</ele><time>2026-04-08T15:57:18.998Z</time></trkpt><trkpt lat="43.448943040142574" lon="11.495420639254679"><ele>698.0</ele><time>2026-04-08T15:57:19.998Z</time></trkpt><trkpt lat="43.448946369734585" lon="11.495631430661025"><ele>700.0</ele><time>2026-04-08T15:57:20.998Z</time></trkpt><trkpt lat="43.44896869762324" lon="11.495848190364285"><ele>702.0</ele><time>2026-04-08T15:57:21.998Z</time></trkpt><trkpt lat="43.44902418308033" lon="11.496090368564735"><ele>704.0</ele><time>2026-04-08T15:57:22.998Z</time></trkpt><trkpt lat="43.449106400786796" lon="11.496335277938831"><ele>705.3333333333333</ele><time>2026-04-08T15:57:23.998Z</time></trkpt><trkpt lat="43.449165246472155" lon="11.496567159177792"><ele>706.6666666666666</ele><time>2026-04-08T15:57:24.998Z</time></trkpt><trkpt lat="43.449220387380755" lon="11.496764615311445"><ele>708.0</ele><time>2026-04-08T15:57:25.998Z</time></trkpt><trkpt lat="43.44926831161625" lon="11.496967836603204"><ele>707.3333333333334</ele><time>2026-04-08T15:57:26.998Z</time></trkpt><trkpt lat="43.44932953742551" lon="11.497173539723551"><ele>706.6666666666667</ele><time>2026-04-08T15:57:27.998Z</time></trkpt><trkpt lat="43.4493756322086" lon="11.497383355895916"><ele>706.0</ele><time>2026-04-08T15:57:28.998Z</time></trkpt><trkpt lat="43.44940722955222" lon="11.497574306016451"><ele>706.0</ele><time>2026-04-08T15:57:29.998Z</time></trkpt><trkpt lat="43.44947934735631" lon="11.49771670380639"><ele>706.0</ele><time>2026-04-08T15:57:30.998Z</time></trkpt><trkpt lat="43.4495738928453" lon="11.497835002127022"><ele>706.0</ele><time>2026-04-08T15:57:31.998Z</time></trkpt><trkpt lat="43.449688344138345" lon="11.497951198992267"><ele>706.0</ele><time>2026-04-08T15:57:32.998Z</time></trkpt><trkpt lat="43.44976981827109" lon="11.498074581476816"><ele>712.0</ele><time>2026-04-08T15:57:33.998Z</time></trkpt><trkpt lat="43.449813907466705" lon="11.49817566337093"><ele>718.0</ele><time>2026-04-08T15:57:34.998Z</time></trkpt><trkpt lat="43.44982830051902" lon="11.498303303176865"><ele>724.0</ele><time>2026-04-08T15:57:35.998Z</time></trkpt><trkpt lat="43.449801861340354" lon="11.498459224956354"><ele>730.0</ele><time>2026-04-08T15:57:36.998Z</time></trkpt><trkpt lat="43.44975031008121" lon="11.498631615063792"><ele>736.0</ele><time>2026-04-08T15:57:38Z</time></trkpt><trkpt lat="43.449711938408754" lon="11.498833736398165"><ele>739.0</ele><time>2026-04-08T15:57:39Z</time></trkpt><trkpt lat="43.449673662110406" lon="11.499021400345798"><ele>742.0</ele><time>2026-04-08T15:57:40Z</time></trkpt><trkpt lat="43.44967145511507" lon="11.499224782933036"><ele>745.0</ele><time>2026-04-08T15:57:41Z</time></trkpt><trkpt lat="43.449682827146404" lon="11.499450541715989"><ele>744.5</ele><time>2026-04-08T15:57:42Z</time></trkpt><trkpt lat="43.44969471445346" lon="11.499639934463694"><ele>744.0</ele><time>2026-04-08T15:57:43Z</time></trkpt><trkpt lat="43.449711551542684" lon="11.499803134854218"><ele>743.5</ele><time>2026-04-08T15:57:44Z</time></trkpt><trkpt lat="43.44974735898881" lon="11.499943705739366"><ele>743.0</ele><time>2026-04-08T15:57:45Z</time></trkpt><trkpt lat="43.44979844020323" lon="11.500084248353428"><ele>743.0</ele><time>2026-04-08T15:57:46Z</time></trkpt><trkpt lat="43.44990373174037" lon="11.500210618850241"><ele>743.0</ele><time>2026-04-08T15:57:47Z</time></trkpt><trkpt lat="43.4500112850777" lon="11.50034923131595"><ele>743.0</ele><time>2026-04-08T15:57:48Z</time></trkpt><trkpt lat="43.450112936328686" lon="11.50047718142175"><ele>743.0</ele><time>2026-04-08T15:57:49Z</time></trkpt><trkpt lat="43.45018160535858" lon="11.500578513644616"><ele>741.8</ele><time>2026-04-08T15:57:50Z</time></trkpt><trkpt lat="43.45021174077363" lon="11.500674695594245"><ele>740.5999999999999</ele><time>2026-04-08T15:57:51Z</time></trkpt><trkpt lat="43.45017707894673" lon="11.500780885882138"><ele>739.4000000000001</ele><time>2026-04-08T15:57:52Z</time></trkpt><trkpt lat="43.4501245336615" lon="11.50088227507181"><ele>738.2</ele><time>2026-04-08T15:57:53Z</time></trkpt><trkpt lat="43.450086915401556" lon="11.501033572611826"><ele>737.0</ele><time>2026-04-08T15:57:54Z</time></trkpt><trkpt lat="43.45003409880963" lon="11.501184414690035"><ele>739.6</ele><time>2026-04-08T15:57:55Z</time></trkpt><trkpt lat="43.450009425842175" lon="11.501322019570765"><ele>742.2</ele><time>2026-04-08T15:57:56Z</time></trkpt><trkpt lat="43.45001134413759" lon="11.501447094624494"><ele>744.8</ele><time>2026-04-08T15:57:57Z</time></trkpt><trkpt lat="43.45004571202697" lon="11.501598975579773"><ele>747.4</ele><time>2026-04-08T15:57:58Z</time></trkpt><trkpt lat="43.450068859393625" lon="11.501775056988823"><ele>750.0</ele><time>2026-04-08T15:57:59Z</time></trkpt><trkpt lat="43.450075550504216" lon="11.501904608354927"><ele>750.0</ele><time>2026-04-08T15:58:00Z</time></trkpt><trkpt lat="43.450046014099364" lon="11.502012917087269"><ele>750.0</ele><time>2026-04-08T15:58:01Z</time></trkpt><trkpt lat="43.44998915522261" lon="11.50210649459451"><ele>750.0</ele><time>2026-04-08T15:58:01.999Z</time></trkpt><trkpt lat="43.44987123587361" lon="11.502135518968597"><ele>750.0</ele><time>2026-04-08T15:58:02.999Z</time></trkpt><trkpt lat="43.44974762207568" lon="11.502230551614842"><ele>750.0</ele><time>2026-04-08T15:58:03.999Z</time></trkpt><trkpt lat="43.44960095245282" lon="11.502307395725964"><ele>751.3333333333334</ele><time>2026-04-08T15:58:04.999Z</time></trkpt><trkpt lat="43.44944349346788" lon="11.502395233697305"><ele>752.6666666666667</ele><time>2026-04-08T15:58:05.999Z</time></trkpt><trkpt lat="43.44930784250969" lon="11.502478320691795"><ele>754.0</ele><time>2026-04-08T15:58:06.999Z</time></trkpt><trkpt lat="43.44916686673452" lon="11.50256738900127"><ele>754.0</ele><time>2026-04-08T15:58:07.999Z</time></trkpt><trkpt lat="43.44900640236964" lon="11.502667401517467"><ele>754.0</ele><time>2026-04-08T15:58:08.999Z</time></trkpt><trkpt lat="43.44886990971669" lon="11.502753770001869"><ele>754.0</ele><time>2026-04-08T15:58:09.999Z</time></trkpt><trkpt lat="43.44875143183161" lon="11.502842669935733"><ele>759.25</ele><time>2026-04-08T15:58:10.999Z</time></trkpt><trkpt lat="43.44865988321942" lon="11.50296548977612"><ele>764.5</ele><time>2026-04-08T15:58:11.999Z</time></trkpt><trkpt lat="43.4485540952751" lon="11.503109345809735"><ele>769.75</ele><time>2026-04-08T15:58:12.999Z</time></trkpt><trkpt lat="43.448472734967005" lon="11.503251014545205"><ele>775.0</ele><time>2026-04-08T15:58:13.999Z</time></trkpt><trkpt lat="43.44839801006119" lon="11.503365554137961"><ele>775.0</ele><time>2026-04-08T15:58:14.999Z</time></trkpt><trkpt lat="43.44828710232577" lon="11.503370213559394"><ele>775.0</ele><time>2026-04-08T15:58:15.999Z</time></trkpt><trkpt lat="43.44817362566729" lon="11.50336367898497"><ele>775.0</ele><time>2026-04-08T15:58:16.999Z</time></trkpt><trkpt lat="43.44804503816768" lon="11.503370178817562"><ele>775.0</ele><time>2026-04-08T15:58:17.999Z</time></trkpt><trkpt lat="43.44791403957638" lon="11.503324345178486"><ele>777.6666666666666</ele><time>2026-04-08T15:58:18.999Z</time></trkpt><trkpt lat="43.44776639386502" lon="11.503273391567662"><ele>780.3333333333333</ele><time>2026-04-08T15:58:19.999Z</time></trkpt><trkpt lat="43.44761240941243" lon="11.503189949487147"><ele>783.0</ele><time>2026-04-08T15:58:20.999Z</time></trkpt><trkpt lat="43.44748636318737" lon="11.50310407807993"><ele>783.0</ele><time>2026-04-08T15:58:21.999Z</time></trkpt><trkpt lat="43.447374368738735" lon="11.503032023233411"><ele>783.0</ele><time>2026-04-08T15:58:22.999Z</time></trkpt><trkpt lat="43.447254056034424" lon="11.502990064506024"><ele>783.0</ele><time>2026-04-08T15:58:23.999Z</time></trkpt><trkpt lat="43.44713365620082" lon="11.502971960125377"><ele>783.0</ele><time>2026-04-08T15:58:24.999Z</time></trkpt><trkpt lat="43.447025483590494" lon="11.502985489290044"><ele>781.25</ele><time>2026-04-08T15:58:25.999Z</time></trkpt><trkpt lat="43.44692702824053" lon="11.503049592078511"><ele>779.5</ele><time>2026-04-08T15:58:26.999Z</time></trkpt><trkpt lat="43.44682115385966" lon="11.503155055610232"><ele>777.75</ele><time>2026-04-08T15:58:27.999Z</time></trkpt><trkpt lat="43.4467259203983" lon="11.503291655181584"><ele>776.0</ele><time>2026-04-08T15:58:28.999Z</time></trkpt><trkpt lat="43.4466440524116" lon="11.503460454047703"><ele>776.0</ele><time>2026-04-08T15:58:29.999Z</time></trkpt><trkpt lat="43.44656705620999" lon="11.503666813382353"><ele>776.0</ele><time>2026-04-08T15:58:30.999Z</time></trkpt><trkpt lat="43.44647142971635" lon="11.503812842343347"><ele>776.0</ele><time>2026-04-08T15:58:31.999Z</time></trkpt><trkpt lat="43.44638643200463" lon="11.503931227946302"><ele>776.0</ele><time>2026-04-08T15:58:32.999Z</time></trkpt><trkpt lat="43.44628347579512" lon="11.504021959184062"><ele>776.25</ele><time>2026-04-08T15:58:33.999Z</time></trkpt><trkpt lat="43.44617504893983" lon="11.504115433939607"><ele>776.5</ele><time>2026-04-08T15:58:34.999Z</time></trkpt><trkpt lat="43.44608751717014" lon="11.504213960320971"><ele>776.75</ele><time>2026-04-08T15:58:35.999Z</time></trkpt><trkpt lat="43.44603930740206" lon="11.504353058335042"><ele>777.0</ele><time>2026-04-08T15:58:36.999Z</time></trkpt><trkpt lat="43.44597580349947" lon="11.504520097791493"><ele>780.2</ele><time>2026-04-08T15:58:37.999Z</time></trkpt><trkpt lat="43.44593324626378" lon="11.504692188064864"><ele>783.4000000000001</ele><time>2026-04-08T15:58:38.999Z</time></trkpt><trkpt lat="43.44589554782675" lon="11.504835396591012"><ele>786.5999999999999</ele><time>2026-04-08T15:58:39.999Z</time></trkpt><trkpt lat="43.44584815274489" lon="11.504946980929228"><ele>789.8</ele><time>2026-04-08T15:58:40.999Z</time></trkpt><trkpt lat="43.44577898116351" lon="11.505028662198056"><ele>793.0</ele><time>2026-04-08T15:58:41.999Z</time></trkpt><trkpt lat="43.44568972843016" lon="11.505060701638428"><ele>793.0</ele><time>2026-04-08T15:58:42.999Z</time></trkpt><trkpt lat="43.44558603410775" lon="11.505042928336756"><ele>793.0</ele><time>2026-04-08T15:58:43.999Z</time></trkpt><trkpt lat="43.44545381554474" lon="11.505025790704067"><ele>793.0</ele><time>2026-04-08T15:58:44.999Z</time></trkpt><trkpt lat="43.44530824465365" lon="11.504997743057988"><ele>793.0</ele><time>2026-04-08T15:58:45.999Z</time></trkpt><trkpt lat="43.44517120174068" lon="11.50501446996401"><ele>788.5</ele><time>2026-04-08T15:58:46.999Z</time></trkpt><trkpt lat="43.44505129748236" lon="11.50506076201851"><ele>784.0</ele><time>2026-04-08T15:58:47.999Z</time></trkpt><trkpt lat="43.444956644290755" lon="11.505122486412814"><ele>779.5</ele><time>2026-04-08T15:58:48.999Z</time></trkpt><trkpt lat="43.44487857352996" lon="11.505227034168799"><ele>775.0</ele><time>2026-04-08T15:58:49.999Z</time></trkpt><trkpt lat="43.4448015255775" lon="11.505389818414786"><ele>776.25</ele><time>2026-04-08T15:58:50.999Z</time></trkpt><trkpt lat="43.44471405238715" lon="11.505549558673403"><ele>777.5</ele><time>2026-04-08T15:58:51.999Z</time></trkpt><trkpt lat="43.44464520014207" lon="11.505705428740947"><ele>778.75</ele><time>2026-04-08T15:58:52.999Z</time></trkpt><trkpt lat="43.444579718193836" lon="11.505835429591533"><ele>780.0</ele><time>2026-04-08T15:58:53.999Z</time></trkpt><trkpt lat="43.444507326846136" lon="11.50596138778144"><ele>780.0</ele><time>2026-04-08T15:58:54.999Z</time></trkpt><trkpt lat="43.44441178136527" lon="11.506029156047484"><ele>780.0</ele><time>2026-04-08T15:58:55.999Z</time></trkpt><trkpt lat="43.444305311532176" lon="11.506008413575818"><ele>780.0</ele><time>2026-04-08T15:58:56.999Z</time></trkpt><trkpt lat="43.44419999166696" lon="11.505990823002879"><ele>780.0</ele><time>2026-04-08T15:58:57.999Z</time></trkpt><trkpt lat="43.44407118063811" lon="11.505897787014597"><ele>780.0</ele><time>2026-04-08T15:58:58.999Z</time></trkpt><trkpt lat="43.44393569597245" lon="11.505819246937572"><ele>780.0</ele><time>2026-04-08T15:58:59.999Z</time></trkpt><trkpt lat="43.44381141923235" lon="11.505763836332726"><ele>780.0</ele><time>2026-04-08T15:59:00.999Z</time></trkpt><trkpt lat="43.44370178050994" lon="11.505748346865737"><ele>780.0</ele><time>2026-04-08T15:59:01.999Z</time></trkpt><trkpt lat="43.44360643631858" lon="11.50576343824166"><ele>780.75</ele><time>2026-04-08T15:59:02.999Z</time></trkpt><trkpt lat="43.44351598365943" lon="11.505841200817905"><ele>781.5</ele><time>2026-04-08T15:59:03.999Z</time></trkpt><trkpt lat="43.44341143095124" lon="11.505946014969242"><ele>782.25</ele><time>2026-04-08T15:59:04.999Z</time></trkpt><trkpt lat="43.44328072859035" lon="11.506059596042896"><ele>783.0</ele><time>2026-04-08T15:59:05.998Z</time></trkpt><trkpt lat="43.44313602264751" lon="11.506122213787247"><ele>783.0</ele><time>2026-04-08T15:59:06.998Z</time></trkpt><trkpt lat="43.44302482861797" lon="11.506203103394643"><ele>783.0</ele><time>2026-04-08T15:59:07.998Z</time></trkpt><trkpt lat="43.44293386751317" lon="11.506276441281734"><ele>783.0</ele><time>2026-04-08T15:59:08.998Z</time></trkpt><trkpt lat="43.44286809408416" lon="11.50637055805732"><ele>783.0</ele><time>2026-04-08T15:59:09.998Z</time></trkpt><trkpt lat="43.44281800548899" lon="11.506471889514739"><ele>783.0</ele><time>2026-04-08T15:59:10.998Z</time></trkpt><trkpt lat="43.44278599143855" lon="11.506579844027643"><ele>784.2</ele><time>2026-04-08T15:59:11.998Z</time></trkpt><trkpt lat="43.442775622912436" lon="11.506704884362707"><ele>785.4</ele><time>2026-04-08T15:59:12.998Z</time></trkpt><trkpt lat="43.44278334509179" lon="11.506817886878949"><ele>786.6</ele><time>2026-04-08T15:59:13.998Z</time></trkpt><trkpt lat="43.44277458592812" lon="11.506922890902912"><ele>787.8000000000001</ele><time>2026-04-08T15:59:14.998Z</time></trkpt><trkpt lat="43.44279040129742" lon="11.507078415147028"><ele>789.0</ele><time>2026-04-08T15:59:16.998Z</time></trkpt><trkpt lat="43.44281649058064" lon="11.507222919001807"><ele>789.0</ele><time>2026-04-08T15:59:18.998Z</time></trkpt><trkpt lat="43.442780028354825" lon="11.50733490555055"><ele>789.0</ele><time>2026-04-08T15:59:20.998Z</time></trkpt><trkpt lat="43.44266282018707" lon="11.507376871216128"><ele>789.0</ele><time>2026-04-08T15:59:21.998Z</time></trkpt><trkpt lat="43.44256538861732" lon="11.507383965809918"><ele>789.0</ele><time>2026-04-08T15:59:22.998Z</time></trkpt><trkpt lat="43.442445885139904" lon="11.507404787135016"><ele>789.0</ele><time>2026-04-08T15:59:23.998Z</time></trkpt><trkpt lat="43.44232255619203" lon="11.507438417550024"><ele>789.0</ele><time>2026-04-08T15:59:24.998Z</time></trkpt><trkpt lat="43.4422151083822" lon="11.50746268718084"><ele>789.0</ele><time>2026-04-08T15:59:25.998Z</time></trkpt><trkpt lat="43.442102461272796" lon="11.507480302011833"><ele>789.0</ele><time>2026-04-08T15:59:26.998Z</time></trkpt><trkpt lat="43.44199661919702" lon="11.507478187421315"><ele>789.0</ele><time>2026-04-08T15:59:27.998Z</time></trkpt><trkpt lat="43.441888862439086" lon="11.507439347789177"><ele>789.0</ele><time>2026-04-08T15:59:28.998Z</time></trkpt><trkpt lat="43.44177277853657" lon="11.507375313535068"><ele>786.0</ele><time>2026-04-08T15:59:29.998Z</time></trkpt><trkpt lat="43.44166370385659" lon="11.507289721490308"><ele>783.0</ele><time>2026-04-08T15:59:30.998Z</time></trkpt><trkpt lat="43.44157573265853" lon="11.507169493385085"><ele>780.0</ele><time>2026-04-08T15:59:31.998Z</time></trkpt><trkpt lat="43.441493431760414" lon="11.50704230086277"><ele>777.0</ele><time>2026-04-08T15:59:32.998Z</time></trkpt><trkpt lat="43.4414297267916" lon="11.506886228511991"><ele>777.0</ele><time>2026-04-08T15:59:33.998Z</time></trkpt><trkpt lat="43.441373968227744" lon="11.506693846638822"><ele>777.0</ele><time>2026-04-08T15:59:34.998Z</time></trkpt><trkpt lat="43.44133316957923" lon="11.50650821683371"><ele>777.0</ele><time>2026-04-08T15:59:35.998Z</time></trkpt><trkpt lat="43.441288747562176" lon="11.506329699950605"><ele>777.0</ele><time>2026-04-08T15:59:36.998Z</time></trkpt><trkpt lat="43.441210628018936" lon="11.506156091049458"><ele>771.3333333333334</ele><time>2026-04-08T15:59:37.998Z</time></trkpt><trkpt lat="43.44109529178796" lon="11.50598511920118"><ele>765.6666666666667</ele><time>2026-04-08T15:59:38.998Z</time></trkpt><trkpt lat="43.440952941157036" lon="11.505814590449122"><ele>760.0</ele><time>2026-04-08T15:59:39.998Z</time></trkpt><trkpt lat="43.44081926950247" lon="11.505652320628371"><ele>760.0</ele><time>2026-04-08T15:59:40.998Z</time></trkpt><trkpt lat="43.440694322108925" lon="11.505492440789382"><ele>760.0</ele><time>2026-04-08T15:59:41.998Z</time></trkpt><trkpt lat="43.440575685307174" lon="11.50533495530162"><ele>760.0</ele><time>2026-04-08T15:59:42.998Z</time></trkpt><trkpt lat="43.440458027752584" lon="11.505182447197642"><ele>757.0</ele><time>2026-04-08T15:59:44Z</time></trkpt><trkpt lat="43.44033460360409" lon="11.505047526482063"><ele>754.0</ele><time>2026-04-08T15:59:45Z</time></trkpt><trkpt lat="43.44019324193575" lon="11.504931095251486"><ele>751.0</ele><time>2026-04-08T15:59:46Z</time></trkpt><trkpt lat="43.44004245104007" lon="11.504818280807847"><ele>751.0</ele><time>2026-04-08T15:59:47Z</time></trkpt><trkpt lat="43.43989468284052" lon="11.504704319121574"><ele>751.0</ele><time>2026-04-08T15:59:48Z</time></trkpt><trkpt lat="43.439760242481995" lon="11.50457467530342"><ele>751.0</ele><time>2026-04-08T15:59:49Z</time></trkpt><trkpt lat="43.43963967297628" lon="11.504451039616725"><ele>746.0</ele><time>2026-04-08T15:59:50Z</time></trkpt><trkpt lat="43.43954890575805" lon="11.504337893797567"><ele>741.0</ele><time>2026-04-08T15:59:51Z</time></trkpt><trkpt lat="43.43948607630569" lon="11.504200429493794"><ele>736.0</ele><time>2026-04-08T15:59:52Z</time></trkpt><trkpt lat="43.43945342417467" lon="11.504026438288633"><ele>731.0</ele><time>2026-04-08T15:59:53Z</time></trkpt><trkpt lat="43.43944366799836" lon="11.503823888153683"><ele>731.0</ele><time>2026-04-08T15:59:54Z</time></trkpt><trkpt lat="43.439455992388105" lon="11.503611821032013"><ele>731.0</ele><time>2026-04-08T15:59:55Z</time></trkpt><trkpt lat="43.43948615601209" lon="11.503417562894853"><ele>731.0</ele><time>2026-04-08T15:59:56Z</time></trkpt><trkpt lat="43.43953019312914" lon="11.503241190744829"><ele>731.0</ele><time>2026-04-08T15:59:57Z</time></trkpt><trkpt lat="43.43956566709189" lon="11.503116303197018"><ele>731.0</ele><time>2026-04-08T15:59:58Z</time></trkpt><trkpt lat="43.43957009585478" lon="11.503007493184368"><ele>731.0</ele><time>2026-04-08T15:59:59Z</time></trkpt><trkpt lat="43.43954088692532" lon="11.502897797403406"><ele>731.0</ele><time>2026-04-08T16:00:00Z</time></trkpt><trkpt lat="43.439475425640325" lon="11.502805752983228"><ele>731.0</ele><time>2026-04-08T16:00:01Z</time></trkpt><trkpt lat="43.43938357967124" lon="11.502768138376284"><ele>731.0</ele><time>2026-04-08T16:00:02Z</time></trkpt><trkpt lat="43.43927334056872" lon="11.502777716551432"><ele>728.25</ele><time>2026-04-08T16:00:03Z</time></trkpt><trkpt lat="43.43911752924863" lon="11.502817930244586"><ele>725.5</ele><time>2026-04-08T16:00:04Z</time></trkpt><trkpt lat="43.438982625576735" lon="11.502854498701291"><ele>722.75</ele><time>2026-04-08T16:00:05Z</time></trkpt><trkpt lat="43.43883681415082" lon="11.502911959841619"><ele>720.0</ele><time>2026-04-08T16:00:06Z</time></trkpt><trkpt lat="43.438710254960334" lon="11.502990657981844"><ele>717.8</ele><time>2026-04-08T16:00:07Z</time></trkpt><trkpt lat="43.4386135708974" lon="11.503021443641224"><ele>715.6</ele><time>2026-04-08T16:00:08Z</time></trkpt><trkpt lat="43.43852052450785" lon="11.503050723197546"><ele>713.4000000000001</ele><time>2026-04-08T16:00:09Z</time></trkpt><trkpt lat="43.43844343149402" lon="11.503017726713077"><ele>711.2</ele><time>2026-04-08T16:00:09.999Z</time></trkpt><trkpt lat="43.43837720298706" lon="11.502923536645797"><ele>709.0</ele><time>2026-04-08T16:00:10.999Z</time></trkpt><trkpt lat="43.438319700239425" lon="11.502775731509292"><ele>709.0</ele><time>2026-04-08T16:00:11.999Z</time></trkpt><trkpt lat="43.43828623715523" lon="11.502609661282943"><ele>709.0</ele><time>2026-04-08T16:00:12.999Z</time></trkpt><trkpt lat="43.43825439031194" lon="11.50246741243232"><ele>709.0</ele><time>2026-04-08T16:00:13.999Z</time></trkpt><trkpt lat="43.438247369916525" lon="11.502321592125245"><ele>709.0</ele><time>2026-04-08T16:00:14.999Z</time></trkpt><trkpt lat="43.43827122090945" lon="11.50217356208949"><ele>709.0</ele><time>2026-04-08T16:00:15.999Z</time></trkpt><trkpt lat="43.43833205192273" lon="11.502025581820787"><ele>706.4000000000001</ele><time>2026-04-08T16:00:16.999Z</time></trkpt><trkpt lat="43.438419374824925" lon="11.501887833028883"><ele>703.8</ele><time>2026-04-08T16:00:17.999Z</time></trkpt><trkpt lat="43.43848308439967" lon="11.501771008916899"><ele>701.2</ele><time>2026-04-08T16:00:18.999Z</time></trkpt><trkpt lat="43.43850832344185" lon="11.501657076350462"><ele>698.5999999999999</ele><time>2026-04-08T16:00:19.999Z</time></trkpt><trkpt lat="43.43849451468596" lon="11.50152486360636"><ele>696.0</ele><time>2026-04-08T16:00:20.999Z</time></trkpt><trkpt lat="43.43843408817038" lon="11.501378061056297"><ele>695.6666666666666</ele><time>2026-04-08T16:00:21.999Z</time></trkpt><trkpt lat="43.438348517023" lon="11.501200009950585"><ele>695.3333333333333</ele><time>2026-04-08T16:00:22.999Z</time></trkpt><trkpt lat="43.43825460130149" lon="11.501017124615315"><ele>695.0</ele><time>2026-04-08T16:00:23.999Z</time></trkpt><trkpt lat="43.43818521813478" lon="11.500848597189439"><ele>695.0</ele><time>2026-04-08T16:00:24.999Z</time></trkpt><trkpt lat="43.43811594832159" lon="11.500665122631789"><ele>695.0</ele><time>2026-04-08T16:00:25.999Z</time></trkpt><trkpt lat="43.438047486985134" lon="11.500448878998778"><ele>695.0</ele><time>2026-04-08T16:00:26.999Z</time></trkpt><trkpt lat="43.43799094977856" lon="11.500243959687046"><ele>698.0</ele><time>2026-04-08T16:00:27.999Z</time></trkpt><trkpt lat="43.437935682076336" lon="11.500057310514597"><ele>701.0</ele><time>2026-04-08T16:00:28.999Z</time></trkpt><trkpt lat="43.43787219766866" lon="11.499881402070399"><ele>704.0</ele><time>2026-04-08T16:00:29.999Z</time></trkpt><trkpt lat="43.43778237817567" lon="11.499687258557637"><ele>707.25</ele><time>2026-04-08T16:00:30.999Z</time></trkpt><trkpt lat="43.43768108850512" lon="11.499550279606463"><ele>710.5</ele><time>2026-04-08T16:00:31.999Z</time></trkpt><trkpt lat="43.43756833885858" lon="11.499443934620814"><ele>713.75</ele><time>2026-04-08T16:00:32.999Z</time></trkpt><trkpt lat="43.437459465258165" lon="11.49938212516657"><ele>717.0</ele><time>2026-04-08T16:00:33.999Z</time></trkpt><trkpt lat="43.43737662711874" lon="11.499381476333989"><ele>717.0</ele><time>2026-04-08T16:00:34.999Z</time></trkpt><trkpt lat="43.43728704692246" lon="11.499421977465047"><ele>717.0</ele><time>2026-04-08T16:00:35.999Z</time></trkpt><trkpt lat="43.43722583890935" lon="11.499519761823006"><ele>717.0</ele><time>2026-04-08T16:00:36.999Z</time></trkpt><trkpt lat="43.43718361399149" lon="11.499669527436371"><ele>717.0</ele><time>2026-04-08T16:00:37.999Z</time></trkpt><trkpt lat="43.43715290786347" lon="11.499824863505154"><ele>717.0</ele><time>2026-04-08T16:00:38.999Z</time></trkpt><trkpt lat="43.437116432601584" lon="11.499986987841636"><ele>719.75</ele><time>2026-04-08T16:00:39.999Z</time></trkpt><trkpt lat="43.43707210069109" lon="11.50014486428821"><ele>722.5</ele><time>2026-04-08T16:00:40.999Z</time></trkpt><trkpt lat="43.43698722427421" lon="11.500281974753355"><ele>725.25</ele><time>2026-04-08T16:00:41.999Z</time></trkpt><trkpt lat="43.43688388784629" lon="11.50042548998622"><ele>728.0</ele><time>2026-04-08T16:00:42.999Z</time></trkpt><trkpt lat="43.43674242344795" lon="11.50051422842232"><ele>725.75</ele><time>2026-04-08T16:00:43.999Z</time></trkpt><trkpt lat="43.43660683127577" lon="11.500553808911732"><ele>723.5</ele><time>2026-04-08T16:00:44.999Z</time></trkpt><trkpt lat="43.43648420258939" lon="11.500557894538089"><ele>721.25</ele><time>2026-04-08T16:00:45.999Z</time></trkpt><trkpt lat="43.43636304817797" lon="11.500545838258528"><ele>719.0</ele><time>2026-04-08T16:00:46.999Z</time></trkpt><trkpt lat="43.436255420437504" lon="11.500555021029475"><ele>719.0</ele><time>2026-04-08T16:00:47.999Z</time></trkpt><trkpt lat="43.43614862295979" lon="11.50058606741246"><ele>719.0</ele><time>2026-04-08T16:00:48.999Z</time></trkpt><trkpt lat="43.43602386026281" lon="11.50067336793351"><ele>719.0</ele><time>2026-04-08T16:00:49.999Z</time></trkpt><trkpt lat="43.43588842042858" lon="11.500790038888674"><ele>719.0</ele><time>2026-04-08T16:00:50.999Z</time></trkpt><trkpt lat="43.435744957800104" lon="11.500939582980894"><ele>719.0</ele><time>2026-04-08T16:00:51.999Z</time></trkpt><trkpt lat="43.43558780654732" lon="11.501076152972972"><ele>719.0</ele><time>2026-04-08T16:00:52.999Z</time></trkpt><trkpt lat="43.43545921253567" lon="11.50121749440759"><ele>719.0</ele><time>2026-04-08T16:00:53.999Z</time></trkpt><trkpt lat="43.43534916598373" lon="11.501362372420298"><ele>715.8000000000001</ele><time>2026-04-08T16:00:54.999Z</time></trkpt><trkpt lat="43.43523402717087" lon="11.501421712237489"><ele>712.6</ele><time>2026-04-08T16:00:55.999Z</time></trkpt><trkpt lat="43.43514618284402" lon="11.501446560039167"><ele>709.4</ele><time>2026-04-08T16:00:56.999Z</time></trkpt><trkpt lat="43.43508269372257" lon="11.501412652554329"><ele>706.2</ele><time>2026-04-08T16:00:57.999Z</time></trkpt><trkpt lat="43.43501601108604" lon="11.501361918027655"><ele>703.0</ele><time>2026-04-08T16:00:58.999Z</time></trkpt><trkpt lat="43.43492980619491" lon="11.50125871222443"><ele>708.0</ele><time>2026-04-08T16:00:59.999Z</time></trkpt><trkpt lat="43.43483107312357" lon="11.501122736564524"><ele>713.0</ele><time>2026-04-08T16:01:00.999Z</time></trkpt><trkpt lat="43.434756443177235" lon="11.500989103957961"><ele>718.0</ele><time>2026-04-08T16:01:01.999Z</time></trkpt><trkpt lat="43.43468742693338" lon="11.500841738963246"><ele>723.0</ele><time>2026-04-08T16:01:02.999Z</time></trkpt><trkpt lat="43.434638527339665" lon="11.500676788499968"><ele>724.0</ele><time>2026-04-08T16:01:03.999Z</time></trkpt><trkpt lat="43.434620359188465" lon="11.500493419568018"><ele>725.0</ele><time>2026-04-08T16:01:04.999Z</time></trkpt><trkpt lat="43.43462719948028" lon="11.500310477179319"><ele>726.0</ele><time>2026-04-08T16:01:05.999Z</time></trkpt><trkpt lat="43.43465154524419" lon="11.500117485116933"><ele>727.0</ele><time>2026-04-08T16:01:06.999Z</time></trkpt><trkpt lat="43.434651522135994" lon="11.49991721848544"><ele>727.0</ele><time>2026-04-08T16:01:07.999Z</time></trkpt><trkpt lat="43.434647511311724" lon="11.499694493320892"><ele>727.0</ele><time>2026-04-08T16:01:08.999Z</time></trkpt><trkpt lat="43.43460074558395" lon="11.499456888697058"><ele>727.0</ele><time>2026-04-08T16:01:09.999Z</time></trkpt><trkpt lat="43.434542127290456" lon="11.499223830558114"><ele>723.75</ele><time>2026-04-08T16:01:10.998Z</time></trkpt><trkpt lat="43.4344984246696" lon="11.499029331881568"><ele>720.5</ele><time>2026-04-08T16:01:11.998Z</time></trkpt><trkpt lat="43.43445391994768" lon="11.498854375684875"><ele>717.25</ele><time>2026-04-08T16:01:12.998Z</time></trkpt><trkpt lat="43.434388696241655" lon="11.498725622531158"><ele>714.0</ele><time>2026-04-08T16:01:13.998Z</time></trkpt><trkpt lat="43.434277237228116" lon="11.49864596775817"><ele>714.0</ele><time>2026-04-08T16:01:14.998Z</time></trkpt><trkpt lat="43.43416801772357" lon="11.498528585928765"><ele>714.0</ele><time>2026-04-08T16:01:15.998Z</time></trkpt><trkpt lat="43.434077246946714" lon="11.498428371438028"><ele>714.0</ele><time>2026-04-08T16:01:16.998Z</time></trkpt><trkpt lat="43.43404686522047" lon="11.498277250745007"><ele>714.0</ele><time>2026-04-08T16:01:17.998Z</time></trkpt><trkpt lat="43.434014116382755" lon="11.498131689105938"><ele>714.0</ele><time>2026-04-08T16:01:18.998Z</time></trkpt><trkpt lat="43.43398559754726" lon="11.497994550781533"><ele>714.0</ele><time>2026-04-08T16:01:19.998Z</time></trkpt><trkpt lat="43.43396654362781" lon="11.497851580942987"><ele>714.0</ele><time>2026-04-08T16:01:20.998Z</time></trkpt><trkpt lat="43.433949999507625" lon="11.497704108211295"><ele>714.0</ele><time>2026-04-08T16:01:21.998Z</time></trkpt><trkpt lat="43.43392888046742" lon="11.497554804687217"><ele>714.0</ele><time>2026-04-08T16:01:22.998Z</time></trkpt><trkpt lat="43.43392074307346" lon="11.49739138289494"><ele>712.25</ele><time>2026-04-08T16:01:23.998Z</time></trkpt><trkpt lat="43.433910135027645" lon="11.497209085248768"><ele>710.5</ele><time>2026-04-08T16:01:24.998Z</time></trkpt><trkpt lat="43.433885583257144" lon="11.497045212638463"><ele>708.75</ele><time>2026-04-08T16:01:25.998Z</time></trkpt><trkpt lat="43.43384908016108" lon="11.496898267262713"><ele>707.0</ele><time>2026-04-08T16:01:26.998Z</time></trkpt><trkpt lat="43.43378564788121" lon="11.496769757184435"><ele>707.0</ele><time>2026-04-08T16:01:27.998Z</time></trkpt><trkpt lat="43.43369113728129" lon="11.496634514361832"><ele>707.0</ele><time>2026-04-08T16:01:28.998Z</time></trkpt><trkpt lat="43.43357346496355" lon="11.496497883163718"><ele>707.0</ele><time>2026-04-08T16:01:29.998Z</time></trkpt><trkpt lat="43.43343336453427" lon="11.49635901481339"><ele>706.3333333333333</ele><time>2026-04-08T16:01:30.998Z</time></trkpt><trkpt lat="43.433278747584644" lon="11.496233046552485"><ele>705.6666666666666</ele><time>2026-04-08T16:01:31.998Z</time></trkpt><trkpt lat="43.43312066913592" lon="11.496158915761496"><ele>705.0</ele><time>2026-04-08T16:01:32.998Z</time></trkpt><trkpt lat="43.432972330584164" lon="11.496126598001704"><ele>705.0</ele><time>2026-04-08T16:01:33.998Z</time></trkpt><trkpt lat="43.43284222428635" lon="11.496079732663658"><ele>705.0</ele><time>2026-04-08T16:01:34.998Z</time></trkpt><trkpt lat="43.432743865672045" lon="11.496005551385249"><ele>705.0</ele><time>2026-04-08T16:01:35.998Z</time></trkpt><trkpt lat="43.432676098320954" lon="11.495896563121999"><ele>705.0</ele><time>2026-04-08T16:01:36.998Z</time></trkpt><trkpt lat="43.43262521828595" lon="11.495782686749015"><ele>705.0</ele><time>2026-04-08T16:01:37.998Z</time></trkpt><trkpt lat="43.43259210310559" lon="11.495660497891695"><ele>705.0</ele><time>2026-04-08T16:01:38.998Z</time></trkpt><trkpt lat="43.43256626059656" lon="11.495521861294423"><ele>705.0</ele><time>2026-04-08T16:01:39.998Z</time></trkpt><trkpt lat="43.432548660252536" lon="11.495345512374938"><ele>705.0</ele><time>2026-04-08T16:01:40.998Z</time></trkpt><trkpt lat="43.43253297921292" lon="11.495156320302327"><ele>705.0</ele><time>2026-04-08T16:01:41.998Z</time></trkpt><trkpt lat="43.43251922735306" lon="11.494986267714038"><ele>705.25</ele><time>2026-04-08T16:01:42.998Z</time></trkpt><trkpt lat="43.43248444753234" lon="11.494818689674341"><ele>705.5</ele><time>2026-04-08T16:01:43.998Z</time></trkpt><trkpt lat="43.43241968377652" lon="11.494680516192965"><ele>705.75</ele><time>2026-04-08T16:01:44.998Z</time></trkpt><trkpt lat="43.4323368853637" lon="11.494567327241331"><ele>706.0</ele><time>2026-04-08T16:01:45.998Z</time></trkpt><trkpt lat="43.43228561020898" lon="11.494448804967286"><ele>706.0</ele><time>2026-04-08T16:01:46.998Z</time></trkpt><trkpt lat="43.43228053357133" lon="11.494301035299106"><ele>706.0</ele><time>2026-04-08T16:01:47.998Z</time></trkpt><trkpt lat="43.432306769850605" lon="11.494150456118659"><ele>706.0</ele><time>2026-04-08T16:01:48.998Z</time></trkpt><trkpt lat="43.43236871247634" lon="11.494008554123917"><ele>706.0</ele><time>2026-04-08T16:01:50Z</time></trkpt><trkpt lat="43.432454991001876" lon="11.493870971558188"><ele>704.6666666666667</ele><time>2026-04-08T16:01:51Z</time></trkpt><trkpt lat="43.43253315925752" lon="11.493740679103206"><ele>703.3333333333334</ele><time>2026-04-08T16:01:52Z</time></trkpt><trkpt lat="43.43256780854362" lon="11.493629614428809"><ele>702.0</ele><time>2026-04-08T16:01:53Z</time></trkpt><trkpt lat="43.43257100661483" lon="11.493517151558"><ele>700.6666666666666</ele><time>2026-04-08T16:01:54Z</time></trkpt><trkpt lat="43.43252794749734" lon="11.493432321686472"><ele>699.3333333333333</ele><time>2026-04-08T16:01:55Z</time></trkpt><trkpt lat="43.432462276318546" lon="11.493371474642366"><ele>698.0</ele><time>2026-04-08T16:01:56Z</time></trkpt><trkpt lat="43.43236810507486" lon="11.49336767442418"><ele>698.0</ele><time>2026-04-08T16:01:57Z</time></trkpt><trkpt lat="43.432265611929985" lon="11.493429343121827"><ele>698.0</ele><time>2026-04-08T16:01:58Z</time></trkpt><trkpt lat="43.43216438948193" lon="11.49352837227609"><ele>698.0</ele><time>2026-04-08T16:01:59Z</time></trkpt><trkpt lat="43.43206703009751" lon="11.493618268841018"><ele>698.0</ele><time>2026-04-08T16:02:00Z</time></trkpt><trkpt lat="43.43199264342778" lon="11.493627380707705"><ele>698.0</ele><time>2026-04-08T16:02:01Z</time></trkpt><trkpt lat="43.43189713912324" lon="11.493501552227155"><ele>692.75</ele><time>2026-04-08T16:02:03Z</time></trkpt><trkpt lat="43.43189028117888" lon="11.493388374065614"><ele>687.5</ele><time>2026-04-08T16:02:04Z</time></trkpt><trkpt lat="43.431917704140275" lon="11.493257003968889"><ele>682.25</ele><time>2026-04-08T16:02:05Z</time></trkpt><trkpt lat="43.43196291768505" lon="11.49309756569805"><ele>677.0</ele><time>2026-04-08T16:02:06Z</time></trkpt><trkpt lat="43.43201838887862" lon="11.492914336551687"><ele>675.3333333333333</ele><time>2026-04-08T16:02:07Z</time></trkpt><trkpt lat="43.43207982857098" lon="11.492712023619811"><ele>673.6666666666666</ele><time>2026-04-08T16:02:08Z</time></trkpt><trkpt lat="43.4321453226684" lon="11.492512957719608"><ele>672.0</ele><time>2026-04-08T16:02:09Z</time></trkpt><trkpt lat="43.43221026825317" lon="11.492337883534802"><ele>672.0</ele><time>2026-04-08T16:02:10Z</time></trkpt><trkpt lat="43.432253461029944" lon="11.492180110358472"><ele>672.0</ele><time>2026-04-08T16:02:11Z</time></trkpt><trkpt lat="43.43225198537207" lon="11.49202022920838"><ele>672.0</ele><time>2026-04-08T16:02:12Z</time></trkpt><trkpt lat="43.43220553188046" lon="11.491855090034473"><ele>672.0</ele><time>2026-04-08T16:02:13Z</time></trkpt><trkpt lat="43.43214306648531" lon="11.491670855268472"><ele>671.5</ele><time>2026-04-08T16:02:14Z</time></trkpt><trkpt lat="43.432091160093236" lon="11.491470884482771"><ele>671.0</ele><time>2026-04-08T16:02:15Z</time></trkpt><trkpt lat="43.43206391484753" lon="11.49127302107716"><ele>670.5</ele><time>2026-04-08T16:02:16Z</time></trkpt><trkpt lat="43.43207718277661" lon="11.491089467830763"><ele>670.0</ele><time>2026-04-08T16:02:17Z</time></trkpt><trkpt lat="43.43212227327779" lon="11.4909086512409"><ele>670.0</ele><time>2026-04-08T16:02:18Z</time></trkpt><trkpt lat="43.43219512703147" lon="11.490713730890983"><ele>670.0</ele><time>2026-04-08T16:02:18.999Z</time></trkpt><trkpt lat="43.432272154036255" lon="11.490507960633376"><ele>670.0</ele><time>2026-04-08T16:02:19.999Z</time></trkpt><trkpt lat="43.432348726503704" lon="11.490300473542954"><ele>670.0</ele><time>2026-04-08T16:02:20.999Z</time></trkpt><trkpt lat="43.43242694356957" lon="11.490096038465365"><ele>670.0</ele><time>2026-04-08T16:02:21.999Z</time></trkpt><trkpt lat="43.43252736219515" lon="11.489944556684888"><ele>670.0</ele><time>2026-04-08T16:02:22.999Z</time></trkpt><trkpt lat="43.43259479248711" lon="11.489797343031425"><ele>670.0</ele><time>2026-04-08T16:02:23.999Z</time></trkpt><trkpt lat="43.43265643103324" lon="11.489690398771073"><ele>669.5</ele><time>2026-04-08T16:02:24.999Z</time></trkpt><trkpt lat="43.43268346871515" lon="11.489534698647942"><ele>669.0</ele><time>2026-04-08T16:02:25.999Z</time></trkpt><trkpt lat="43.432668687127226" lon="11.489344718537334"><ele>668.5</ele><time>2026-04-08T16:02:26.999Z</time></trkpt><trkpt lat="43.43261795733516" lon="11.489154896717249"><ele>668.0</ele><time>2026-04-08T16:02:27.999Z</time></trkpt><trkpt lat="43.43253273001369" lon="11.488973416973359"><ele>668.0</ele><time>2026-04-08T16:02:28.999Z</time></trkpt><trkpt lat="43.43243449592971" lon="11.48881561559303"><ele>668.0</ele><time>2026-04-08T16:02:29.999Z</time></trkpt><trkpt lat="43.43232440900441" lon="11.488684005901582"><ele>668.0</ele><time>2026-04-08T16:02:30.999Z</time></trkpt><trkpt lat="43.432196677966836" lon="11.488565672725354"><ele>670.5</ele><time>2026-04-08T16:02:31.999Z</time></trkpt><trkpt lat="43.43206928226082" lon="11.488457423814168"><ele>673.0</ele><time>2026-04-08T16:02:32.999Z</time></trkpt><trkpt lat="43.43194166578179" lon="11.488370142985408"><ele>675.5</ele><time>2026-04-08T16:02:33.999Z</time></trkpt><trkpt lat="43.43179910456789" lon="11.488292580741081"><ele>678.0</ele><time>2026-04-08T16:02:34.999Z</time></trkpt><trkpt lat="43.4316462397001" lon="11.488227250803147"><ele>678.0</ele><time>2026-04-08T16:02:35.999Z</time></trkpt><trkpt lat="43.43151257692108" lon="11.488163726983704"><ele>678.0</ele><time>2026-04-08T16:02:36.999Z</time></trkpt><trkpt lat="43.43139182528213" lon="11.488094432050827"><ele>678.0</ele><time>2026-04-08T16:02:37.999Z</time></trkpt><trkpt lat="43.431301684720516" lon="11.487999365036199"><ele>678.0</ele><time>2026-04-08T16:02:38.999Z</time></trkpt><trkpt lat="43.43124258604648" lon="11.487890546670961"><ele>677.5999999999999</ele><time>2026-04-08T16:02:39.999Z</time></trkpt><trkpt lat="43.431219395254445" lon="11.4877670545894"><ele>677.1999999999999</ele><time>2026-04-08T16:02:40.999Z</time></trkpt><trkpt lat="43.43121838391223" lon="11.487625276647712"><ele>676.8</ele><time>2026-04-08T16:02:41.999Z</time></trkpt><trkpt lat="43.43123239992258" lon="11.487465144805775"><ele>676.4</ele><time>2026-04-08T16:02:42.999Z</time></trkpt><trkpt lat="43.431240858449826" lon="11.487290169158035"><ele>676.0</ele><time>2026-04-08T16:02:43.999Z</time></trkpt><trkpt lat="43.43123821673126" lon="11.487089101580546"><ele>676.0</ele><time>2026-04-08T16:02:44.999Z</time></trkpt><trkpt lat="43.43121245988591" lon="11.486868970230972"><ele>676.0</ele><time>2026-04-08T16:02:45.999Z</time></trkpt><trkpt lat="43.431165074542015" lon="11.486659533943104"><ele>676.0</ele><time>2026-04-08T16:02:46.999Z</time></trkpt><trkpt lat="43.43109556905993" lon="11.48648475236388"><ele>676.0</ele><time>2026-04-08T16:02:47.999Z</time></trkpt><trkpt lat="43.4310111897812" lon="11.486309397855129"><ele>676.0</ele><time>2026-04-08T16:02:48.999Z</time></trkpt><trkpt lat="43.430921656066104" lon="11.486151219117769"><ele>676.0</ele><time>2026-04-08T16:02:49.999Z</time></trkpt><trkpt lat="43.430816717559665" lon="11.486028217980785"><ele>676.0</ele><time>2026-04-08T16:02:50.999Z</time></trkpt><trkpt lat="43.43070388431924" lon="11.485951041429296"><ele>678.5</ele><time>2026-04-08T16:02:51.999Z</time></trkpt><trkpt lat="43.43058925626916" lon="11.485941621304214"><ele>681.0</ele><time>2026-04-08T16:02:52.999Z</time></trkpt><trkpt lat="43.43045696102062" lon="11.485988279120999"><ele>683.5</ele><time>2026-04-08T16:02:53.999Z</time></trkpt><trkpt lat="43.43031424298079" lon="11.486034602110369"><ele>686.0</ele><time>2026-04-08T16:02:54.999Z</time></trkpt><trkpt lat="43.43018791791507" lon="11.48599319834914"><ele>686.0</ele><time>2026-04-08T16:02:55.999Z</time></trkpt><trkpt lat="43.43007106274453" lon="11.485961225344948"><ele>686.0</ele><time>2026-04-08T16:02:56.999Z</time></trkpt><trkpt lat="43.42994120208212" lon="11.485905328829354"><ele>686.0</ele><time>2026-04-08T16:02:57.999Z</time></trkpt><trkpt lat="43.429797807928054" lon="11.485789853613118"><ele>686.0</ele><time>2026-04-08T16:02:58.999Z</time></trkpt><trkpt lat="43.42963634456904" lon="11.48566559222297"><ele>685.3333333333333</ele><time>2026-04-08T16:02:59.999Z</time></trkpt><trkpt lat="43.4294673250802" lon="11.485541141402194"><ele>684.6666666666666</ele><time>2026-04-08T16:03:00.999Z</time></trkpt><trkpt lat="43.42931661893735" lon="11.48542886779554"><ele>684.0</ele><time>2026-04-08T16:03:01.999Z</time></trkpt><trkpt lat="43.429176886942265" lon="11.485336258957535"><ele>682.6666666666666</ele><time>2026-04-08T16:03:02.999Z</time></trkpt><trkpt lat="43.429037466946525" lon="11.485257970986018"><ele>681.3333333333333</ele><time>2026-04-08T16:03:03.999Z</time></trkpt><trkpt lat="43.42889235465667" lon="11.485208822235265"><ele>680.0</ele><time>2026-04-08T16:03:04.999Z</time></trkpt><trkpt lat="43.42873827797626" lon="11.48520300315901"><ele>680.0</ele><time>2026-04-08T16:03:05.999Z</time></trkpt><trkpt lat="43.42857179877587" lon="11.485210861526715"><ele>680.0</ele><time>2026-04-08T16:03:06.999Z</time></trkpt><trkpt lat="43.428377653720084" lon="11.485210304492298"><ele>680.0</ele><time>2026-04-08T16:03:07.999Z</time></trkpt><trkpt lat="43.428189228757276" lon="11.485187951012366"><ele>680.0</ele><time>2026-04-08T16:03:08.999Z</time></trkpt><trkpt lat="43.42803075710126" lon="11.48516214413873"><ele>680.0</ele><time>2026-04-08T16:03:09.999Z</time></trkpt><trkpt lat="43.427905544500696" lon="11.485180160603115"><ele>680.0</ele><time>2026-04-08T16:03:10.999Z</time></trkpt><trkpt lat="43.427797169612504" lon="11.485269373777296"><ele>680.0</ele><time>2026-04-08T16:03:11.999Z</time></trkpt><trkpt lat="43.42768740403058" lon="11.485401140835442"><ele>681.6666666666666</ele><time>2026-04-08T16:03:12.999Z</time></trkpt><trkpt lat="43.42756679493793" lon="11.485555614345662"><ele>683.3333333333334</ele><time>2026-04-08T16:03:13.999Z</time></trkpt><trkpt lat="43.42743950861899" lon="11.485707215566807"><ele>685.0</ele><time>2026-04-08T16:03:14.999Z</time></trkpt><trkpt lat="43.427324095196724" lon="11.485825156311702"><ele>685.0</ele><time>2026-04-08T16:03:15.999Z</time></trkpt><trkpt lat="43.42722890471665" lon="11.485941501782309"><ele>685.0</ele><time>2026-04-08T16:03:16.999Z</time></trkpt><trkpt lat="43.42716524533529" lon="11.48609328993588"><ele>685.0</ele><time>2026-04-08T16:03:17.998Z</time></trkpt><trkpt lat="43.42711348239706" lon="11.486289567969916"><ele>685.0</ele><time>2026-04-08T16:03:18.998Z</time></trkpt><trkpt lat="43.4270610234271" lon="11.486517835961132"><ele>684.0</ele><time>2026-04-08T16:03:19.998Z</time></trkpt><trkpt lat="43.42699579248467" lon="11.486743104328106"><ele>683.0</ele><time>2026-04-08T16:03:20.998Z</time></trkpt><trkpt lat="43.42691894030784" lon="11.486944525943214"><ele>682.0</ele><time>2026-04-08T16:03:21.998Z</time></trkpt><trkpt lat="43.42684589175157" lon="11.487130049646128"><ele>682.0</ele><time>2026-04-08T16:03:22.998Z</time></trkpt><trkpt lat="43.4268006326734" lon="11.487321676882768"><ele>682.0</ele><time>2026-04-08T16:03:23.998Z</time></trkpt><trkpt lat="43.4267881137477" lon="11.487534057551413"><ele>682.0</ele><time>2026-04-08T16:03:24.998Z</time></trkpt><trkpt lat="43.42678186329067" lon="11.487734766212442"><ele>682.0</ele><time>2026-04-08T16:03:25.998Z</time></trkpt><trkpt lat="43.42672910786088" lon="11.487911581858272"><ele>678.5</ele><time>2026-04-08T16:03:26.998Z</time></trkpt><trkpt lat="43.42666900237154" lon="11.488091016604338"><ele>675.0</ele><time>2026-04-08T16:03:27.998Z</time></trkpt><trkpt lat="43.426602593433735" lon="11.488292727076129"><ele>671.5</ele><time>2026-04-08T16:03:28.998Z</time></trkpt><trkpt lat="43.42652777488516" lon="11.488457427751468"><ele>668.0</ele><time>2026-04-08T16:03:29.998Z</time></trkpt><trkpt lat="43.42646370515238" lon="11.488582976120286"><ele>668.0</ele><time>2026-04-08T16:03:30.998Z</time></trkpt><trkpt lat="43.42639713758461" lon="11.488668343823266"><ele>668.0</ele><time>2026-04-08T16:03:31.998Z</time></trkpt><trkpt lat="43.42631881429139" lon="11.488716075083612"><ele>668.0</ele><time>2026-04-08T16:03:32.998Z</time></trkpt><trkpt lat="43.42622921350568" lon="11.488719840135444"><ele>668.0</ele><time>2026-04-08T16:03:33.998Z</time></trkpt><trkpt lat="43.426131746899024" lon="11.488668329446282"><ele>668.0</ele><time>2026-04-08T16:03:34.998Z</time></trkpt><trkpt lat="43.42604161725691" lon="11.488570105199733"><ele>665.5</ele><time>2026-04-08T16:03:35.998Z</time></trkpt><trkpt lat="43.42597857368955" lon="11.48846009639569"><ele>663.0</ele><time>2026-04-08T16:03:36.998Z</time></trkpt><trkpt lat="43.42596846888075" lon="11.48831394075491"><ele>660.5</ele><time>2026-04-08T16:03:37.998Z</time></trkpt><trkpt lat="43.42593666994317" lon="11.488152873911709"><ele>658.0</ele><time>2026-04-08T16:03:38.998Z</time></trkpt><trkpt lat="43.42591180724132" lon="11.487970825083364"><ele>662.25</ele><time>2026-04-08T16:03:39.998Z</time></trkpt><trkpt lat="43.42585088599533" lon="11.487824416339485"><ele>666.5</ele><time>2026-04-08T16:03:40.998Z</time></trkpt><trkpt lat="43.425758052218455" lon="11.487714167157609"><ele>670.75</ele><time>2026-04-08T16:03:41.998Z</time></trkpt><trkpt lat="43.42564032341267" lon="11.48765686269148"><ele>675.0</ele><time>2026-04-08T16:03:42.998Z</time></trkpt><trkpt lat="43.42550353845531" lon="11.4876535142833"><ele>670.75</ele><time>2026-04-08T16:03:43.998Z</time></trkpt><trkpt lat="43.42535579988947" lon="11.487667386990628"><ele>666.5</ele><time>2026-04-08T16:03:44.998Z</time></trkpt><trkpt lat="43.42521912714377" lon="11.487614137840078"><ele>662.25</ele><time>2026-04-08T16:03:45.998Z</time></trkpt><trkpt lat="43.42507194866182" lon="11.487551800915833"><ele>658.0</ele><time>2026-04-08T16:03:46.998Z</time></trkpt><trkpt lat="43.42493367692483" lon="11.487452550036558"><ele>658.0</ele><time>2026-04-08T16:03:47.998Z</time></trkpt><trkpt lat="43.42481239562111" lon="11.48738151095451"><ele>658.0</ele><time>2026-04-08T16:03:48.998Z</time></trkpt><trkpt lat="43.42472847874453" lon="11.487348071974694"><ele>658.0</ele><time>2026-04-08T16:03:49.998Z</time></trkpt><trkpt lat="43.42460536220347" lon="11.487356747098952"><ele>658.0</ele><time>2026-04-08T16:03:51.998Z</time></trkpt><trkpt lat="43.42451793943609" lon="11.487402013312071"><ele>658.0</ele><time>2026-04-08T16:03:52.998Z</time></trkpt><trkpt lat="43.42441059270742" lon="11.487485109828118"><ele>655.0</ele><time>2026-04-08T16:03:53.998Z</time></trkpt><trkpt lat="43.42428348398575" lon="11.48762139179853"><ele>652.0</ele><time>2026-04-08T16:03:55Z</time></trkpt><trkpt lat="43.42415076558407" lon="11.487771568855822"><ele>649.0</ele><time>2026-04-08T16:03:56Z</time></trkpt><trkpt lat="43.42401510255699" lon="11.487910477113966"><ele>649.0</ele><time>2026-04-08T16:03:57Z</time></trkpt><trkpt lat="43.42385770301384" lon="11.488034908092159"><ele>649.0</ele><time>2026-04-08T16:03:58Z</time></trkpt><trkpt lat="43.423698389350726" lon="11.488128792107439"><ele>649.0</ele><time>2026-04-08T16:03:59Z</time></trkpt><trkpt lat="43.42355453347606" lon="11.48820591772588"><ele>649.0</ele><time>2026-04-08T16:04:00Z</time></trkpt><trkpt lat="43.42342025424016" lon="11.488279283829181"><ele>649.0</ele><time>2026-04-08T16:04:01Z</time></trkpt><trkpt lat="43.423298764529456" lon="11.48835592015104"><ele>649.0</ele><time>2026-04-08T16:04:02Z</time></trkpt><trkpt lat="43.423168107527324" lon="11.48843701812718"><ele>649.0</ele><time>2026-04-08T16:04:03Z</time></trkpt><trkpt lat="43.423007762402875" lon="11.48852841566751"><ele>647.6666666666667</ele><time>2026-04-08T16:04:04Z</time></trkpt><trkpt lat="43.42283410271338" lon="11.488616082300513"><ele>646.3333333333334</ele><time>2026-04-08T16:04:05Z</time></trkpt><trkpt lat="43.42265189536667" lon="11.48871694401183"><ele>645.0</ele><time>2026-04-08T16:04:06Z</time></trkpt><trkpt lat="43.42245032095556" lon="11.488831487303312"><ele>644.6666666666666</ele><time>2026-04-08T16:04:07Z</time></trkpt><trkpt lat="43.422250263298125" lon="11.488944184673356"><ele>644.3333333333333</ele><time>2026-04-08T16:04:08Z</time></trkpt><trkpt lat="43.422058012977764" lon="11.489047222098659"><ele>644.0</ele><time>2026-04-08T16:04:09Z</time></trkpt><trkpt lat="43.42187213960773" lon="11.48914271829574"><ele>643.0</ele><time>2026-04-08T16:04:10Z</time></trkpt><trkpt lat="43.42168831272436" lon="11.4892303207398"><ele>642.0</ele><time>2026-04-08T16:04:11Z</time></trkpt><trkpt lat="43.421501653106915" lon="11.489293270281077"><ele>641.0</ele><time>2026-04-08T16:04:12Z</time></trkpt><trkpt lat="43.42130767302631" lon="11.489306283449512"><ele>638.6666666666666</ele><time>2026-04-08T16:04:13Z</time></trkpt><trkpt lat="43.421113584597734" lon="11.489343461244822"><ele>636.3333333333334</ele><time>2026-04-08T16:04:14Z</time></trkpt><trkpt lat="43.42094273026351" lon="11.489369855038726"><ele>634.0</ele><time>2026-04-08T16:04:15Z</time></trkpt><trkpt lat="43.42080978688691" lon="11.489413192614748"><ele>634.0</ele><time>2026-04-08T16:04:16Z</time></trkpt><trkpt lat="43.42070553748813" lon="11.489486683906485"><ele>634.0</ele><time>2026-04-08T16:04:17Z</time></trkpt><trkpt lat="43.4206041339704" lon="11.489603458003355"><ele>634.0</ele><time>2026-04-08T16:04:18Z</time></trkpt><trkpt lat="43.42050196585516" lon="11.489778786326657"><ele>634.0</ele><time>2026-04-08T16:04:19Z</time></trkpt><trkpt lat="43.42040363139928" lon="11.489971182163531"><ele>638.3333333333334</ele><time>2026-04-08T16:04:20Z</time></trkpt><trkpt lat="43.42033248639632" lon="11.490192229898424"><ele>642.6666666666666</ele><time>2026-04-08T16:04:21Z</time></trkpt><trkpt lat="43.42028123975157" lon="11.490405733785042"><ele>647.0</ele><time>2026-04-08T16:04:22Z</time></trkpt><trkpt lat="43.42019008779464" lon="11.490566341742053"><ele>650.0</ele><time>2026-04-08T16:04:23Z</time></trkpt><trkpt lat="43.42007616446104" lon="11.4907272202768"><ele>653.0</ele><time>2026-04-08T16:04:24Z</time></trkpt><trkpt lat="43.41996833610391" lon="11.490914568833508"><ele>656.0</ele><time>2026-04-08T16:04:25Z</time></trkpt><trkpt lat="43.41986109318237" lon="11.491094871787855"><ele>655.75</ele><time>2026-04-08T16:04:25.999Z</time></trkpt><trkpt lat="43.41976620792075" lon="11.491279885913455"><ele>655.5</ele><time>2026-04-08T16:04:26.999Z</time></trkpt><trkpt lat="43.41968464759474" lon="11.491438843031808"><ele>655.25</ele><time>2026-04-08T16:04:27.999Z</time></trkpt><trkpt lat="43.41962519906474" lon="11.491534950268948"><ele>655.0</ele><time>2026-04-08T16:04:28.999Z</time></trkpt><trkpt lat="43.419572941321206" lon="11.491593578010177"><ele>655.0</ele><time>2026-04-08T16:04:29.999Z</time></trkpt><trkpt lat="43.41950453251417" lon="11.491612359156276"><ele>655.0</ele><time>2026-04-08T16:04:31.999Z</time></trkpt><trkpt lat="43.41941004314988" lon="11.4916404588444"><ele>655.0</ele><time>2026-04-08T16:04:34.999Z</time></trkpt><trkpt lat="43.41934508718045" lon="11.491641071557709"><ele>655.0</ele><time>2026-04-08T16:04:35.999Z</time></trkpt><trkpt lat="43.41926775223169" lon="11.491612337909505"><ele>655.0</ele><time>2026-04-08T16:04:36.999Z</time></trkpt><trkpt lat="43.41919113238153" lon="11.491578573519197"><ele>655.0</ele><time>2026-04-08T16:04:37.999Z</time></trkpt><trkpt lat="43.41910684455492" lon="11.491532381652771"><ele>655.0</ele><time>2026-04-08T16:04:38.999Z</time></trkpt><trkpt lat="43.419027707748185" lon="11.491491302322528"><ele>655.0</ele><time>2026-04-08T16:04:39.999Z</time></trkpt><trkpt lat="43.41894271828578" lon="11.491455841041025"><ele>655.0</ele><time>2026-04-08T16:04:40.999Z</time></trkpt><trkpt lat="43.418850314277655" lon="11.49143561601601"><ele>655.0</ele><time>2026-04-08T16:04:41.999Z</time></trkpt><trkpt lat="43.41875361289497" lon="11.491441337431622"><ele>655.0</ele><time>2026-04-08T16:04:42.999Z</time></trkpt><trkpt lat="43.41864890191554" lon="11.491477244336755"><ele>655.8</ele><time>2026-04-08T16:04:43.999Z</time></trkpt><trkpt lat="43.41854467547477" lon="11.491567321707313"><ele>656.6</ele><time>2026-04-08T16:04:44.999Z</time></trkpt><trkpt lat="43.41843991654278" lon="11.491652144061623"><ele>657.4000000000001</ele><time>2026-04-08T16:04:45.999Z</time></trkpt><trkpt lat="43.418360728232386" lon="11.491743313530572"><ele>658.2</ele><time>2026-04-08T16:04:46.999Z</time></trkpt><trkpt lat="43.41828587547308" lon="11.491803371195331"><ele>659.0</ele><time>2026-04-08T16:04:47.999Z</time></trkpt><trkpt lat="43.41821235010371" lon="11.491798444831867"><ele>659.0</ele><time>2026-04-08T16:04:48.999Z</time></trkpt><trkpt lat="43.41814253446722" lon="11.491779742404763"><ele>659.0</ele><time>2026-04-08T16:04:49.999Z</time></trkpt><trkpt lat="43.41807821532993" lon="11.491692598552047"><ele>659.0</ele><time>2026-04-08T16:04:50.999Z</time></trkpt><trkpt lat="43.41805283062364" lon="11.49157167599897"><ele>659.0</ele><time>2026-04-08T16:04:51.999Z</time></trkpt><trkpt lat="43.41801933374833" lon="11.491497341827444"><ele>659.0</ele><time>2026-04-08T16:04:52.999Z</time></trkpt><trkpt lat="43.417967860523895" lon="11.491337329102867"><ele>659.0</ele><time>2026-04-08T16:04:53.999Z</time></trkpt><trkpt lat="43.4179081630908" lon="11.491177840112579"><ele>660.0</ele><time>2026-04-08T16:04:54.999Z</time></trkpt><trkpt lat="43.41781587993514" lon="11.491063404232081"><ele>661.0</ele><time>2026-04-08T16:04:55.999Z</time></trkpt><trkpt lat="43.41767190065688" lon="11.490960917397318"><ele>662.0</ele><time>2026-04-08T16:04:56.999Z</time></trkpt><trkpt lat="43.417544183452755" lon="11.490866017531381"><ele>663.0</ele><time>2026-04-08T16:04:57.999Z</time></trkpt><trkpt lat="43.417482057086126" lon="11.49072305741578"><ele>663.0</ele><time>2026-04-08T16:04:58.999Z</time></trkpt><trkpt lat="43.417438137799785" lon="11.49056620218202"><ele>663.0</ele><time>2026-04-08T16:04:59.999Z</time></trkpt><trkpt lat="43.417372528064" lon="11.490392691071527"><ele>663.0</ele><time>2026-04-08T16:05:00.999Z</time></trkpt><trkpt lat="43.41732353342386" lon="11.490244566765153"><ele>663.0</ele><time>2026-04-08T16:05:01.999Z</time></trkpt><trkpt lat="43.41725711646759" lon="11.490127710473168"><ele>665.4</ele><time>2026-04-08T16:05:02.999Z</time></trkpt><trkpt lat="43.41717327729669" lon="11.49005357775437"><ele>667.8</ele><time>2026-04-08T16:05:03.999Z</time></trkpt><trkpt lat="43.4170834258575" lon="11.490040398409548"><ele>670.2</ele><time>2026-04-08T16:05:04.999Z</time></trkpt><trkpt lat="43.41698938119467" lon="11.490089856496434"><ele>672.6</ele><time>2026-04-08T16:05:05.999Z</time></trkpt><trkpt lat="43.41690074668656" lon="11.490192024141745"><ele>675.0</ele><time>2026-04-08T16:05:06.999Z</time></trkpt><trkpt lat="43.416825284883494" lon="11.490314744124307"><ele>674.2</ele><time>2026-04-08T16:05:07.999Z</time></trkpt><trkpt lat="43.416747120950035" lon="11.49042536211773"><ele>673.4</ele><time>2026-04-08T16:05:08.999Z</time></trkpt><trkpt lat="43.41667137803161" lon="11.490499856962208"><ele>672.5999999999999</ele><time>2026-04-08T16:05:09.999Z</time></trkpt><trkpt lat="43.41657380582257" lon="11.490536046301136"><ele>671.8</ele><time>2026-04-08T16:05:10.999Z</time></trkpt><trkpt lat="43.416445375707376" lon="11.490552967729288"><ele>671.0</ele><time>2026-04-08T16:05:11.999Z</time></trkpt><trkpt lat="43.416308553998896" lon="11.490532601179352"><ele>671.0</ele><time>2026-04-08T16:05:12.999Z</time></trkpt><trkpt lat="43.416198498745" lon="11.490501133107383"><ele>671.0</ele><time>2026-04-08T16:05:13.999Z</time></trkpt><trkpt lat="43.416105468931335" lon="11.490550056821817"><ele>671.0</ele><time>2026-04-08T16:05:14.999Z</time></trkpt><trkpt lat="43.4160259606812" lon="11.490666432930519"><ele>671.0</ele><time>2026-04-08T16:05:15.999Z</time></trkpt><trkpt lat="43.41595530570038" lon="11.49084918276313"><ele>671.0</ele><time>2026-04-08T16:05:16.999Z</time></trkpt><trkpt lat="43.415898852351596" lon="11.49104278911519"><ele>671.0</ele><time>2026-04-08T16:05:17.999Z</time></trkpt><trkpt lat="43.41585435616233" lon="11.49120927875903"><ele>671.0</ele><time>2026-04-08T16:05:18.999Z</time></trkpt><trkpt lat="43.41580930798255" lon="11.49134915458984"><ele>671.0</ele><time>2026-04-08T16:05:19.999Z</time></trkpt><trkpt lat="43.415750491335125" lon="11.491450391259376"><ele>667.0</ele><time>2026-04-08T16:05:20.999Z</time></trkpt><trkpt lat="43.41568010459434" lon="11.491510444525646"><ele>663.0</ele><time>2026-04-08T16:05:21.999Z</time></trkpt><trkpt lat="43.415594647234016" lon="11.491523070354479"><ele>659.0</ele><time>2026-04-08T16:05:22.999Z</time></trkpt><trkpt lat="43.415493342727466" lon="11.491476288031219"><ele>655.0</ele><time>2026-04-08T16:05:23.998Z</time></trkpt><trkpt lat="43.41537580886316" lon="11.491389986923965"><ele>651.0</ele><time>2026-04-08T16:05:24.998Z</time></trkpt><trkpt lat="43.41525300049911" lon="11.4912884482487"><ele>650.0</ele><time>2026-04-08T16:05:25.998Z</time></trkpt><trkpt lat="43.41512608877372" lon="11.491224119860476"><ele>649.0</ele><time>2026-04-08T16:05:26.998Z</time></trkpt><trkpt lat="43.41498855747366" lon="11.491213531776447"><ele>648.0</ele><time>2026-04-08T16:05:27.998Z</time></trkpt><trkpt lat="43.4148609897351" lon="11.491249992594438"><ele>647.0</ele><time>2026-04-08T16:05:28.998Z</time></trkpt><trkpt lat="43.41475774858628" lon="11.491265652497816"><ele>646.0</ele><time>2026-04-08T16:05:29.998Z</time></trkpt><trkpt lat="43.41466948694501" lon="11.491218799329655"><ele>645.0</ele><time>2026-04-08T16:05:30.998Z</time></trkpt><trkpt lat="43.41458946850376" lon="11.491102949654604"><ele>644.0</ele><time>2026-04-08T16:05:31.998Z</time></trkpt><trkpt lat="43.41449808258924" lon="11.490947639925192"><ele>643.0</ele><time>2026-04-08T16:05:32.998Z</time></trkpt><trkpt lat="43.41439637940999" lon="11.490786306889849"><ele>643.0</ele><time>2026-04-08T16:05:33.998Z</time></trkpt><trkpt lat="43.414281647945046" lon="11.490675761396693"><ele>643.0</ele><time>2026-04-08T16:05:34.998Z</time></trkpt><trkpt lat="43.414153536510334" lon="11.490617306653366"><ele>643.0</ele><time>2026-04-08T16:05:35.998Z</time></trkpt><trkpt lat="43.41401860932403" lon="11.490608876919774"><ele>643.0</ele><time>2026-04-08T16:05:36.998Z</time></trkpt><trkpt lat="43.41388355580703" lon="11.490636615569018"><ele>642.75</ele><time>2026-04-08T16:05:37.998Z</time></trkpt><trkpt lat="43.413762181107884" lon="11.490726284692505"><ele>642.5</ele><time>2026-04-08T16:05:38.998Z</time></trkpt><trkpt lat="43.41367104354951" lon="11.49086010876336"><ele>642.25</ele><time>2026-04-08T16:05:39.998Z</time></trkpt><trkpt lat="43.41360590339158" lon="11.491045459736315"><ele>642.0</ele><time>2026-04-08T16:05:40.998Z</time></trkpt><trkpt lat="43.413544608124624" lon="11.491215375109768"><ele>641.0</ele><time>2026-04-08T16:05:41.998Z</time></trkpt><trkpt lat="43.413461432631586" lon="11.491363278344604"><ele>640.0</ele><time>2026-04-08T16:05:42.998Z</time></trkpt><trkpt lat="43.41334972767432" lon="11.491486064515195"><ele>639.0</ele><time>2026-04-08T16:05:43.998Z</time></trkpt><trkpt lat="43.413211429466834" lon="11.491586252331444"><ele>638.0</ele><time>2026-04-08T16:05:44.998Z</time></trkpt><trkpt lat="43.41308167968691" lon="11.491660260556245"><ele>637.25</ele><time>2026-04-08T16:05:45.998Z</time></trkpt><trkpt lat="43.4129566291803" lon="11.491730605617503"><ele>636.5</ele><time>2026-04-08T16:05:46.998Z</time></trkpt><trkpt lat="43.412824030376456" lon="11.491772753468473"><ele>635.75</ele><time>2026-04-08T16:05:47.998Z</time></trkpt><trkpt lat="43.41268655166381" lon="11.491748933087344"><ele>635.0</ele><time>2026-04-08T16:05:48.998Z</time></trkpt><trkpt lat="43.41254834908582" lon="11.491723762658829"><ele>635.0</ele><time>2026-04-08T16:05:49.998Z</time></trkpt><trkpt lat="43.412402913296724" lon="11.491659496163566"><ele>635.0</ele><time>2026-04-08T16:05:50.998Z</time></trkpt><trkpt lat="43.412270793942795" lon="11.491602100833"><ele>635.0</ele><time>2026-04-08T16:05:51.998Z</time></trkpt><trkpt lat="43.41214198895212" lon="11.491541175419684"><ele>635.0</ele><time>2026-04-08T16:05:52.998Z</time></trkpt><trkpt lat="43.41200966478816" lon="11.491455413565664"><ele>632.6666666666666</ele><time>2026-04-08T16:05:53.998Z</time></trkpt><trkpt lat="43.411877383824304" lon="11.49133954971973"><ele>630.3333333333334</ele><time>2026-04-08T16:05:54.998Z</time></trkpt><trkpt lat="43.41174515779875" lon="11.491212262344781"><ele>628.0</ele><time>2026-04-08T16:05:55.998Z</time></trkpt><trkpt lat="43.41161496948836" lon="11.49108812567285"><ele>628.0</ele><time>2026-04-08T16:05:56.998Z</time></trkpt><trkpt lat="43.411486320097254" lon="11.490956929860928"><ele>628.0</ele><time>2026-04-08T16:05:57.998Z</time></trkpt><trkpt lat="43.411366040889064" lon="11.490825135460168"><ele>628.0</ele><time>2026-04-08T16:05:58.998Z</time></trkpt><trkpt lat="43.41124747508126" lon="11.490669693565541"><ele>627.25</ele><time>2026-04-08T16:05:59.998Z</time></trkpt><trkpt lat="43.41114092288211" lon="11.490496370492666"><ele>626.5</ele><time>2026-04-08T16:06:01Z</time></trkpt><trkpt lat="43.411051633970835" lon="11.490327925397294"><ele>625.75</ele><time>2026-04-08T16:06:02Z</time></trkpt><trkpt lat="43.41096409788448" lon="11.490198305314049"><ele>625.0</ele><time>2026-04-08T16:06:03Z</time></trkpt><trkpt lat="43.410850151261954" lon="11.490098807542772"><ele>625.0</ele><time>2026-04-08T16:06:04Z</time></trkpt><trkpt lat="43.410691637147025" lon="11.490028270295149"><ele>625.0</ele><time>2026-04-08T16:06:05Z</time></trkpt><trkpt lat="43.41050245755587" lon="11.489968578843003"><ele>625.0</ele><time>2026-04-08T16:06:06Z</time></trkpt><trkpt lat="43.41030716676335" lon="11.489897854185521"><ele>623.3333333333334</ele><time>2026-04-08T16:06:07Z</time></trkpt><trkpt lat="43.41011742765659" lon="11.48980096738546"><ele>621.6666666666666</ele><time>2026-04-08T16:06:08Z</time></trkpt><trkpt lat="43.40994151864593" lon="11.489686248686992"><ele>620.0</ele><time>2026-04-08T16:06:09Z</time></trkpt><trkpt lat="43.40978511402442" lon="11.489556291751041"><ele>619.6666666666666</ele><time>2026-04-08T16:06:10Z</time></trkpt><trkpt lat="43.40963884038475" lon="11.489400638689956"><ele>619.3333333333334</ele><time>2026-04-08T16:06:11Z</time></trkpt><trkpt lat="43.40951146144844" lon="11.48922606965203"><ele>619.0</ele><time>2026-04-08T16:06:12Z</time></trkpt><trkpt lat="43.40939940308117" lon="11.489076746057426"><ele>619.0</ele><time>2026-04-08T16:06:13Z</time></trkpt><trkpt lat="43.40928450602884" lon="11.488990423654828"><ele>619.0</ele><time>2026-04-08T16:06:14Z</time></trkpt><trkpt lat="43.40914050702432" lon="11.48896014344141"><ele>619.0</ele><time>2026-04-08T16:06:15Z</time></trkpt><trkpt lat="43.40897973243994" lon="11.48898691011695"><ele>619.0</ele><time>2026-04-08T16:06:16Z</time></trkpt><trkpt lat="43.408802914699606" lon="11.48903912653596"><ele>618.0</ele><time>2026-04-08T16:06:17Z</time></trkpt><trkpt lat="43.40863494653983" lon="11.489049129217006"><ele>617.0</ele><time>2026-04-08T16:06:18Z</time></trkpt><trkpt lat="43.408490950219026" lon="11.48901807972419"><ele>616.0</ele><time>2026-04-08T16:06:19Z</time></trkpt><trkpt lat="43.40834466390652" lon="11.488950576375808"><ele>616.0</ele><time>2026-04-08T16:06:20Z</time></trkpt><trkpt lat="43.408198091788094" lon="11.488840956294707"><ele>616.0</ele><time>2026-04-08T16:06:21Z</time></trkpt><trkpt lat="43.40804778197974" lon="11.488730546087766"><ele>616.0</ele><time>2026-04-08T16:06:22Z</time></trkpt><trkpt lat="43.40792002458872" lon="11.488616383191422"><ele>621.75</ele><time>2026-04-08T16:06:23Z</time></trkpt><trkpt lat="43.40779895807686" lon="11.48856611392167"><ele>627.5</ele><time>2026-04-08T16:06:24Z</time></trkpt><trkpt lat="43.407677183782646" lon="11.488576442621376"><ele>633.25</ele><time>2026-04-08T16:06:25Z</time></trkpt><trkpt lat="43.40756280882907" lon="11.488634973235662"><ele>639.0</ele><time>2026-04-08T16:06:26Z</time></trkpt><trkpt lat="43.407465261620764" lon="11.48875708519248"><ele>635.25</ele><time>2026-04-08T16:06:27Z</time></trkpt><trkpt lat="43.40738401433797" lon="11.488910488151252"><ele>631.5</ele><time>2026-04-08T16:06:28Z</time></trkpt><trkpt lat="43.407306039396744" lon="11.48908242468435"><ele>627.75</ele><time>2026-04-08T16:06:29Z</time></trkpt><trkpt lat="43.4071978987262" lon="11.489171793066756"><ele>624.0</ele><time>2026-04-08T16:06:30Z</time></trkpt><trkpt lat="43.40709091997035" lon="11.489221088191004"><ele>624.0</ele><time>2026-04-08T16:06:30.999Z</time></trkpt><trkpt lat="43.40697021256966" lon="11.489241076031746"><ele>624.0</ele><time>2026-04-08T16:06:31.999Z</time></trkpt><trkpt lat="43.40684890599987" lon="11.489163062434164"><ele>624.0</ele><time>2026-04-08T16:06:32.999Z</time></trkpt><trkpt lat="43.40670617561466" lon="11.489073956872058"><ele>624.0</ele><time>2026-04-08T16:06:33.999Z</time></trkpt><trkpt lat="43.40656390655081" lon="11.488916955656112"><ele>625.6666666666666</ele><time>2026-04-08T16:06:34.999Z</time></trkpt><trkpt lat="43.40642512772008" lon="11.488744258005623"><ele>627.3333333333333</ele><time>2026-04-08T16:06:35.999Z</time></trkpt><trkpt lat="43.40628499760087" lon="11.488561343639873"><ele>629.0</ele><time>2026-04-08T16:06:36.999Z</time></trkpt><trkpt lat="43.40613467200996" lon="11.488355391209828"><ele>629.0</ele><time>2026-04-08T16:06:37.999Z</time></trkpt><trkpt lat="43.40599412738858" lon="11.488182505908533"><ele>629.0</ele><time>2026-04-08T16:06:38.999Z</time></trkpt><trkpt lat="43.40586970581804" lon="11.488041616139832"><ele>629.0</ele><time>2026-04-08T16:06:39.999Z</time></trkpt><trkpt lat="43.40574680909097" lon="11.487954998618799"><ele>629.0</ele><time>2026-04-08T16:06:40.999Z</time></trkpt><trkpt lat="43.405619682926115" lon="11.487931083586872"><ele>629.0</ele><time>2026-04-08T16:06:41.999Z</time></trkpt><trkpt lat="43.40548373701715" lon="11.48796373584064"><ele>629.0</ele><time>2026-04-08T16:06:42.999Z</time></trkpt><trkpt lat="43.4053463629743" lon="11.48802777280199"><ele>629.0</ele><time>2026-04-08T16:06:43.999Z</time></trkpt><trkpt lat="43.405229698071906" lon="11.48810237867793"><ele>627.75</ele><time>2026-04-08T16:06:44.999Z</time></trkpt><trkpt lat="43.405108721757856" lon="11.488192628102054"><ele>626.5</ele><time>2026-04-08T16:06:45.999Z</time></trkpt><trkpt lat="43.404987898892976" lon="11.488312612894786"><ele>625.25</ele><time>2026-04-08T16:06:46.999Z</time></trkpt><trkpt lat="43.4048770639326" lon="11.488456589600522"><ele>624.0</ele><time>2026-04-08T16:06:47.999Z</time></trkpt><trkpt lat="43.40474251490509" lon="11.48861782150992"><ele>623.6666666666666</ele><time>2026-04-08T16:06:48.999Z</time></trkpt><trkpt lat="43.40458763549228" lon="11.48877441724513"><ele>623.3333333333333</ele><time>2026-04-08T16:06:49.999Z</time></trkpt><trkpt lat="43.40443220529144" lon="11.488928573429925"><ele>623.0</ele><time>2026-04-08T16:06:50.999Z</time></trkpt><trkpt lat="43.40425771507456" lon="11.48910169425111"><ele>623.0</ele><time>2026-04-08T16:06:51.999Z</time></trkpt><trkpt lat="43.40406861789705" lon="11.4892892272112"><ele>623.0</ele><time>2026-04-08T16:06:52.999Z</time></trkpt><trkpt lat="43.40387199343055" lon="11.489488966431567"><ele>622.0</ele><time>2026-04-08T16:06:53.999Z</time></trkpt><trkpt lat="43.40367235369535" lon="11.489693713769944"><ele>621.0</ele><time>2026-04-08T16:06:54.999Z</time></trkpt><trkpt lat="43.40348212810443" lon="11.489889356594308"><ele>621.0</ele><time>2026-04-08T16:06:55.999Z</time></trkpt><trkpt lat="43.40328837797268" lon="11.490071619825134"><ele>621.0</ele><time>2026-04-08T16:06:56.999Z</time></trkpt><trkpt lat="43.40311093056503" lon="11.490253654820737"><ele>620.6666666666666</ele><time>2026-04-08T16:06:57.999Z</time></trkpt><trkpt lat="43.402948791376815" lon="11.490422024834105"><ele>620.3333333333333</ele><time>2026-04-08T16:06:58.999Z</time></trkpt><trkpt lat="43.40280332603923" lon="11.490587612688127"><ele>620.0</ele><time>2026-04-08T16:06:59.999Z</time></trkpt><trkpt lat="43.402676136073104" lon="11.49076015889935"><ele>620.0</ele><time>2026-04-08T16:07:00.999Z</time></trkpt><trkpt lat="43.4025717847358" lon="11.490957611282548"><ele>620.0</ele><time>2026-04-08T16:07:01.999Z</time></trkpt><trkpt lat="43.40247698377524" lon="11.491186677808328"><ele>620.0</ele><time>2026-04-08T16:07:02.999Z</time></trkpt><trkpt lat="43.40240204775527" lon="11.491438651052016"><ele>619.0</ele><time>2026-04-08T16:07:03.999Z</time></trkpt><trkpt lat="43.4023535876154" lon="11.49168549520944"><ele>618.0</ele><time>2026-04-08T16:07:04.999Z</time></trkpt><trkpt lat="43.40228294504508" lon="11.491902612358992"><ele>617.0</ele><time>2026-04-08T16:07:05.999Z</time></trkpt><trkpt lat="43.402210025697116" lon="11.492100762183155"><ele>620.0</ele><time>2026-04-08T16:07:06.999Z</time></trkpt><trkpt lat="43.40212241239741" lon="11.492301187337551"><ele>623.0</ele><time>2026-04-08T16:07:07.999Z</time></trkpt><trkpt lat="43.40199452877699" lon="11.492488240554978"><ele>626.0</ele><time>2026-04-08T16:07:08.999Z</time></trkpt><trkpt lat="43.40187384586468" lon="11.492676779531136"><ele>626.0</ele><time>2026-04-08T16:07:09.999Z</time></trkpt><trkpt lat="43.40178522494939" lon="11.492893235645068"><ele>626.0</ele><time>2026-04-08T16:07:10.999Z</time></trkpt><trkpt lat="43.4017170711557" lon="11.49309531897042"><ele>626.0</ele><time>2026-04-08T16:07:11.999Z</time></trkpt><trkpt lat="43.401649857977944" lon="11.493228482481975"><ele>625.0</ele><time>2026-04-08T16:07:12.999Z</time></trkpt><trkpt lat="43.401566638531484" lon="11.493315450711187"><ele>624.0</ele><time>2026-04-08T16:07:13.999Z</time></trkpt><trkpt lat="43.40147254286139" lon="11.493342587392519"><ele>623.0</ele><time>2026-04-08T16:07:14.999Z</time></trkpt><trkpt lat="43.401356787113855" lon="11.493340040779579"><ele>622.0</ele><time>2026-04-08T16:07:15.999Z</time></trkpt><trkpt lat="43.40121702363254" lon="11.49334101411521"><ele>622.0</ele><time>2026-04-08T16:07:16.999Z</time></trkpt><trkpt lat="43.401076692011266" lon="11.493366326245773"><ele>622.0</ele><time>2026-04-08T16:07:17.999Z</time></trkpt><trkpt lat="43.40096584436907" lon="11.493413388891254"><ele>622.0</ele><time>2026-04-08T16:07:18.999Z</time></trkpt><trkpt lat="43.40088631651698" lon="11.493493807882745"><ele>622.0</ele><time>2026-04-08T16:07:19.999Z</time></trkpt><trkpt lat="43.40082003096155" lon="11.493626927494859"><ele>620.5</ele><time>2026-04-08T16:07:20.999Z</time></trkpt><trkpt lat="43.40078175719319" lon="11.493812682192454"><ele>619.0</ele><time>2026-04-08T16:07:21.999Z</time></trkpt><trkpt lat="43.40077988333428" lon="11.494004951963928"><ele>617.5</ele><time>2026-04-08T16:07:22.999Z</time></trkpt><trkpt lat="43.400818903160996" lon="11.494201331041674"><ele>616.0</ele><time>2026-04-08T16:07:23.999Z</time></trkpt><trkpt lat="43.400850230310766" lon="11.494357651575303"><ele>616.0</ele><time>2026-04-08T16:07:24.999Z</time></trkpt><trkpt lat="43.400824461523804" lon="11.494489707105718"><ele>616.0</ele><time>2026-04-08T16:07:25.999Z</time></trkpt><trkpt lat="43.400788261525335" lon="11.494623898235892"><ele>616.0</ele><time>2026-04-08T16:07:26.998Z</time></trkpt><trkpt lat="43.40071022489073" lon="11.49475419135011"><ele>616.0</ele><time>2026-04-08T16:07:27.998Z</time></trkpt><trkpt lat="43.40060880562124" lon="11.49486589049132"><ele>614.0</ele><time>2026-04-08T16:07:28.998Z</time></trkpt><trkpt lat="43.4005066021297" lon="11.494934454711572"><ele>612.0</ele><time>2026-04-08T16:07:29.998Z</time></trkpt><trkpt lat="43.4004033545393" lon="11.494938154510205"><ele>610.0</ele><time>2026-04-08T16:07:30.998Z</time></trkpt><trkpt lat="43.40028631803077" lon="11.494883996670188"><ele>608.0</ele><time>2026-04-08T16:07:31.998Z</time></trkpt><trkpt lat="43.40015190539644" lon="11.494802245126317"><ele>605.6666666666666</ele><time>2026-04-08T16:07:32.998Z</time></trkpt><trkpt lat="43.39998936336101" lon="11.49472023517298"><ele>603.3333333333334</ele><time>2026-04-08T16:07:33.998Z</time></trkpt><trkpt lat="43.39982178503816" lon="11.494661513895721"><ele>601.0</ele><time>2026-04-08T16:07:34.998Z</time></trkpt><trkpt lat="43.399663026395615" lon="11.494607294075706"><ele>596.6666666666667</ele><time>2026-04-08T16:07:35.998Z</time></trkpt><trkpt lat="43.39952472215969" lon="11.494536776941993"><ele>592.3333333333334</ele><time>2026-04-08T16:07:36.998Z</time></trkpt><trkpt lat="43.39939629984169" lon="11.494418243541793"><ele>588.0</ele><time>2026-04-08T16:07:37.998Z</time></trkpt><trkpt lat="43.399276533357124" lon="11.494262413337617"><ele>588.0</ele><time>2026-04-08T16:07:38.998Z</time></trkpt><trkpt lat="43.39916887529465" lon="11.494082495423168"><ele>588.0</ele><time>2026-04-08T16:07:39.998Z</time></trkpt><trkpt lat="43.39907203297306" lon="11.49391441541886"><ele>588.0</ele><time>2026-04-08T16:07:40.998Z</time></trkpt><trkpt lat="43.39899496420357" lon="11.493759349182524"><ele>588.3333333333334</ele><time>2026-04-08T16:07:41.998Z</time></trkpt><trkpt lat="43.39894590992261" lon="11.493630800989681"><ele>588.6666666666666</ele><time>2026-04-08T16:07:42.998Z</time></trkpt><trkpt lat="43.39890728343787" lon="11.493526133641792"><ele>589.0</ele><time>2026-04-08T16:07:43.998Z</time></trkpt><trkpt lat="43.39884937748915" lon="11.493453298703784"><ele>589.3333333333333</ele><time>2026-04-08T16:07:44.998Z</time></trkpt><trkpt lat="43.398776448085286" lon="11.493437927992042"><ele>589.6666666666666</ele><time>2026-04-08T16:07:45.998Z</time></trkpt><trkpt lat="43.398705124590236" lon="11.493469849420581"><ele>590.0</ele><time>2026-04-08T16:07:46.998Z</time></trkpt><trkpt lat="43.39865188531733" lon="11.493554303944524"><ele>585.8</ele><time>2026-04-08T16:07:47.998Z</time></trkpt><trkpt lat="43.398601486946774" lon="11.493681511139082"><ele>581.6</ele><time>2026-04-08T16:07:48.998Z</time></trkpt><trkpt lat="43.398554664895705" lon="11.493795930176484"><ele>577.4</ele><time>2026-04-08T16:07:49.998Z</time></trkpt><trkpt lat="43.39849829605612" lon="11.49390120790426"><ele>573.2</ele><time>2026-04-08T16:07:50.998Z</time></trkpt><trkpt lat="43.39841536130227" lon="11.493986104528156"><ele>569.0</ele><time>2026-04-08T16:07:51.998Z</time></trkpt><trkpt lat="43.3982997752271" lon="11.494037705007527"><ele>569.0</ele><time>2026-04-08T16:07:52.998Z</time></trkpt><trkpt lat="43.39814288056787" lon="11.494058860736324"><ele>569.0</ele><time>2026-04-08T16:07:53.998Z</time></trkpt><trkpt lat="43.39798394746714" lon="11.49407974733872"><ele>569.0</ele><time>2026-04-08T16:07:54.998Z</time></trkpt><trkpt lat="43.39786395292415" lon="11.494087790334968"><ele>569.0</ele><time>2026-04-08T16:07:55.998Z</time></trkpt><trkpt lat="43.39769409872339" lon="11.494098687290625"><ele>566.0</ele><time>2026-04-08T16:07:56.998Z</time></trkpt><trkpt lat="43.39753262604874" lon="11.494097202997583"><ele>563.0</ele><time>2026-04-08T16:07:57.998Z</time></trkpt><trkpt lat="43.39737694719459" lon="11.494096285953264"><ele>560.0</ele><time>2026-04-08T16:07:58.998Z</time></trkpt><trkpt lat="43.39722632305833" lon="11.494099378634365"><ele>556.6666666666666</ele><time>2026-04-08T16:07:59.998Z</time></trkpt><trkpt lat="43.3970693834874" lon="11.49411869439518"><ele>553.3333333333334</ele><time>2026-04-08T16:08:00.998Z</time></trkpt><trkpt lat="43.39690625476542" lon="11.494160764747631"><ele>550.0</ele><time>2026-04-08T16:08:01.998Z</time></trkpt><trkpt lat="43.39674542170361" lon="11.494219556176501"><ele>550.0</ele><time>2026-04-08T16:08:02.998Z</time></trkpt><trkpt lat="43.39658685693868" lon="11.494258780952752"><ele>550.0</ele><time>2026-04-08T16:08:03.998Z</time></trkpt><trkpt lat="43.396429244341675" lon="11.494259665162723"><ele>550.0</ele><time>2026-04-08T16:08:04.998Z</time></trkpt><trkpt lat="43.39626781285238" lon="11.494242836105421"><ele>547.0</ele><time>2026-04-08T16:08:05.998Z</time></trkpt><trkpt lat="43.396096780016904" lon="11.494212883762"><ele>544.0</ele><time>2026-04-08T16:08:07Z</time></trkpt><trkpt lat="43.39591561990941" lon="11.494192723822742"><ele>541.0</ele><time>2026-04-08T16:08:08Z</time></trkpt><trkpt lat="43.3957441866176" lon="11.494155274910298"><ele>541.0</ele><time>2026-04-08T16:08:09Z</time></trkpt><trkpt lat="43.39557479726936" lon="11.494116392701207"><ele>541.0</ele><time>2026-04-08T16:08:10Z</time></trkpt><trkpt lat="43.39540216153095" lon="11.49407471391602"><ele>541.0</ele><time>2026-04-08T16:08:11Z</time></trkpt><trkpt lat="43.395230648335215" lon="11.494043573659173"><ele>537.6666666666667</ele><time>2026-04-08T16:08:12Z</time></trkpt><trkpt lat="43.395055349751075" lon="11.494036902017054"><ele>534.3333333333334</ele><time>2026-04-08T16:08:13Z</time></trkpt><trkpt lat="43.394887094366325" lon="11.494068909277052"><ele>531.0</ele><time>2026-04-08T16:08:14Z</time></trkpt><trkpt lat="43.39472320123606" lon="11.494138437215362"><ele>527.3333333333334</ele><time>2026-04-08T16:08:15Z</time></trkpt><trkpt lat="43.39455503970948" lon="11.49424108383699"><ele>523.6666666666667</ele><time>2026-04-08T16:08:16Z</time></trkpt><trkpt lat="43.39436970078977" lon="11.494362805602005"><ele>520.0</ele><time>2026-04-08T16:08:17Z</time></trkpt><trkpt lat="43.39419976644257" lon="11.494483079484478"><ele>519.3333333333334</ele><time>2026-04-08T16:08:18Z</time></trkpt><trkpt lat="43.3940374226473" lon="11.494592432305108"><ele>518.6666666666666</ele><time>2026-04-08T16:08:19Z</time></trkpt><trkpt lat="43.393883934274996" lon="11.494702875340863"><ele>518.0</ele><time>2026-04-08T16:08:20Z</time></trkpt><trkpt lat="43.39375180118928" lon="11.494831972362272"><ele>518.0</ele><time>2026-04-08T16:08:21Z</time></trkpt><trkpt lat="43.393658108813774" lon="11.495005814191584"><ele>518.0</ele><time>2026-04-08T16:08:22Z</time></trkpt><trkpt lat="43.39356712022711" lon="11.495225082500236"><ele>518.0</ele><time>2026-04-08T16:08:23Z</time></trkpt><trkpt lat="43.393476124019735" lon="11.495450767451457"><ele>518.0</ele><time>2026-04-08T16:08:24Z</time></trkpt><trkpt lat="43.39338238966757" lon="11.495654616719218"><ele>518.0</ele><time>2026-04-08T16:08:25Z</time></trkpt><trkpt lat="43.39326688687005" lon="11.495827643121348"><ele>518.0</ele><time>2026-04-08T16:08:26Z</time></trkpt><trkpt lat="43.39315992267482" lon="11.496030158109557"><ele>518.0</ele><time>2026-04-08T16:08:27Z</time></trkpt><trkpt lat="43.39304560119427" lon="11.496203956666667"><ele>518.0</ele><time>2026-04-08T16:08:28Z</time></trkpt><trkpt lat="43.39293908025607" lon="11.496358755877344"><ele>518.0</ele><time>2026-04-08T16:08:29Z</time></trkpt><trkpt lat="43.392854994388365" lon="11.496480995005719"><ele>518.0</ele><time>2026-04-08T16:08:30Z</time></trkpt><trkpt lat="43.39275175144598" lon="11.496587110483762"><ele>516.25</ele><time>2026-04-08T16:08:31Z</time></trkpt><trkpt lat="43.39262172405682" lon="11.496683870148498"><ele>514.5</ele><time>2026-04-08T16:08:32Z</time></trkpt><trkpt lat="43.3924819598435" lon="11.496775844677552"><ele>512.75</ele><time>2026-04-08T16:08:33Z</time></trkpt><trkpt lat="43.39236191966739" lon="11.496865849831602"><ele>511.0</ele><time>2026-04-08T16:08:34Z</time></trkpt><trkpt lat="43.392258732960194" lon="11.496977165675004"><ele>509.5</ele><time>2026-04-08T16:08:34.999Z</time></trkpt><trkpt lat="43.392177206877136" lon="11.497103822909338"><ele>508.0</ele><time>2026-04-08T16:08:35.999Z</time></trkpt><trkpt lat="43.39209298479455" lon="11.49720228501058"><ele>506.5</ele><time>2026-04-08T16:08:36.999Z</time></trkpt><trkpt lat="43.39199006927271" lon="11.497278142484978"><ele>505.0</ele><time>2026-04-08T16:08:37.999Z</time></trkpt><trkpt lat="43.39184249688097" lon="11.497339815527376"><ele>503.0</ele><time>2026-04-08T16:08:38.999Z</time></trkpt><trkpt lat="43.39168753952278" lon="11.497384319646066"><ele>501.0</ele><time>2026-04-08T16:08:39.999Z</time></trkpt><trkpt lat="43.391541330810895" lon="11.497413531910349"><ele>499.0</ele><time>2026-04-08T16:08:40.999Z</time></trkpt><trkpt lat="43.39139338969575" lon="11.49741464388264"><ele>496.0</ele><time>2026-04-08T16:08:41.999Z</time></trkpt><trkpt lat="43.39127181427143" lon="11.497406247093616"><ele>493.0</ele><time>2026-04-08T16:08:42.999Z</time></trkpt><trkpt lat="43.39117224160246" lon="11.49741732182848"><ele>490.0</ele><time>2026-04-08T16:08:43.999Z</time></trkpt><trkpt lat="43.391066611535685" lon="11.49748303766489"><ele>487.0</ele><time>2026-04-08T16:08:44.999Z</time></trkpt><trkpt lat="43.390947334657895" lon="11.497609109220662"><ele>487.0</ele><time>2026-04-08T16:08:45.999Z</time></trkpt><trkpt lat="43.39082314694889" lon="11.497730162107523"><ele>487.0</ele><time>2026-04-08T16:08:46.999Z</time></trkpt><trkpt lat="43.390688308087896" lon="11.49781266481039"><ele>487.0</ele><time>2026-04-08T16:08:47.999Z</time></trkpt><trkpt lat="43.390538477631736" lon="11.497849766380112"><ele>483.6666666666667</ele><time>2026-04-08T16:08:48.999Z</time></trkpt><trkpt lat="43.39039504812931" lon="11.497909979595303"><ele>480.33333333333337</ele><time>2026-04-08T16:08:49.999Z</time></trkpt><trkpt lat="43.390243874589174" lon="11.497935222440518"><ele>477.0</ele><time>2026-04-08T16:08:50.999Z</time></trkpt><trkpt lat="43.39009114143067" lon="11.497937124757254"><ele>477.0</ele><time>2026-04-08T16:08:51.999Z</time></trkpt><trkpt lat="43.38994267868223" lon="11.497928156635"><ele>477.0</ele><time>2026-04-08T16:08:52.999Z</time></trkpt><trkpt lat="43.38978708035526" lon="11.497922894751824"><ele>477.0</ele><time>2026-04-08T16:08:53.999Z</time></trkpt><trkpt lat="43.389635977407885" lon="11.497926238738977"><ele>475.0</ele><time>2026-04-08T16:08:54.999Z</time></trkpt><trkpt lat="43.38948802880146" lon="11.497933727465009"><ele>473.0</ele><time>2026-04-08T16:08:55.999Z</time></trkpt><trkpt lat="43.38934090156434" lon="11.49793034602733"><ele>471.0</ele><time>2026-04-08T16:08:56.999Z</time></trkpt><trkpt lat="43.38920077810801" lon="11.497910510018528"><ele>469.0</ele><time>2026-04-08T16:08:57.999Z</time></trkpt><trkpt lat="43.38905780455086" lon="11.497877327489997"><ele>468.79999999999995</ele><time>2026-04-08T16:08:58.999Z</time></trkpt><trkpt lat="43.388937771277135" lon="11.497860287313317"><ele>468.59999999999997</ele><time>2026-04-08T16:08:59.999Z</time></trkpt><trkpt lat="43.38883329720218" lon="11.497847785158786"><ele>468.4</ele><time>2026-04-08T16:09:00.999Z</time></trkpt><trkpt lat="43.38873258122458" lon="11.497866212714449"><ele>468.2</ele><time>2026-04-08T16:09:01.999Z</time></trkpt><trkpt lat="43.3886325444823" lon="11.497908523683696"><ele>468.0</ele><time>2026-04-08T16:09:02.999Z</time></trkpt><trkpt lat="43.38854320109884" lon="11.4979203361835"><ele>466.79999999999995</ele><time>2026-04-08T16:09:03.999Z</time></trkpt><trkpt lat="43.388458180955794" lon="11.497875342465594"><ele>465.59999999999997</ele><time>2026-04-08T16:09:04.999Z</time></trkpt><trkpt lat="43.38837618961672" lon="11.497783816900855"><ele>464.40000000000003</ele><time>2026-04-08T16:09:05.999Z</time></trkpt><trkpt lat="43.388277224474024" lon="11.497699016451566"><ele>463.20000000000005</ele><time>2026-04-08T16:09:06.999Z</time></trkpt><trkpt lat="43.38817737555988" lon="11.497639064412805"><ele>462.0</ele><time>2026-04-08T16:09:07.999Z</time></trkpt><trkpt lat="43.38810127330085" lon="11.497592029544004"><ele>462.0</ele><time>2026-04-08T16:09:08.999Z</time></trkpt><trkpt lat="43.388035659718255" lon="11.497526467481551"><ele>462.00000000000006</ele><time>2026-04-08T16:09:09.999Z</time></trkpt><trkpt lat="43.38798275014212" lon="11.497431938601737"><ele>462.00000000000006</ele><time>2026-04-08T16:09:10.999Z</time></trkpt><trkpt lat="43.38794999732137" lon="11.497303260931805"><ele>462.0</ele><time>2026-04-08T16:09:11.999Z</time></trkpt><trkpt lat="43.387967266842594" lon="11.497112856047282"><ele>462.0</ele><time>2026-04-08T16:09:12.999Z</time></trkpt><trkpt lat="43.38797135441971" lon="11.496934807337485"><ele>458.5</ele><time>2026-04-08T16:09:13.999Z</time></trkpt><trkpt lat="43.38796036668909" lon="11.496771094284252"><ele>455.0</ele><time>2026-04-08T16:09:14.999Z</time></trkpt><trkpt lat="43.387924790396724" lon="11.496627193351419"><ele>451.5</ele><time>2026-04-08T16:09:15.999Z</time></trkpt><trkpt lat="43.38784620466652" lon="11.496497058367119"><ele>448.0</ele><time>2026-04-08T16:09:16.999Z</time></trkpt><trkpt lat="43.387732508292224" lon="11.49636544434378"><ele>448.0</ele><time>2026-04-08T16:09:17.999Z</time></trkpt><trkpt lat="43.387595957672964" lon="11.496236282316973"><ele>448.0</ele><time>2026-04-08T16:09:18.999Z</time></trkpt><trkpt lat="43.38743346306364" lon="11.49609246886245"><ele>448.0</ele><time>2026-04-08T16:09:19.999Z</time></trkpt><trkpt lat="43.38727893341937" lon="11.49594327247293"><ele>444.33333333333337</ele><time>2026-04-08T16:09:20.999Z</time></trkpt><trkpt lat="43.387135078822176" lon="11.49580353794797"><ele>440.66666666666663</ele><time>2026-04-08T16:09:21.999Z</time></trkpt><trkpt lat="43.386997344726915" lon="11.495666308965307"><ele>437.0</ele><time>2026-04-08T16:09:22.999Z</time></trkpt><trkpt lat="43.38687500939271" lon="11.495547528953201"><ele>437.0</ele><time>2026-04-08T16:09:23.999Z</time></trkpt><trkpt lat="43.386769941244786" lon="11.495454705163825"><ele>437.0</ele><time>2026-04-08T16:09:24.999Z</time></trkpt><trkpt lat="43.386670602734974" lon="11.495378934119673"><ele>437.0</ele><time>2026-04-08T16:09:25.999Z</time></trkpt><trkpt lat="43.386563287132496" lon="11.495335860687934"><ele>437.0</ele><time>2026-04-08T16:09:26.999Z</time></trkpt><trkpt lat="43.386433046512174" lon="11.49532423238536"><ele>435.0</ele><time>2026-04-08T16:09:27.999Z</time></trkpt><trkpt lat="43.38626946319387" lon="11.49535545462353"><ele>433.0</ele><time>2026-04-08T16:09:28.999Z</time></trkpt><trkpt lat="43.38608481968493" lon="11.49539985945902"><ele>431.0</ele><time>2026-04-08T16:09:29.998Z</time></trkpt><trkpt lat="43.38588899773851" lon="11.49544948305188"><ele>431.0</ele><time>2026-04-08T16:09:30.998Z</time></trkpt><trkpt lat="43.38568737251769" lon="11.49549168054114"><ele>431.0</ele><time>2026-04-08T16:09:31.998Z</time></trkpt><trkpt lat="43.3854681703563" lon="11.495541140679423"><ele>431.0</ele><time>2026-04-08T16:09:32.998Z</time></trkpt><trkpt lat="43.38526625567556" lon="11.495590715590136"><ele>428.3333333333333</ele><time>2026-04-08T16:09:33.998Z</time></trkpt><trkpt lat="43.385065806690676" lon="11.49563061076812"><ele>425.66666666666663</ele><time>2026-04-08T16:09:34.998Z</time></trkpt><trkpt lat="43.3848723315182" lon="11.495668769948612"><ele>423.0</ele><time>2026-04-08T16:09:35.998Z</time></trkpt><trkpt lat="43.38467820386677" lon="11.495713948804767"><ele>421.33333333333337</ele><time>2026-04-08T16:09:36.998Z</time></trkpt><trkpt lat="43.384494441886915" lon="11.495751999792974"><ele>419.6666666666667</ele><time>2026-04-08T16:09:37.998Z</time></trkpt><trkpt lat="43.38430929886648" lon="11.495792299113752"><ele>418.0</ele><time>2026-04-08T16:09:38.998Z</time></trkpt><trkpt lat="43.38412465525319" lon="11.495829375289526"><ele>418.0</ele><time>2026-04-08T16:09:39.998Z</time></trkpt><trkpt lat="43.383942606091146" lon="11.495864964007808"><ele>418.0</ele><time>2026-04-08T16:09:40.998Z</time></trkpt><trkpt lat="43.38375993313523" lon="11.495902000919543"><ele>418.0</ele><time>2026-04-08T16:09:41.998Z</time></trkpt><trkpt lat="43.383586265067386" lon="11.495943634974328"><ele>417.0</ele><time>2026-04-08T16:09:42.998Z</time></trkpt><trkpt lat="43.38341981610058" lon="11.49597648325702"><ele>416.0</ele><time>2026-04-08T16:09:43.998Z</time></trkpt><trkpt lat="43.38327466166728" lon="11.495997645030485"><ele>415.0</ele><time>2026-04-08T16:09:44.998Z</time></trkpt><trkpt lat="43.38315685655908" lon="11.49599417886106"><ele>414.0</ele><time>2026-04-08T16:09:45.998Z</time></trkpt><trkpt lat="43.38303861361799" lon="11.495968267915346"><ele>413.66666666666663</ele><time>2026-04-08T16:09:46.998Z</time></trkpt><trkpt lat="43.38291638815602" lon="11.495899167426526"><ele>413.3333333333333</ele><time>2026-04-08T16:09:47.998Z</time></trkpt><trkpt lat="43.38279104082783" lon="11.495776893085484"><ele>413.0</ele><time>2026-04-08T16:09:48.998Z</time></trkpt><trkpt lat="43.38265969638524" lon="11.49562538177784"><ele>413.0</ele><time>2026-04-08T16:09:49.998Z</time></trkpt><trkpt lat="43.38253867269869" lon="11.495492494866895"><ele>413.0</ele><time>2026-04-08T16:09:50.998Z</time></trkpt><trkpt lat="43.38244879452494" lon="11.49539843735116"><ele>413.0</ele><time>2026-04-08T16:09:51.998Z</time></trkpt><trkpt lat="43.38238042140497" lon="11.495329260261899"><ele>413.0</ele><time>2026-04-08T16:09:52.998Z</time></trkpt><trkpt lat="43.38229872002096" lon="11.49523386708964"><ele>411.59999999999997</ele><time>2026-04-08T16:09:54.998Z</time></trkpt><trkpt lat="43.382254241771086" lon="11.495156057051314"><ele>410.2</ele><time>2026-04-08T16:09:55.998Z</time></trkpt><trkpt lat="43.3821774049695" lon="11.495066429016186"><ele>408.8</ele><time>2026-04-08T16:09:56.998Z</time></trkpt><trkpt lat="43.382037155703316" lon="11.495048882258828"><ele>407.4</ele><time>2026-04-08T16:09:57.998Z</time></trkpt><trkpt lat="43.38193337058488" lon="11.49495837099719"><ele>406.0</ele><time>2026-04-08T16:09:58.998Z</time></trkpt><trkpt lat="43.381811256864935" lon="11.494811709732778"><ele>406.0</ele><time>2026-04-08T16:09:59.998Z</time></trkpt><trkpt lat="43.3816586003361" lon="11.494659399220684"><ele>406.0</ele><time>2026-04-08T16:10:00.998Z</time></trkpt><trkpt lat="43.381501195204535" lon="11.494484284419622"><ele>406.0</ele><time>2026-04-08T16:10:01.998Z</time></trkpt><trkpt lat="43.38132522449365" lon="11.49431972194949"><ele>402.5</ele><time>2026-04-08T16:10:02.998Z</time></trkpt><trkpt lat="43.38114044336044" lon="11.494148454695205"><ele>399.0</ele><time>2026-04-08T16:10:03.998Z</time></trkpt><trkpt lat="43.38094484473881" lon="11.493989828109665"><ele>399.0</ele><time>2026-04-08T16:10:04.998Z</time></trkpt><trkpt lat="43.38076070858963" lon="11.493783892170084"><ele>399.0</ele><time>2026-04-08T16:10:05.998Z</time></trkpt><trkpt lat="43.380569032076004" lon="11.493595644340756"><ele>399.33333333333337</ele><time>2026-04-08T16:10:06.998Z</time></trkpt><trkpt lat="43.38039687067662" lon="11.493429500725203"><ele>399.6666666666667</ele><time>2026-04-08T16:10:07.998Z</time></trkpt><trkpt lat="43.38022140877294" lon="11.493291670804311"><ele>400.0</ele><time>2026-04-08T16:10:08.998Z</time></trkpt><trkpt lat="43.380054428131054" lon="11.493139013380123"><ele>400.0</ele><time>2026-04-08T16:10:09.998Z</time></trkpt><trkpt lat="43.37987939323852" lon="11.493003985999206"><ele>400.0</ele><time>2026-04-08T16:10:10.998Z</time></trkpt><trkpt lat="43.37970722842813" lon="11.492896917748848"><ele>400.0</ele><time>2026-04-08T16:10:12Z</time></trkpt><trkpt lat="43.37955564559913" lon="11.492793436866952"><ele>401.33333333333337</ele><time>2026-04-08T16:10:13Z</time></trkpt><trkpt lat="43.37943400695957" lon="11.492675004052598"><ele>402.66666666666663</ele><time>2026-04-08T16:10:14Z</time></trkpt><trkpt lat="43.379320154281174" lon="11.49253461555038"><ele>404.0</ele><time>2026-04-08T16:10:15Z</time></trkpt><trkpt lat="43.37918734433802" lon="11.492378870911244"><ele>404.0</ele><time>2026-04-08T16:10:16Z</time></trkpt><trkpt lat="43.37902332609729" lon="11.492205143452843"><ele>404.0</ele><time>2026-04-08T16:10:17Z</time></trkpt><trkpt lat="43.37887035607424" lon="11.49202829896905"><ele>404.0</ele><time>2026-04-08T16:10:18Z</time></trkpt><trkpt lat="43.37872440700726" lon="11.491872435150048"><ele>401.0</ele><time>2026-04-08T16:10:19Z</time></trkpt><trkpt lat="43.37857383901708" lon="11.491738045154346"><ele>398.0</ele><time>2026-04-08T16:10:20Z</time></trkpt><trkpt lat="43.37840881923919" lon="11.491610266437588"><ele>395.0</ele><time>2026-04-08T16:10:21Z</time></trkpt><trkpt lat="43.378251570657575" lon="11.491455289966806"><ele>395.0</ele><time>2026-04-08T16:10:22Z</time></trkpt><trkpt lat="43.37809038356878" lon="11.49132137296691"><ele>395.0</ele><time>2026-04-08T16:10:23Z</time></trkpt><trkpt lat="43.37793800938181" lon="11.491194777873673"><ele>395.0</ele><time>2026-04-08T16:10:24Z</time></trkpt><trkpt lat="43.37778151484371" lon="11.491064759523226"><ele>393.3333333333333</ele><time>2026-04-08T16:10:25Z</time></trkpt><trkpt lat="43.37762073872814" lon="11.490931822406253"><ele>391.66666666666663</ele><time>2026-04-08T16:10:26Z</time></trkpt><trkpt lat="43.37745704931045" lon="11.490806081417563"><ele>390.0</ele><time>2026-04-08T16:10:27Z</time></trkpt><trkpt lat="43.377281636731475" lon="11.49072718645175"><ele>389.0</ele><time>2026-04-08T16:10:28Z</time></trkpt><trkpt lat="43.377124420756374" lon="11.490636275027638"><ele>388.0</ele><time>2026-04-08T16:10:29Z</time></trkpt><trkpt lat="43.3769734906314" lon="11.490540120350747"><ele>387.0</ele><time>2026-04-08T16:10:30Z</time></trkpt><trkpt lat="43.376849321524766" lon="11.490411115252298"><ele>387.0</ele><time>2026-04-08T16:10:31Z</time></trkpt><trkpt lat="43.37672489521489" lon="11.490300001538294"><ele>387.0</ele><time>2026-04-08T16:10:32Z</time></trkpt><trkpt lat="43.37660612354175" lon="11.490189259541932"><ele>387.0</ele><time>2026-04-08T16:10:33Z</time></trkpt><trkpt lat="43.37649647392144" lon="11.490086602110837"><ele>387.0</ele><time>2026-04-08T16:10:34Z</time></trkpt><trkpt lat="43.37639913043704" lon="11.489982455258652"><ele>386.75</ele><time>2026-04-08T16:10:35Z</time></trkpt><trkpt lat="43.37631173213947" lon="11.489851560670814"><ele>386.5</ele><time>2026-04-08T16:10:35.999Z</time></trkpt><trkpt lat="43.37622938176295" lon="11.489684644286998"><ele>386.25</ele><time>2026-04-08T16:10:36.999Z</time></trkpt><trkpt lat="43.37615704971304" lon="11.489475216774537"><ele>386.0</ele><time>2026-04-08T16:10:37.999Z</time></trkpt><trkpt lat="43.37611182427369" lon="11.48924348012746"><ele>387.25</ele><time>2026-04-08T16:10:38.999Z</time></trkpt><trkpt lat="43.376059880363634" lon="11.48905710938752"><ele>388.5</ele><time>2026-04-08T16:10:39.999Z</time></trkpt><trkpt lat="43.3760200714427" lon="11.488889896899222"><ele>389.75</ele><time>2026-04-08T16:10:40.999Z</time></trkpt><trkpt lat="43.37594740330551" lon="11.488717567970316"><ele>391.0</ele><time>2026-04-08T16:10:41.999Z</time></trkpt><trkpt lat="43.37582620215922" lon="11.488529603835063"><ele>391.0</ele><time>2026-04-08T16:10:42.999Z</time></trkpt><trkpt lat="43.37569534899023" lon="11.488325245285886"><ele>391.0</ele><time>2026-04-08T16:10:43.999Z</time></trkpt><trkpt lat="43.375567961639504" lon="11.488101892636479"><ele>391.0</ele><time>2026-04-08T16:10:44.999Z</time></trkpt><trkpt lat="43.375454762171756" lon="11.487843387234358"><ele>392.0</ele><time>2026-04-08T16:10:45.999Z</time></trkpt><trkpt lat="43.37533690895639" lon="11.487565734340532"><ele>393.0</ele><time>2026-04-08T16:10:46.999Z</time></trkpt><trkpt lat="43.3752080227192" lon="11.487292543477063"><ele>392.66666666666663</ele><time>2026-04-08T16:10:47.999Z</time></trkpt><trkpt lat="43.37507877187443" lon="11.48708061753701"><ele>392.3333333333333</ele><time>2026-04-08T16:10:48.999Z</time></trkpt><trkpt lat="43.37494742885177" lon="11.486889470333633"><ele>392.0</ele><time>2026-04-08T16:10:49.999Z</time></trkpt><trkpt lat="43.37483281290538" lon="11.48670311517093"><ele>392.0</ele><time>2026-04-08T16:10:50.999Z</time></trkpt><trkpt lat="43.37473545229333" lon="11.48650001268676"><ele>392.0</ele><time>2026-04-08T16:10:51.999Z</time></trkpt><trkpt lat="43.37467226628405" lon="11.486274578008565"><ele>392.0</ele><time>2026-04-08T16:10:52.999Z</time></trkpt><trkpt lat="43.37461111983269" lon="11.486031562364609"><ele>392.66666666666663</ele><time>2026-04-08T16:10:53.999Z</time></trkpt><trkpt lat="43.374542649764926" lon="11.485791936805695"><ele>393.33333333333337</ele><time>2026-04-08T16:10:54.999Z</time></trkpt><trkpt lat="43.374503028485" lon="11.485556697303734"><ele>394.0</ele><time>2026-04-08T16:10:55.999Z</time></trkpt><trkpt lat="43.37441533943437" lon="11.485353712018902"><ele>394.0</ele><time>2026-04-08T16:10:56.999Z</time></trkpt><trkpt lat="43.37430958544172" lon="11.485130286974888"><ele>394.0</ele><time>2026-04-08T16:10:57.999Z</time></trkpt><trkpt lat="43.37418992463634" lon="11.484887957074646"><ele>394.0</ele><time>2026-04-08T16:10:58.999Z</time></trkpt><trkpt lat="43.37405180183827" lon="11.484689243542961"><ele>392.6666666666667</ele><time>2026-04-08T16:10:59.999Z</time></trkpt><trkpt lat="43.37390965534487" lon="11.484526624986279"><ele>391.33333333333337</ele><time>2026-04-08T16:11:00.999Z</time></trkpt><trkpt lat="43.37375891640082" lon="11.484350724003637"><ele>390.0</ele><time>2026-04-08T16:11:01.999Z</time></trkpt><trkpt lat="43.37357475012093" lon="11.484172687522722"><ele>390.0</ele><time>2026-04-08T16:11:02.999Z</time></trkpt><trkpt lat="43.373385696464716" lon="11.484021103518101"><ele>390.0</ele><time>2026-04-08T16:11:03.999Z</time></trkpt><trkpt lat="43.373216247625145" lon="11.483879761621603"><ele>390.0</ele><time>2026-04-08T16:11:04.999Z</time></trkpt><trkpt lat="43.373078437954334" lon="11.483732092579453"><ele>387.3333333333333</ele><time>2026-04-08T16:11:05.999Z</time></trkpt><trkpt lat="43.37294941633122" lon="11.483589918853937"><ele>384.66666666666663</ele><time>2026-04-08T16:11:06.999Z</time></trkpt><trkpt lat="43.37283874299227" lon="11.483420621136114"><ele>382.0</ele><time>2026-04-08T16:11:07.999Z</time></trkpt><trkpt lat="43.37273391817683" lon="11.483202151109733"><ele>382.0</ele><time>2026-04-08T16:11:08.999Z</time></trkpt><trkpt lat="43.37261632482192" lon="11.482989475229939"><ele>382.0</ele><time>2026-04-08T16:11:09.999Z</time></trkpt><trkpt lat="43.37250764458596" lon="11.482780540274636"><ele>382.0</ele><time>2026-04-08T16:11:10.999Z</time></trkpt><trkpt lat="43.37237702558867" lon="11.482574427997399"><ele>380.5</ele><time>2026-04-08T16:11:11.999Z</time></trkpt><trkpt lat="43.37222171891978" lon="11.482375558380985"><ele>379.0</ele><time>2026-04-08T16:11:12.999Z</time></trkpt><trkpt lat="43.372043175993404" lon="11.482159498385633"><ele>374.0</ele><time>2026-04-08T16:11:13.999Z</time></trkpt><trkpt lat="43.37183116566759" lon="11.482002594663637"><ele>369.0</ele><time>2026-04-08T16:11:14.999Z</time></trkpt><trkpt lat="43.37164297620447" lon="11.48180342093458"><ele>369.0</ele><time>2026-04-08T16:11:15.999Z</time></trkpt><trkpt lat="43.37145892439165" lon="11.481638951132705"><ele>369.0</ele><time>2026-04-08T16:11:16.999Z</time></trkpt><trkpt lat="43.371292230425105" lon="11.481515709660588"><ele>369.0</ele><time>2026-04-08T16:11:17.999Z</time></trkpt><trkpt lat="43.371160434230774" lon="11.48141487927937"><ele>369.0</ele><time>2026-04-08T16:11:18.999Z</time></trkpt><trkpt lat="43.371023164441205" lon="11.481335745431718"><ele>369.0</ele><time>2026-04-08T16:11:19.999Z</time></trkpt><trkpt lat="43.370857343029336" lon="11.481287810225567"><ele>369.0</ele><time>2026-04-08T16:11:20.999Z</time></trkpt><trkpt lat="43.37068392205576" lon="11.481251407608573"><ele>369.6666666666667</ele><time>2026-04-08T16:11:21.999Z</time></trkpt><trkpt lat="43.37052463313501" lon="11.481203359104285"><ele>370.33333333333337</ele><time>2026-04-08T16:11:22.999Z</time></trkpt><trkpt lat="43.370387425463115" lon="11.481108837866316"><ele>371.0</ele><time>2026-04-08T16:11:23.999Z</time></trkpt><trkpt lat="43.37023969725807" lon="11.481019020242144"><ele>368.33333333333337</ele><time>2026-04-08T16:11:24.999Z</time></trkpt><trkpt lat="43.37007220269036" lon="11.480926985055033"><ele>365.6666666666667</ele><time>2026-04-08T16:11:25.999Z</time></trkpt><trkpt lat="43.369891208449154" lon="11.480810450515223"><ele>363.0</ele><time>2026-04-08T16:11:26.999Z</time></trkpt><trkpt lat="43.36971672446602" lon="11.480710907096071"><ele>361.5</ele><time>2026-04-08T16:11:27.999Z</time></trkpt><trkpt lat="43.36957206705121" lon="11.480620841763097"><ele>360.0</ele><time>2026-04-08T16:11:28.999Z</time></trkpt><trkpt lat="43.369465408191914" lon="11.480531819139468"><ele>358.5</ele><time>2026-04-08T16:11:29.999Z</time></trkpt><trkpt lat="43.36936012406732" lon="11.48042271265474"><ele>357.0</ele><time>2026-04-08T16:11:30.999Z</time></trkpt><trkpt lat="43.36927661260847" lon="11.480268220178312"><ele>357.0</ele><time>2026-04-08T16:11:31.998Z</time></trkpt><trkpt lat="43.369185397235164" lon="11.48010965643791"><ele>357.0</ele><time>2026-04-08T16:11:32.998Z</time></trkpt><trkpt lat="43.36913581285075" lon="11.47993005296548"><ele>357.0</ele><time>2026-04-08T16:11:33.998Z</time></trkpt><trkpt lat="43.36910981170845" lon="11.479736745817869"><ele>357.0</ele><time>2026-04-08T16:11:34.998Z</time></trkpt><trkpt lat="43.36911292283063" lon="11.479541229708222"><ele>356.25</ele><time>2026-04-08T16:11:35.998Z</time></trkpt><trkpt lat="43.36917247342955" lon="11.479371944595512"><ele>355.5</ele><time>2026-04-08T16:11:36.998Z</time></trkpt><trkpt lat="43.36920521684373" lon="11.479181036215344"><ele>354.75</ele><time>2026-04-08T16:11:37.998Z</time></trkpt><trkpt lat="43.36926480691255" lon="11.478981652748217"><ele>354.0</ele><time>2026-04-08T16:11:38.998Z</time></trkpt><trkpt lat="43.36932121229365" lon="11.478797026368898"><ele>353.3333333333333</ele><time>2026-04-08T16:11:39.998Z</time></trkpt><trkpt lat="43.36933270442103" lon="11.47859102773978"><ele>352.66666666666663</ele><time>2026-04-08T16:11:40.998Z</time></trkpt><trkpt lat="43.36934929655529" lon="11.478367977583318"><ele>352.0</ele><time>2026-04-08T16:11:41.998Z</time></trkpt><trkpt lat="43.36934628470849" lon="11.478148565249159"><ele>349.66666666666663</ele><time>2026-04-08T16:11:42.998Z</time></trkpt><trkpt lat="43.36930573871273" lon="11.477934122139017"><ele>347.3333333333333</ele><time>2026-04-08T16:11:43.998Z</time></trkpt><trkpt lat="43.36923254149518" lon="11.477716358786362"><ele>345.0</ele><time>2026-04-08T16:11:44.998Z</time></trkpt><trkpt lat="43.36913876400427" lon="11.477505055543025"><ele>345.0</ele><time>2026-04-08T16:11:45.998Z</time></trkpt><trkpt lat="43.36903653453705" lon="11.477309115240953"><ele>345.0</ele><time>2026-04-08T16:11:46.998Z</time></trkpt><trkpt lat="43.36894041332344" lon="11.47711458293133"><ele>345.0</ele><time>2026-04-08T16:11:47.998Z</time></trkpt><trkpt lat="43.36880946441535" lon="11.476917347600436"><ele>341.3333333333333</ele><time>2026-04-08T16:11:48.998Z</time></trkpt><trkpt lat="43.36864285295488" lon="11.476709554489977"><ele>337.66666666666663</ele><time>2026-04-08T16:11:49.998Z</time></trkpt><trkpt lat="43.36848638309924" lon="11.476509764634175"><ele>334.0</ele><time>2026-04-08T16:11:50.998Z</time></trkpt><trkpt lat="43.368338011949454" lon="11.476315193452944"><ele>331.3333333333333</ele><time>2026-04-08T16:11:51.998Z</time></trkpt><trkpt lat="43.36819340518815" lon="11.476128113178454"><ele>328.6666666666667</ele><time>2026-04-08T16:11:52.998Z</time></trkpt><trkpt lat="43.36804658342971" lon="11.47594691065557"><ele>326.0</ele><time>2026-04-08T16:11:53.998Z</time></trkpt><trkpt lat="43.36790748928883" lon="11.475774621813049"><ele>325.0</ele><time>2026-04-08T16:11:54.998Z</time></trkpt><trkpt lat="43.367789975593325" lon="11.475624917774848"><ele>324.0</ele><time>2026-04-08T16:11:55.998Z</time></trkpt><trkpt lat="43.36770585414917" lon="11.475471951215258"><ele>323.0</ele><time>2026-04-08T16:11:56.998Z</time></trkpt><trkpt lat="43.36762665578909" lon="11.475336962645935"><ele>322.0</ele><time>2026-04-08T16:11:57.998Z</time></trkpt><trkpt lat="43.36757724623289" lon="11.475185432363931"><ele>320.0</ele><time>2026-04-08T16:11:58.998Z</time></trkpt><trkpt lat="43.36751998995739" lon="11.475011463654537"><ele>318.0</ele><time>2026-04-08T16:11:59.998Z</time></trkpt><trkpt lat="43.367513699910106" lon="11.474812397962493"><ele>316.0</ele><time>2026-04-08T16:12:00.998Z</time></trkpt><trkpt lat="43.36752256710053" lon="11.474651044393392"><ele>314.0</ele><time>2026-04-08T16:12:01.998Z</time></trkpt><trkpt lat="43.36754207258416" lon="11.474527005331378"><ele>311.8</ele><time>2026-04-08T16:12:02.998Z</time></trkpt><trkpt lat="43.36759378950012" lon="11.474440820391584"><ele>309.59999999999997</ele><time>2026-04-08T16:12:03.998Z</time></trkpt><trkpt lat="43.367670914734845" lon="11.474395206294538"><ele>307.4</ele><time>2026-04-08T16:12:04.998Z</time></trkpt><trkpt lat="43.36776030298545" lon="11.474403259983935"><ele>305.2</ele><time>2026-04-08T16:12:05.998Z</time></trkpt><trkpt lat="43.36785165047771" lon="11.47447284918389"><ele>303.0</ele><time>2026-04-08T16:12:06.998Z</time></trkpt><trkpt lat="43.3679480482262" lon="11.474582619027489"><ele>302.4</ele><time>2026-04-08T16:12:07.998Z</time></trkpt><trkpt lat="43.368026869701495" lon="11.47470609852667"><ele>301.8</ele><time>2026-04-08T16:12:08.998Z</time></trkpt><trkpt lat="43.368105174311125" lon="11.474768113549365"><ele>301.2</ele><time>2026-04-08T16:12:09.998Z</time></trkpt><trkpt lat="43.36819521166886" lon="11.474749108713628"><ele>300.6</ele><time>2026-04-08T16:12:10.998Z</time></trkpt><trkpt lat="43.36828858787933" lon="11.47468177223019"><ele>300.0</ele><time>2026-04-08T16:12:11.998Z</time></trkpt><trkpt lat="43.36834857666451" lon="11.47456371690671"><ele>300.0</ele><time>2026-04-08T16:12:12.998Z</time></trkpt><trkpt lat="43.3683870245012" lon="11.47446064761304"><ele>300.0</ele><time>2026-04-08T16:12:13.998Z</time></trkpt><trkpt lat="43.36834373150881" lon="11.474319782581773"><ele>300.0</ele><time>2026-04-08T16:12:14.998Z</time></trkpt><trkpt lat="43.36828618801316" lon="11.474194231482697"><ele>300.0</ele><time>2026-04-08T16:12:15.998Z</time></trkpt><trkpt lat="43.368197633891306" lon="11.47405230633642"><ele>300.0</ele><time>2026-04-08T16:12:16.998Z</time></trkpt><trkpt lat="43.36810536327634" lon="11.47388542043663"><ele>297.3333333333333</ele><time>2026-04-08T16:12:18Z</time></trkpt><trkpt lat="43.367994417115455" lon="11.473718943989445"><ele>294.66666666666663</ele><time>2026-04-08T16:12:19Z</time></trkpt><trkpt lat="43.36787468623372" lon="11.473581553789447"><ele>292.0</ele><time>2026-04-08T16:12:20Z</time></trkpt><trkpt lat="43.36776319917732" lon="11.47344990175425"><ele>292.0</ele><time>2026-04-08T16:12:21Z</time></trkpt><trkpt lat="43.36763266762286" lon="11.473374047483786"><ele>292.0</ele><time>2026-04-08T16:12:22Z</time></trkpt><trkpt lat="43.36749509827369" lon="11.473331716297144"><ele>292.0</ele><time>2026-04-08T16:12:23Z</time></trkpt><trkpt lat="43.36737487666195" lon="11.473280464339103"><ele>292.0</ele><time>2026-04-08T16:12:24Z</time></trkpt><trkpt lat="43.36728792390367" lon="11.473216934025196"><ele>292.0</ele><time>2026-04-08T16:12:25Z</time></trkpt><trkpt lat="43.36723249946929" lon="11.473130756962393"><ele>292.0</ele><time>2026-04-08T16:12:26Z</time></trkpt><trkpt lat="43.36722469149991" lon="11.472986921820901"><ele>292.0</ele><time>2026-04-08T16:12:27Z</time></trkpt><trkpt lat="43.367270179357504" lon="11.472841278948428"><ele>292.0</ele><time>2026-04-08T16:12:28Z</time></trkpt><trkpt lat="43.36731378549001" lon="11.472687443171047"><ele>292.0</ele><time>2026-04-08T16:12:29Z</time></trkpt><trkpt lat="43.36736924652282" lon="11.472528652261149"><ele>290.75</ele><time>2026-04-08T16:12:30Z</time></trkpt><trkpt lat="43.367429726556495" lon="11.472374350831457"><ele>289.5</ele><time>2026-04-08T16:12:31Z</time></trkpt><trkpt lat="43.367491035756686" lon="11.472242887955499"><ele>288.25</ele><time>2026-04-08T16:12:32Z</time></trkpt><trkpt lat="43.367573370038805" lon="11.472125525999035"><ele>287.0</ele><time>2026-04-08T16:12:33Z</time></trkpt><trkpt lat="43.36768039100745" lon="11.471998012845862"><ele>286.75</ele><time>2026-04-08T16:12:34Z</time></trkpt><trkpt lat="43.36777935304933" lon="11.471842659747661"><ele>286.5</ele><time>2026-04-08T16:12:35Z</time></trkpt><trkpt lat="43.367871367143664" lon="11.471700619671376"><ele>286.25</ele><time>2026-04-08T16:12:36Z</time></trkpt><trkpt lat="43.367936877337286" lon="11.471541340836461"><ele>286.0</ele><time>2026-04-08T16:12:37Z</time></trkpt><trkpt lat="43.36797706109024" lon="11.471371222026265"><ele>285.5</ele><time>2026-04-08T16:12:38Z</time></trkpt><trkpt lat="43.36799032502701" lon="11.471195669129235"><ele>285.0</ele><time>2026-04-08T16:12:38.999Z</time></trkpt><trkpt lat="43.36797266400083" lon="11.471023965542946"><ele>284.5</ele><time>2026-04-08T16:12:39.999Z</time></trkpt><trkpt lat="43.36791837994581" lon="11.470843583282692"><ele>284.0</ele><time>2026-04-08T16:12:40.999Z</time></trkpt><trkpt lat="43.36785651996804" lon="11.47061769120754"><ele>281.0</ele><time>2026-04-08T16:12:41.999Z</time></trkpt><trkpt lat="43.367763435398025" lon="11.470368652017898"><ele>278.0</ele><time>2026-04-08T16:12:42.999Z</time></trkpt><trkpt lat="43.36766041756937" lon="11.470096632784147"><ele>275.0</ele><time>2026-04-08T16:12:43.999Z</time></trkpt><trkpt lat="43.367561893492244" lon="11.46983022930106"><ele>274.33333333333337</ele><time>2026-04-08T16:12:44.999Z</time></trkpt><trkpt lat="43.36745614477399" lon="11.46954020198401"><ele>273.6666666666667</ele><time>2026-04-08T16:12:45.999Z</time></trkpt><trkpt lat="43.36736448231129" lon="11.46927992732835"><ele>273.0</ele><time>2026-04-08T16:12:46.999Z</time></trkpt><trkpt lat="43.3672857604847" lon="11.469031987421419"><ele>273.0</ele><time>2026-04-08T16:12:47.999Z</time></trkpt><trkpt lat="43.36722883851895" lon="11.468796770642372"><ele>273.0</ele><time>2026-04-08T16:12:48.999Z</time></trkpt><trkpt lat="43.36719923398869" lon="11.468608057866378"><ele>273.0</ele><time>2026-04-08T16:12:49.999Z</time></trkpt><trkpt lat="43.367190484015275" lon="11.468450106020411"><ele>273.0</ele><time>2026-04-08T16:12:50.999Z</time></trkpt><trkpt lat="43.367205769036325" lon="11.468289560744644"><ele>271.3333333333333</ele><time>2026-04-08T16:12:51.999Z</time></trkpt><trkpt lat="43.36727697465357" lon="11.468116475065212"><ele>269.66666666666663</ele><time>2026-04-08T16:12:52.999Z</time></trkpt><trkpt lat="43.36738209286577" lon="11.46794400718869"><ele>268.0</ele><time>2026-04-08T16:12:53.999Z</time></trkpt><trkpt lat="43.3675117898627" lon="11.467769922471504"><ele>267.25</ele><time>2026-04-08T16:12:54.999Z</time></trkpt><trkpt lat="43.3676618284328" lon="11.467619785214834"><ele>266.5</ele><time>2026-04-08T16:12:55.999Z</time></trkpt><trkpt lat="43.36775955269752" lon="11.467460753853679"><ele>265.75</ele><time>2026-04-08T16:12:56.999Z</time></trkpt><trkpt lat="43.367818173582485" lon="11.467328510525608"><ele>265.0</ele><time>2026-04-08T16:12:57.999Z</time></trkpt><trkpt lat="43.36783985688013" lon="11.467163255771023"><ele>264.66666666666663</ele><time>2026-04-08T16:12:58.999Z</time></trkpt><trkpt lat="43.3678242991305" lon="11.466989177233764"><ele>264.3333333333333</ele><time>2026-04-08T16:12:59.999Z</time></trkpt><trkpt lat="43.36776810118535" lon="11.466798600629643"><ele>264.0</ele><time>2026-04-08T16:13:00.999Z</time></trkpt><trkpt lat="43.36768130414438" lon="11.466575952162097"><ele>264.0</ele><time>2026-04-08T16:13:01.999Z</time></trkpt><trkpt lat="43.36760153961472" lon="11.466329780265283"><ele>264.0</ele><time>2026-04-08T16:13:02.999Z</time></trkpt><trkpt lat="43.367508081322725" lon="11.466063881160913"><ele>264.0</ele><time>2026-04-08T16:13:03.999Z</time></trkpt><trkpt lat="43.367397866485916" lon="11.465801291109605"><ele>264.0</ele><time>2026-04-08T16:13:04.999Z</time></trkpt><trkpt lat="43.36730706648087" lon="11.465511505095556"><ele>264.0</ele><time>2026-04-08T16:13:05.999Z</time></trkpt><trkpt lat="43.367202141830425" lon="11.465259222831564"><ele>264.0</ele><time>2026-04-08T16:13:06.999Z</time></trkpt><trkpt lat="43.36708342061997" lon="11.465042988301898"><ele>263.6666666666667</ele><time>2026-04-08T16:13:07.999Z</time></trkpt><trkpt lat="43.36698488631768" lon="11.464822400418289"><ele>263.33333333333337</ele><time>2026-04-08T16:13:08.999Z</time></trkpt><trkpt lat="43.366895340822886" lon="11.464573131337058"><ele>263.0</ele><time>2026-04-08T16:13:09.999Z</time></trkpt><trkpt lat="43.366835467243035" lon="11.464274494642574"><ele>262.5</ele><time>2026-04-08T16:13:10.999Z</time></trkpt><trkpt lat="43.366769497133355" lon="11.463961902876793"><ele>262.0</ele><time>2026-04-08T16:13:11.999Z</time></trkpt><trkpt lat="43.36668483277477" lon="11.46363754344263"><ele>261.5</ele><time>2026-04-08T16:13:12.999Z</time></trkpt><trkpt lat="43.366615040645875" lon="11.463302727547486"><ele>261.0</ele><time>2026-04-08T16:13:13.999Z</time></trkpt><trkpt lat="43.3665315595319" lon="11.462941273821285"><ele>259.5</ele><time>2026-04-08T16:13:14.999Z</time></trkpt><trkpt lat="43.36645957653961" lon="11.46255775309699"><ele>258.0</ele><time>2026-04-08T16:13:15.999Z</time></trkpt><trkpt lat="43.366373002002454" lon="11.4621724767908"><ele>256.5</ele><time>2026-04-08T16:13:16.999Z</time></trkpt><trkpt lat="43.366285094165214" lon="11.461798751954424"><ele>255.0</ele><time>2026-04-08T16:13:17.999Z</time></trkpt><trkpt lat="43.366180307936155" lon="11.461449245291744"><ele>255.0</ele><time>2026-04-08T16:13:18.999Z</time></trkpt><trkpt lat="43.36608827345883" lon="11.461102001786449"><ele>255.0</ele><time>2026-04-08T16:13:19.999Z</time></trkpt><trkpt lat="43.36601222587407" lon="11.460761574995205"><ele>256.0</ele><time>2026-04-08T16:13:20.999Z</time></trkpt><trkpt lat="43.365936304944526" lon="11.460438671264393"><ele>257.0</ele><time>2026-04-08T16:13:21.999Z</time></trkpt><trkpt lat="43.36587078925107" lon="11.460104610973408"><ele>257.0</ele><time>2026-04-08T16:13:22.999Z</time></trkpt><trkpt lat="43.36581512527999" lon="11.459745825788405"><ele>257.0</ele><time>2026-04-08T16:13:23.999Z</time></trkpt><trkpt lat="43.3657614847628" lon="11.459376084624218"><ele>257.5</ele><time>2026-04-08T16:13:24.999Z</time></trkpt><trkpt lat="43.36569411585875" lon="11.459041984400844"><ele>258.0</ele><time>2026-04-08T16:13:25.999Z</time></trkpt><trkpt lat="43.365646354265365" lon="11.458718501676405"><ele>259.0</ele><time>2026-04-08T16:13:26.999Z</time></trkpt><trkpt lat="43.365600581548065" lon="11.458436721255339"><ele>260.0</ele><time>2026-04-08T16:13:27.999Z</time></trkpt><trkpt lat="43.3655576155696" lon="11.458214670904574"><ele>261.0</ele><time>2026-04-08T16:13:28.999Z</time></trkpt><trkpt lat="43.365490251463754" lon="11.45800392805031"><ele>260.0</ele><time>2026-04-08T16:13:29.999Z</time></trkpt><trkpt lat="43.36537929463765" lon="11.4577741639424"><ele>259.0</ele><time>2026-04-08T16:13:30.999Z</time></trkpt><trkpt lat="43.36524870640894" lon="11.457529044797113"><ele>258.0</ele><time>2026-04-08T16:13:31.999Z</time></trkpt><trkpt lat="43.365136150766645" lon="11.457313165522054"><ele>258.0</ele><time>2026-04-08T16:13:32.998Z</time></trkpt><trkpt lat="43.3650624580216" lon="11.457160050554688"><ele>258.0</ele><time>2026-04-08T16:13:33.998Z</time></trkpt><trkpt lat="43.365027220809864" lon="11.457006719881518"><ele>258.0</ele><time>2026-04-08T16:13:34.998Z</time></trkpt><trkpt lat="43.36504040428011" lon="11.456811703810393"><ele>258.0</ele><time>2026-04-08T16:13:35.998Z</time></trkpt><trkpt lat="43.36507202208914" lon="11.456589046739731"><ele>257.3333333333333</ele><time>2026-04-08T16:13:36.998Z</time></trkpt><trkpt lat="43.36507606900787" lon="11.45637791100534"><ele>256.66666666666663</ele><time>2026-04-08T16:13:37.998Z</time></trkpt><trkpt lat="43.36505766505527" lon="11.45616300920874"><ele>256.0</ele><time>2026-04-08T16:13:38.998Z</time></trkpt><trkpt lat="43.364994295934984" lon="11.455913992370897"><ele>256.66666666666663</ele><time>2026-04-08T16:13:39.998Z</time></trkpt><trkpt lat="43.36489263693904" lon="11.455685990821697"><ele>257.3333333333333</ele><time>2026-04-08T16:13:40.998Z</time></trkpt><trkpt lat="43.36475066649363" lon="11.455472434728966"><ele>258.0</ele><time>2026-04-08T16:13:41.998Z</time></trkpt><trkpt lat="43.364592867920706" lon="11.455241412464861"><ele>258.0</ele><time>2026-04-08T16:13:42.998Z</time></trkpt><trkpt lat="43.36443470824522" lon="11.45501270609148"><ele>258.0</ele><time>2026-04-08T16:13:43.998Z</time></trkpt><trkpt lat="43.36427206687446" lon="11.454761645859675"><ele>265.5</ele><time>2026-04-08T16:13:44.998Z</time></trkpt><trkpt lat="43.36410930174454" lon="11.454500541856826"><ele>273.0</ele><time>2026-04-08T16:13:45.998Z</time></trkpt><trkpt lat="43.36396138859695" lon="11.454268302143648"><ele>272.6666666666667</ele><time>2026-04-08T16:13:46.998Z</time></trkpt><trkpt lat="43.36382829870179" lon="11.454056380826527"><ele>272.33333333333337</ele><time>2026-04-08T16:13:47.998Z</time></trkpt><trkpt lat="43.36370661653883" lon="11.453860324721699"><ele>272.0</ele><time>2026-04-08T16:13:48.998Z</time></trkpt><trkpt lat="43.36359966740602" lon="11.453711233385928"><ele>272.0</ele><time>2026-04-08T16:13:49.998Z</time></trkpt><trkpt lat="43.363500536814016" lon="11.453590843658333"><ele>272.0</ele><time>2026-04-08T16:13:50.998Z</time></trkpt><trkpt lat="43.3633922180566" lon="11.45351092644947"><ele>272.0</ele><time>2026-04-08T16:13:51.998Z</time></trkpt><trkpt lat="43.36326992490441" lon="11.453482585039206"><ele>272.0</ele><time>2026-04-08T16:13:52.998Z</time></trkpt><trkpt lat="43.363126915292945" lon="11.45351256962232"><ele>274.33333333333337</ele><time>2026-04-08T16:13:53.998Z</time></trkpt><trkpt lat="43.36297560918877" lon="11.453576077860907"><ele>276.6666666666667</ele><time>2026-04-08T16:13:54.998Z</time></trkpt><trkpt lat="43.36279868734178" lon="11.453666910986897"><ele>279.0</ele><time>2026-04-08T16:13:55.998Z</time></trkpt><trkpt lat="43.36261807039173" lon="11.45370473355593"><ele>279.0</ele><time>2026-04-08T16:13:56.998Z</time></trkpt><trkpt lat="43.36243636422751" lon="11.453698883693315"><ele>279.0</ele><time>2026-04-08T16:13:57.998Z</time></trkpt><trkpt lat="43.36227147185913" lon="11.45366144379242"><ele>279.0</ele><time>2026-04-08T16:13:58.998Z</time></trkpt><trkpt lat="43.36211569367396" lon="11.453599377155086"><ele>276.0</ele><time>2026-04-08T16:13:59.998Z</time></trkpt><trkpt lat="43.36195121259706" lon="11.453476496783733"><ele>273.0</ele><time>2026-04-08T16:14:00.998Z</time></trkpt><trkpt lat="43.361764243779916" lon="11.453357887101"><ele>270.0</ele><time>2026-04-08T16:14:01.998Z</time></trkpt><trkpt lat="43.36158116651128" lon="11.45321069976671"><ele>270.0</ele><time>2026-04-08T16:14:02.998Z</time></trkpt><trkpt lat="43.361411728491326" lon="11.453094359268645"><ele>270.0</ele><time>2026-04-08T16:14:03.998Z</time></trkpt><trkpt lat="43.36125221875442" lon="11.453027191071849"><ele>270.0</ele><time>2026-04-08T16:14:04.998Z</time></trkpt><trkpt lat="43.36110167518378" lon="11.453024429118058"><ele>269.5</ele><time>2026-04-08T16:14:05.998Z</time></trkpt><trkpt lat="43.360956389742796" lon="11.453078179814542"><ele>269.0</ele><time>2026-04-08T16:14:06.998Z</time></trkpt><trkpt lat="43.360814736053904" lon="11.453156851415372"><ele>268.5</ele><time>2026-04-08T16:14:07.998Z</time></trkpt><trkpt lat="43.36068613558643" lon="11.45320651978202"><ele>268.0</ele><time>2026-04-08T16:14:08.998Z</time></trkpt><trkpt lat="43.360579201774904" lon="11.453186260281923"><ele>268.5</ele><time>2026-04-08T16:14:09.998Z</time></trkpt><trkpt lat="43.36050522667725" lon="11.453079042201033"><ele>269.0</ele><time>2026-04-08T16:14:10.998Z</time></trkpt><trkpt lat="43.36044579576104" lon="11.452928060812589"><ele>269.5</ele><time>2026-04-08T16:14:11.998Z</time></trkpt><trkpt lat="43.36037516523956" lon="11.452729240334863"><ele>270.0</ele><time>2026-04-08T16:14:12.998Z</time></trkpt><trkpt lat="43.360281545476326" lon="11.452507393036008"><ele>270.0</ele><time>2026-04-08T16:14:13.998Z</time></trkpt><trkpt lat="43.360175474917604" lon="11.452307701130328"><ele>270.0</ele><time>2026-04-08T16:14:14.998Z</time></trkpt><trkpt lat="43.360034421302714" lon="11.452134606177921"><ele>270.0</ele><time>2026-04-08T16:14:15.998Z</time></trkpt><trkpt lat="43.3599337301723" lon="11.451961131347963"><ele>273.0</ele><time>2026-04-08T16:14:16.998Z</time></trkpt><trkpt lat="43.35989296789448" lon="11.451772378748586"><ele>276.0</ele><time>2026-04-08T16:14:17.998Z</time></trkpt><trkpt lat="43.35985435066689" lon="11.4515946099784"><ele>279.0</ele><time>2026-04-08T16:14:18.998Z</time></trkpt><trkpt lat="43.3598821419216" lon="11.45139135314174"><ele>282.0</ele><time>2026-04-08T16:14:19.998Z</time></trkpt><trkpt lat="43.35993997269646" lon="11.451184628621279"><ele>282.0</ele><time>2026-04-08T16:14:20.998Z</time></trkpt><trkpt lat="43.36000402198653" lon="11.4509572509818"><ele>282.0</ele><time>2026-04-08T16:14:21.998Z</time></trkpt><trkpt lat="43.36007154531526" lon="11.45068767547045"><ele>282.0</ele><time>2026-04-08T16:14:23Z</time></trkpt><trkpt lat="43.36013486650689" lon="11.450411266186316"><ele>282.0</ele><time>2026-04-08T16:14:24Z</time></trkpt><trkpt lat="43.360188150048764" lon="11.450116972116204"><ele>282.0</ele><time>2026-04-08T16:14:25Z</time></trkpt><trkpt lat="43.360239843708264" lon="11.44979421823621"><ele>284.0</ele><time>2026-04-08T16:14:26Z</time></trkpt><trkpt lat="43.360282865788" lon="11.449448519858912"><ele>286.0</ele><time>2026-04-08T16:14:27Z</time></trkpt><trkpt lat="43.36033472176384" lon="11.449079117033934"><ele>291.0</ele><time>2026-04-08T16:14:28Z</time></trkpt><trkpt lat="43.360378950849665" lon="11.448747940664333"><ele>296.0</ele><time>2026-04-08T16:14:29Z</time></trkpt><trkpt lat="43.360417260162706" lon="11.448466014485687"><ele>296.0</ele><time>2026-04-08T16:14:30Z</time></trkpt><trkpt lat="43.360440091707" lon="11.44828697808084"><ele>296.0</ele><time>2026-04-08T16:14:31Z</time></trkpt><trkpt lat="43.36044996443255" lon="11.448117898309075"><ele>296.0</ele><time>2026-04-08T16:14:32Z</time></trkpt><trkpt lat="43.36043838403127" lon="11.447949107448489"><ele>296.0</ele><time>2026-04-08T16:14:33Z</time></trkpt><trkpt lat="43.36036923330179" lon="11.447769335520936"><ele>297.33333333333337</ele><time>2026-04-08T16:14:34Z</time></trkpt><trkpt lat="43.36025729998736" lon="11.447586731257354"><ele>298.6666666666667</ele><time>2026-04-08T16:14:35Z</time></trkpt><trkpt lat="43.3601375014589" lon="11.447424444822866"><ele>300.0</ele><time>2026-04-08T16:14:36Z</time></trkpt><trkpt lat="43.360083834900344" lon="11.447267860680924"><ele>300.5</ele><time>2026-04-08T16:14:37Z</time></trkpt><trkpt lat="43.36003528857983" lon="11.447114102452431"><ele>301.0</ele><time>2026-04-08T16:14:38Z</time></trkpt><trkpt lat="43.36001189821379" lon="11.446893958518412"><ele>301.5</ele><time>2026-04-08T16:14:39Z</time></trkpt><trkpt lat="43.360029277308904" lon="11.446687436168743"><ele>302.0</ele><time>2026-04-08T16:14:40Z</time></trkpt><trkpt lat="43.36005409233968" lon="11.446486412611376"><ele>302.0</ele><time>2026-04-08T16:14:41Z</time></trkpt><trkpt lat="43.36016049411104" lon="11.446339745078896"><ele>302.0</ele><time>2026-04-08T16:14:42Z</time></trkpt><trkpt lat="43.360243973023586" lon="11.4462549627248"><ele>302.0</ele><time>2026-04-08T16:14:43Z</time></trkpt><trkpt lat="43.36032704525051" lon="11.44619369387281"><ele>302.0</ele><time>2026-04-08T16:14:43.999Z</time></trkpt><trkpt lat="43.360465201921244" lon="11.446171026502581"><ele>303.0</ele><time>2026-04-08T16:14:44.999Z</time></trkpt><trkpt lat="43.360631659081804" lon="11.446155566345995"><ele>304.0</ele><time>2026-04-08T16:14:45.999Z</time></trkpt><trkpt lat="43.36081985850444" lon="11.446135075844603"><ele>305.0</ele><time>2026-04-08T16:14:46.999Z</time></trkpt><trkpt lat="43.36100090679514" lon="11.446107468687124"><ele>305.0</ele><time>2026-04-08T16:14:47.999Z</time></trkpt><trkpt lat="43.361190018484145" lon="11.446040101423147"><ele>305.0</ele><time>2026-04-08T16:14:48.999Z</time></trkpt><trkpt lat="43.36139320637246" lon="11.44594953814692"><ele>305.0</ele><time>2026-04-08T16:14:49.999Z</time></trkpt><trkpt lat="43.361606630806705" lon="11.445854627046527"><ele>308.0</ele><time>2026-04-08T16:14:50.999Z</time></trkpt><trkpt lat="43.36179126692467" lon="11.445773203548098"><ele>311.0</ele><time>2026-04-08T16:14:51.999Z</time></trkpt><trkpt lat="43.36196091736386" lon="11.445693903726973"><ele>314.0</ele><time>2026-04-08T16:14:52.999Z</time></trkpt><trkpt lat="43.36211715396158" lon="11.445621519341255"><ele>313.75</ele><time>2026-04-08T16:14:53.999Z</time></trkpt><trkpt lat="43.36225686683232" lon="11.445531573876579"><ele>313.5</ele><time>2026-04-08T16:14:54.999Z</time></trkpt><trkpt lat="43.362365060067184" lon="11.445414252607778"><ele>313.25</ele><time>2026-04-08T16:14:55.999Z</time></trkpt><trkpt lat="43.362440122623156" lon="11.445267335420725"><ele>313.0</ele><time>2026-04-08T16:14:56.999Z</time></trkpt><trkpt lat="43.36251363779417" lon="11.445078573060753"><ele>313.0</ele><time>2026-04-08T16:14:57.999Z</time></trkpt><trkpt lat="43.36255450870946" lon="11.444848457247737"><ele>313.0</ele><time>2026-04-08T16:14:58.999Z</time></trkpt><trkpt lat="43.36255692371678" lon="11.444581687857866"><ele>313.0</ele><time>2026-04-08T16:14:59.999Z</time></trkpt><trkpt lat="43.3625409099701" lon="11.444282504794975"><ele>311.3333333333333</ele><time>2026-04-08T16:15:00.999Z</time></trkpt><trkpt lat="43.36252538053512" lon="11.443994843048001"><ele>309.6666666666667</ele><time>2026-04-08T16:15:01.999Z</time></trkpt><trkpt lat="43.36253252599768" lon="11.443728224058232"><ele>308.0</ele><time>2026-04-08T16:15:02.999Z</time></trkpt><trkpt lat="43.36252081738067" lon="11.443480918591588"><ele>307.0</ele><time>2026-04-08T16:15:03.999Z</time></trkpt><trkpt lat="43.36255466368185" lon="11.443220758843177"><ele>306.0</ele><time>2026-04-08T16:15:04.999Z</time></trkpt><trkpt lat="43.36258767651142" lon="11.442945478208127"><ele>305.0</ele><time>2026-04-08T16:15:05.999Z</time></trkpt><trkpt lat="43.362614266664394" lon="11.442661149603207"><ele>302.33333333333337</ele><time>2026-04-08T16:15:06.999Z</time></trkpt><trkpt lat="43.36264413933953" lon="11.44239108130489"><ele>299.6666666666667</ele><time>2026-04-08T16:15:07.999Z</time></trkpt><trkpt lat="43.36266312438168" lon="11.442137680521936"><ele>297.0</ele><time>2026-04-08T16:15:08.999Z</time></trkpt><trkpt lat="43.36267017736649" lon="11.441862848021543"><ele>295.6666666666667</ele><time>2026-04-08T16:15:09.999Z</time></trkpt><trkpt lat="43.36267286628713" lon="11.441592764169654"><ele>294.33333333333337</ele><time>2026-04-08T16:15:10.999Z</time></trkpt><trkpt lat="43.36266579297149" lon="11.441340762523856"><ele>293.0</ele><time>2026-04-08T16:15:11.999Z</time></trkpt><trkpt lat="43.36265142923952" lon="11.441101670469818"><ele>290.6666666666667</ele><time>2026-04-08T16:15:12.999Z</time></trkpt><trkpt lat="43.36263371131081" lon="11.440873966390534"><ele>288.3333333333333</ele><time>2026-04-08T16:15:13.999Z</time></trkpt><trkpt lat="43.362615529489766" lon="11.440657835920522"><ele>286.0</ele><time>2026-04-08T16:15:14.999Z</time></trkpt><trkpt lat="43.36258006426665" lon="11.440480006924577"><ele>284.75</ele><time>2026-04-08T16:15:15.999Z</time></trkpt><trkpt lat="43.362516371575566" lon="11.440315743614784"><ele>283.5</ele><time>2026-04-08T16:15:16.999Z</time></trkpt><trkpt lat="43.362414352194534" lon="11.44016503068565"><ele>282.25</ele><time>2026-04-08T16:15:17.999Z</time></trkpt><trkpt lat="43.36227466051839" lon="11.440066896136909"><ele>281.0</ele><time>2026-04-08T16:15:18.999Z</time></trkpt><trkpt lat="43.36209336048665" lon="11.440020885187751"><ele>280.6666666666667</ele><time>2026-04-08T16:15:19.999Z</time></trkpt><trkpt lat="43.36189880433779" lon="11.439963863650197"><ele>280.3333333333333</ele><time>2026-04-08T16:15:20.999Z</time></trkpt><trkpt lat="43.36169895139183" lon="11.43990575052807"><ele>280.0</ele><time>2026-04-08T16:15:21.999Z</time></trkpt><trkpt lat="43.36147928733402" lon="11.439846112275395"><ele>279.0</ele><time>2026-04-08T16:15:22.999Z</time></trkpt><trkpt lat="43.3612686485061" lon="11.439801897222287"><ele>278.0</ele><time>2026-04-08T16:15:23.999Z</time></trkpt><trkpt lat="43.36106921858381" lon="11.43976807177766"><ele>277.0</ele><time>2026-04-08T16:15:24.999Z</time></trkpt><trkpt lat="43.360876778705794" lon="11.439743208907325"><ele>277.0</ele><time>2026-04-08T16:15:25.999Z</time></trkpt><trkpt lat="43.360689128012" lon="11.4397196928443"><ele>277.0</ele><time>2026-04-08T16:15:26.999Z</time></trkpt><trkpt lat="43.360512664606055" lon="11.43969774778526"><ele>277.0</ele><time>2026-04-08T16:15:27.999Z</time></trkpt><trkpt lat="43.36036327215334" lon="11.439665181101065"><ele>276.75</ele><time>2026-04-08T16:15:28.999Z</time></trkpt><trkpt lat="43.36026232237" lon="11.43958868844704"><ele>276.5</ele><time>2026-04-08T16:15:29.999Z</time></trkpt><trkpt lat="43.360175237677566" lon="11.439511549844992"><ele>276.25</ele><time>2026-04-08T16:15:30.999Z</time></trkpt><trkpt lat="43.360121866384794" lon="11.439337094291716"><ele>276.0</ele><time>2026-04-08T16:15:31.999Z</time></trkpt><trkpt lat="43.36005754549008" lon="11.439136075567422"><ele>276.0</ele><time>2026-04-08T16:15:32.999Z</time></trkpt><trkpt lat="43.359975826057465" lon="11.43890706288229"><ele>276.0</ele><time>2026-04-08T16:15:33.999Z</time></trkpt><trkpt lat="43.359902344304295" lon="11.438658707597423"><ele>276.0</ele><time>2026-04-08T16:15:34.999Z</time></trkpt><trkpt lat="43.35981840971818" lon="11.438398162947705"><ele>276.5</ele><time>2026-04-08T16:15:35.999Z</time></trkpt><trkpt lat="43.35972538802196" lon="11.43810929854361"><ele>277.0</ele><time>2026-04-08T16:15:36.999Z</time></trkpt><trkpt lat="43.35963502209007" lon="11.43782774060757"><ele>277.0</ele><time>2026-04-08T16:15:37.999Z</time></trkpt><trkpt lat="43.35955488468218" lon="11.437576677789227"><ele>277.0</ele><time>2026-04-08T16:15:38.998Z</time></trkpt><trkpt lat="43.359479467239" lon="11.4373347657706"><ele>277.0</ele><time>2026-04-08T16:15:39.998Z</time></trkpt><trkpt lat="43.35941336410838" lon="11.437125757872929"><ele>275.5</ele><time>2026-04-08T16:15:40.998Z</time></trkpt><trkpt lat="43.35935199175353" lon="11.436955463524448"><ele>274.0</ele><time>2026-04-08T16:15:41.998Z</time></trkpt><trkpt lat="43.35927418219894" lon="11.436818220753771"><ele>272.5</ele><time>2026-04-08T16:15:42.998Z</time></trkpt><trkpt lat="43.359163320404136" lon="11.436717708376346"><ele>271.0</ele><time>2026-04-08T16:15:43.998Z</time></trkpt><trkpt lat="43.35901056063945" lon="11.436641854283927"><ele>270.3333333333333</ele><time>2026-04-08T16:15:44.998Z</time></trkpt><trkpt lat="43.35884461804012" lon="11.436578897083917"><ele>269.6666666666667</ele><time>2026-04-08T16:15:45.998Z</time></trkpt><trkpt lat="43.358719574436236" lon="11.436481876482748"><ele>269.0</ele><time>2026-04-08T16:15:46.998Z</time></trkpt><trkpt lat="43.35860192330533" lon="11.436390473179824"><ele>269.0</ele><time>2026-04-08T16:15:47.998Z</time></trkpt><trkpt lat="43.358520689758706" lon="11.436267578883028"><ele>269.0</ele><time>2026-04-08T16:15:48.998Z</time></trkpt><trkpt lat="43.35845434031069" lon="11.436201510448745"><ele>269.0</ele><time>2026-04-08T16:15:49.998Z</time></trkpt><trkpt lat="43.35849602066853" lon="11.435886159655746"><ele>269.0</ele><time>2026-04-08T16:15:51.998Z</time></trkpt><trkpt lat="43.35853031807285" lon="11.435713493709413"><ele>269.0</ele><time>2026-04-08T16:15:52.998Z</time></trkpt><trkpt lat="43.35859626503298" lon="11.43550730625347"><ele>269.0</ele><time>2026-04-08T16:15:53.998Z</time></trkpt><trkpt lat="43.35866614477483" lon="11.435278363021686"><ele>269.0</ele><time>2026-04-08T16:15:54.998Z</time></trkpt><trkpt lat="43.3587677866692" lon="11.435046135629834"><ele>269.6666666666667</ele><time>2026-04-08T16:15:55.998Z</time></trkpt><trkpt lat="43.35885517532119" lon="11.434816213267693"><ele>270.3333333333333</ele><time>2026-04-08T16:15:56.998Z</time></trkpt><trkpt lat="43.35891586514653" lon="11.43460014253204"><ele>271.0</ele><time>2026-04-08T16:15:57.998Z</time></trkpt><trkpt lat="43.358962495262915" lon="11.434371361877517"><ele>268.3333333333333</ele><time>2026-04-08T16:15:58.998Z</time></trkpt><trkpt lat="43.35898216370504" lon="11.434104909035014"><ele>265.6666666666667</ele><time>2026-04-08T16:15:59.998Z</time></trkpt><trkpt lat="43.35896839307704" lon="11.433816814310896"><ele>263.0</ele><time>2026-04-08T16:16:00.998Z</time></trkpt><trkpt lat="43.35892913323216" lon="11.433513524481826"><ele>263.0</ele><time>2026-04-08T16:16:01.998Z</time></trkpt><trkpt lat="43.35887617961286" lon="11.433202093546807"><ele>263.0</ele><time>2026-04-08T16:16:02.998Z</time></trkpt><trkpt lat="43.358857934808405" lon="11.432912384800488"><ele>263.0</ele><time>2026-04-08T16:16:03.998Z</time></trkpt><trkpt lat="43.358847130355606" lon="11.432635110908455"><ele>263.0</ele><time>2026-04-08T16:16:04.998Z</time></trkpt><trkpt lat="43.35884049712412" lon="11.432365058517078"><ele>263.0</ele><time>2026-04-08T16:16:05.998Z</time></trkpt><trkpt lat="43.358893988825336" lon="11.432101990966926"><ele>263.0</ele><time>2026-04-08T16:16:06.998Z</time></trkpt><trkpt lat="43.35895059629842" lon="11.43182121618385"><ele>263.33333333333337</ele><time>2026-04-08T16:16:07.998Z</time></trkpt><trkpt lat="43.35900009837401" lon="11.431513647303609"><ele>263.6666666666667</ele><time>2026-04-08T16:16:08.998Z</time></trkpt><trkpt lat="43.35906257846064" lon="11.431236129173977"><ele>264.0</ele><time>2026-04-08T16:16:09.998Z</time></trkpt><trkpt lat="43.3591160872227" lon="11.430974355351012"><ele>264.0</ele><time>2026-04-08T16:16:10.998Z</time></trkpt><trkpt lat="43.359162105484096" lon="11.430725546947784"><ele>264.0</ele><time>2026-04-08T16:16:11.998Z</time></trkpt><trkpt lat="43.35919538867187" lon="11.430474071071185"><ele>264.0</ele><time>2026-04-08T16:16:12.998Z</time></trkpt><trkpt lat="43.35921012230128" lon="11.430210510969138"><ele>264.3333333333333</ele><time>2026-04-08T16:16:13.998Z</time></trkpt><trkpt lat="43.359198390857436" lon="11.429943163389916"><ele>264.66666666666663</ele><time>2026-04-08T16:16:14.998Z</time></trkpt><trkpt lat="43.35916958296415" lon="11.4296851084899"><ele>265.0</ele><time>2026-04-08T16:16:15.998Z</time></trkpt><trkpt lat="43.359127280377166" lon="11.429436375652793"><ele>263.0</ele><time>2026-04-08T16:16:16.998Z</time></trkpt><trkpt lat="43.35907016780749" lon="11.4291959810015"><ele>261.0</ele><time>2026-04-08T16:16:17.998Z</time></trkpt><trkpt lat="43.35899905414932" lon="11.42896697158449"><ele>259.0</ele><time>2026-04-08T16:16:18.998Z</time></trkpt><trkpt lat="43.358898756728266" lon="11.428738887259328"><ele>261.66666666666663</ele><time>2026-04-08T16:16:19.998Z</time></trkpt><trkpt lat="43.358743908630046" lon="11.42851949702757"><ele>264.3333333333333</ele><time>2026-04-08T16:16:20.998Z</time></trkpt><trkpt lat="43.35858101137943" lon="11.428302642713268"><ele>267.0</ele><time>2026-04-08T16:16:21.998Z</time></trkpt><trkpt lat="43.35842031864904" lon="11.42806637891693"><ele>263.3333333333333</ele><time>2026-04-08T16:16:22.998Z</time></trkpt><trkpt lat="43.35827687180718" lon="11.427814411487685"><ele>259.66666666666663</ele><time>2026-04-08T16:16:23.998Z</time></trkpt><trkpt lat="43.358153384077006" lon="11.42759294178506"><ele>256.0</ele><time>2026-04-08T16:16:24.998Z</time></trkpt><trkpt lat="43.358036038165395" lon="11.427392281408562"><ele>255.0</ele><time>2026-04-08T16:16:25.998Z</time></trkpt><trkpt lat="43.3579023376062" lon="11.427231685471131"><ele>254.0</ele><time>2026-04-08T16:16:26.998Z</time></trkpt><trkpt lat="43.35774339635631" lon="11.427095671385718"><ele>253.0</ele><time>2026-04-08T16:16:27.998Z</time></trkpt><trkpt lat="43.35754026307171" lon="11.42698827355533"><ele>253.0</ele><time>2026-04-08T16:16:29Z</time></trkpt><trkpt lat="43.35732914880483" lon="11.426844577288902"><ele>253.0</ele><time>2026-04-08T16:16:30Z</time></trkpt><trkpt lat="43.35710620314552" lon="11.426723723828974"><ele>254.0</ele><time>2026-04-08T16:16:31Z</time></trkpt><trkpt lat="43.35693334713683" lon="11.426584291773032"><ele>255.0</ele><time>2026-04-08T16:16:32Z</time></trkpt><trkpt lat="43.3567235282994" lon="11.426455466837279"><ele>256.0</ele><time>2026-04-08T16:16:33Z</time></trkpt><trkpt lat="43.35654158026022" lon="11.426268253708127"><ele>252.66666666666666</ele><time>2026-04-08T16:16:34Z</time></trkpt><trkpt lat="43.35640612474875" lon="11.426096294308854"><ele>249.33333333333331</ele><time>2026-04-08T16:16:35Z</time></trkpt><trkpt lat="43.3562255149112" lon="11.425858421365474"><ele>246.0</ele><time>2026-04-08T16:16:36Z</time></trkpt><trkpt lat="43.35603672250067" lon="11.425636741178806"><ele>243.0</ele><time>2026-04-08T16:16:37Z</time></trkpt><trkpt lat="43.35585059117023" lon="11.425371475164562"><ele>240.0</ele><time>2026-04-08T16:16:38Z</time></trkpt><trkpt lat="43.35566207111244" lon="11.425124225093624"><ele>240.0</ele><time>2026-04-08T16:16:39Z</time></trkpt><trkpt lat="43.35548334558216" lon="11.424894467892438"><ele>240.0</ele><time>2026-04-08T16:16:40Z</time></trkpt><trkpt lat="43.35531858324282" lon="11.424682967872673"><ele>238.66666666666669</ele><time>2026-04-08T16:16:41Z</time></trkpt><trkpt lat="43.3551804035541" lon="11.424490858843036"><ele>237.33333333333334</ele><time>2026-04-08T16:16:42Z</time></trkpt><trkpt lat="43.35506811993557" lon="11.424326412243454"><ele>236.0</ele><time>2026-04-08T16:16:43Z</time></trkpt><trkpt lat="43.354993452938785" lon="11.424208561302422"><ele>236.0</ele><time>2026-04-08T16:16:44Z</time></trkpt><trkpt lat="43.35496885707256" lon="11.424108670320992"><ele>236.0</ele><time>2026-04-08T16:16:45Z</time></trkpt><trkpt lat="43.35494436874357" lon="11.423973278521"><ele>236.0</ele><time>2026-04-08T16:16:46Z</time></trkpt><trkpt lat="43.35496407788103" lon="11.423804210306352"><ele>236.0</ele><time>2026-04-08T16:16:47Z</time></trkpt><trkpt lat="43.355016494108504" lon="11.423597582066705"><ele>234.66666666666669</ele><time>2026-04-08T16:16:48Z</time></trkpt><trkpt lat="43.3550788547917" lon="11.423355678044821"><ele>233.33333333333331</ele><time>2026-04-08T16:16:49Z</time></trkpt><trkpt lat="43.355147157009036" lon="11.423088693443267"><ele>232.0</ele><time>2026-04-08T16:16:49.999Z</time></trkpt><trkpt lat="43.355199052656424" lon="11.422803386592834"><ele>229.66666666666666</ele><time>2026-04-08T16:16:50.999Z</time></trkpt><trkpt lat="43.35525318786034" lon="11.422526578888379"><ele>227.33333333333331</ele><time>2026-04-08T16:16:51.999Z</time></trkpt><trkpt lat="43.35529315077634" lon="11.422261698078705"><ele>225.0</ele><time>2026-04-08T16:16:52.999Z</time></trkpt><trkpt lat="43.35532182795967" lon="11.422005422267253"><ele>222.66666666666669</ele><time>2026-04-08T16:16:53.999Z</time></trkpt><trkpt lat="43.35534242070223" lon="11.42175963759778"><ele>220.33333333333334</ele><time>2026-04-08T16:16:54.999Z</time></trkpt><trkpt lat="43.35535694208977" lon="11.421521749683768"><ele>218.0</ele><time>2026-04-08T16:16:55.999Z</time></trkpt><trkpt lat="43.35537663843726" lon="11.421288461490414"><ele>217.0</ele><time>2026-04-08T16:16:56.999Z</time></trkpt><trkpt lat="43.35541446128351" lon="11.421042843786125"><ele>216.0</ele><time>2026-04-08T16:16:57.999Z</time></trkpt><trkpt lat="43.355473251602696" lon="11.420793226119503"><ele>215.0</ele><time>2026-04-08T16:16:58.999Z</time></trkpt><trkpt lat="43.35550224850488" lon="11.42055799259879"><ele>215.66666666666669</ele><time>2026-04-08T16:16:59.999Z</time></trkpt><trkpt lat="43.3555447789936" lon="11.420343612070102"><ele>216.33333333333331</ele><time>2026-04-08T16:17:00.999Z</time></trkpt><trkpt lat="43.35559368235974" lon="11.420121976922573"><ele>217.0</ele><time>2026-04-08T16:17:01.999Z</time></trkpt><trkpt lat="43.3556519361373" lon="11.419877142135755"><ele>216.66666666666666</ele><time>2026-04-08T16:17:02.999Z</time></trkpt><trkpt lat="43.35571734132262" lon="11.419620846541426"><ele>216.33333333333331</ele><time>2026-04-08T16:17:03.999Z</time></trkpt><trkpt lat="43.35581622216525" lon="11.419362179529013"><ele>216.0</ele><time>2026-04-08T16:17:04.999Z</time></trkpt><trkpt lat="43.3559394582664" lon="11.419098572168117"><ele>216.0</ele><time>2026-04-08T16:17:05.999Z</time></trkpt><trkpt lat="43.35606836069337" lon="11.41883268976368"><ele>216.0</ele><time>2026-04-08T16:17:06.999Z</time></trkpt><trkpt lat="43.35618779629296" lon="11.418584628675116"><ele>216.0</ele><time>2026-04-08T16:17:07.999Z</time></trkpt><trkpt lat="43.356298420061854" lon="11.418351404206344"><ele>216.33333333333331</ele><time>2026-04-08T16:17:08.999Z</time></trkpt><trkpt lat="43.35640148693565" lon="11.418123540720618"><ele>216.66666666666666</ele><time>2026-04-08T16:17:09.999Z</time></trkpt><trkpt lat="43.356505987143855" lon="11.417902272497516"><ele>217.0</ele><time>2026-04-08T16:17:10.999Z</time></trkpt><trkpt lat="43.35660639728284" lon="11.417692944975338"><ele>217.5</ele><time>2026-04-08T16:17:11.999Z</time></trkpt><trkpt lat="43.35669406725744" lon="11.417503026551994"><ele>218.0</ele><time>2026-04-08T16:17:12.999Z</time></trkpt><trkpt lat="43.35676864534887" lon="11.417337872867712"><ele>218.5</ele><time>2026-04-08T16:17:13.999Z</time></trkpt><trkpt lat="43.356821825283546" lon="11.417203181962988"><ele>219.0</ele><time>2026-04-08T16:17:14.999Z</time></trkpt><trkpt lat="43.356847329313204" lon="11.417069755760547"><ele>219.0</ele><time>2026-04-08T16:17:15.999Z</time></trkpt><trkpt lat="43.35686106352751" lon="11.416949598801112"><ele>218.99999999999997</ele><time>2026-04-08T16:17:16.999Z</time></trkpt><trkpt lat="43.35688641989054" lon="11.416824911392698"><ele>218.99999999999997</ele><time>2026-04-08T16:17:18.999Z</time></trkpt><trkpt lat="43.35689982918516" lon="11.41670406057379"><ele>219.0</ele><time>2026-04-08T16:17:21.999Z</time></trkpt><trkpt lat="43.3568478739354" lon="11.416598298572612"><ele>219.0</ele><time>2026-04-08T16:17:22.999Z</time></trkpt><trkpt lat="43.35678526557967" lon="11.416494793581995"><ele>219.0</ele><time>2026-04-08T16:17:23.999Z</time></trkpt><trkpt lat="43.356699043052714" lon="11.416358863095105"><ele>219.0</ele><time>2026-04-08T16:17:24.999Z</time></trkpt><trkpt lat="43.3566124402408" lon="11.41622017602645"><ele>219.0</ele><time>2026-04-08T16:17:25.999Z</time></trkpt><trkpt lat="43.35651704877815" lon="11.41605990553283"><ele>219.0</ele><time>2026-04-08T16:17:26.999Z</time></trkpt><trkpt lat="43.35642584392563" lon="11.415922810802202"><ele>219.75</ele><time>2026-04-08T16:17:27.999Z</time></trkpt><trkpt lat="43.35633220560904" lon="11.415839620920808"><ele>220.5</ele><time>2026-04-08T16:17:28.999Z</time></trkpt><trkpt lat="43.35622050018177" lon="11.4158166000652"><ele>221.25</ele><time>2026-04-08T16:17:29.999Z</time></trkpt><trkpt lat="43.356081604032234" lon="11.415841109329149"><ele>222.0</ele><time>2026-04-08T16:17:30.999Z</time></trkpt><trkpt lat="43.35593235725308" lon="11.415901353168474"><ele>222.0</ele><time>2026-04-08T16:17:31.999Z</time></trkpt><trkpt lat="43.355772560095296" lon="11.416006554308703"><ele>222.0</ele><time>2026-04-08T16:17:32.999Z</time></trkpt><trkpt lat="43.3556257534048" lon="11.416122386356493"><ele>222.0</ele><time>2026-04-08T16:17:33.999Z</time></trkpt><trkpt lat="43.355500465463265" lon="11.416212472241588"><ele>223.25</ele><time>2026-04-08T16:17:34.999Z</time></trkpt><trkpt lat="43.35537767170757" lon="11.416258663204356"><ele>224.5</ele><time>2026-04-08T16:17:35.999Z</time></trkpt><trkpt lat="43.35523460086621" lon="11.416230764755399"><ele>225.75</ele><time>2026-04-08T16:17:36.999Z</time></trkpt><trkpt lat="43.35505839215873" lon="11.416223223045202"><ele>227.0</ele><time>2026-04-08T16:17:37.999Z</time></trkpt><trkpt lat="43.35484337979949" lon="11.416175657497453"><ele>226.33333333333334</ele><time>2026-04-08T16:17:38.999Z</time></trkpt><trkpt lat="43.35465945237195" lon="11.416159183182382"><ele>225.66666666666669</ele><time>2026-04-08T16:17:39.999Z</time></trkpt><trkpt lat="43.35447689761189" lon="11.416140377091912"><ele>225.0</ele><time>2026-04-08T16:17:40.999Z</time></trkpt><trkpt lat="43.35430104070275" lon="11.416123265610443"><ele>225.0</ele><time>2026-04-08T16:17:41.999Z</time></trkpt><trkpt lat="43.35411871091167" lon="11.416102401762448"><ele>225.0</ele><time>2026-04-08T16:17:42.999Z</time></trkpt><trkpt lat="43.35392971219086" lon="11.416079855237198"><ele>225.0</ele><time>2026-04-08T16:17:43.999Z</time></trkpt><trkpt lat="43.35374314585322" lon="11.416055878790214"><ele>224.33333333333331</ele><time>2026-04-08T16:17:44.999Z</time></trkpt><trkpt lat="43.353556453298566" lon="11.416023946377187"><ele>223.66666666666666</ele><time>2026-04-08T16:17:45.998Z</time></trkpt><trkpt lat="43.35335863053019" lon="11.415969592906697"><ele>223.0</ele><time>2026-04-08T16:17:46.998Z</time></trkpt><trkpt lat="43.353175014354576" lon="11.415895207422553"><ele>223.0</ele><time>2026-04-08T16:17:47.998Z</time></trkpt><trkpt lat="43.353003505510266" lon="11.415844587386776"><ele>223.0</ele><time>2026-04-08T16:17:48.998Z</time></trkpt><trkpt lat="43.3528138057966" lon="11.415801103394012"><ele>223.0</ele><time>2026-04-08T16:17:49.998Z</time></trkpt><trkpt lat="43.35263558686455" lon="11.415753180732704"><ele>223.0</ele><time>2026-04-08T16:17:50.998Z</time></trkpt><trkpt lat="43.352451494238046" lon="11.41569991035009"><ele>223.0</ele><time>2026-04-08T16:17:51.998Z</time></trkpt><trkpt lat="43.352271974751055" lon="11.415648076111337"><ele>223.0</ele><time>2026-04-08T16:17:52.998Z</time></trkpt><trkpt lat="43.352095379988896" lon="11.415577266862527"><ele>222.33333333333331</ele><time>2026-04-08T16:17:53.998Z</time></trkpt><trkpt lat="43.35192828634676" lon="11.41555533161975"><ele>221.66666666666669</ele><time>2026-04-08T16:17:54.998Z</time></trkpt><trkpt lat="43.35177094249203" lon="11.415505413510418"><ele>221.0</ele><time>2026-04-08T16:17:55.998Z</time></trkpt><trkpt lat="43.3516092256278" lon="11.415449568823618"><ele>221.0</ele><time>2026-04-08T16:17:56.998Z</time></trkpt><trkpt lat="43.35143546374038" lon="11.41540111638887"><ele>221.0</ele><time>2026-04-08T16:17:57.998Z</time></trkpt><trkpt lat="43.35124312115297" lon="11.415346578541469"><ele>221.0</ele><time>2026-04-08T16:17:58.998Z</time></trkpt><trkpt lat="43.351038973790224" lon="11.415290380874659"><ele>220.66666666666669</ele><time>2026-04-08T16:17:59.998Z</time></trkpt><trkpt lat="43.35082988817698" lon="11.415229561537133"><ele>220.33333333333331</ele><time>2026-04-08T16:18:00.998Z</time></trkpt><trkpt lat="43.35062090786717" lon="11.415169343803509"><ele>220.0</ele><time>2026-04-08T16:18:01.998Z</time></trkpt><trkpt lat="43.35042934188562" lon="11.415113337805368"><ele>221.5</ele><time>2026-04-08T16:18:02.998Z</time></trkpt><trkpt lat="43.35027627178679" lon="11.415064151844485"><ele>223.0</ele><time>2026-04-08T16:18:03.998Z</time></trkpt><trkpt lat="43.35015062714324" lon="11.414994279143793"><ele>224.5</ele><time>2026-04-08T16:18:04.998Z</time></trkpt><trkpt lat="43.350044416346414" lon="11.414865558046381"><ele>226.0</ele><time>2026-04-08T16:18:05.998Z</time></trkpt><trkpt lat="43.349944712605534" lon="11.414682183265322"><ele>226.33333333333331</ele><time>2026-04-08T16:18:06.998Z</time></trkpt><trkpt lat="43.349830625486156" lon="11.414476769915234"><ele>226.66666666666669</ele><time>2026-04-08T16:18:07.998Z</time></trkpt><trkpt lat="43.34969889830132" lon="11.41426782746426"><ele>227.0</ele><time>2026-04-08T16:18:08.998Z</time></trkpt><trkpt lat="43.349580164139624" lon="11.414035822867087"><ele>227.0</ele><time>2026-04-08T16:18:09.998Z</time></trkpt><trkpt lat="43.349491767464116" lon="11.413765238548802"><ele>227.0</ele><time>2026-04-08T16:18:10.998Z</time></trkpt><trkpt lat="43.349402865552946" lon="11.413506504745122"><ele>227.0</ele><time>2026-04-08T16:18:11.998Z</time></trkpt><trkpt lat="43.34930575929402" lon="11.41327695576697"><ele>227.0</ele><time>2026-04-08T16:18:12.998Z</time></trkpt><trkpt lat="43.34918963603614" lon="11.413050025991746"><ele>227.0</ele><time>2026-04-08T16:18:13.998Z</time></trkpt><trkpt lat="43.349038462426925" lon="11.412843757037335"><ele>227.0</ele><time>2026-04-08T16:18:14.998Z</time></trkpt><trkpt lat="43.34889080468235" lon="11.412663583214357"><ele>228.66666666666669</ele><time>2026-04-08T16:18:15.998Z</time></trkpt><trkpt lat="43.34878441086775" lon="11.412443125492976"><ele>230.33333333333331</ele><time>2026-04-08T16:18:16.998Z</time></trkpt><trkpt lat="43.34868608023048" lon="11.41219756417917"><ele>232.0</ele><time>2026-04-08T16:18:17.998Z</time></trkpt><trkpt lat="43.34860995072183" lon="11.411948841776974"><ele>232.0</ele><time>2026-04-08T16:18:18.998Z</time></trkpt><trkpt lat="43.34855789777174" lon="11.411698996295437"><ele>232.0</ele><time>2026-04-08T16:18:19.998Z</time></trkpt><trkpt lat="43.348538922461195" lon="11.411423204333717"><ele>232.0</ele><time>2026-04-08T16:18:20.998Z</time></trkpt><trkpt lat="43.34851952787481" lon="11.411121556917275"><ele>234.0</ele><time>2026-04-08T16:18:21.998Z</time></trkpt><trkpt lat="43.34847796068395" lon="11.41082476310224"><ele>236.0</ele><time>2026-04-08T16:18:22.998Z</time></trkpt><trkpt lat="43.348432025064106" lon="11.410538009106865"><ele>238.0</ele><time>2026-04-08T16:18:23.998Z</time></trkpt><trkpt lat="43.348361117549885" lon="11.410248655433753"><ele>239.0</ele><time>2026-04-08T16:18:24.998Z</time></trkpt><trkpt lat="43.34828185193497" lon="11.409952006906027"><ele>240.0</ele><time>2026-04-08T16:18:25.998Z</time></trkpt><trkpt lat="43.348218991310794" lon="11.409647847542642"><ele>240.0</ele><time>2026-04-08T16:18:26.998Z</time></trkpt><trkpt lat="43.34814854340882" lon="11.409371147275262"><ele>240.0</ele><time>2026-04-08T16:18:27.998Z</time></trkpt><trkpt lat="43.34807745789363" lon="11.409122576597463"><ele>240.0</ele><time>2026-04-08T16:18:28.998Z</time></trkpt><trkpt lat="43.34803949229569" lon="11.408870411436574"><ele>248.0</ele><time>2026-04-08T16:18:29.998Z</time></trkpt><trkpt lat="43.34804105140778" lon="11.408605505820029"><ele>256.0</ele><time>2026-04-08T16:18:30.998Z</time></trkpt><trkpt lat="43.34803186439575" lon="11.408326475767401"><ele>264.0</ele><time>2026-04-08T16:18:31.998Z</time></trkpt><trkpt lat="43.348029158260644" lon="11.408036160560641"><ele>266.0</ele><time>2026-04-08T16:18:32.998Z</time></trkpt><trkpt lat="43.34803506465568" lon="11.40773794962332"><ele>268.0</ele><time>2026-04-08T16:18:33.998Z</time></trkpt><trkpt lat="43.34804624752625" lon="11.407442078903875"><ele>270.0</ele><time>2026-04-08T16:18:35Z</time></trkpt><trkpt lat="43.348061615567545" lon="11.407143596937537"><ele>263.0</ele><time>2026-04-08T16:18:36Z</time></trkpt><trkpt lat="43.348066422936526" lon="11.406868120867871"><ele>256.0</ele><time>2026-04-08T16:18:37Z</time></trkpt><trkpt lat="43.34809395804044" lon="11.406617034720032"><ele>249.0</ele><time>2026-04-08T16:18:38Z</time></trkpt><trkpt lat="43.34814686941074" lon="11.406385761493505"><ele>251.33333333333331</ele><time>2026-04-08T16:18:39Z</time></trkpt><trkpt lat="43.34821424093213" lon="11.406142167049033"><ele>253.66666666666666</ele><time>2026-04-08T16:18:40Z</time></trkpt><trkpt lat="43.34829578102678" lon="11.40588219306606"><ele>256.0</ele><time>2026-04-08T16:18:41Z</time></trkpt><trkpt lat="43.348360241617634" lon="11.405621866249023"><ele>259.66666666666663</ele><time>2026-04-08T16:18:42Z</time></trkpt><trkpt lat="43.34842019996418" lon="11.405369939992255"><ele>263.3333333333333</ele><time>2026-04-08T16:18:43Z</time></trkpt><trkpt lat="43.34845166811228" lon="11.405091865793473"><ele>267.0</ele><time>2026-04-08T16:18:44Z</time></trkpt><trkpt lat="43.34846789824459" lon="11.4048081319681"><ele>267.6666666666667</ele><time>2026-04-08T16:18:45Z</time></trkpt><trkpt lat="43.348522420866" lon="11.404583022473515"><ele>268.33333333333337</ele><time>2026-04-08T16:18:46Z</time></trkpt><trkpt lat="43.34859015351782" lon="11.40437462074041"><ele>269.0</ele><time>2026-04-08T16:18:47Z</time></trkpt><trkpt lat="43.34868213029003" lon="11.404190081137735"><ele>269.0</ele><time>2026-04-08T16:18:48Z</time></trkpt><trkpt lat="43.348803820894005" lon="11.404018209639169"><ele>269.0</ele><time>2026-04-08T16:18:49Z</time></trkpt><trkpt lat="43.34892000800942" lon="11.403818498555378"><ele>269.0</ele><time>2026-04-08T16:18:50Z</time></trkpt><trkpt lat="43.349039159591015" lon="11.403629570196607"><ele>270.0</ele><time>2026-04-08T16:18:51Z</time></trkpt><trkpt lat="43.34910901480109" lon="11.40340592812009"><ele>271.0</ele><time>2026-04-08T16:18:52Z</time></trkpt><trkpt lat="43.34914658763238" lon="11.40317664356721"><ele>272.0</ele><time>2026-04-08T16:18:53Z</time></trkpt><trkpt lat="43.34915648732287" lon="11.402907656569973"><ele>274.33333333333337</ele><time>2026-04-08T16:18:54Z</time></trkpt><trkpt lat="43.349169871205795" lon="11.402618604457981"><ele>276.6666666666667</ele><time>2026-04-08T16:18:55Z</time></trkpt><trkpt lat="43.349188722882225" lon="11.402336090377407"><ele>279.0</ele><time>2026-04-08T16:18:55.999Z</time></trkpt><trkpt lat="43.34921405487273" lon="11.40209891811398"><ele>281.0</ele><time>2026-04-08T16:18:56.999Z</time></trkpt><trkpt lat="43.34925278904399" lon="11.401892995482653"><ele>283.0</ele><time>2026-04-08T16:18:57.999Z</time></trkpt><trkpt lat="43.34932516576242" lon="11.401729907277492"><ele>285.0</ele><time>2026-04-08T16:18:58.999Z</time></trkpt><trkpt lat="43.34939027988272" lon="11.401593400193384"><ele>287.0</ele><time>2026-04-08T16:18:59.999Z</time></trkpt><trkpt lat="43.349498393330194" lon="11.40153628125131"><ele>287.0</ele><time>2026-04-08T16:19:00.999Z</time></trkpt><trkpt lat="43.34960837779608" lon="11.401521325115187"><ele>287.0</ele><time>2026-04-08T16:19:01.999Z</time></trkpt><trkpt lat="43.3497361517059" lon="11.401556243478515"><ele>287.0</ele><time>2026-04-08T16:19:02.999Z</time></trkpt><trkpt lat="43.34986703049324" lon="11.40159765449985"><ele>287.0</ele><time>2026-04-08T16:19:03.999Z</time></trkpt><trkpt lat="43.34996900198258" lon="11.4016518245395"><ele>286.0</ele><time>2026-04-08T16:19:04.999Z</time></trkpt><trkpt lat="43.35006481488626" lon="11.401659137547535"><ele>285.0</ele><time>2026-04-08T16:19:05.999Z</time></trkpt><trkpt lat="43.350157102782724" lon="11.401614031748167"><ele>284.0</ele><time>2026-04-08T16:19:06.999Z</time></trkpt><trkpt lat="43.35022809040902" lon="11.4015022227893"><ele>283.0</ele><time>2026-04-08T16:19:07.999Z</time></trkpt><trkpt lat="43.350261550016526" lon="11.401359641978338"><ele>282.0</ele><time>2026-04-08T16:19:08.999Z</time></trkpt><trkpt lat="43.35024106381923" lon="11.401209622403414"><ele>284.5</ele><time>2026-04-08T16:19:09.999Z</time></trkpt><trkpt lat="43.350163336403604" lon="11.401065838681667"><ele>287.0</ele><time>2026-04-08T16:19:10.999Z</time></trkpt><trkpt lat="43.35004740465415" lon="11.400920378015677"><ele>289.5</ele><time>2026-04-08T16:19:11.999Z</time></trkpt><trkpt lat="43.34992371098494" lon="11.400786429355318"><ele>292.0</ele><time>2026-04-08T16:19:12.999Z</time></trkpt><trkpt lat="43.349804522344705" lon="11.400674193437117"><ele>292.66666666666663</ele><time>2026-04-08T16:19:13.999Z</time></trkpt><trkpt lat="43.34967567919493" lon="11.400606489037141"><ele>293.3333333333333</ele><time>2026-04-08T16:19:14.999Z</time></trkpt><trkpt lat="43.34952799952729" lon="11.40059593732491"><ele>294.0</ele><time>2026-04-08T16:19:15.999Z</time></trkpt><trkpt lat="43.3493644358453" lon="11.400655490306708"><ele>294.0</ele><time>2026-04-08T16:19:16.999Z</time></trkpt><trkpt lat="43.349192767508825" lon="11.400767840529289"><ele>294.0</ele><time>2026-04-08T16:19:17.999Z</time></trkpt><trkpt lat="43.34903633004165" lon="11.400877582068198"><ele>294.0</ele><time>2026-04-08T16:19:18.999Z</time></trkpt><trkpt lat="43.34889575780199" lon="11.400967780565665"><ele>295.2</ele><time>2026-04-08T16:19:19.999Z</time></trkpt><trkpt lat="43.34878590447293" lon="11.401035796428985"><ele>296.4</ele><time>2026-04-08T16:19:20.999Z</time></trkpt><trkpt lat="43.348702885742796" lon="11.401060307963736"><ele>297.6</ele><time>2026-04-08T16:19:21.999Z</time></trkpt><trkpt lat="43.34861984560819" lon="11.401047867666218"><ele>298.8</ele><time>2026-04-08T16:19:22.999Z</time></trkpt><trkpt lat="43.348538360908734" lon="11.401000225501233"><ele>300.0</ele><time>2026-04-08T16:19:23.999Z</time></trkpt><trkpt lat="43.348447483278896" lon="11.400902450953676"><ele>300.0</ele><time>2026-04-08T16:19:24.999Z</time></trkpt><trkpt lat="43.348340918547486" lon="11.400766247775076"><ele>300.0</ele><time>2026-04-08T16:19:25.999Z</time></trkpt><trkpt lat="43.34822741724647" lon="11.400631620919256"><ele>300.0</ele><time>2026-04-08T16:19:26.999Z</time></trkpt><trkpt lat="43.348094474012406" lon="11.400494700002955"><ele>302.3333333333333</ele><time>2026-04-08T16:19:27.999Z</time></trkpt><trkpt lat="43.34793802250162" lon="11.400364319361078"><ele>304.66666666666663</ele><time>2026-04-08T16:19:28.999Z</time></trkpt><trkpt lat="43.347780727406196" lon="11.400265605496346"><ele>307.0</ele><time>2026-04-08T16:19:29.999Z</time></trkpt><trkpt lat="43.34764645102264" lon="11.400197789439446"><ele>307.0</ele><time>2026-04-08T16:19:30.999Z</time></trkpt><trkpt lat="43.34754480997805" lon="11.400130358606987"><ele>307.0</ele><time>2026-04-08T16:19:31.999Z</time></trkpt><trkpt lat="43.347481339128045" lon="11.40001887735367"><ele>307.0</ele><time>2026-04-08T16:19:32.999Z</time></trkpt><trkpt lat="43.34742281974417" lon="11.399920750567734"><ele>307.0</ele><time>2026-04-08T16:19:33.999Z</time></trkpt><trkpt lat="43.34739863683816" lon="11.399788465367854"><ele>307.0</ele><time>2026-04-08T16:19:34.999Z</time></trkpt><trkpt lat="43.347400692132375" lon="11.399668796731913"><ele>307.2</ele><time>2026-04-08T16:19:35.999Z</time></trkpt><trkpt lat="43.34745696829918" lon="11.399576430260485"><ele>307.4</ele><time>2026-04-08T16:19:36.999Z</time></trkpt><trkpt lat="43.34751450077413" lon="11.399456282482953"><ele>307.6</ele><time>2026-04-08T16:19:37.999Z</time></trkpt><trkpt lat="43.34757679420493" lon="11.399371443467437"><ele>307.8</ele><time>2026-04-08T16:19:38.999Z</time></trkpt><trkpt lat="43.34765510904645" lon="11.399302485292484"><ele>308.0</ele><time>2026-04-08T16:19:39.999Z</time></trkpt><trkpt lat="43.34776803711372" lon="11.39923597068379"><ele>308.0</ele><time>2026-04-08T16:19:40.999Z</time></trkpt><trkpt lat="43.3478932932632" lon="11.399129146911307"><ele>308.0</ele><time>2026-04-08T16:19:41.999Z</time></trkpt><trkpt lat="43.348049787369405" lon="11.39906659652106"><ele>308.0</ele><time>2026-04-08T16:19:42.999Z</time></trkpt><trkpt lat="43.3481998941824" lon="11.399032132792392"><ele>308.6666666666667</ele><time>2026-04-08T16:19:43.999Z</time></trkpt><trkpt lat="43.348359040884" lon="11.398993334150658"><ele>309.3333333333333</ele><time>2026-04-08T16:19:44.999Z</time></trkpt><trkpt lat="43.34850771755541" lon="11.398953800741877"><ele>310.0</ele><time>2026-04-08T16:19:45.999Z</time></trkpt><trkpt lat="43.348660468170934" lon="11.398918172425516"><ele>309.0</ele><time>2026-04-08T16:19:46.999Z</time></trkpt><trkpt lat="43.34889208567613" lon="11.398813003763797"><ele>308.0</ele><time>2026-04-08T16:19:47.999Z</time></trkpt><trkpt lat="43.349063997570134" lon="11.398742029485286"><ele>307.0</ele><time>2026-04-08T16:19:48.998Z</time></trkpt><trkpt lat="43.34923029163039" lon="11.398684237433738"><ele>307.0</ele><time>2026-04-08T16:19:49.998Z</time></trkpt><trkpt lat="43.34939251230222" lon="11.398622787448444"><ele>307.0</ele><time>2026-04-08T16:19:50.998Z</time></trkpt><trkpt lat="43.34955859134439" lon="11.39856874911029"><ele>307.0</ele><time>2026-04-08T16:19:51.998Z</time></trkpt><trkpt lat="43.349727803133696" lon="11.39850920691286"><ele>308.0</ele><time>2026-04-08T16:19:52.998Z</time></trkpt><trkpt lat="43.34989351136513" lon="11.39844420505836"><ele>309.0</ele><time>2026-04-08T16:19:53.998Z</time></trkpt><trkpt lat="43.3500410172452" lon="11.398382168402687"><ele>310.0</ele><time>2026-04-08T16:19:54.998Z</time></trkpt><trkpt lat="43.350160622363795" lon="11.39831708078163"><ele>310.0</ele><time>2026-04-08T16:19:55.998Z</time></trkpt><trkpt lat="43.350248546237154" lon="11.398223121656915"><ele>310.0</ele><time>2026-04-08T16:19:56.998Z</time></trkpt><trkpt lat="43.35030404650845" lon="11.398084305231063"><ele>310.0</ele><time>2026-04-08T16:19:57.998Z</time></trkpt><trkpt lat="43.350337416610465" lon="11.397893001516085"><ele>310.0</ele><time>2026-04-08T16:19:58.998Z</time></trkpt><trkpt lat="43.35035119542258" lon="11.397666697937265"><ele>309.0</ele><time>2026-04-08T16:19:59.998Z</time></trkpt><trkpt lat="43.35037405694554" lon="11.397435737555664"><ele>308.0</ele><time>2026-04-08T16:20:00.998Z</time></trkpt><trkpt lat="43.35038471161668" lon="11.39716829569484"><ele>307.0</ele><time>2026-04-08T16:20:01.998Z</time></trkpt><trkpt lat="43.35039948647716" lon="11.39688903280978"><ele>307.0</ele><time>2026-04-08T16:20:02.998Z</time></trkpt><trkpt lat="43.35041392857552" lon="11.396650617740423"><ele>307.0</ele><time>2026-04-08T16:20:03.998Z</time></trkpt><trkpt lat="43.35042667449234" lon="11.39643171801324"><ele>307.0</ele><time>2026-04-08T16:20:04.998Z</time></trkpt><trkpt lat="43.350442295370755" lon="11.396204749283674"><ele>306.3333333333333</ele><time>2026-04-08T16:20:05.998Z</time></trkpt><trkpt lat="43.350464143437144" lon="11.39595520231555"><ele>305.6666666666667</ele><time>2026-04-08T16:20:06.998Z</time></trkpt><trkpt lat="43.35048397850481" lon="11.395685246890778"><ele>305.0</ele><time>2026-04-08T16:20:07.998Z</time></trkpt><trkpt lat="43.35049433714659" lon="11.395415471839454"><ele>304.6666666666667</ele><time>2026-04-08T16:20:08.998Z</time></trkpt><trkpt lat="43.35049500834702" lon="11.395138591093756"><ele>304.3333333333333</ele><time>2026-04-08T16:20:09.998Z</time></trkpt><trkpt lat="43.35048001615602" lon="11.394856477184131"><ele>304.0</ele><time>2026-04-08T16:20:10.998Z</time></trkpt><trkpt lat="43.35044721616843" lon="11.39454628748769"><ele>304.0</ele><time>2026-04-08T16:20:11.998Z</time></trkpt><trkpt lat="43.3504019097202" lon="11.394217107504804"><ele>304.0</ele><time>2026-04-08T16:20:12.998Z</time></trkpt><trkpt lat="43.3503376178739" lon="11.393887062057695"><ele>304.5</ele><time>2026-04-08T16:20:13.998Z</time></trkpt><trkpt lat="43.35025908497752" lon="11.393563157456052"><ele>305.0</ele><time>2026-04-08T16:20:14.998Z</time></trkpt><trkpt lat="43.3501698199268" lon="11.393247016242093"><ele>306.0</ele><time>2026-04-08T16:20:15.998Z</time></trkpt><trkpt lat="43.3500697012609" lon="11.392966845174158"><ele>307.0</ele><time>2026-04-08T16:20:16.998Z</time></trkpt><trkpt lat="43.349950354486" lon="11.392719672453207"><ele>308.0</ele><time>2026-04-08T16:20:17.998Z</time></trkpt><trkpt lat="43.34983119204541" lon="11.39249626675672"><ele>308.6666666666667</ele><time>2026-04-08T16:20:18.998Z</time></trkpt><trkpt lat="43.3496828105422" lon="11.392270752766663"><ele>309.3333333333333</ele><time>2026-04-08T16:20:19.998Z</time></trkpt><trkpt lat="43.34951622944944" lon="11.39206452807548"><ele>310.0</ele><time>2026-04-08T16:20:20.998Z</time></trkpt><trkpt lat="43.34933054839296" lon="11.391845271623414"><ele>310.0</ele><time>2026-04-08T16:20:21.998Z</time></trkpt><trkpt lat="43.34915587998038" lon="11.391638145455588"><ele>310.0</ele><time>2026-04-08T16:20:22.998Z</time></trkpt><trkpt lat="43.34899743989231" lon="11.391465607480924"><ele>310.0</ele><time>2026-04-08T16:20:23.998Z</time></trkpt><trkpt lat="43.34884164199173" lon="11.391302172681742"><ele>309.6</ele><time>2026-04-08T16:20:24.998Z</time></trkpt><trkpt lat="43.34874668172812" lon="11.391210417330173"><ele>309.2</ele><time>2026-04-08T16:20:25.998Z</time></trkpt><trkpt lat="43.34869545194281" lon="11.391120352886762"><ele>308.8</ele><time>2026-04-08T16:20:26.998Z</time></trkpt><trkpt lat="43.34867056146815" lon="11.39099908826779"><ele>308.4</ele><time>2026-04-08T16:20:27.998Z</time></trkpt><trkpt lat="43.348667611078795" lon="11.390855319429093"><ele>308.0</ele><time>2026-04-08T16:20:28.998Z</time></trkpt><trkpt lat="43.34866868024276" lon="11.390654839830537"><ele>306.33333333333337</ele><time>2026-04-08T16:20:29.998Z</time></trkpt><trkpt lat="43.34867574612004" lon="11.39045931672171"><ele>304.6666666666667</ele><time>2026-04-08T16:20:30.998Z</time></trkpt><trkpt lat="43.34870999483997" lon="11.390249138157786"><ele>303.0</ele><time>2026-04-08T16:20:31.998Z</time></trkpt><trkpt lat="43.348777957867995" lon="11.390015283664548"><ele>303.0</ele><time>2026-04-08T16:20:32.998Z</time></trkpt><trkpt lat="43.348888727993646" lon="11.389737827677246"><ele>303.0</ele><time>2026-04-08T16:20:33.998Z</time></trkpt><trkpt lat="43.34898763528692" lon="11.38948710921813"><ele>303.0</ele><time>2026-04-08T16:20:34.998Z</time></trkpt><trkpt lat="43.34907009841167" lon="11.389244085174003"><ele>303.0</ele><time>2026-04-08T16:20:35.998Z</time></trkpt><trkpt lat="43.34914180361625" lon="11.38900962515249"><ele>303.0</ele><time>2026-04-08T16:20:36.998Z</time></trkpt><trkpt lat="43.34922474913195" lon="11.388793490994098"><ele>303.0</ele><time>2026-04-08T16:20:37.998Z</time></trkpt><trkpt lat="43.349303033602524" lon="11.388591553129187"><ele>299.6666666666667</ele><time>2026-04-08T16:20:38.998Z</time></trkpt><trkpt lat="43.349389466116754" lon="11.388454855507737"><ele>296.33333333333337</ele><time>2026-04-08T16:20:39.998Z</time></trkpt><trkpt lat="43.349492199350586" lon="11.388319955975781"><ele>293.0</ele><time>2026-04-08T16:20:40.999Z</time></trkpt><trkpt lat="43.349634189774704" lon="11.38816480370462"><ele>293.6666666666667</ele><time>2026-04-08T16:20:41.999Z</time></trkpt><trkpt lat="43.3497949115611" lon="11.3879840742632"><ele>294.3333333333333</ele><time>2026-04-08T16:20:42.999Z</time></trkpt><trkpt lat="43.3499390908304" lon="11.387784173352767"><ele>295.0</ele><time>2026-04-08T16:20:43.999Z</time></trkpt><trkpt lat="43.350072599785314" lon="11.387591969528748"><ele>295.0</ele><time>2026-04-08T16:20:45Z</time></trkpt><trkpt lat="43.35018287473394" lon="11.387393765171824"><ele>295.0</ele><time>2026-04-08T16:20:45.999Z</time></trkpt><trkpt lat="43.350267488857284" lon="11.387209347606124"><ele>295.0</ele><time>2026-04-08T16:20:46.999Z</time></trkpt><trkpt lat="43.350357350472265" lon="11.387075113860094"><ele>295.0</ele><time>2026-04-08T16:20:48Z</time></trkpt><trkpt lat="43.350477193357094" lon="11.387024309398637"><ele>295.0</ele><time>2026-04-08T16:20:48.999Z</time></trkpt><trkpt lat="43.350607630964554" lon="11.386988406083727"><ele>295.0</ele><time>2026-04-08T16:20:49.999Z</time></trkpt><trkpt lat="43.35074138280523" lon="11.386999119481938"><ele>295.0</ele><time>2026-04-08T16:20:51Z</time></trkpt><trkpt lat="43.35085229425491" lon="11.386994356007763"><ele>295.0</ele><time>2026-04-08T16:20:51.999Z</time></trkpt><trkpt lat="43.3509444305952" lon="11.386990460584352"><ele>295.0</ele><time>2026-04-08T16:20:53Z</time></trkpt><trkpt lat="43.351014295051634" lon="11.386940983943324"><ele>295.0</ele><time>2026-04-08T16:20:54Z</time></trkpt><trkpt lat="43.35105858126382" lon="11.386836284534022"><ele>295.0</ele><time>2026-04-08T16:20:54.999Z</time></trkpt><trkpt lat="43.35107893921831" lon="11.38670981888977"><ele>295.0</ele><time>2026-04-08T16:20:55.999Z</time></trkpt><trkpt lat="43.35104929795264" lon="11.386605360025372"><ele>295.0</ele><time>2026-04-08T16:20:56.999Z</time></trkpt><trkpt lat="43.350980848727886" lon="11.386509424584595"><ele>295.0</ele><time>2026-04-08T16:20:57.999Z</time></trkpt><trkpt lat="43.350889653766934" lon="11.386425480942464"><ele>295.0</ele><time>2026-04-08T16:20:58.999Z</time></trkpt><trkpt lat="43.35076572470067" lon="11.386373603123271"><ele>295.0</ele><time>2026-04-08T16:20:59.999Z</time></trkpt><trkpt lat="43.350597314917096" lon="11.386336781671403"><ele>295.0</ele><time>2026-04-08T16:21:00.999Z</time></trkpt><trkpt lat="43.350439634521464" lon="11.38629403284057"><ele>292.3333333333333</ele><time>2026-04-08T16:21:01.999Z</time></trkpt><trkpt lat="43.350255139934646" lon="11.386217007865866"><ele>289.6666666666667</ele><time>2026-04-08T16:21:02.999Z</time></trkpt><trkpt lat="43.35006267041832" lon="11.38610213648815"><ele>287.0</ele><time>2026-04-08T16:21:03.999Z</time></trkpt><trkpt lat="43.349876836815994" lon="11.385954304574978"><ele>284.6666666666667</ele><time>2026-04-08T16:21:04.999Z</time></trkpt><trkpt lat="43.34969044794768" lon="11.385785958697488"><ele>282.3333333333333</ele><time>2026-04-08T16:21:05.999Z</time></trkpt><trkpt lat="43.34951049636975" lon="11.385658754890887"><ele>280.0</ele><time>2026-04-08T16:21:06.999Z</time></trkpt><trkpt lat="43.349323623649525" lon="11.385579077804115"><ele>280.0</ele><time>2026-04-08T16:21:07.999Z</time></trkpt><trkpt lat="43.34914846534917" lon="11.385507707175798"><ele>280.0</ele><time>2026-04-08T16:21:08.999Z</time></trkpt><trkpt lat="43.3489821183943" lon="11.385398436253976"><ele>280.0</ele><time>2026-04-08T16:21:09.999Z</time></trkpt><trkpt lat="43.34882153629694" lon="11.385261569889217"><ele>277.66666666666663</ele><time>2026-04-08T16:21:10.999Z</time></trkpt><trkpt lat="43.348662611844176" lon="11.385111927530412"><ele>275.3333333333333</ele><time>2026-04-08T16:21:11.999Z</time></trkpt><trkpt lat="43.348518826016715" lon="11.38495391487477"><ele>273.0</ele><time>2026-04-08T16:21:12.999Z</time></trkpt><trkpt lat="43.348387419556225" lon="11.384785254324976"><ele>272.6666666666667</ele><time>2026-04-08T16:21:13.999Z</time></trkpt><trkpt lat="43.34827354483585" lon="11.384597882629192"><ele>272.33333333333337</ele><time>2026-04-08T16:21:14.999Z</time></trkpt><trkpt lat="43.34816742271414" lon="11.384387306298043"><ele>272.0</ele><time>2026-04-08T16:21:15.999Z</time></trkpt><trkpt lat="43.34808268948706" lon="11.384139228621137"><ele>271.0</ele><time>2026-04-08T16:21:16.999Z</time></trkpt><trkpt lat="43.34800395249447" lon="11.383901532188814"><ele>270.0</ele><time>2026-04-08T16:21:17.999Z</time></trkpt><trkpt lat="43.34791705487903" lon="11.38366501539353"><ele>269.0</ele><time>2026-04-08T16:21:18.999Z</time></trkpt><trkpt lat="43.34786826058215" lon="11.383393070882738"><ele>267.0</ele><time>2026-04-08T16:21:19.999Z</time></trkpt><trkpt lat="43.347794436460696" lon="11.383126381557918"><ele>265.0</ele><time>2026-04-08T16:21:20.999Z</time></trkpt><trkpt lat="43.34773712505579" lon="11.38285200662538"><ele>263.0</ele><time>2026-04-08T16:21:21.999Z</time></trkpt><trkpt lat="43.34767890741818" lon="11.38259242053716"><ele>262.33333333333337</ele><time>2026-04-08T16:21:22.999Z</time></trkpt><trkpt lat="43.347625894526395" lon="11.382356825402674"><ele>261.6666666666667</ele><time>2026-04-08T16:21:23.999Z</time></trkpt><trkpt lat="43.34757891826423" lon="11.382130206925812"><ele>261.0</ele><time>2026-04-08T16:21:24.999Z</time></trkpt><trkpt lat="43.34753827095367" lon="11.38194852130624"><ele>261.0</ele><time>2026-04-08T16:21:25.999Z</time></trkpt><trkpt lat="43.347514529067794" lon="11.381812554556756"><ele>261.0</ele><time>2026-04-08T16:21:26.999Z</time></trkpt><trkpt lat="43.34751883002435" lon="11.381683324007255"><ele>261.0</ele><time>2026-04-08T16:21:27.999Z</time></trkpt><trkpt lat="43.34755530452898" lon="11.381555720596058"><ele>261.0</ele><time>2026-04-08T16:21:28.999Z</time></trkpt><trkpt lat="43.347644769848614" lon="11.381460406182809"><ele>261.0</ele><time>2026-04-08T16:21:29.999Z</time></trkpt><trkpt lat="43.347726847949104" lon="11.381313048536036"><ele>261.25</ele><time>2026-04-08T16:21:30.999Z</time></trkpt><trkpt lat="43.34782013650326" lon="11.38116806697697"><ele>261.5</ele><time>2026-04-08T16:21:31.999Z</time></trkpt><trkpt lat="43.347913966718885" lon="11.381021521906908"><ele>261.75</ele><time>2026-04-08T16:21:32.999Z</time></trkpt><trkpt lat="43.34802376178244" lon="11.380935886988107"><ele>262.0</ele><time>2026-04-08T16:21:33.999Z</time></trkpt><trkpt lat="43.348118560117236" lon="11.38085673539978"><ele>261.5</ele><time>2026-04-08T16:21:34.999Z</time></trkpt><trkpt lat="43.348231403919335" lon="11.380886368198027"><ele>261.0</ele><time>2026-04-08T16:21:35.999Z</time></trkpt><trkpt lat="43.34834397006555" lon="11.380941550164454"><ele>260.5</ele><time>2026-04-08T16:21:36.999Z</time></trkpt><trkpt lat="43.34845726323615" lon="11.381031835036284"><ele>260.0</ele><time>2026-04-08T16:21:37.999Z</time></trkpt><trkpt lat="43.34855938679895" lon="11.381202616322991"><ele>260.33333333333337</ele><time>2026-04-08T16:21:38.999Z</time></trkpt><trkpt lat="43.348679955745155" lon="11.381393129806728"><ele>260.6666666666667</ele><time>2026-04-08T16:21:39.999Z</time></trkpt><trkpt lat="43.348825051795195" lon="11.381555710302752"><ele>261.0</ele><time>2026-04-08T16:21:40.999Z</time></trkpt><trkpt lat="43.34897180578391" lon="11.381677892782005"><ele>261.0</ele><time>2026-04-08T16:21:41.999Z</time></trkpt><trkpt lat="43.34908682390696" lon="11.381789226915776"><ele>261.0</ele><time>2026-04-08T16:21:42.999Z</time></trkpt><trkpt lat="43.34916364107652" lon="11.381868448070529"><ele>261.0</ele><time>2026-04-08T16:21:43.999Z</time></trkpt><trkpt lat="43.34923212159567" lon="11.381901166180205"><ele>261.0</ele><time>2026-04-08T16:21:44.999Z</time></trkpt><trkpt lat="43.34930514825233" lon="11.381887303858047"><ele>261.0</ele><time>2026-04-08T16:21:45.999Z</time></trkpt><trkpt lat="43.34937522424451" lon="11.381828633121199"><ele>261.0</ele><time>2026-04-08T16:21:46.999Z</time></trkpt><trkpt lat="43.349418089700926" lon="11.38172403033661"><ele>261.0</ele><time>2026-04-08T16:21:47.999Z</time></trkpt><trkpt lat="43.34944720310899" lon="11.381595881509304"><ele>261.0</ele><time>2026-04-08T16:21:48.999Z</time></trkpt><trkpt lat="43.3494662202615" lon="11.381463391081716"><ele>261.0</ele><time>2026-04-08T16:21:49.999Z</time></trkpt><trkpt lat="43.34946827383616" lon="11.381340074362187"><ele>261.0</ele><time>2026-04-08T16:21:50.999Z</time></trkpt><trkpt lat="43.34944606478058" lon="11.381227449000725"><ele>261.0</ele><time>2026-04-08T16:21:51.999Z</time></trkpt><trkpt lat="43.34939430359345" lon="11.381118381191293"><ele>261.0</ele><time>2026-04-08T16:21:52.998Z</time></trkpt><trkpt lat="43.349322304607085" lon="11.380988177658766"><ele>261.0</ele><time>2026-04-08T16:21:53.998Z</time></trkpt><trkpt lat="43.349254592040666" lon="11.380828561439829"><ele>261.0</ele><time>2026-04-08T16:21:54.998Z</time></trkpt><trkpt lat="43.34918300227868" lon="11.380664098330321"><ele>263.0</ele><time>2026-04-08T16:21:55.998Z</time></trkpt><trkpt lat="43.34911788838662" lon="11.380499663268205"><ele>265.0</ele><time>2026-04-08T16:21:56.998Z</time></trkpt><trkpt lat="43.34904275947628" lon="11.380323663543303"><ele>267.0</ele><time>2026-04-08T16:21:57.998Z</time></trkpt><trkpt lat="43.34896319886749" lon="11.380125143878594"><ele>269.0</ele><time>2026-04-08T16:21:58.998Z</time></trkpt><trkpt lat="43.34887713825163" lon="11.379918214073214"><ele>264.33333333333337</ele><time>2026-04-08T16:21:59.998Z</time></trkpt><trkpt lat="43.34878212360203" lon="11.379714731427285"><ele>259.6666666666667</ele><time>2026-04-08T16:22:00.998Z</time></trkpt><trkpt lat="43.348681388405446" lon="11.379496166199187"><ele>255.0</ele><time>2026-04-08T16:22:01.998Z</time></trkpt><trkpt lat="43.348580103111466" lon="11.37925738937036"><ele>254.33333333333331</ele><time>2026-04-08T16:22:02.998Z</time></trkpt><trkpt lat="43.34847263791068" lon="11.379001266434186"><ele>253.66666666666666</ele><time>2026-04-08T16:22:03.998Z</time></trkpt><trkpt lat="43.34836290077009" lon="11.378741953250087"><ele>253.0</ele><time>2026-04-08T16:22:04.998Z</time></trkpt><trkpt lat="43.348249833718185" lon="11.37846787942016"><ele>251.0</ele><time>2026-04-08T16:22:05.998Z</time></trkpt><trkpt lat="43.348135054507324" lon="11.378192106950516"><ele>249.0</ele><time>2026-04-08T16:22:06.998Z</time></trkpt><trkpt lat="43.348017875328836" lon="11.377928070693699"><ele>249.0</ele><time>2026-04-08T16:22:07.998Z</time></trkpt><trkpt lat="43.347902124766904" lon="11.377673049417071"><ele>249.0</ele><time>2026-04-08T16:22:08.998Z</time></trkpt><trkpt lat="43.347801737174144" lon="11.37744423265329"><ele>249.0</ele><time>2026-04-08T16:22:09.998Z</time></trkpt><trkpt lat="43.34771929522532" lon="11.37723288371598"><ele>250.66666666666669</ele><time>2026-04-08T16:22:10.998Z</time></trkpt><trkpt lat="43.34767602740426" lon="11.377026690687133"><ele>252.33333333333334</ele><time>2026-04-08T16:22:11.998Z</time></trkpt><trkpt lat="43.34764473433399" lon="11.37681388471839"><ele>254.0</ele><time>2026-04-08T16:22:12.998Z</time></trkpt><trkpt lat="43.347627716206325" lon="11.376563817198694"><ele>254.0</ele><time>2026-04-08T16:22:13.998Z</time></trkpt><trkpt lat="43.347601375865814" lon="11.376297255557208"><ele>254.0</ele><time>2026-04-08T16:22:14.998Z</time></trkpt><trkpt lat="43.34758998683518" lon="11.376041085597086"><ele>254.0</ele><time>2026-04-08T16:22:15.998Z</time></trkpt><trkpt lat="43.34757293625498" lon="11.375799418291653"><ele>254.0</ele><time>2026-04-08T16:22:16.998Z</time></trkpt><trkpt lat="43.347582443593936" lon="11.375573303845329"><ele>254.0</ele><time>2026-04-08T16:22:17.998Z</time></trkpt><trkpt lat="43.34759366007117" lon="11.375348984143368"><ele>254.0</ele><time>2026-04-08T16:22:18.998Z</time></trkpt><trkpt lat="43.34762845294046" lon="11.375098343319822"><ele>252.33333333333334</ele><time>2026-04-08T16:22:19.998Z</time></trkpt><trkpt lat="43.34768192573713" lon="11.374839490293116"><ele>250.66666666666669</ele><time>2026-04-08T16:22:20.998Z</time></trkpt><trkpt lat="43.34774031528026" lon="11.3745465441341"><ele>249.0</ele><time>2026-04-08T16:22:21.998Z</time></trkpt><trkpt lat="43.347821789384064" lon="11.374271866824557"><ele>248.33333333333331</ele><time>2026-04-08T16:22:22.998Z</time></trkpt><trkpt lat="43.347888002412176" lon="11.374020917906584"><ele>247.66666666666666</ele><time>2026-04-08T16:22:23.998Z</time></trkpt><trkpt lat="43.34794563145371" lon="11.373776202660231"><ele>247.0</ele><time>2026-04-08T16:22:24.998Z</time></trkpt><trkpt lat="43.34798751987245" lon="11.373529132020574"><ele>246.0</ele><time>2026-04-08T16:22:25.998Z</time></trkpt><trkpt lat="43.34802443732523" lon="11.373271748271145"><ele>245.0</ele><time>2026-04-08T16:22:26.998Z</time></trkpt><trkpt lat="43.34806454845297" lon="11.373001769661018"><ele>244.0</ele><time>2026-04-08T16:22:27.998Z</time></trkpt><trkpt lat="43.34810840046911" lon="11.372727687236406"><ele>242.66666666666666</ele><time>2026-04-08T16:22:28.998Z</time></trkpt><trkpt lat="43.348151103440216" lon="11.37245102474424"><ele>241.33333333333331</ele><time>2026-04-08T16:22:29.998Z</time></trkpt><trkpt lat="43.34819146714485" lon="11.37216696467794"><ele>240.0</ele><time>2026-04-08T16:22:30.998Z</time></trkpt><trkpt lat="43.34823199639377" lon="11.37188990898056"><ele>238.66666666666669</ele><time>2026-04-08T16:22:31.998Z</time></trkpt><trkpt lat="43.34827049194251" lon="11.37162869761631"><ele>237.33333333333334</ele><time>2026-04-08T16:22:32.998Z</time></trkpt><trkpt lat="43.348306092092294" lon="11.371379678778299"><ele>236.0</ele><time>2026-04-08T16:22:33.998Z</time></trkpt><trkpt lat="43.348341646367466" lon="11.371142792101548"><ele>234.66666666666669</ele><time>2026-04-08T16:22:34.998Z</time></trkpt><trkpt lat="43.34837867020186" lon="11.370912509835147"><ele>233.33333333333331</ele><time>2026-04-08T16:22:35.998Z</time></trkpt><trkpt lat="43.34841169526834" lon="11.370689914179689"><ele>232.0</ele><time>2026-04-08T16:22:36.998Z</time></trkpt><trkpt lat="43.348432370298404" lon="11.370468150127136"><ele>230.66666666666666</ele><time>2026-04-08T16:22:37.998Z</time></trkpt><trkpt lat="43.348431953904154" lon="11.370241098844183"><ele>229.33333333333331</ele><time>2026-04-08T16:22:38.998Z</time></trkpt><trkpt lat="43.34840500776797" lon="11.370010305600514"><ele>228.0</ele><time>2026-04-08T16:22:39.998Z</time></trkpt><trkpt lat="43.34834592236319" lon="11.369757289802905"><ele>228.0</ele><time>2026-04-08T16:22:40.998Z</time></trkpt><trkpt lat="43.348272327823665" lon="11.369484020548944"><ele>228.0</ele><time>2026-04-08T16:22:41.998Z</time></trkpt><trkpt lat="43.34820445622806" lon="11.36922465387601"><ele>228.0</ele><time>2026-04-08T16:22:42.998Z</time></trkpt><trkpt lat="43.34814495431727" lon="11.368986129909977"><ele>228.25</ele><time>2026-04-08T16:22:43.998Z</time></trkpt><trkpt lat="43.34809578141467" lon="11.368776086137204"><ele>228.5</ele><time>2026-04-08T16:22:44.998Z</time></trkpt><trkpt lat="43.34805414296358" lon="11.368595997283943"><ele>228.75</ele><time>2026-04-08T16:22:45.998Z</time></trkpt><trkpt lat="43.34801521702082" lon="11.368436182849337"><ele>229.0</ele><time>2026-04-08T16:22:47Z</time></trkpt><trkpt lat="43.347984169153065" lon="11.368304128299648"><ele>228.25</ele><time>2026-04-08T16:22:48Z</time></trkpt><trkpt lat="43.34795398476179" lon="11.368160833730316"><ele>227.5</ele><time>2026-04-08T16:22:49Z</time></trkpt><trkpt lat="43.347924748955506" lon="11.36798688993433"><ele>226.75</ele><time>2026-04-08T16:22:50Z</time></trkpt><trkpt lat="43.34789819541384" lon="11.367813623162398"><ele>226.0</ele><time>2026-04-08T16:22:51Z</time></trkpt><trkpt lat="43.347875741782104" lon="11.367674776816223"><ele>226.0</ele><time>2026-04-08T16:22:52Z</time></trkpt><trkpt lat="43.347886895050856" lon="11.367531702463417"><ele>226.0</ele><time>2026-04-08T16:22:54Z</time></trkpt><trkpt lat="43.348004846084855" lon="11.367453418680466"><ele>226.0</ele><time>2026-04-08T16:22:56Z</time></trkpt><trkpt lat="43.34812082341317" lon="11.367407355728812"><ele>226.0</ele><time>2026-04-08T16:22:57Z</time></trkpt><trkpt lat="43.348239065016436" lon="11.367406459705997"><ele>226.75</ele><time>2026-04-08T16:22:58Z</time></trkpt><trkpt lat="43.34837808271384" lon="11.367406191169396"><ele>227.5</ele><time>2026-04-08T16:22:59Z</time></trkpt><trkpt lat="43.34852788164446" lon="11.367405104366025"><ele>228.25</ele><time>2026-04-08T16:23:00Z</time></trkpt><trkpt lat="43.348685464722976" lon="11.367412599215063"><ele>229.0</ele><time>2026-04-08T16:23:01Z</time></trkpt><trkpt lat="43.3488638075404" lon="11.367434670612736"><ele>231.0</ele><time>2026-04-08T16:23:02Z</time></trkpt><trkpt lat="43.349042299761564" lon="11.367445502634322"><ele>233.0</ele><time>2026-04-08T16:23:03Z</time></trkpt><trkpt lat="43.349234870280476" lon="11.367452900497371"><ele>235.0</ele><time>2026-04-08T16:23:03.999Z</time></trkpt><trkpt lat="43.34943644853871" lon="11.367453146946541"><ele>235.0</ele><time>2026-04-08T16:23:04.999Z</time></trkpt><trkpt lat="43.34963257155624" lon="11.36744701130296"><ele>235.0</ele><time>2026-04-08T16:23:05.999Z</time></trkpt><trkpt lat="43.349817656507454" lon="11.367457296448748"><ele>235.0</ele><time>2026-04-08T16:23:06.999Z</time></trkpt><trkpt lat="43.3499706131487" lon="11.36746215891268"><ele>237.0</ele><time>2026-04-08T16:23:07.999Z</time></trkpt><trkpt lat="43.35010157297635" lon="11.367471823662878"><ele>239.0</ele><time>2026-04-08T16:23:08.999Z</time></trkpt><trkpt lat="43.35022364570856" lon="11.367482015385157"><ele>241.0</ele><time>2026-04-08T16:23:09.999Z</time></trkpt><trkpt lat="43.35034449203143" lon="11.36749578345289"><ele>243.0</ele><time>2026-04-08T16:23:10.999Z</time></trkpt><trkpt lat="43.35047532543113" lon="11.367508120618515"><ele>247.0</ele><time>2026-04-08T16:23:11.999Z</time></trkpt><trkpt lat="43.35062203138906" lon="11.367515170306804"><ele>251.0</ele><time>2026-04-08T16:23:12.999Z</time></trkpt><trkpt lat="43.350780308490876" lon="11.367521929136124"><ele>255.0</ele><time>2026-04-08T16:23:13.999Z</time></trkpt><trkpt lat="43.350951905042685" lon="11.367525174242274"><ele>255.0</ele><time>2026-04-08T16:23:14.999Z</time></trkpt><trkpt lat="43.35113160256059" lon="11.367536856723005"><ele>255.0</ele><time>2026-04-08T16:23:15.999Z</time></trkpt><trkpt lat="43.35131925516025" lon="11.367556935401305"><ele>255.0</ele><time>2026-04-08T16:23:16.999Z</time></trkpt><trkpt lat="43.35146582085271" lon="11.36756797577262"><ele>258.25</ele><time>2026-04-08T16:23:17.999Z</time></trkpt><trkpt lat="43.351572237136224" lon="11.36759972143706"><ele>261.5</ele><time>2026-04-08T16:23:18.999Z</time></trkpt><trkpt lat="43.35166737515915" lon="11.367640949859105"><ele>264.75</ele><time>2026-04-08T16:23:19.999Z</time></trkpt><trkpt lat="43.35178424257035" lon="11.367717436128745"><ele>268.0</ele><time>2026-04-08T16:23:20.999Z</time></trkpt><trkpt lat="43.351929165317785" lon="11.36781881093278"><ele>268.0</ele><time>2026-04-08T16:23:21.999Z</time></trkpt><trkpt lat="43.35210550574684" lon="11.367925044781238"><ele>268.0</ele><time>2026-04-08T16:23:22.999Z</time></trkpt><trkpt lat="43.352280176373526" lon="11.368039723243749"><ele>268.0</ele><time>2026-04-08T16:23:23.999Z</time></trkpt><trkpt lat="43.35243486231062" lon="11.368154012702696"><ele>269.0</ele><time>2026-04-08T16:23:24.999Z</time></trkpt><trkpt lat="43.352590799574116" lon="11.368266892426151"><ele>270.0</ele><time>2026-04-08T16:23:25.999Z</time></trkpt><trkpt lat="43.35274290381187" lon="11.368421435154362"><ele>271.0</ele><time>2026-04-08T16:23:26.999Z</time></trkpt><trkpt lat="43.35289390057805" lon="11.368606681862502"><ele>271.66666666666663</ele><time>2026-04-08T16:23:27.999Z</time></trkpt><trkpt lat="43.35305532560019" lon="11.36880298242178"><ele>272.3333333333333</ele><time>2026-04-08T16:23:28.999Z</time></trkpt><trkpt lat="43.35322040114373" lon="11.368989230060158"><ele>273.0</ele><time>2026-04-08T16:23:29.999Z</time></trkpt><trkpt lat="43.353377728860956" lon="11.36916932546005"><ele>275.0</ele><time>2026-04-08T16:23:30.999Z</time></trkpt><trkpt lat="43.35352224596997" lon="11.369342200394698"><ele>277.0</ele><time>2026-04-08T16:23:31.999Z</time></trkpt><trkpt lat="43.353649738698344" lon="11.369501473446059"><ele>279.0</ele><time>2026-04-08T16:23:32.999Z</time></trkpt><trkpt lat="43.353757137245815" lon="11.369628233235733"><ele>279.0</ele><time>2026-04-08T16:23:33.999Z</time></trkpt><trkpt lat="43.35385255854607" lon="11.369691096133108"><ele>279.0</ele><time>2026-04-08T16:23:34.999Z</time></trkpt><trkpt lat="43.35394258203674" lon="11.369728538039745"><ele>279.0</ele><time>2026-04-08T16:23:35.999Z</time></trkpt><trkpt lat="43.354055181091084" lon="11.369760712856696"><ele>279.0</ele><time>2026-04-08T16:23:36.999Z</time></trkpt><trkpt lat="43.35420264299139" lon="11.369733046104537"><ele>280.0</ele><time>2026-04-08T16:23:37.999Z</time></trkpt><trkpt lat="43.35437207437739" lon="11.36970580252406"><ele>281.0</ele><time>2026-04-08T16:23:38.999Z</time></trkpt><trkpt lat="43.35455672000664" lon="11.369687345724357"><ele>282.0</ele><time>2026-04-08T16:23:39.999Z</time></trkpt><trkpt lat="43.354761951062684" lon="11.369677772654038"><ele>283.0</ele><time>2026-04-08T16:23:40.999Z</time></trkpt><trkpt lat="43.3549839244631" lon="11.369660662005403"><ele>284.0</ele><time>2026-04-08T16:23:41.999Z</time></trkpt><trkpt lat="43.35521025652148" lon="11.369638000227653"><ele>285.0</ele><time>2026-04-08T16:23:42.999Z</time></trkpt><trkpt lat="43.35544593139165" lon="11.36959915193144"><ele>284.5</ele><time>2026-04-08T16:23:43.999Z</time></trkpt><trkpt lat="43.35566916257483" lon="11.369569683634403"><ele>284.0</ele><time>2026-04-08T16:23:44.999Z</time></trkpt><trkpt lat="43.35590392973023" lon="11.369539702266815"><ele>284.0</ele><time>2026-04-08T16:23:45.999Z</time></trkpt><trkpt lat="43.35613305263062" lon="11.36950970652749"><ele>284.0</ele><time>2026-04-08T16:23:46.999Z</time></trkpt><trkpt lat="43.35637679116145" lon="11.369478128317226"><ele>287.5</ele><time>2026-04-08T16:23:47.999Z</time></trkpt><trkpt lat="43.35661940667194" lon="11.36944868335546"><ele>291.0</ele><time>2026-04-08T16:23:48.999Z</time></trkpt><trkpt lat="43.356841081543074" lon="11.369422944866397"><ele>291.0</ele><time>2026-04-08T16:23:49.999Z</time></trkpt><trkpt lat="43.35703942526828" lon="11.369401596769174"><ele>291.0</ele><time>2026-04-08T16:23:50.999Z</time></trkpt><trkpt lat="43.35721791968101" lon="11.369388416704272"><ele>291.0</ele><time>2026-04-08T16:23:51.999Z</time></trkpt><trkpt lat="43.35739133327501" lon="11.369362465340654"><ele>292.3333333333333</ele><time>2026-04-08T16:23:52.999Z</time></trkpt><trkpt lat="43.35756335516841" lon="11.369306686904636"><ele>293.66666666666663</ele><time>2026-04-08T16:23:53.999Z</time></trkpt><trkpt lat="43.3577466726736" lon="11.369215700221782"><ele>295.0</ele><time>2026-04-08T16:23:54.999Z</time></trkpt><trkpt lat="43.35794148434989" lon="11.369100688728338"><ele>296.0</ele><time>2026-04-08T16:23:55.999Z</time></trkpt><trkpt lat="43.358146260779435" lon="11.3689843767502"><ele>297.0</ele><time>2026-04-08T16:23:56.999Z</time></trkpt><trkpt lat="43.35836097168682" lon="11.368868585346407"><ele>297.0</ele><time>2026-04-08T16:23:57.999Z</time></trkpt><trkpt lat="43.35858019409553" lon="11.368753783759267"><ele>297.0</ele><time>2026-04-08T16:23:58.999Z</time></trkpt><trkpt lat="43.35879480523965" lon="11.36863295109057"><ele>300.5</ele><time>2026-04-08T16:23:59.999Z</time></trkpt><trkpt lat="43.35901701862943" lon="11.368507524272596"><ele>304.0</ele><time>2026-04-08T16:24:00.998Z</time></trkpt><trkpt lat="43.35924025350702" lon="11.368380591229363"><ele>304.0</ele><time>2026-04-08T16:24:01.998Z</time></trkpt><trkpt lat="43.35947126584737" lon="11.368254200123966"><ele>304.0</ele><time>2026-04-08T16:24:02.998Z</time></trkpt><trkpt lat="43.359690332714536" lon="11.368131676229979"><ele>306.66666666666663</ele><time>2026-04-08T16:24:03.998Z</time></trkpt><trkpt lat="43.359891873103" lon="11.368014809901542"><ele>309.3333333333333</ele><time>2026-04-08T16:24:04.998Z</time></trkpt><trkpt lat="43.36007430795581" lon="11.367931969416915"><ele>312.0</ele><time>2026-04-08T16:24:05.998Z</time></trkpt><trkpt lat="43.360233361796716" lon="11.367825382247482"><ele>312.0</ele><time>2026-04-08T16:24:06.998Z</time></trkpt><trkpt lat="43.360398014001596" lon="11.367743269936254"><ele>312.0</ele><time>2026-04-08T16:24:07.998Z</time></trkpt><trkpt lat="43.36056509197861" lon="11.367655920830062"><ele>312.0</ele><time>2026-04-08T16:24:08.998Z</time></trkpt><trkpt lat="43.36073604944998" lon="11.367580140900937"><ele>313.3333333333333</ele><time>2026-04-08T16:24:09.998Z</time></trkpt><trkpt lat="43.36092786772947" lon="11.367509056618081"><ele>314.66666666666663</ele><time>2026-04-08T16:24:10.998Z</time></trkpt><trkpt lat="43.36114680858822" lon="11.36743203484107"><ele>316.0</ele><time>2026-04-08T16:24:11.998Z</time></trkpt><trkpt lat="43.36137389977299" lon="11.367348923931559"><ele>316.0</ele><time>2026-04-08T16:24:12.998Z</time></trkpt><trkpt lat="43.361580704694106" lon="11.367266878429563"><ele>316.0</ele><time>2026-04-08T16:24:13.998Z</time></trkpt><trkpt lat="43.361756076049694" lon="11.367197456942495"><ele>316.0</ele><time>2026-04-08T16:24:14.998Z</time></trkpt><trkpt lat="43.36190076728955" lon="11.367132233848656"><ele>316.0</ele><time>2026-04-08T16:24:15.998Z</time></trkpt><trkpt lat="43.36204148580905" lon="11.367032719166001"><ele>316.0</ele><time>2026-04-08T16:24:16.998Z</time></trkpt><trkpt lat="43.362190725634946" lon="11.366877983115813"><ele>316.0</ele><time>2026-04-08T16:24:17.998Z</time></trkpt><trkpt lat="43.362351506453734" lon="11.366695427863544"><ele>318.3333333333333</ele><time>2026-04-08T16:24:18.998Z</time></trkpt><trkpt lat="43.36252852294336" lon="11.366515748041206"><ele>320.6666666666667</ele><time>2026-04-08T16:24:19.998Z</time></trkpt><trkpt lat="43.36270799177793" lon="11.366341367261228"><ele>323.0</ele><time>2026-04-08T16:24:20.998Z</time></trkpt><trkpt lat="43.362855135848044" lon="11.366190895625438"><ele>323.0</ele><time>2026-04-08T16:24:21.998Z</time></trkpt><trkpt lat="43.362981855690386" lon="11.366060613004487"><ele>323.0</ele><time>2026-04-08T16:24:22.998Z</time></trkpt><trkpt lat="43.36311135764956" lon="11.365931632250245"><ele>323.0</ele><time>2026-04-08T16:24:23.998Z</time></trkpt><trkpt lat="43.36326178865978" lon="11.365784017317857"><ele>322.33333333333337</ele><time>2026-04-08T16:24:24.998Z</time></trkpt><trkpt lat="43.36343416724027" lon="11.36561566809765"><ele>321.6666666666667</ele><time>2026-04-08T16:24:25.998Z</time></trkpt><trkpt lat="43.36361335478541" lon="11.365438788443885"><ele>321.0</ele><time>2026-04-08T16:24:26.998Z</time></trkpt><trkpt lat="43.36380188574614" lon="11.36525076323951"><ele>322.0</ele><time>2026-04-08T16:24:27.998Z</time></trkpt><trkpt lat="43.36399928687708" lon="11.365056300016219"><ele>323.0</ele><time>2026-04-08T16:24:28.998Z</time></trkpt><trkpt lat="43.364195332242176" lon="11.364862819276123"><ele>324.33333333333337</ele><time>2026-04-08T16:24:29.998Z</time></trkpt><trkpt lat="43.36437445590905" lon="11.364695379691398"><ele>325.6666666666667</ele><time>2026-04-08T16:24:30.998Z</time></trkpt><trkpt lat="43.36453796798919" lon="11.364541885569164"><ele>327.0</ele><time>2026-04-08T16:24:31.998Z</time></trkpt><trkpt lat="43.364674449602305" lon="11.364413020749621"><ele>326.0</ele><time>2026-04-08T16:24:32.998Z</time></trkpt><trkpt lat="43.36480170750774" lon="11.364281840053433"><ele>325.0</ele><time>2026-04-08T16:24:33.998Z</time></trkpt><trkpt lat="43.36494683984138" lon="11.36413225488254"><ele>324.0</ele><time>2026-04-08T16:24:34.998Z</time></trkpt><trkpt lat="43.36511812745081" lon="11.363965394895038"><ele>324.5</ele><time>2026-04-08T16:24:35.998Z</time></trkpt><trkpt lat="43.36529839722998" lon="11.363791090140797"><ele>325.0</ele><time>2026-04-08T16:24:36.998Z</time></trkpt><trkpt lat="43.36549315589356" lon="11.363598328777751"><ele>324.3333333333333</ele><time>2026-04-08T16:24:37.998Z</time></trkpt><trkpt lat="43.36568465940722" lon="11.36340858448215"><ele>323.6666666666667</ele><time>2026-04-08T16:24:38.998Z</time></trkpt><trkpt lat="43.36585560682259" lon="11.3632369284259"><ele>323.0</ele><time>2026-04-08T16:24:39.998Z</time></trkpt><trkpt lat="43.36602204765587" lon="11.36308012951434"><ele>322.33333333333337</ele><time>2026-04-08T16:24:40.998Z</time></trkpt><trkpt lat="43.366188263792644" lon="11.36292709101521"><ele>321.6666666666667</ele><time>2026-04-08T16:24:41.998Z</time></trkpt><trkpt lat="43.36636751888266" lon="11.362758274482259"><ele>321.0</ele><time>2026-04-08T16:24:42.998Z</time></trkpt><trkpt lat="43.36655095532966" lon="11.362584783069288"><ele>322.0</ele><time>2026-04-08T16:24:43.998Z</time></trkpt><trkpt lat="43.36672226594352" lon="11.362428009360032"><ele>323.0</ele><time>2026-04-08T16:24:44.998Z</time></trkpt><trkpt lat="43.366875536430705" lon="11.362286829133367"><ele>324.0</ele><time>2026-04-08T16:24:45.998Z</time></trkpt><trkpt lat="43.367014448240894" lon="11.362156364656173"><ele>324.0</ele><time>2026-04-08T16:24:46.998Z</time></trkpt><trkpt lat="43.36714473408672" lon="11.36203165795704"><ele>324.0</ele><time>2026-04-08T16:24:47.998Z</time></trkpt><trkpt lat="43.367273486522954" lon="11.3619087424011"><ele>324.0</ele><time>2026-04-08T16:24:48.998Z</time></trkpt><trkpt lat="43.36740865581966" lon="11.361777769990844"><ele>325.6666666666667</ele><time>2026-04-08T16:24:49.998Z</time></trkpt><trkpt lat="43.367552693182816" lon="11.36164805451026"><ele>327.33333333333337</ele><time>2026-04-08T16:24:50.998Z</time></trkpt><trkpt lat="43.36769931314222" lon="11.361524062249435"><ele>329.0</ele><time>2026-04-08T16:24:51.998Z</time></trkpt><trkpt lat="43.36784343863354" lon="11.361392458771713"><ele>329.0</ele><time>2026-04-08T16:24:52.999Z</time></trkpt><trkpt lat="43.36798503826095" lon="11.361259471167982"><ele>329.0</ele><time>2026-04-08T16:24:53.999Z</time></trkpt><trkpt lat="43.36812856861874" lon="11.36112305776292"><ele>329.0</ele><time>2026-04-08T16:24:54.999Z</time></trkpt><trkpt lat="43.36827498433995" lon="11.360982226410224"><ele>331.6666666666667</ele><time>2026-04-08T16:24:55.999Z</time></trkpt><trkpt lat="43.368413557400025" lon="11.360847806368762"><ele>334.3333333333333</ele><time>2026-04-08T16:24:56.999Z</time></trkpt><trkpt lat="43.36855332412762" lon="11.360720403707488"><ele>337.0</ele><time>2026-04-08T16:24:57.999Z</time></trkpt><trkpt lat="43.368687836733535" lon="11.360592341246425"><ele>338.0</ele><time>2026-04-08T16:24:58.999Z</time></trkpt><trkpt lat="43.3688111333953" lon="11.36047517041294"><ele>339.0</ele><time>2026-04-08T16:24:59.999Z</time></trkpt><trkpt lat="43.36891396837111" lon="11.360369386634313"><ele>340.0</ele><time>2026-04-08T16:25:00.999Z</time></trkpt><trkpt lat="43.369015134512516" lon="11.360273963052716"><ele>341.0</ele><time>2026-04-08T16:25:01.999Z</time></trkpt><trkpt lat="43.369109268979635" lon="11.360187069093593"><ele>342.33333333333337</ele><time>2026-04-08T16:25:02.999Z</time></trkpt><trkpt lat="43.36919330820533" lon="11.360123054111842"><ele>343.6666666666667</ele><time>2026-04-08T16:25:03.999Z</time></trkpt><trkpt lat="43.36927340355151" lon="11.360065414317"><ele>345.0</ele><time>2026-04-08T16:25:04.999Z</time></trkpt><trkpt lat="43.36934635878908" lon="11.360037716766866"><ele>346.3333333333333</ele><time>2026-04-08T16:25:05.999Z</time></trkpt><trkpt lat="43.36941128671248" lon="11.360048150698834"><ele>347.66666666666663</ele><time>2026-04-08T16:25:06.999Z</time></trkpt><trkpt lat="43.36951406049192" lon="11.36013738632936"><ele>349.0</ele><time>2026-04-08T16:25:08.999Z</time></trkpt><trkpt lat="43.369633762017536" lon="11.360141795796284"><ele>349.0</ele><time>2026-04-08T16:25:10.999Z</time></trkpt><trkpt lat="43.36970775794504" lon="11.360111560806661"><ele>349.0</ele><time>2026-04-08T16:25:11.999Z</time></trkpt><trkpt lat="43.3697945508763" lon="11.36007472168375"><ele>349.0</ele><time>2026-04-08T16:25:12.999Z</time></trkpt><trkpt lat="43.36989512979731" lon="11.360037842206195"><ele>349.0</ele><time>2026-04-08T16:25:13.999Z</time></trkpt><trkpt lat="43.369987268624094" lon="11.36000809351233"><ele>349.0</ele><time>2026-04-08T16:25:14.999Z</time></trkpt><trkpt lat="43.37007064032529" lon="11.359970391397606"><ele>349.0</ele><time>2026-04-08T16:25:15.999Z</time></trkpt><trkpt lat="43.3701642033169" lon="11.359897675953935"><ele>349.0</ele><time>2026-04-08T16:25:16.999Z</time></trkpt><trkpt lat="43.370272439812666" lon="11.359787459122028"><ele>349.0</ele><time>2026-04-08T16:25:17.999Z</time></trkpt><trkpt lat="43.37038839060763" lon="11.359687002434645"><ele>349.0</ele><time>2026-04-08T16:25:18.999Z</time></trkpt><trkpt lat="43.37050867824096" lon="11.359631102448109"><ele>350.3333333333333</ele><time>2026-04-08T16:25:19.999Z</time></trkpt><trkpt lat="43.37065470939859" lon="11.359599462415293"><ele>351.6666666666667</ele><time>2026-04-08T16:25:20.999Z</time></trkpt><trkpt lat="43.3708203733201" lon="11.359582259013582"><ele>353.0</ele><time>2026-04-08T16:25:21.999Z</time></trkpt><trkpt lat="43.371006218680684" lon="11.35955846450461"><ele>353.0</ele><time>2026-04-08T16:25:22.999Z</time></trkpt><trkpt lat="43.37120311050721" lon="11.359525719266088"><ele>353.0</ele><time>2026-04-08T16:25:23.999Z</time></trkpt><trkpt lat="43.37139756964349" lon="11.35948816738673"><ele>353.0</ele><time>2026-04-08T16:25:24.999Z</time></trkpt><trkpt lat="43.37156785728885" lon="11.35945255095223"><ele>354.5</ele><time>2026-04-08T16:25:25.999Z</time></trkpt><trkpt lat="43.37171897977054" lon="11.359422905753485"><ele>356.0</ele><time>2026-04-08T16:25:26.999Z</time></trkpt><trkpt lat="43.37184852701897" lon="11.35939781066991"><ele>357.5</ele><time>2026-04-08T16:25:27.999Z</time></trkpt><trkpt lat="43.371966257204896" lon="11.359400947395258"><ele>359.0</ele><time>2026-04-08T16:25:28.999Z</time></trkpt><trkpt lat="43.37206300763784" lon="11.359435974065445"><ele>359.0</ele><time>2026-04-08T16:25:29.999Z</time></trkpt><trkpt lat="43.37213318345109" lon="11.359499068673538"><ele>359.0</ele><time>2026-04-08T16:25:30.999Z</time></trkpt><trkpt lat="43.37219460284255" lon="11.359578347958568"><ele>359.0</ele><time>2026-04-08T16:25:31.999Z</time></trkpt><trkpt lat="43.37226887473127" lon="11.359620832027806"><ele>359.0</ele><time>2026-04-08T16:25:32.999Z</time></trkpt><trkpt lat="43.372355216340274" lon="11.359596297119769"><ele>359.0</ele><time>2026-04-08T16:25:33.999Z</time></trkpt><trkpt lat="43.37245138035974" lon="11.359520896051942"><ele>359.0</ele><time>2026-04-08T16:25:34.999Z</time></trkpt><trkpt lat="43.3725768852709" lon="11.35942936200002"><ele>358.75</ele><time>2026-04-08T16:25:35.999Z</time></trkpt><trkpt lat="43.37270979445568" lon="11.359345034090332"><ele>358.5</ele><time>2026-04-08T16:25:36.999Z</time></trkpt><trkpt lat="43.37283243671472" lon="11.359271506767072"><ele>358.25</ele><time>2026-04-08T16:25:37.999Z</time></trkpt><trkpt lat="43.3729467425201" lon="11.359230384470592"><ele>358.0</ele><time>2026-04-08T16:25:38.999Z</time></trkpt><trkpt lat="43.37303606887614" lon="11.359160136059959"><ele>358.0</ele><time>2026-04-08T16:25:39.999Z</time></trkpt><trkpt lat="43.37310632340583" lon="11.359123326866646"><ele>358.0</ele><time>2026-04-08T16:25:40.999Z</time></trkpt><trkpt lat="43.37315825454466" lon="11.35905031780979"><ele>358.0</ele><time>2026-04-08T16:25:41.999Z</time></trkpt><trkpt lat="43.3732163071728" lon="11.358931617707654"><ele>358.0</ele><time>2026-04-08T16:25:42.999Z</time></trkpt><trkpt lat="43.3732842614218" lon="11.358767447759234"><ele>358.0</ele><time>2026-04-08T16:25:43.999Z</time></trkpt><trkpt lat="43.373357559512996" lon="11.35858264970042"><ele>357.3333333333333</ele><time>2026-04-08T16:25:44.999Z</time></trkpt><trkpt lat="43.37343644990524" lon="11.358383673814085"><ele>356.6666666666667</ele><time>2026-04-08T16:25:45.999Z</time></trkpt><trkpt lat="43.373506842839625" lon="11.35818646937647"><ele>356.0</ele><time>2026-04-08T16:25:46.999Z</time></trkpt><trkpt lat="43.3735664794239" lon="11.358000987893055"><ele>356.0</ele><time>2026-04-08T16:25:47.999Z</time></trkpt><trkpt lat="43.37362754096392" lon="11.357801248535688"><ele>356.0</ele><time>2026-04-08T16:25:48.999Z</time></trkpt><trkpt lat="43.37368046565379" lon="11.357597010595947"><ele>356.0</ele><time>2026-04-08T16:25:49.999Z</time></trkpt><trkpt lat="43.37371487660455" lon="11.357404986916228"><ele>355.0</ele><time>2026-04-08T16:25:50.999Z</time></trkpt><trkpt lat="43.37372358254871" lon="11.357202163452106"><ele>354.0</ele><time>2026-04-08T16:25:51.999Z</time></trkpt><trkpt lat="43.37370594054934" lon="11.356975380504915"><ele>353.0</ele><time>2026-04-08T16:25:52.999Z</time></trkpt><trkpt lat="43.37366616277897" lon="11.35673747361841"><ele>353.0</ele><time>2026-04-08T16:25:53.999Z</time></trkpt><trkpt lat="43.37364187940811" lon="11.35647343826814"><ele>353.0</ele><time>2026-04-08T16:25:54.999Z</time></trkpt><trkpt lat="43.3736327088511" lon="11.356196607171432"><ele>353.0</ele><time>2026-04-08T16:25:55.999Z</time></trkpt><trkpt lat="43.37361162969616" lon="11.35589455243514"><ele>352.5</ele><time>2026-04-08T16:25:56.999Z</time></trkpt><trkpt lat="43.373614100827616" lon="11.355565360621659"><ele>352.0</ele><time>2026-04-08T16:25:57.999Z</time></trkpt><trkpt lat="43.37362120880379" lon="11.355218552118707"><ele>351.0</ele><time>2026-04-08T16:25:58.999Z</time></trkpt><trkpt lat="43.3736018204587" lon="11.354947284002801"><ele>350.0</ele><time>2026-04-08T16:25:59.999Z</time></trkpt><trkpt lat="43.373595847475706" lon="11.35467571900444"><ele>349.0</ele><time>2026-04-08T16:26:00.999Z</time></trkpt><trkpt lat="43.373586768483726" lon="11.354414207097708"><ele>348.66666666666663</ele><time>2026-04-08T16:26:01.999Z</time></trkpt><trkpt lat="43.37359299273382" lon="11.354168877488917"><ele>348.3333333333333</ele><time>2026-04-08T16:26:02.999Z</time></trkpt><trkpt lat="43.373594753469646" lon="11.353927512862931"><ele>348.0</ele><time>2026-04-08T16:26:03.999Z</time></trkpt><trkpt lat="43.373609454172126" lon="11.353682297224971"><ele>347.25</ele><time>2026-04-08T16:26:04.999Z</time></trkpt><trkpt lat="43.37361864123027" lon="11.353448914161362"><ele>346.5</ele><time>2026-04-08T16:26:05.998Z</time></trkpt><trkpt lat="43.373677877522645" lon="11.353230973774709"><ele>345.75</ele><time>2026-04-08T16:26:06.998Z</time></trkpt><trkpt lat="43.373714609046694" lon="11.353100839092518"><ele>345.0</ele><time>2026-04-08T16:26:07.998Z</time></trkpt><trkpt lat="43.37373907234201" lon="11.353005594698605"><ele>344.0</ele><time>2026-04-08T16:26:11.998Z</time></trkpt><trkpt lat="43.37376737358057" lon="11.35291552769777"><ele>343.0</ele><time>2026-04-08T16:26:14.998Z</time></trkpt><trkpt lat="43.373807117713156" lon="11.352792289004347"><ele>342.0</ele><time>2026-04-08T16:26:17.998Z</time></trkpt><trkpt lat="43.37386407589257" lon="11.352628766848945"><ele>341.0</ele><time>2026-04-08T16:26:19.998Z</time></trkpt><trkpt lat="43.3739070453861" lon="11.352510905939502"><ele>340.0</ele><time>2026-04-08T16:26:20.998Z</time></trkpt><trkpt lat="43.3739483327386" lon="11.352386419956972"><ele>339.75</ele><time>2026-04-08T16:26:21.998Z</time></trkpt><trkpt lat="43.373994372601985" lon="11.352236582353067"><ele>339.5</ele><time>2026-04-08T16:26:22.998Z</time></trkpt><trkpt lat="43.374047110623216" lon="11.352082034294021"><ele>339.25</ele><time>2026-04-08T16:26:23.998Z</time></trkpt><trkpt lat="43.37409520082032" lon="11.351941513697303"><ele>339.0</ele><time>2026-04-08T16:26:24.998Z</time></trkpt><trkpt lat="43.37416617737369" lon="11.351735130135296"><ele>339.0</ele><time>2026-04-08T16:26:25.998Z</time></trkpt><trkpt lat="43.374256925848464" lon="11.351606147810227"><ele>339.0</ele><time>2026-04-08T16:26:26.998Z</time></trkpt><trkpt lat="43.37435020280061" lon="11.351470110460022"><ele>339.0</ele><time>2026-04-08T16:26:27.998Z</time></trkpt><trkpt lat="43.37446934617021" lon="11.351330152045053"><ele>339.0</ele><time>2026-04-08T16:26:28.998Z</time></trkpt><trkpt lat="43.37462059304184" lon="11.35119295102747"><ele>339.0</ele><time>2026-04-08T16:26:29.998Z</time></trkpt><trkpt lat="43.37477556291459" lon="11.35106380946916"><ele>339.0</ele><time>2026-04-08T16:26:30.998Z</time></trkpt><trkpt lat="43.37494967485396" lon="11.350924813189529"><ele>339.0</ele><time>2026-04-08T16:26:31.998Z</time></trkpt><trkpt lat="43.37511588035224" lon="11.350793167707645"><ele>339.0</ele><time>2026-04-08T16:26:32.998Z</time></trkpt><trkpt lat="43.37527273917296" lon="11.350670343787877"><ele>339.0</ele><time>2026-04-08T16:26:33.998Z</time></trkpt><trkpt lat="43.37543491605965" lon="11.350519829851216"><ele>339.0</ele><time>2026-04-08T16:26:34.998Z</time></trkpt><trkpt lat="43.375624406447535" lon="11.350380884063553"><ele>340.0</ele><time>2026-04-08T16:26:35.998Z</time></trkpt><trkpt lat="43.37583416970952" lon="11.35022450898028"><ele>341.0</ele><time>2026-04-08T16:26:36.998Z</time></trkpt><trkpt lat="43.376035387018185" lon="11.350070996423169"><ele>341.0</ele><time>2026-04-08T16:26:37.998Z</time></trkpt><trkpt lat="43.37624965817452" lon="11.349904996047051"><ele>341.0</ele><time>2026-04-08T16:26:38.998Z</time></trkpt><trkpt lat="43.37647404290976" lon="11.34973117516131"><ele>343.5</ele><time>2026-04-08T16:26:39.998Z</time></trkpt><trkpt lat="43.37670235831797" lon="11.34955483712329"><ele>346.0</ele><time>2026-04-08T16:26:40.998Z</time></trkpt><trkpt lat="43.376906144110514" lon="11.349395559422886"><ele>346.0</ele><time>2026-04-08T16:26:41.998Z</time></trkpt><trkpt lat="43.37709060440743" lon="11.349249618876565"><ele>346.0</ele><time>2026-04-08T16:26:42.998Z</time></trkpt><trkpt lat="43.377249950782684" lon="11.349130810203627"><ele>346.0</ele><time>2026-04-08T16:26:43.998Z</time></trkpt><trkpt lat="43.37737822997714" lon="11.349073930443561"><ele>345.66666666666663</ele><time>2026-04-08T16:26:44.998Z</time></trkpt><trkpt lat="43.37750791596121" lon="11.349010857392617"><ele>345.3333333333333</ele><time>2026-04-08T16:26:45.998Z</time></trkpt><trkpt lat="43.37765707459449" lon="11.348935765363452"><ele>345.0</ele><time>2026-04-08T16:26:46.998Z</time></trkpt><trkpt lat="43.377819416179946" lon="11.34882758364075"><ele>345.6666666666667</ele><time>2026-04-08T16:26:47.998Z</time></trkpt><trkpt lat="43.37798963220994" lon="11.348728763309452"><ele>346.33333333333337</ele><time>2026-04-08T16:26:48.998Z</time></trkpt><trkpt lat="43.378160617138" lon="11.348608681153753"><ele>347.0</ele><time>2026-04-08T16:26:49.998Z</time></trkpt><trkpt lat="43.37834047827903" lon="11.348439996184483"><ele>347.33333333333337</ele><time>2026-04-08T16:26:50.998Z</time></trkpt><trkpt lat="43.37851603837297" lon="11.34825404531657"><ele>347.6666666666667</ele><time>2026-04-08T16:26:51.998Z</time></trkpt><trkpt lat="43.37867666852242" lon="11.348073567867011"><ele>348.0</ele><time>2026-04-08T16:26:52.998Z</time></trkpt><trkpt lat="43.37882392547234" lon="11.347917732601507"><ele>348.6666666666667</ele><time>2026-04-08T16:26:53.998Z</time></trkpt><trkpt lat="43.37897711519946" lon="11.347758982794188"><ele>349.33333333333337</ele><time>2026-04-08T16:26:54.998Z</time></trkpt><trkpt lat="43.37912261219065" lon="11.34760816439118"><ele>350.0</ele><time>2026-04-08T16:26:55.998Z</time></trkpt><trkpt lat="43.379254644456445" lon="11.347472698507806"><ele>350.0</ele><time>2026-04-08T16:26:56.998Z</time></trkpt><trkpt lat="43.37937316246273" lon="11.347305511408463"><ele>350.0</ele><time>2026-04-08T16:26:57.998Z</time></trkpt><trkpt lat="43.379478894052326" lon="11.347061919166284"><ele>350.0</ele><time>2026-04-08T16:26:58.999Z</time></trkpt><trkpt lat="43.37958835905011" lon="11.346815320806158"><ele>349.6666666666667</ele><time>2026-04-08T16:26:59.999Z</time></trkpt><trkpt lat="43.379699077086265" lon="11.346553464506055"><ele>349.3333333333333</ele><time>2026-04-08T16:27:00.999Z</time></trkpt><trkpt lat="43.37980730645113" lon="11.346285114075654"><ele>349.0</ele><time>2026-04-08T16:27:01.999Z</time></trkpt><trkpt lat="43.37989910200056" lon="11.346015373398227"><ele>351.0</ele><time>2026-04-08T16:27:02.999Z</time></trkpt><trkpt lat="43.37998212671848" lon="11.345738343755832"><ele>353.0</ele><time>2026-04-08T16:27:03.999Z</time></trkpt><trkpt lat="43.38006790252125" lon="11.345449529113749"><ele>355.0</ele><time>2026-04-08T16:27:04.999Z</time></trkpt><trkpt lat="43.38014903342318" lon="11.345179250165929"><ele>355.3333333333333</ele><time>2026-04-08T16:27:05.999Z</time></trkpt><trkpt lat="43.38022859886328" lon="11.344925297136323"><ele>355.6666666666667</ele><time>2026-04-08T16:27:06.999Z</time></trkpt><trkpt lat="43.38029725514653" lon="11.344697067010351"><ele>356.0</ele><time>2026-04-08T16:27:07.999Z</time></trkpt><trkpt lat="43.380362039417285" lon="11.34450216056921"><ele>355.5</ele><time>2026-04-08T16:27:08.999Z</time></trkpt><trkpt lat="43.3804151395085" lon="11.344361241910907"><ele>355.0</ele><time>2026-04-08T16:27:09.999Z</time></trkpt><trkpt lat="43.380487657774985" lon="11.344227104748441"><ele>354.5</ele><time>2026-04-08T16:27:10.999Z</time></trkpt><trkpt lat="43.380600831442706" lon="11.344099776074472"><ele>354.0</ele><time>2026-04-08T16:27:11.999Z</time></trkpt><trkpt lat="43.38073276746155" lon="11.343961860924539"><ele>354.6666666666667</ele><time>2026-04-08T16:27:12.999Z</time></trkpt><trkpt lat="43.38087322140104" lon="11.343796828513725"><ele>355.33333333333337</ele><time>2026-04-08T16:27:13.999Z</time></trkpt><trkpt lat="43.38102086556432" lon="11.343623422719268"><ele>356.0</ele><time>2026-04-08T16:27:14.999Z</time></trkpt><trkpt lat="43.381165207233366" lon="11.343452224408496"><ele>356.0</ele><time>2026-04-08T16:27:15.999Z</time></trkpt><trkpt lat="43.38131117820771" lon="11.343287199084418"><ele>356.0</ele><time>2026-04-08T16:27:16.999Z</time></trkpt><trkpt lat="43.38145437352457" lon="11.343124984123142"><ele>356.0</ele><time>2026-04-08T16:27:17.999Z</time></trkpt><trkpt lat="43.381586179807044" lon="11.342993164870606"><ele>356.33333333333337</ele><time>2026-04-08T16:27:18.999Z</time></trkpt><trkpt lat="43.38174251561796" lon="11.342908372469113"><ele>356.6666666666667</ele><time>2026-04-08T16:27:19.999Z</time></trkpt><trkpt lat="43.38191175176794" lon="11.342774713669092"><ele>357.0</ele><time>2026-04-08T16:27:20.999Z</time></trkpt><trkpt lat="43.38209553432403" lon="11.342651680426801"><ele>355.6666666666667</ele><time>2026-04-08T16:27:21.999Z</time></trkpt><trkpt lat="43.3822618301899" lon="11.342557322228108"><ele>354.33333333333337</ele><time>2026-04-08T16:27:22.999Z</time></trkpt><trkpt lat="43.38239831356683" lon="11.342466030511103"><ele>353.0</ele><time>2026-04-08T16:27:23.999Z</time></trkpt><trkpt lat="43.38250435253134" lon="11.342392838801432"><ele>353.0</ele><time>2026-04-08T16:27:24.999Z</time></trkpt><trkpt lat="43.382596272679315" lon="11.342324914837155"><ele>353.0</ele><time>2026-04-08T16:27:25.999Z</time></trkpt><trkpt lat="43.382680714064215" lon="11.342239964289435"><ele>353.0</ele><time>2026-04-08T16:27:26.999Z</time></trkpt><trkpt lat="43.382748344163296" lon="11.34220092136824"><ele>353.0</ele><time>2026-04-08T16:27:27.999Z</time></trkpt><trkpt lat="43.38280727081656" lon="11.342153729562874"><ele>353.0</ele><time>2026-04-08T16:27:34.999Z</time></trkpt><trkpt lat="43.382727055034294" lon="11.342002136861518"><ele>352.5</ele><time>2026-04-08T16:27:36.999Z</time></trkpt><trkpt lat="43.382611448828115" lon="11.341966964681086"><ele>352.0</ele><time>2026-04-08T16:27:38.999Z</time></trkpt><trkpt lat="43.38251303862876" lon="11.341912944961187"><ele>351.5</ele><time>2026-04-08T16:27:39.999Z</time></trkpt><trkpt lat="43.3823720217634" lon="11.341823977728726"><ele>351.0</ele><time>2026-04-08T16:27:40.999Z</time></trkpt><trkpt lat="43.38222299369867" lon="11.341719720384821"><ele>350.6666666666667</ele><time>2026-04-08T16:27:41.999Z</time></trkpt><trkpt lat="43.38207348358824" lon="11.341601860897079"><ele>350.33333333333337</ele><time>2026-04-08T16:27:42.999Z</time></trkpt><trkpt lat="43.38193822586979" lon="11.341459687110532"><ele>350.0</ele><time>2026-04-08T16:27:43.999Z</time></trkpt><trkpt lat="43.38181164785155" lon="11.341317736234647"><ele>350.0</ele><time>2026-04-08T16:27:44.999Z</time></trkpt><trkpt lat="43.381671195107764" lon="11.341199407311445"><ele>350.0</ele><time>2026-04-08T16:27:45.999Z</time></trkpt><trkpt lat="43.381488103432176" lon="11.341114453844993"><ele>350.0</ele><time>2026-04-08T16:27:46.999Z</time></trkpt><trkpt lat="43.381282805298966" lon="11.341054900865828"><ele>349.0</ele><time>2026-04-08T16:27:47.999Z</time></trkpt><trkpt lat="43.38108175596985" lon="11.34102065840538"><ele>348.0</ele><time>2026-04-08T16:27:48.999Z</time></trkpt><trkpt lat="43.38089778042675" lon="11.340991686995503"><ele>347.0</ele><time>2026-04-08T16:27:49.999Z</time></trkpt><trkpt lat="43.380716369934746" lon="11.340955284266572"><ele>347.0</ele><time>2026-04-08T16:27:50.999Z</time></trkpt><trkpt lat="43.380531174865425" lon="11.34088558593999"><ele>347.0</ele><time>2026-04-08T16:27:51.999Z</time></trkpt><trkpt lat="43.38033076360767" lon="11.340766988285681"><ele>347.0</ele><time>2026-04-08T16:27:52.999Z</time></trkpt><trkpt lat="43.380115842949266" lon="11.340611391996092"><ele>342.0</ele><time>2026-04-08T16:27:53.999Z</time></trkpt><trkpt lat="43.37989511927519" lon="11.34044159270752"><ele>337.0</ele><time>2026-04-08T16:27:54.999Z</time></trkpt><trkpt lat="43.37966717364958" lon="11.340257169707705"><ele>335.0</ele><time>2026-04-08T16:27:55.999Z</time></trkpt><trkpt lat="43.37943308452206" lon="11.340071885568623"><ele>333.0</ele><time>2026-04-08T16:27:56.999Z</time></trkpt><trkpt lat="43.37919704568564" lon="11.339877160629072"><ele>330.5</ele><time>2026-04-08T16:27:57.999Z</time></trkpt><trkpt lat="43.37897252588004" lon="11.33969746287821"><ele>328.0</ele><time>2026-04-08T16:27:58.999Z</time></trkpt><trkpt lat="43.378762874136775" lon="11.339533959896878"><ele>324.0</ele><time>2026-04-08T16:27:59.999Z</time></trkpt><trkpt lat="43.3785562456684" lon="11.339371958263726"><ele>320.0</ele><time>2026-04-08T16:28:00.999Z</time></trkpt><trkpt lat="43.37836297859124" lon="11.339222199623718"><ele>320.0</ele><time>2026-04-08T16:28:01.999Z</time></trkpt><trkpt lat="43.378199107691636" lon="11.339088497015508"><ele>320.0</ele><time>2026-04-08T16:28:02.999Z</time></trkpt><trkpt lat="43.37806318564993" lon="11.338962640614008"><ele>320.0</ele><time>2026-04-08T16:28:03.999Z</time></trkpt><trkpt lat="43.37795152215918" lon="11.33876633342231"><ele>311.5</ele><time>2026-04-08T16:28:04.999Z</time></trkpt><trkpt lat="43.377805756171256" lon="11.338540014514306"><ele>303.0</ele><time>2026-04-08T16:28:05.999Z</time></trkpt><trkpt lat="43.377669672912596" lon="11.338277005746164"><ele>301.6666666666667</ele><time>2026-04-08T16:28:06.999Z</time></trkpt><trkpt lat="43.377539326509755" lon="11.33802571045517"><ele>300.33333333333337</ele><time>2026-04-08T16:28:07.999Z</time></trkpt><trkpt lat="43.37741377982303" lon="11.337788773862618"><ele>299.0</ele><time>2026-04-08T16:28:08.999Z</time></trkpt><trkpt lat="43.37728922520813" lon="11.337567435758912"><ele>298.33333333333337</ele><time>2026-04-08T16:28:09.999Z</time></trkpt><trkpt lat="43.377145635178074" lon="11.337366363336587"><ele>297.6666666666667</ele><time>2026-04-08T16:28:10.998Z</time></trkpt><trkpt lat="43.37697206208446" lon="11.337191216522065"><ele>297.0</ele><time>2026-04-08T16:28:11.998Z</time></trkpt><trkpt lat="43.37677415946294" lon="11.337033104864231"><ele>297.0</ele><time>2026-04-08T16:28:12.998Z</time></trkpt><trkpt lat="43.37658492577333" lon="11.336882628123686"><ele>297.0</ele><time>2026-04-08T16:28:13.998Z</time></trkpt><trkpt lat="43.37640547971996" lon="11.336762834854543"><ele>297.0</ele><time>2026-04-08T16:28:14.998Z</time></trkpt><trkpt lat="43.376216577620106" lon="11.336656174285103"><ele>296.5</ele><time>2026-04-08T16:28:15.998Z</time></trkpt><trkpt lat="43.376007019132985" lon="11.336545741977671"><ele>296.0</ele><time>2026-04-08T16:28:16.998Z</time></trkpt><trkpt lat="43.3757867950623" lon="11.336423013636216"><ele>297.0</ele><time>2026-04-08T16:28:17.998Z</time></trkpt><trkpt lat="43.37555699271944" lon="11.336305528040885"><ele>298.0</ele><time>2026-04-08T16:28:18.998Z</time></trkpt><trkpt lat="43.37533914421515" lon="11.336216231598815"><ele>298.0</ele><time>2026-04-08T16:28:19.998Z</time></trkpt><trkpt lat="43.37512451342094" lon="11.336137859313629"><ele>298.0</ele><time>2026-04-08T16:28:20.998Z</time></trkpt><trkpt lat="43.374910638447595" lon="11.33608022656295"><ele>298.0</ele><time>2026-04-08T16:28:21.998Z</time></trkpt><trkpt lat="43.374676799384474" lon="11.33602851301352"><ele>297.0</ele><time>2026-04-08T16:28:22.998Z</time></trkpt><trkpt lat="43.374426315242566" lon="11.336000193708646"><ele>296.0</ele><time>2026-04-08T16:28:23.998Z</time></trkpt><trkpt lat="43.3741693239624" lon="11.33597591234201"><ele>296.0</ele><time>2026-04-08T16:28:24.998Z</time></trkpt><trkpt lat="43.37392398523432" lon="11.335952998427988"><ele>296.0</ele><time>2026-04-08T16:28:25.998Z</time></trkpt><trkpt lat="43.37369443713229" lon="11.335924671181239"><ele>295.0</ele><time>2026-04-08T16:28:26.998Z</time></trkpt><trkpt lat="43.37348652212567" lon="11.335897073604643"><ele>294.0</ele><time>2026-04-08T16:28:27.998Z</time></trkpt><trkpt lat="43.37329532759718" lon="11.335865088124137"><ele>293.0</ele><time>2026-04-08T16:28:28.998Z</time></trkpt><trkpt lat="43.37310738657276" lon="11.335805072382731"><ele>293.6666666666667</ele><time>2026-04-08T16:28:29.998Z</time></trkpt><trkpt lat="43.372916366959615" lon="11.335708886210035"><ele>294.3333333333333</ele><time>2026-04-08T16:28:30.998Z</time></trkpt><trkpt lat="43.372719382631516" lon="11.335585989213698"><ele>295.0</ele><time>2026-04-08T16:28:31.998Z</time></trkpt><trkpt lat="43.37253737382657" lon="11.335464300167724"><ele>295.0</ele><time>2026-04-08T16:28:32.998Z</time></trkpt><trkpt lat="43.37234459425495" lon="11.335350649232984"><ele>295.0</ele><time>2026-04-08T16:28:33.998Z</time></trkpt><trkpt lat="43.372132352358776" lon="11.335254256381766"><ele>295.0</ele><time>2026-04-08T16:28:34.998Z</time></trkpt><trkpt lat="43.37190130893051" lon="11.33515768516828"><ele>289.5</ele><time>2026-04-08T16:28:35.998Z</time></trkpt><trkpt lat="43.37166458925854" lon="11.33504346993431"><ele>284.0</ele><time>2026-04-08T16:28:36.998Z</time></trkpt><trkpt lat="43.37141547116501" lon="11.334914567228548"><ele>280.0</ele><time>2026-04-08T16:28:37.998Z</time></trkpt><trkpt lat="43.371159830470305" lon="11.334781068169782"><ele>276.0</ele><time>2026-04-08T16:28:38.998Z</time></trkpt><trkpt lat="43.37089771547555" lon="11.334647833481338"><ele>276.0</ele><time>2026-04-08T16:28:39.998Z</time></trkpt><trkpt lat="43.37062915782027" lon="11.334520287862805"><ele>276.0</ele><time>2026-04-08T16:28:40.998Z</time></trkpt><trkpt lat="43.37035976663991" lon="11.334397516753182"><ele>272.5</ele><time>2026-04-08T16:28:41.998Z</time></trkpt><trkpt lat="43.37009875407509" lon="11.334279546574423"><ele>269.0</ele><time>2026-04-08T16:28:42.998Z</time></trkpt><trkpt lat="43.36983964921961" lon="11.334155487189818"><ele>265.0</ele><time>2026-04-08T16:28:43.998Z</time></trkpt><trkpt lat="43.36958626965044" lon="11.334032569855117"><ele>261.0</ele><time>2026-04-08T16:28:44.998Z</time></trkpt><trkpt lat="43.36931526144712" lon="11.33390514996759"><ele>262.0</ele><time>2026-04-08T16:28:45.998Z</time></trkpt><trkpt lat="43.36903561058289" lon="11.333793690696176"><ele>263.0</ele><time>2026-04-08T16:28:46.998Z</time></trkpt><trkpt lat="43.36875244462041" lon="11.333704776558076"><ele>260.0</ele><time>2026-04-08T16:28:47.998Z</time></trkpt><trkpt lat="43.36847218279571" lon="11.33364109063386"><ele>257.0</ele><time>2026-04-08T16:28:48.998Z</time></trkpt><trkpt lat="43.36819701541648" lon="11.333592620908789"><ele>255.0</ele><time>2026-04-08T16:28:49.998Z</time></trkpt><trkpt lat="43.36792781236998" lon="11.333542553355393"><ele>253.0</ele><time>2026-04-08T16:28:50.998Z</time></trkpt><trkpt lat="43.36766088768054" lon="11.333488171213078"><ele>253.0</ele><time>2026-04-08T16:28:51.998Z</time></trkpt><trkpt lat="43.36741002341155" lon="11.33343914712175"><ele>253.0</ele><time>2026-04-08T16:28:52.998Z</time></trkpt><trkpt lat="43.36716887092057" lon="11.333393677620009"><ele>252.66666666666666</ele><time>2026-04-08T16:28:53.998Z</time></trkpt><trkpt lat="43.3669691399744" lon="11.333359640149496"><ele>252.33333333333331</ele><time>2026-04-08T16:28:54.998Z</time></trkpt><trkpt lat="43.36681173847108" lon="11.333315144457451"><ele>252.0</ele><time>2026-04-08T16:28:55.998Z</time></trkpt><trkpt lat="43.36667100083106" lon="11.333239183861565"><ele>252.0</ele><time>2026-04-08T16:28:56.998Z</time></trkpt><trkpt lat="43.36653569997682" lon="11.333117204569442"><ele>252.0</ele><time>2026-04-08T16:28:57.998Z</time></trkpt><trkpt lat="43.36642176657083" lon="11.33295839185467"><ele>252.0</ele><time>2026-04-08T16:28:58.998Z</time></trkpt><trkpt lat="43.36632451207738" lon="11.332762130462552"><ele>252.0</ele><time>2026-04-08T16:28:59.998Z</time></trkpt><trkpt lat="43.3662284026663" lon="11.33253755066677"><ele>252.0</ele><time>2026-04-08T16:29:00.998Z</time></trkpt><trkpt lat="43.366126325257525" lon="11.332299997119756"><ele>252.0</ele><time>2026-04-08T16:29:01.998Z</time></trkpt><trkpt lat="43.36603542901144" lon="11.3320289883522"><ele>252.0</ele><time>2026-04-08T16:29:02.998Z</time></trkpt><trkpt lat="43.36597108033061" lon="11.331726936077803"><ele>252.0</ele><time>2026-04-08T16:29:03.998Z</time></trkpt><trkpt lat="43.36591726651211" lon="11.331420092031658"><ele>253.0</ele><time>2026-04-08T16:29:04.999Z</time></trkpt><trkpt lat="43.36586913366531" lon="11.331148401212177"><ele>254.0</ele><time>2026-04-08T16:29:06Z</time></trkpt><trkpt lat="43.3658195087261" lon="11.330905353104743"><ele>255.0</ele><time>2026-04-08T16:29:06.999Z</time></trkpt><trkpt lat="43.36576786091565" lon="11.330701371581258"><ele>255.0</ele><time>2026-04-08T16:29:07.999Z</time></trkpt><trkpt lat="43.36570647616726" lon="11.330558509727359"><ele>255.0</ele><time>2026-04-08T16:29:09Z</time></trkpt><trkpt lat="43.365623303266396" lon="11.330446651356842"><ele>255.0</ele><time>2026-04-08T16:29:09.999Z</time></trkpt><trkpt lat="43.36552002639149" lon="11.33037185697026"><ele>255.0</ele><time>2026-04-08T16:29:10.999Z</time></trkpt><trkpt lat="43.36538373081181" lon="11.33035278449896"><ele>259.6666666666667</ele><time>2026-04-08T16:29:12Z</time></trkpt><trkpt lat="43.36522230010611" lon="11.330378229972636"><ele>264.33333333333337</ele><time>2026-04-08T16:29:12.999Z</time></trkpt><trkpt lat="43.36505574668727" lon="11.330406741686456"><ele>269.0</ele><time>2026-04-08T16:29:14Z</time></trkpt><trkpt lat="43.3648692917225" lon="11.330421528658404"><ele>271.33333333333337</ele><time>2026-04-08T16:29:15Z</time></trkpt><trkpt lat="43.36467456668323" lon="11.330417833822072"><ele>273.6666666666667</ele><time>2026-04-08T16:29:16Z</time></trkpt><trkpt lat="43.364494428115776" lon="11.330404952895554"><ele>276.0</ele><time>2026-04-08T16:29:17Z</time></trkpt><trkpt lat="43.36432763673889" lon="11.33038293632531"><ele>276.0</ele><time>2026-04-08T16:29:18Z</time></trkpt><trkpt lat="43.36417273651124" lon="11.330352648123057"><ele>276.0</ele><time>2026-04-08T16:29:19Z</time></trkpt><trkpt lat="43.36404808027607" lon="11.330327665343402"><ele>276.0</ele><time>2026-04-08T16:29:20Z</time></trkpt><trkpt lat="43.36395618631215" lon="11.330291143932794"><ele>276.0</ele><time>2026-04-08T16:29:20.999Z</time></trkpt><trkpt lat="43.363877048939855" lon="11.330192731976945"><ele>275.3333333333333</ele><time>2026-04-08T16:29:21.999Z</time></trkpt><trkpt lat="43.36379156728007" lon="11.330026950514034"><ele>274.66666666666663</ele><time>2026-04-08T16:29:22.999Z</time></trkpt><trkpt lat="43.36369576359587" lon="11.329810072880916"><ele>274.0</ele><time>2026-04-08T16:29:23.999Z</time></trkpt><trkpt lat="43.363574067834456" lon="11.32961905557561"><ele>276.3333333333333</ele><time>2026-04-08T16:29:24.999Z</time></trkpt><trkpt lat="43.36346187243063" lon="11.329435228554205"><ele>278.6666666666667</ele><time>2026-04-08T16:29:25.999Z</time></trkpt><trkpt lat="43.36338287080532" lon="11.329271201128035"><ele>281.0</ele><time>2026-04-08T16:29:26.999Z</time></trkpt><trkpt lat="43.36333283133675" lon="11.329076959279075"><ele>281.0</ele><time>2026-04-08T16:29:27.999Z</time></trkpt><trkpt lat="43.363298147221904" lon="11.328909962355864"><ele>281.0</ele><time>2026-04-08T16:29:28.999Z</time></trkpt><trkpt lat="43.3632293449944" lon="11.32877740633458"><ele>281.0</ele><time>2026-04-08T16:29:29.999Z</time></trkpt><trkpt lat="43.36312544478463" lon="11.328698448174851"><ele>281.0</ele><time>2026-04-08T16:29:30.999Z</time></trkpt><trkpt lat="43.36299137178263" lon="11.328655730956118"><ele>283.0</ele><time>2026-04-08T16:29:31.999Z</time></trkpt><trkpt lat="43.362860257141215" lon="11.328665816390217"><ele>285.0</ele><time>2026-04-08T16:29:32.999Z</time></trkpt><trkpt lat="43.362753027010086" lon="11.328749552040806"><ele>287.0</ele><time>2026-04-08T16:29:33.999Z</time></trkpt><trkpt lat="43.36264703560022" lon="11.328898872220886"><ele>289.0</ele><time>2026-04-08T16:29:34.999Z</time></trkpt><trkpt lat="43.362562695716385" lon="11.32907269732619"><ele>289.0</ele><time>2026-04-08T16:29:35.999Z</time></trkpt><trkpt lat="43.3624934981793" lon="11.32917593055464"><ele>289.0</ele><time>2026-04-08T16:29:36.999Z</time></trkpt><trkpt lat="43.36240397308714" lon="11.329186404974411"><ele>289.0</ele><time>2026-04-08T16:29:37.999Z</time></trkpt><trkpt lat="43.36231642379873" lon="11.32912312325541"><ele>289.0</ele><time>2026-04-08T16:29:38.999Z</time></trkpt><trkpt lat="43.36226466714201" lon="11.329014010391688"><ele>289.0</ele><time>2026-04-08T16:29:39.999Z</time></trkpt><trkpt lat="43.36228171907032" lon="11.32884902374542"><ele>290.75</ele><time>2026-04-08T16:29:40.999Z</time></trkpt><trkpt lat="43.36231261394975" lon="11.328682305347119"><ele>292.5</ele><time>2026-04-08T16:29:41.999Z</time></trkpt><trkpt lat="43.36241522455975" lon="11.32856262981"><ele>294.25</ele><time>2026-04-08T16:29:42.999Z</time></trkpt><trkpt lat="43.36253871730204" lon="11.328411264762199"><ele>296.0</ele><time>2026-04-08T16:29:43.999Z</time></trkpt><trkpt lat="43.362690084849746" lon="11.328249812737461"><ele>296.0</ele><time>2026-04-08T16:29:44.999Z</time></trkpt><trkpt lat="43.362863758602955" lon="11.328085646213706"><ele>296.0</ele><time>2026-04-08T16:29:45.999Z</time></trkpt><trkpt lat="43.363039925530416" lon="11.327899131203417"><ele>296.0</ele><time>2026-04-08T16:29:46.999Z</time></trkpt><trkpt lat="43.36323335690218" lon="11.327723019690996"><ele>297.6666666666667</ele><time>2026-04-08T16:29:47.999Z</time></trkpt><trkpt lat="43.36339395026384" lon="11.327578448735688"><ele>299.3333333333333</ele><time>2026-04-08T16:29:48.999Z</time></trkpt><trkpt lat="43.36353083356632" lon="11.327455902447356"><ele>301.0</ele><time>2026-04-08T16:29:49.999Z</time></trkpt><trkpt lat="43.36362927362387" lon="11.327353811879497"><ele>301.0</ele><time>2026-04-08T16:29:50.999Z</time></trkpt><trkpt lat="43.36369450695462" lon="11.327239145244445"><ele>301.0</ele><time>2026-04-08T16:29:51.999Z</time></trkpt><trkpt lat="43.36370982219679" lon="11.327102576908043"><ele>301.0</ele><time>2026-04-08T16:29:52.999Z</time></trkpt><trkpt lat="43.3636957482646" lon="11.32692922867227"><ele>301.0</ele><time>2026-04-08T16:29:53.999Z</time></trkpt><trkpt lat="43.36363009781735" lon="11.32673918923603"><ele>302.66666666666663</ele><time>2026-04-08T16:29:54.999Z</time></trkpt><trkpt lat="43.36352906861767" lon="11.326533691693392"><ele>304.3333333333333</ele><time>2026-04-08T16:29:55.999Z</time></trkpt><trkpt lat="43.36343300294994" lon="11.32628992776079"><ele>306.0</ele><time>2026-04-08T16:29:56.999Z</time></trkpt><trkpt lat="43.36334537367983" lon="11.326020255318431"><ele>305.6666666666667</ele><time>2026-04-08T16:29:57.999Z</time></trkpt><trkpt lat="43.363256001172864" lon="11.325773269404877"><ele>305.33333333333337</ele><time>2026-04-08T16:29:58.999Z</time></trkpt><trkpt lat="43.363131221649304" lon="11.325524189682309"><ele>305.0</ele><time>2026-04-08T16:29:59.999Z</time></trkpt><trkpt lat="43.362986058998395" lon="11.325273163438789"><ele>306.6666666666667</ele><time>2026-04-08T16:30:00.999Z</time></trkpt><trkpt lat="43.36286307835879" lon="11.325055355765919"><ele>308.3333333333333</ele><time>2026-04-08T16:30:01.999Z</time></trkpt><trkpt lat="43.362746894156544" lon="11.324867845691877"><ele>310.0</ele><time>2026-04-08T16:30:02.999Z</time></trkpt><trkpt lat="43.36263240989205" lon="11.324691992744087"><ele>310.0</ele><time>2026-04-08T16:30:03.999Z</time></trkpt><trkpt lat="43.36250500460745" lon="11.324506301230615"><ele>310.0</ele><time>2026-04-08T16:30:04.999Z</time></trkpt><trkpt lat="43.36235900285607" lon="11.324320804796074"><ele>310.0</ele><time>2026-04-08T16:30:05.999Z</time></trkpt><trkpt lat="43.36218913904334" lon="11.324120853647788"><ele>308.0</ele><time>2026-04-08T16:30:06.999Z</time></trkpt><trkpt lat="43.36201552254411" lon="11.323910760579416"><ele>306.0</ele><time>2026-04-08T16:30:07.999Z</time></trkpt><trkpt lat="43.36183111264539" lon="11.323681327206971"><ele>305.0</ele><time>2026-04-08T16:30:08.999Z</time></trkpt><trkpt lat="43.361640089609914" lon="11.323440386684696"><ele>304.0</ele><time>2026-04-08T16:30:09.999Z</time></trkpt><trkpt lat="43.36146396996112" lon="11.32322591679403"><ele>305.0</ele><time>2026-04-08T16:30:10.999Z</time></trkpt><trkpt lat="43.361299797327426" lon="11.323023001497818"><ele>306.0</ele><time>2026-04-08T16:30:11.999Z</time></trkpt><trkpt lat="43.36118739043435" lon="11.322781543318095"><ele>307.0</ele><time>2026-04-08T16:30:12.999Z</time></trkpt><trkpt lat="43.361085272362715" lon="11.322521551297982"><ele>307.0</ele><time>2026-04-08T16:30:13.999Z</time></trkpt><trkpt lat="43.36098075495538" lon="11.322234502095007"><ele>307.0</ele><time>2026-04-08T16:30:14.999Z</time></trkpt><trkpt lat="43.36089979625791" lon="11.321980663864878"><ele>307.0</ele><time>2026-04-08T16:30:15.999Z</time></trkpt><trkpt lat="43.36085666193025" lon="11.321754662638362"><ele>308.0</ele><time>2026-04-08T16:30:16.999Z</time></trkpt><trkpt lat="43.360863930419896" lon="11.321580305053283"><ele>309.0</ele><time>2026-04-08T16:30:17.999Z</time></trkpt><trkpt lat="43.360876721507246" lon="11.321397029607077"><ele>310.0</ele><time>2026-04-08T16:30:18.999Z</time></trkpt><trkpt lat="43.36086598166152" lon="11.321227768917177"><ele>311.0</ele><time>2026-04-08T16:30:19.999Z</time></trkpt><trkpt lat="43.36085763529863" lon="11.321111783455446"><ele>312.25</ele><time>2026-04-08T16:30:20.998Z</time></trkpt><trkpt lat="43.36080938262421" lon="11.321035136025415"><ele>313.5</ele><time>2026-04-08T16:30:21.998Z</time></trkpt><trkpt lat="43.360715124042514" lon="11.320981150888011"><ele>314.75</ele><time>2026-04-08T16:30:22.998Z</time></trkpt><trkpt lat="43.36057870743303" lon="11.320972924646712"><ele>316.0</ele><time>2026-04-08T16:30:23.998Z</time></trkpt><trkpt lat="43.360418072359465" lon="11.321011947463905"><ele>318.0</ele><time>2026-04-08T16:30:24.998Z</time></trkpt><trkpt lat="43.36026632486653" lon="11.32104099220371"><ele>320.0</ele><time>2026-04-08T16:30:25.998Z</time></trkpt><trkpt lat="43.36011567154709" lon="11.321002883075483"><ele>322.0</ele><time>2026-04-08T16:30:26.998Z</time></trkpt><trkpt lat="43.35996656823068" lon="11.320903663880332"><ele>322.0</ele><time>2026-04-08T16:30:27.998Z</time></trkpt><trkpt lat="43.35981978952454" lon="11.320785624343518"><ele>322.0</ele><time>2026-04-08T16:30:28.998Z</time></trkpt><trkpt lat="43.35970509359962" lon="11.320630860266428"><ele>322.0</ele><time>2026-04-08T16:30:29.998Z</time></trkpt><trkpt lat="43.359601534838404" lon="11.320468934731892"><ele>323.20000000000005</ele><time>2026-04-08T16:30:30.998Z</time></trkpt><trkpt lat="43.35954203885327" lon="11.32031485948344"><ele>324.4</ele><time>2026-04-08T16:30:31.998Z</time></trkpt><trkpt lat="43.359507968761534" lon="11.320206452024074"><ele>325.6</ele><time>2026-04-08T16:30:32.998Z</time></trkpt><trkpt lat="43.35954228274442" lon="11.320125704180002"><ele>326.79999999999995</ele><time>2026-04-08T16:30:33.998Z</time></trkpt><trkpt lat="43.35967630306611" lon="11.320057283215329"><ele>328.0</ele><time>2026-04-08T16:30:35.998Z</time></trkpt><trkpt lat="43.3597675785898" lon="11.320139312974463"><ele>328.4</ele><time>2026-04-08T16:30:36.998Z</time></trkpt><trkpt lat="43.359887444546736" lon="11.320252324697263"><ele>328.79999999999995</ele><time>2026-04-08T16:30:37.998Z</time></trkpt><trkpt lat="43.359983808931" lon="11.320310676515385"><ele>329.2</ele><time>2026-04-08T16:30:38.998Z</time></trkpt><trkpt lat="43.36007237940353" lon="11.32030993561411"><ele>329.6</ele><time>2026-04-08T16:30:39.998Z</time></trkpt><trkpt lat="43.36014309235198" lon="11.320218082688022"><ele>330.0</ele><time>2026-04-08T16:30:40.998Z</time></trkpt><trkpt lat="43.36017835339785" lon="11.320091264445576"><ele>330.0</ele><time>2026-04-08T16:30:41.998Z</time></trkpt><trkpt lat="43.36016325202157" lon="11.319946960560946"><ele>330.0</ele><time>2026-04-08T16:30:42.998Z</time></trkpt><trkpt lat="43.3600844695731" lon="11.319813188870263"><ele>330.0</ele><time>2026-04-08T16:30:43.998Z</time></trkpt><trkpt lat="43.3599624086029" lon="11.319672713643698"><ele>330.0</ele><time>2026-04-08T16:30:44.998Z</time></trkpt><trkpt lat="43.3598650892582" lon="11.319533459948115"><ele>331.0</ele><time>2026-04-08T16:30:45.998Z</time></trkpt><trkpt lat="43.35986054737043" lon="11.319374124798237"><ele>332.0</ele><time>2026-04-08T16:30:46.998Z</time></trkpt><trkpt lat="43.35990590768562" lon="11.319230313098288"><ele>333.0</ele><time>2026-04-08T16:30:47.998Z</time></trkpt><trkpt lat="43.35993002384264" lon="11.319063087597314"><ele>334.0</ele><time>2026-04-08T16:30:48.998Z</time></trkpt><trkpt lat="43.3599211014757" lon="11.318871442903907"><ele>334.66666666666663</ele><time>2026-04-08T16:30:49.998Z</time></trkpt><trkpt lat="43.35988245716488" lon="11.318648059822415"><ele>335.3333333333333</ele><time>2026-04-08T16:30:50.998Z</time></trkpt><trkpt lat="43.359802456183544" lon="11.318403841234177"><ele>336.0</ele><time>2026-04-08T16:30:51.998Z</time></trkpt><trkpt lat="43.35968234836011" lon="11.318153026969677"><ele>341.0</ele><time>2026-04-08T16:30:52.998Z</time></trkpt><trkpt lat="43.35957200570707" lon="11.317866837231213"><ele>346.0</ele><time>2026-04-08T16:30:53.998Z</time></trkpt><trkpt lat="43.35947402510735" lon="11.317629205641147"><ele>351.0</ele><time>2026-04-08T16:30:54.998Z</time></trkpt><trkpt lat="43.359405411610815" lon="11.317426965828613"><ele>349.6666666666667</ele><time>2026-04-08T16:30:55.998Z</time></trkpt><trkpt lat="43.35936924856718" lon="11.317215609763904"><ele>348.33333333333337</ele><time>2026-04-08T16:30:56.998Z</time></trkpt><trkpt lat="43.35934993211667" lon="11.31699044962082"><ele>347.0</ele><time>2026-04-08T16:30:57.998Z</time></trkpt><trkpt lat="43.3593408493035" lon="11.316752903042632"><ele>347.0</ele><time>2026-04-08T16:30:58.998Z</time></trkpt><trkpt lat="43.359346692189575" lon="11.316547091804123"><ele>347.0</ele><time>2026-04-08T16:30:59.998Z</time></trkpt><trkpt lat="43.35935799991682" lon="11.316357428934333"><ele>347.0</ele><time>2026-04-08T16:31:00.998Z</time></trkpt><trkpt lat="43.35935408424142" lon="11.316179892382156"><ele>347.0</ele><time>2026-04-08T16:31:01.998Z</time></trkpt><trkpt lat="43.359319781331806" lon="11.316037647507187"><ele>347.0</ele><time>2026-04-08T16:31:02.998Z</time></trkpt><trkpt lat="43.35926288809015" lon="11.315902120984953"><ele>347.0</ele><time>2026-04-08T16:31:03.998Z</time></trkpt><trkpt lat="43.35916414731456" lon="11.315766608168632"><ele>347.0</ele><time>2026-04-08T16:31:04.998Z</time></trkpt><trkpt lat="43.3590342345428" lon="11.31561283453179"><ele>347.0</ele><time>2026-04-08T16:31:05.998Z</time></trkpt><trkpt lat="43.35892433975275" lon="11.315433876973701"><ele>347.25</ele><time>2026-04-08T16:31:06.998Z</time></trkpt><trkpt lat="43.35881794231879" lon="11.31529068446267"><ele>347.5</ele><time>2026-04-08T16:31:07.998Z</time></trkpt><trkpt lat="43.358720727060415" lon="11.3151585028884"><ele>347.75</ele><time>2026-04-08T16:31:08.998Z</time></trkpt><trkpt lat="43.35861993077096" lon="11.315050158372152"><ele>348.0</ele><time>2026-04-08T16:31:09.998Z</time></trkpt><trkpt lat="43.35854723352842" lon="11.314949483314589"><ele>348.0</ele><time>2026-04-08T16:31:11Z</time></trkpt><trkpt lat="43.35849840199769" lon="11.31487153854168"><ele>348.0</ele><time>2026-04-08T16:31:12Z</time></trkpt><trkpt lat="43.35849546189177" lon="11.314781696159251"><ele>348.0</ele><time>2026-04-08T16:31:14Z</time></trkpt><trkpt lat="43.35858344227581" lon="11.314756285717205"><ele>348.0</ele><time>2026-04-08T16:31:16Z</time></trkpt><trkpt lat="43.358666598111185" lon="11.314750737182736"><ele>348.0</ele><time>2026-04-08T16:31:17Z</time></trkpt><trkpt lat="43.358777345891276" lon="11.31472257404644"><ele>348.0</ele><time>2026-04-08T16:31:18Z</time></trkpt><trkpt lat="43.35891676592393" lon="11.314701641348618"><ele>345.3333333333333</ele><time>2026-04-08T16:31:19Z</time></trkpt><trkpt lat="43.359073834868695" lon="11.314643015759628"><ele>342.66666666666663</ele><time>2026-04-08T16:31:20Z</time></trkpt><trkpt lat="43.35924216363322" lon="11.314548397470105"><ele>340.0</ele><time>2026-04-08T16:31:21Z</time></trkpt><trkpt lat="43.3594126331254" lon="11.314410243062554"><ele>340.0</ele><time>2026-04-08T16:31:22Z</time></trkpt><trkpt lat="43.35958521678853" lon="11.314235141932556"><ele>340.0</ele><time>2026-04-08T16:31:23Z</time></trkpt><trkpt lat="43.35974765837845" lon="11.314034649363839"><ele>340.0</ele><time>2026-04-08T16:31:24Z</time></trkpt><trkpt lat="43.35989375703196" lon="11.313848114590378"><ele>339.3333333333333</ele><time>2026-04-08T16:31:25Z</time></trkpt><trkpt lat="43.36003364196678" lon="11.313695225231854"><ele>338.6666666666667</ele><time>2026-04-08T16:31:26Z</time></trkpt><trkpt lat="43.36018580421105" lon="11.313569014077137"><ele>338.0</ele><time>2026-04-08T16:31:27Z</time></trkpt><trkpt lat="43.36034594083029" lon="11.31344853242992"><ele>338.0</ele><time>2026-04-08T16:31:28Z</time></trkpt><trkpt lat="43.36051206729364" lon="11.31330985955649"><ele>338.0</ele><time>2026-04-08T16:31:28.999Z</time></trkpt><trkpt lat="43.36067960214373" lon="11.313157555426676"><ele>338.0</ele><time>2026-04-08T16:31:29.999Z</time></trkpt><trkpt lat="43.36084211515057" lon="11.313007005691768"><ele>336.6666666666667</ele><time>2026-04-08T16:31:30.999Z</time></trkpt><trkpt lat="43.36100711088419" lon="11.3128430156368"><ele>335.3333333333333</ele><time>2026-04-08T16:31:31.999Z</time></trkpt><trkpt lat="43.3611854455333" lon="11.312709391282128"><ele>334.0</ele><time>2026-04-08T16:31:32.999Z</time></trkpt><trkpt lat="43.36137096557581" lon="11.312582185454593"><ele>334.0</ele><time>2026-04-08T16:31:33.999Z</time></trkpt><trkpt lat="43.36155451841088" lon="11.312444445037587"><ele>334.0</ele><time>2026-04-08T16:31:34.999Z</time></trkpt><trkpt lat="43.361749859136204" lon="11.312334610334547"><ele>334.0</ele><time>2026-04-08T16:31:35.999Z</time></trkpt><trkpt lat="43.36193174924843" lon="11.312224642930284"><ele>335.3333333333333</ele><time>2026-04-08T16:31:36.999Z</time></trkpt><trkpt lat="43.36209652814729" lon="11.312117032115307"><ele>336.6666666666667</ele><time>2026-04-08T16:31:37.999Z</time></trkpt><trkpt lat="43.36225484356895" lon="11.312016953284605"><ele>338.0</ele><time>2026-04-08T16:31:38.999Z</time></trkpt><trkpt lat="43.36240572796237" lon="11.311932224964064"><ele>338.0</ele><time>2026-04-08T16:31:39.999Z</time></trkpt><trkpt lat="43.362557931299456" lon="11.311869365320497"><ele>338.0</ele><time>2026-04-08T16:31:40.999Z</time></trkpt><trkpt lat="43.36271609483783" lon="11.311825356305814"><ele>338.0</ele><time>2026-04-08T16:31:41.999Z</time></trkpt><trkpt lat="43.36287191398936" lon="11.311798695193575"><ele>338.0</ele><time>2026-04-08T16:31:42.999Z</time></trkpt><trkpt lat="43.36302407123312" lon="11.311801793372933"><ele>338.0</ele><time>2026-04-08T16:31:43.999Z</time></trkpt><trkpt lat="43.363183782311665" lon="11.311844915198492"><ele>338.0</ele><time>2026-04-08T16:31:44.999Z</time></trkpt><trkpt lat="43.36333688027083" lon="11.31195172599681"><ele>337.33333333333337</ele><time>2026-04-08T16:31:45.999Z</time></trkpt><trkpt lat="43.36347639644924" lon="11.31209366385346"><ele>336.6666666666667</ele><time>2026-04-08T16:31:46.999Z</time></trkpt><trkpt lat="43.36358889268087" lon="11.312259800780632"><ele>336.0</ele><time>2026-04-08T16:31:47.999Z</time></trkpt><trkpt lat="43.36369394703102" lon="11.31240656997229"><ele>335.6666666666667</ele><time>2026-04-08T16:31:48.999Z</time></trkpt><trkpt lat="43.36382434887835" lon="11.31251373890459"><ele>335.33333333333337</ele><time>2026-04-08T16:31:49.999Z</time></trkpt><trkpt lat="43.363987570782385" lon="11.312587510931966"><ele>335.0</ele><time>2026-04-08T16:31:50.999Z</time></trkpt><trkpt lat="43.364166497375955" lon="11.31263256431058"><ele>335.6666666666667</ele><time>2026-04-08T16:31:51.999Z</time></trkpt><trkpt lat="43.364361090907884" lon="11.312648239435187"><ele>336.3333333333333</ele><time>2026-04-08T16:31:52.999Z</time></trkpt><trkpt lat="43.36457342797574" lon="11.312656781060644"><ele>337.0</ele><time>2026-04-08T16:31:53.999Z</time></trkpt><trkpt lat="43.36480068103007" lon="11.312662865784525"><ele>337.0</ele><time>2026-04-08T16:31:54.999Z</time></trkpt><trkpt lat="43.365023027526995" lon="11.312663764094964"><ele>337.0</ele><time>2026-04-08T16:31:55.999Z</time></trkpt><trkpt lat="43.36522358346326" lon="11.312670430248957"><ele>337.0</ele><time>2026-04-08T16:31:56.999Z</time></trkpt><trkpt lat="43.365411604101304" lon="11.312689637729703"><ele>337.66666666666663</ele><time>2026-04-08T16:31:57.999Z</time></trkpt><trkpt lat="43.36559947806232" lon="11.312723558258888"><ele>338.3333333333333</ele><time>2026-04-08T16:31:58.999Z</time></trkpt><trkpt lat="43.36578244879249" lon="11.312761314046144"><ele>339.0</ele><time>2026-04-08T16:31:59.999Z</time></trkpt><trkpt lat="43.36596624346797" lon="11.312794020857641"><ele>339.0</ele><time>2026-04-08T16:32:00.999Z</time></trkpt><trkpt lat="43.36614857794025" lon="11.312821051673579"><ele>339.0</ele><time>2026-04-08T16:32:01.999Z</time></trkpt><trkpt lat="43.366326207732804" lon="11.312881150205886"><ele>339.0</ele><time>2026-04-08T16:32:02.999Z</time></trkpt><trkpt lat="43.366513474137555" lon="11.312920310659104"><ele>339.0</ele><time>2026-04-08T16:32:03.999Z</time></trkpt><trkpt lat="43.36669363459748" lon="11.312996300160998"><ele>339.0</ele><time>2026-04-08T16:32:04.999Z</time></trkpt><trkpt lat="43.366864324103105" lon="11.31308233398763"><ele>339.0</ele><time>2026-04-08T16:32:05.999Z</time></trkpt><trkpt lat="43.36702026301172" lon="11.313159271296069"><ele>339.0</ele><time>2026-04-08T16:32:06.999Z</time></trkpt><trkpt lat="43.367168667400534" lon="11.313191926131148"><ele>339.0</ele><time>2026-04-08T16:32:07.999Z</time></trkpt><trkpt lat="43.36734532579205" lon="11.313175881183238"><ele>339.0</ele><time>2026-04-08T16:32:08.999Z</time></trkpt><trkpt lat="43.36753227994063" lon="11.313112956213418"><ele>338.6666666666667</ele><time>2026-04-08T16:32:09.999Z</time></trkpt><trkpt lat="43.3677366862783" lon="11.313042372003638"><ele>338.33333333333337</ele><time>2026-04-08T16:32:10.999Z</time></trkpt><trkpt lat="43.36793653914537" lon="11.312990002911675"><ele>338.0</ele><time>2026-04-08T16:32:11.999Z</time></trkpt><trkpt lat="43.36814469876347" lon="11.312988623567232"><ele>338.0</ele><time>2026-04-08T16:32:12.999Z</time></trkpt><trkpt lat="43.36836240693676" lon="11.313004303794909"><ele>338.0</ele><time>2026-04-08T16:32:13.999Z</time></trkpt><trkpt lat="43.36859748670219" lon="11.313022795869134"><ele>338.0</ele><time>2026-04-08T16:32:14.999Z</time></trkpt><trkpt lat="43.368843851786565" lon="11.313053325187624"><ele>338.0</ele><time>2026-04-08T16:32:15.999Z</time></trkpt><trkpt lat="43.369102593250524" lon="11.313068648708585"><ele>338.0</ele><time>2026-04-08T16:32:16.999Z</time></trkpt><trkpt lat="43.369348899665646" lon="11.313083950336734"><ele>338.0</ele><time>2026-04-08T16:32:17.999Z</time></trkpt><trkpt lat="43.3695724582497" lon="11.31308087010849"><ele>339.0</ele><time>2026-04-08T16:32:18.999Z</time></trkpt><trkpt lat="43.36979087415077" lon="11.313051431234667"><ele>340.0</ele><time>2026-04-08T16:32:19.999Z</time></trkpt><trkpt lat="43.36999304412986" lon="11.31299318820119"><ele>341.0</ele><time>2026-04-08T16:32:20.999Z</time></trkpt><trkpt lat="43.370174762125" lon="11.312916301166748"><ele>341.0</ele><time>2026-04-08T16:32:21.999Z</time></trkpt><trkpt lat="43.3703339557865" lon="11.312809797607919"><ele>341.0</ele><time>2026-04-08T16:32:22.999Z</time></trkpt><trkpt lat="43.370471434718674" lon="11.312677228414989"><ele>341.0</ele><time>2026-04-08T16:32:23.999Z</time></trkpt><trkpt lat="43.37056825624133" lon="11.312555119141171"><ele>343.0</ele><time>2026-04-08T16:32:24.999Z</time></trkpt><trkpt lat="43.37064305623831" lon="11.312460445948982"><ele>345.0</ele><time>2026-04-08T16:32:25.999Z</time></trkpt><trkpt lat="43.37069490550948" lon="11.312352685735437"><ele>347.0</ele><time>2026-04-08T16:32:26.999Z</time></trkpt><trkpt lat="43.370710884909144" lon="11.312222835411232"><ele>349.0</ele><time>2026-04-08T16:32:27.998Z</time></trkpt><trkpt lat="43.37071723394059" lon="11.312081284595283"><ele>351.0</ele><time>2026-04-08T16:32:28.998Z</time></trkpt><trkpt lat="43.37073050737686" lon="11.311954221442686"><ele>351.0</ele><time>2026-04-08T16:32:29.998Z</time></trkpt><trkpt lat="43.37076846409207" lon="11.31183720774356"><ele>351.0</ele><time>2026-04-08T16:32:30.998Z</time></trkpt><trkpt lat="43.370840022486924" lon="11.311728636138485"><ele>351.0</ele><time>2026-04-08T16:32:31.998Z</time></trkpt><trkpt lat="43.37094413010587" lon="11.31167384885945"><ele>351.0</ele><time>2026-04-08T16:32:32.998Z</time></trkpt><trkpt lat="43.371046227820614" lon="11.311631979640026"><ele>351.0</ele><time>2026-04-08T16:32:33.998Z</time></trkpt><trkpt lat="43.37115940255143" lon="11.311593770881489"><ele>351.0</ele><time>2026-04-08T16:32:34.998Z</time></trkpt><trkpt lat="43.37127204664864" lon="11.311543249695596"><ele>351.0</ele><time>2026-04-08T16:32:35.998Z</time></trkpt><trkpt lat="43.37138287459187" lon="11.311514494321868"><ele>351.0</ele><time>2026-04-08T16:32:36.998Z</time></trkpt><trkpt lat="43.371489817254414" lon="11.311483894023432"><ele>351.0</ele><time>2026-04-08T16:32:37.998Z</time></trkpt><trkpt lat="43.37159645602153" lon="11.311470344707361"><ele>351.0</ele><time>2026-04-08T16:32:38.998Z</time></trkpt><trkpt lat="43.37169410986732" lon="11.311510472240384"><ele>350.4</ele><time>2026-04-08T16:32:39.998Z</time></trkpt><trkpt lat="43.37178203173218" lon="11.311599132423645"><ele>349.8</ele><time>2026-04-08T16:32:40.998Z</time></trkpt><trkpt lat="43.371871361542276" lon="11.311717009711558"><ele>349.2</ele><time>2026-04-08T16:32:41.998Z</time></trkpt><trkpt lat="43.37195212308071" lon="11.311823910243582"><ele>348.59999999999997</ele><time>2026-04-08T16:32:42.998Z</time></trkpt><trkpt lat="43.37203083335164" lon="11.311909660289546"><ele>348.0</ele><time>2026-04-08T16:32:43.998Z</time></trkpt><trkpt lat="43.37210929653398" lon="11.31197510348188"><ele>347.0</ele><time>2026-04-08T16:32:44.998Z</time></trkpt><trkpt lat="43.372193820659376" lon="11.312020641832545"><ele>346.0</ele><time>2026-04-08T16:32:45.998Z</time></trkpt><trkpt lat="43.37228582109265" lon="11.312039962761025"><ele>345.0</ele><time>2026-04-08T16:32:46.998Z</time></trkpt><trkpt lat="43.372400692870606" lon="11.31200672541575"><ele>344.0</ele><time>2026-04-08T16:32:47.998Z</time></trkpt><trkpt lat="43.372529148226896" lon="11.311957129224709"><ele>343.0</ele><time>2026-04-08T16:32:48.998Z</time></trkpt><trkpt lat="43.37265116343261" lon="11.311916589974755"><ele>343.0</ele><time>2026-04-08T16:32:49.998Z</time></trkpt><trkpt lat="43.37277277816362" lon="11.311878025229385"><ele>343.0</ele><time>2026-04-08T16:32:50.998Z</time></trkpt><trkpt lat="43.37289449173289" lon="11.31183620812412"><ele>343.0</ele><time>2026-04-08T16:32:51.998Z</time></trkpt><trkpt lat="43.37302084916151" lon="11.311790839869397"><ele>343.0</ele><time>2026-04-08T16:32:52.998Z</time></trkpt><trkpt lat="43.37314428375294" lon="11.311745030442452"><ele>342.59999999999997</ele><time>2026-04-08T16:32:53.998Z</time></trkpt><trkpt lat="43.37325819122037" lon="11.311704406255247"><ele>342.2</ele><time>2026-04-08T16:32:54.998Z</time></trkpt><trkpt lat="43.37335113395821" lon="11.311654161702691"><ele>341.8</ele><time>2026-04-08T16:32:55.998Z</time></trkpt><trkpt lat="43.37342802495628" lon="11.311567331333848"><ele>341.4</ele><time>2026-04-08T16:32:56.998Z</time></trkpt><trkpt lat="43.37348440491844" lon="11.311432589920393"><ele>341.0</ele><time>2026-04-08T16:32:57.998Z</time></trkpt><trkpt lat="43.3735185934645" lon="11.311277922677789"><ele>341.0</ele><time>2026-04-08T16:32:58.998Z</time></trkpt><trkpt lat="43.37353207579711" lon="11.31110862412089"><ele>341.0</ele><time>2026-04-08T16:32:59.998Z</time></trkpt><trkpt lat="43.37354528091692" lon="11.310936837628846"><ele>341.0</ele><time>2026-04-08T16:33:00.998Z</time></trkpt><trkpt lat="43.37355986254766" lon="11.310774914642302"><ele>341.0</ele><time>2026-04-08T16:33:01.998Z</time></trkpt><trkpt lat="43.37357104495847" lon="11.310619722408529"><ele>339.8</ele><time>2026-04-08T16:33:02.998Z</time></trkpt><trkpt lat="43.37357908861514" lon="11.310484698274406"><ele>338.6</ele><time>2026-04-08T16:33:03.998Z</time></trkpt><trkpt lat="43.37360787005837" lon="11.310362786996148"><ele>337.4</ele><time>2026-04-08T16:33:04.998Z</time></trkpt><trkpt lat="43.373623978525586" lon="11.310233918294566"><ele>336.2</ele><time>2026-04-08T16:33:05.998Z</time></trkpt><trkpt lat="43.37364132675527" lon="11.310099677970692"><ele>335.0</ele><time>2026-04-08T16:33:06.998Z</time></trkpt><trkpt lat="43.3735765307674" lon="11.30993164918084"><ele>335.0</ele><time>2026-04-08T16:33:07.998Z</time></trkpt><trkpt lat="43.37357920114553" lon="11.309753393065265"><ele>335.0</ele><time>2026-04-08T16:33:08.998Z</time></trkpt><trkpt lat="43.37356973804013" lon="11.309563791674044"><ele>335.0</ele><time>2026-04-08T16:33:09.998Z</time></trkpt><trkpt lat="43.37355579469485" lon="11.309351062424232"><ele>335.0</ele><time>2026-04-08T16:33:10.998Z</time></trkpt><trkpt lat="43.37354635151422" lon="11.309150717388876"><ele>333.75</ele><time>2026-04-08T16:33:11.998Z</time></trkpt><trkpt lat="43.3735386682834" lon="11.308951467561885"><ele>332.5</ele><time>2026-04-08T16:33:12.998Z</time></trkpt><trkpt lat="43.373535588052654" lon="11.308760555850256"><ele>331.25</ele><time>2026-04-08T16:33:13.998Z</time></trkpt><trkpt lat="43.37353174404309" lon="11.308608266122459"><ele>330.0</ele><time>2026-04-08T16:33:14.998Z</time></trkpt><trkpt lat="43.37352619252202" lon="11.308482427428425"><ele>330.0</ele><time>2026-04-08T16:33:15.998Z</time></trkpt><trkpt lat="43.37351744914908" lon="11.308367029198607"><ele>330.0</ele><time>2026-04-08T16:33:17Z</time></trkpt><trkpt lat="43.373487904396214" lon="11.308225029685882"><ele>330.0</ele><time>2026-04-08T16:33:18Z</time></trkpt><trkpt lat="43.373438259681116" lon="11.308054794584288"><ele>330.0</ele><time>2026-04-08T16:33:19Z</time></trkpt><trkpt lat="43.37335849400179" lon="11.307856968680946"><ele>328.75</ele><time>2026-04-08T16:33:20Z</time></trkpt><trkpt lat="43.373283667467476" lon="11.307676053438751"><ele>327.5</ele><time>2026-04-08T16:33:21Z</time></trkpt><trkpt lat="43.37321737602196" lon="11.307495662465387"><ele>326.25</ele><time>2026-04-08T16:33:22Z</time></trkpt><trkpt lat="43.37316680036026" lon="11.307322305137456"><ele>325.0</ele><time>2026-04-08T16:33:23Z</time></trkpt><trkpt lat="43.373136446978414" lon="11.307163498135528"><ele>324.75</ele><time>2026-04-08T16:33:24Z</time></trkpt><trkpt lat="43.37313710744482" lon="11.307000867718097"><ele>324.5</ele><time>2026-04-08T16:33:25Z</time></trkpt><trkpt lat="43.37313014775896" lon="11.306808208312324"><ele>324.25</ele><time>2026-04-08T16:33:26Z</time></trkpt><trkpt lat="43.37311067204559" lon="11.306610853401867"><ele>324.0</ele><time>2026-04-08T16:33:27Z</time></trkpt><trkpt lat="43.37310936196186" lon="11.306444841831564"><ele>323.79999999999995</ele><time>2026-04-08T16:33:28Z</time></trkpt><trkpt lat="43.37310249316905" lon="11.30631180072976"><ele>323.59999999999997</ele><time>2026-04-08T16:33:29Z</time></trkpt><trkpt lat="43.37309394342418" lon="11.306183523928535"><ele>323.4</ele><time>2026-04-08T16:33:30Z</time></trkpt><trkpt lat="43.37308826188288" lon="11.306034996656928"><ele>323.2</ele><time>2026-04-08T16:33:31Z</time></trkpt><trkpt lat="43.373088943668385" lon="11.305878259564867"><ele>323.0</ele><time>2026-04-08T16:33:32Z</time></trkpt><trkpt lat="43.37308403696121" lon="11.305747113686826"><ele>323.0</ele><time>2026-04-08T16:33:33Z</time></trkpt><trkpt lat="43.37307181561141" lon="11.305583728815028"><ele>323.0</ele><time>2026-04-08T16:33:34.999Z</time></trkpt><trkpt lat="43.37306583290837" lon="11.305463254818942"><ele>323.0</ele><time>2026-04-08T16:33:35.999Z</time></trkpt><trkpt lat="43.37305630710832" lon="11.305340807249983"><ele>323.0</ele><time>2026-04-08T16:33:36.999Z</time></trkpt><trkpt lat="43.37305066816141" lon="11.305228015202502"><ele>323.0</ele><time>2026-04-08T16:33:37.999Z</time></trkpt><trkpt lat="43.37305028958952" lon="11.305122938923533"><ele>322.75</ele><time>2026-04-08T16:33:38.999Z</time></trkpt><trkpt lat="43.37304533277782" lon="11.304988124368116"><ele>322.5</ele><time>2026-04-08T16:33:39.999Z</time></trkpt><trkpt lat="43.373035287692844" lon="11.30479440197696"><ele>322.25</ele><time>2026-04-08T16:33:40.999Z</time></trkpt><trkpt lat="43.37302023352813" lon="11.304577000854803"><ele>322.0</ele><time>2026-04-08T16:33:41.999Z</time></trkpt><trkpt lat="43.373006078120795" lon="11.304337422400417"><ele>322.0</ele><time>2026-04-08T16:33:42.999Z</time></trkpt><trkpt lat="43.37299975517769" lon="11.304112779662919"><ele>322.0</ele><time>2026-04-08T16:33:43.999Z</time></trkpt><trkpt lat="43.372994823416086" lon="11.303914942521631"><ele>322.0</ele><time>2026-04-08T16:33:44.999Z</time></trkpt><trkpt lat="43.37298873628268" lon="11.303732688000334"><ele>322.0</ele><time>2026-04-08T16:33:45.999Z</time></trkpt><trkpt lat="43.372983154285706" lon="11.303568035734248"><ele>321.25</ele><time>2026-04-08T16:33:46.999Z</time></trkpt><trkpt lat="43.37297251896118" lon="11.303403435532909"><ele>320.5</ele><time>2026-04-08T16:33:47.999Z</time></trkpt><trkpt lat="43.37297310354953" lon="11.303249398359627"><ele>319.75</ele><time>2026-04-08T16:33:48.999Z</time></trkpt><trkpt lat="43.372999450788754" lon="11.303100496226708"><ele>319.0</ele><time>2026-04-08T16:33:49.999Z</time></trkpt><trkpt lat="43.373077582542685" lon="11.302975982588245"><ele>319.0</ele><time>2026-04-08T16:33:50.999Z</time></trkpt><trkpt lat="43.37316238397609" lon="11.30281854548523"><ele>319.0</ele><time>2026-04-08T16:33:51.999Z</time></trkpt><trkpt lat="43.37328530798037" lon="11.302662914600267"><ele>319.0</ele><time>2026-04-08T16:33:52.999Z</time></trkpt><trkpt lat="43.37339471139598" lon="11.30251104622027"><ele>319.0</ele><time>2026-04-08T16:33:53.999Z</time></trkpt><trkpt lat="43.373493927823816" lon="11.302363521987706"><ele>319.0</ele><time>2026-04-08T16:33:54.999Z</time></trkpt><trkpt lat="43.373592545508515" lon="11.302229064197588"><ele>319.0</ele><time>2026-04-08T16:33:55.999Z</time></trkpt><trkpt lat="43.37366331237456" lon="11.30207556039515"><ele>319.0</ele><time>2026-04-08T16:33:56.999Z</time></trkpt><trkpt lat="43.37372344796741" lon="11.30194272760287"><ele>317.75</ele><time>2026-04-08T16:33:57.999Z</time></trkpt><trkpt lat="43.3737639604193" lon="11.301783297125118"><ele>316.5</ele><time>2026-04-08T16:33:58.999Z</time></trkpt><trkpt lat="43.37378404697908" lon="11.301607066617779"><ele>315.25</ele><time>2026-04-08T16:33:59.999Z</time></trkpt><trkpt lat="43.37377011383391" lon="11.301431362189394"><ele>314.0</ele><time>2026-04-08T16:34:00.999Z</time></trkpt><trkpt lat="43.37374383013381" lon="11.301247214582364"><ele>311.0</ele><time>2026-04-08T16:34:01.999Z</time></trkpt><trkpt lat="43.373713076145016" lon="11.301054688607714"><ele>308.0</ele><time>2026-04-08T16:34:02.999Z</time></trkpt><trkpt lat="43.3736648541599" lon="11.300855406881428"><ele>305.0</ele><time>2026-04-08T16:34:03.999Z</time></trkpt><trkpt lat="43.373601505908596" lon="11.30064609752335"><ele>302.6666666666667</ele><time>2026-04-08T16:34:04.999Z</time></trkpt><trkpt lat="43.373526465520435" lon="11.300422138545231"><ele>300.3333333333333</ele><time>2026-04-08T16:34:05.999Z</time></trkpt><trkpt lat="43.37344403269079" lon="11.300190330241445"><ele>298.0</ele><time>2026-04-08T16:34:06.999Z</time></trkpt><trkpt lat="43.373348327321736" lon="11.299940766852435"><ele>295.66666666666663</ele><time>2026-04-08T16:34:07.999Z</time></trkpt><trkpt lat="43.37324245245939" lon="11.299683124740591"><ele>293.3333333333333</ele><time>2026-04-08T16:34:08.999Z</time></trkpt><trkpt lat="43.37313301322544" lon="11.299418939368318"><ele>291.0</ele><time>2026-04-08T16:34:09.999Z</time></trkpt><trkpt lat="43.37303151655533" lon="11.299174261372826"><ele>290.6666666666667</ele><time>2026-04-08T16:34:10.999Z</time></trkpt><trkpt lat="43.3729394280189" lon="11.298955392987594"><ele>290.33333333333337</ele><time>2026-04-08T16:34:11.999Z</time></trkpt><trkpt lat="43.37284861900678" lon="11.298758947906775"><ele>290.0</ele><time>2026-04-08T16:34:12.999Z</time></trkpt><trkpt lat="43.37275309960611" lon="11.298578924965243"><ele>291.0</ele><time>2026-04-08T16:34:13.999Z</time></trkpt><trkpt lat="43.37263559294947" lon="11.298414598064946"><ele>292.0</ele><time>2026-04-08T16:34:14.999Z</time></trkpt><trkpt lat="43.3724918906324" lon="11.298250685770894"><ele>293.0</ele><time>2026-04-08T16:34:15.999Z</time></trkpt><trkpt lat="43.3723618803771" lon="11.298105238944173"><ele>294.0</ele><time>2026-04-08T16:34:16.999Z</time></trkpt><trkpt lat="43.37223886047257" lon="11.29795309690106"><ele>295.0</ele><time>2026-04-08T16:34:17.999Z</time></trkpt><trkpt lat="43.37215449553642" lon="11.297807566900033"><ele>296.0</ele><time>2026-04-08T16:34:18.999Z</time></trkpt><trkpt lat="43.37209104120341" lon="11.297704470791537"><ele>297.0</ele><time>2026-04-08T16:34:19.999Z</time></trkpt><trkpt lat="43.37204403500139" lon="11.29761916426848"><ele>298.0</ele><time>2026-04-08T16:34:20.999Z</time></trkpt><trkpt lat="43.37203590452432" lon="11.297502636806653"><ele>299.0</ele><time>2026-04-08T16:34:21.999Z</time></trkpt><trkpt lat="43.37204053734009" lon="11.297364057134324"><ele>300.0</ele><time>2026-04-08T16:34:22.999Z</time></trkpt><trkpt lat="43.37205212194672" lon="11.297209187940853"><ele>301.0</ele><time>2026-04-08T16:34:23.999Z</time></trkpt><trkpt lat="43.37205891452931" lon="11.297052052601288"><ele>302.0</ele><time>2026-04-08T16:34:24.999Z</time></trkpt><trkpt lat="43.37207131692412" lon="11.296878198481227"><ele>305.75</ele><time>2026-04-08T16:34:25.999Z</time></trkpt><trkpt lat="43.37208754212461" lon="11.29670791830025"><ele>309.5</ele><time>2026-04-08T16:34:26.999Z</time></trkpt><trkpt lat="43.37212635769422" lon="11.296573454837299"><ele>313.25</ele><time>2026-04-08T16:34:27.999Z</time></trkpt><trkpt lat="43.372166425431416" lon="11.296438667454588"><ele>317.0</ele><time>2026-04-08T16:34:28.999Z</time></trkpt><trkpt lat="43.37218975411697" lon="11.296270042911756"><ele>311.33333333333337</ele><time>2026-04-08T16:34:29.999Z</time></trkpt><trkpt lat="43.37220678484723" lon="11.296052408168697"><ele>305.6666666666667</ele><time>2026-04-08T16:34:30.999Z</time></trkpt><trkpt lat="43.372211166759826" lon="11.295803345878271"><ele>300.0</ele><time>2026-04-08T16:34:31.999Z</time></trkpt><trkpt lat="43.37219429071765" lon="11.295596594213224"><ele>300.75</ele><time>2026-04-08T16:34:32.999Z</time></trkpt><trkpt lat="43.37219979444859" lon="11.295415478531806"><ele>301.5</ele><time>2026-04-08T16:34:33.999Z</time></trkpt><trkpt lat="43.372238633415456" lon="11.295272105817757"><ele>302.25</ele><time>2026-04-08T16:34:34.999Z</time></trkpt><trkpt lat="43.37229963133045" lon="11.295143946794337"><ele>303.0</ele><time>2026-04-08T16:34:35.999Z</time></trkpt><trkpt lat="43.37238678333072" lon="11.295038078019502"><ele>303.0</ele><time>2026-04-08T16:34:36.999Z</time></trkpt><trkpt lat="43.37248923564936" lon="11.294922779448093"><ele>303.0</ele><time>2026-04-08T16:34:37.998Z</time></trkpt><trkpt lat="43.372590037729516" lon="11.294736923670234"><ele>303.0</ele><time>2026-04-08T16:34:38.998Z</time></trkpt><trkpt lat="43.37265780276912" lon="11.29454023948796"><ele>302.6666666666667</ele><time>2026-04-08T16:34:39.998Z</time></trkpt><trkpt lat="43.372736032895666" lon="11.294387749047809"><ele>302.33333333333337</ele><time>2026-04-08T16:34:40.998Z</time></trkpt><trkpt lat="43.37284081928957" lon="11.29424119524141"><ele>302.0</ele><time>2026-04-08T16:34:41.998Z</time></trkpt><trkpt lat="43.37296453710902" lon="11.294078238751673"><ele>301.33333333333337</ele><time>2026-04-08T16:34:42.998Z</time></trkpt><trkpt lat="43.37310109679865" lon="11.293934652445182"><ele>300.6666666666667</ele><time>2026-04-08T16:34:43.998Z</time></trkpt><trkpt lat="43.373230586956126" lon="11.293793632138701"><ele>300.0</ele><time>2026-04-08T16:34:44.998Z</time></trkpt><trkpt lat="43.373358501075785" lon="11.293627550473483"><ele>300.0</ele><time>2026-04-08T16:34:45.998Z</time></trkpt><trkpt lat="43.37348066502865" lon="11.293443391960595"><ele>300.0</ele><time>2026-04-08T16:34:46.998Z</time></trkpt><trkpt lat="43.37357891374987" lon="11.293237467106364"><ele>300.0</ele><time>2026-04-08T16:34:47.998Z</time></trkpt><trkpt lat="43.37366316191172" lon="11.293027048575912"><ele>300.6666666666667</ele><time>2026-04-08T16:34:48.998Z</time></trkpt><trkpt lat="43.373734318900105" lon="11.29279764379717"><ele>301.33333333333337</ele><time>2026-04-08T16:34:49.998Z</time></trkpt><trkpt lat="43.37379827240068" lon="11.292577926402076"><ele>302.0</ele><time>2026-04-08T16:34:50.998Z</time></trkpt><trkpt lat="43.37386318059395" lon="11.292365948458745"><ele>295.0</ele><time>2026-04-08T16:34:51.998Z</time></trkpt><trkpt lat="43.37395212445207" lon="11.292181138077284"><ele>288.0</ele><time>2026-04-08T16:34:52.998Z</time></trkpt><trkpt lat="43.37404958534132" lon="11.29198640983133"><ele>281.0</ele><time>2026-04-08T16:34:53.998Z</time></trkpt><trkpt lat="43.374155153950056" lon="11.29178378701483"><ele>281.0</ele><time>2026-04-08T16:34:54.998Z</time></trkpt><trkpt lat="43.3742349193" lon="11.291569142558872"><ele>281.0</ele><time>2026-04-08T16:34:55.998Z</time></trkpt><trkpt lat="43.37430337988222" lon="11.291367357007388"><ele>281.0</ele><time>2026-04-08T16:34:56.998Z</time></trkpt><trkpt lat="43.37435611963161" lon="11.29118192724136"><ele>280.5</ele><time>2026-04-08T16:34:57.998Z</time></trkpt><trkpt lat="43.37443556437018" lon="11.29104926135158"><ele>280.0</ele><time>2026-04-08T16:34:58.998Z</time></trkpt><trkpt lat="43.37452513367373" lon="11.290895833595416"><ele>279.5</ele><time>2026-04-08T16:34:59.998Z</time></trkpt><trkpt lat="43.37464214871451" lon="11.290755214264957"><ele>279.0</ele><time>2026-04-08T16:35:00.998Z</time></trkpt><trkpt lat="43.37477723252155" lon="11.290654079131475"><ele>278.6666666666667</ele><time>2026-04-08T16:35:01.998Z</time></trkpt><trkpt lat="43.37489847352428" lon="11.290523701138326"><ele>278.33333333333337</ele><time>2026-04-08T16:35:02.998Z</time></trkpt><trkpt lat="43.375053990612734" lon="11.290437975479847"><ele>278.0</ele><time>2026-04-08T16:35:03.998Z</time></trkpt><trkpt lat="43.37522137466459" lon="11.290359534259716"><ele>278.0</ele><time>2026-04-08T16:35:04.998Z</time></trkpt><trkpt lat="43.37540709579855" lon="11.29026740521724"><ele>278.0</ele><time>2026-04-08T16:35:05.998Z</time></trkpt><trkpt lat="43.37560039975244" lon="11.290188399031958"><ele>278.0</ele><time>2026-04-08T16:35:06.998Z</time></trkpt><trkpt lat="43.375776356370736" lon="11.290103194688738"><ele>275.33333333333337</ele><time>2026-04-08T16:35:07.998Z</time></trkpt><trkpt lat="43.37595852784672" lon="11.290021197652502"><ele>272.6666666666667</ele><time>2026-04-08T16:35:08.998Z</time></trkpt><trkpt lat="43.376126663467474" lon="11.289886627659438"><ele>270.0</ele><time>2026-04-08T16:35:09.998Z</time></trkpt><trkpt lat="43.376302717300305" lon="11.289762315792208"><ele>270.6666666666667</ele><time>2026-04-08T16:35:10.998Z</time></trkpt><trkpt lat="43.376482312764885" lon="11.289675746266544"><ele>271.33333333333337</ele><time>2026-04-08T16:35:11.998Z</time></trkpt><trkpt lat="43.37665107846942" lon="11.289585118159605"><ele>272.0</ele><time>2026-04-08T16:35:12.998Z</time></trkpt><trkpt lat="43.37680923455716" lon="11.2894832107332"><ele>272.0</ele><time>2026-04-08T16:35:13.998Z</time></trkpt><trkpt lat="43.37694450540261" lon="11.289407912580414"><ele>272.0</ele><time>2026-04-08T16:35:14.998Z</time></trkpt><trkpt lat="43.37705663863459" lon="11.28933342380947"><ele>272.0</ele><time>2026-04-08T16:35:15.998Z</time></trkpt><trkpt lat="43.377136656689" lon="11.289233967448002"><ele>272.0</ele><time>2026-04-08T16:35:16.998Z</time></trkpt><trkpt lat="43.37721037559229" lon="11.289094350485062"><ele>266.6666666666667</ele><time>2026-04-08T16:35:17.998Z</time></trkpt><trkpt lat="43.37728497065034" lon="11.288906482278206"><ele>261.3333333333333</ele><time>2026-04-08T16:35:18.998Z</time></trkpt><trkpt lat="43.377361027238415" lon="11.288700184242717"><ele>256.0</ele><time>2026-04-08T16:35:19.998Z</time></trkpt><trkpt lat="43.37742819490873" lon="11.28850612489687"><ele>256.0</ele><time>2026-04-08T16:35:20.998Z</time></trkpt><trkpt lat="43.37748133887226" lon="11.288298510825072"><ele>256.0</ele><time>2026-04-08T16:35:21.998Z</time></trkpt><trkpt lat="43.377513125143125" lon="11.28806214848869"><ele>256.0</ele><time>2026-04-08T16:35:23Z</time></trkpt><trkpt lat="43.377535151793666" lon="11.28781280828131"><ele>255.66666666666666</ele><time>2026-04-08T16:35:24Z</time></trkpt><trkpt lat="43.37756329378999" lon="11.287542797275464"><ele>255.33333333333331</ele><time>2026-04-08T16:35:25Z</time></trkpt><trkpt lat="43.377592721964184" lon="11.287269663977098"><ele>255.0</ele><time>2026-04-08T16:35:26Z</time></trkpt><trkpt lat="43.37762188090613" lon="11.28701017255261"><ele>254.0</ele><time>2026-04-08T16:35:27Z</time></trkpt><trkpt lat="43.37764254489813" lon="11.286762303064414"><ele>253.0</ele><time>2026-04-08T16:35:28Z</time></trkpt><trkpt lat="43.37765551289046" lon="11.28652289735416"><ele>252.0</ele><time>2026-04-08T16:35:29Z</time></trkpt><trkpt lat="43.37765921243627" lon="11.286287228756592"><ele>250.25</ele><time>2026-04-08T16:35:30Z</time></trkpt><trkpt lat="43.37766331446948" lon="11.28606302252137"><ele>248.5</ele><time>2026-04-08T16:35:31Z</time></trkpt><trkpt lat="43.37767874871804" lon="11.285877033454987"><ele>246.75</ele><time>2026-04-08T16:35:32Z</time></trkpt><trkpt lat="43.37775221412842" lon="11.285712101144936"><ele>245.0</ele><time>2026-04-08T16:35:33Z</time></trkpt><trkpt lat="43.377819884777324" lon="11.285515880724445"><ele>242.75</ele><time>2026-04-08T16:35:34Z</time></trkpt><trkpt lat="43.377899783995595" lon="11.285334657941277"><ele>240.5</ele><time>2026-04-08T16:35:35Z</time></trkpt><trkpt lat="43.377941509089105" lon="11.2851855569282"><ele>238.25</ele><time>2026-04-08T16:35:36Z</time></trkpt><trkpt lat="43.377941482878455" lon="11.28504756896486"><ele>236.0</ele><time>2026-04-08T16:35:37Z</time></trkpt><trkpt lat="43.37791100569457" lon="11.284886957769908"><ele>234.25</ele><time>2026-04-08T16:35:38Z</time></trkpt><trkpt lat="43.37786959654025" lon="11.284708500346847"><ele>232.5</ele><time>2026-04-08T16:35:39Z</time></trkpt><trkpt lat="43.377845503793615" lon="11.284532438642705"><ele>230.75</ele><time>2026-04-08T16:35:40Z</time></trkpt><trkpt lat="43.37786560825874" lon="11.284338668675849"><ele>229.0</ele><time>2026-04-08T16:35:41Z</time></trkpt><trkpt lat="43.37790934872774" lon="11.28414116973183"><ele>229.0</ele><time>2026-04-08T16:35:42Z</time></trkpt><trkpt lat="43.37796691879776" lon="11.283934814108042"><ele>229.0</ele><time>2026-04-08T16:35:43Z</time></trkpt><trkpt lat="43.37802178656308" lon="11.283734191658388"><ele>229.0</ele><time>2026-04-08T16:35:44Z</time></trkpt><trkpt lat="43.37808403684577" lon="11.2835547869507"><ele>229.0</ele><time>2026-04-08T16:35:45Z</time></trkpt><trkpt lat="43.37818088547699" lon="11.283419524184993"><ele>229.0</ele><time>2026-04-08T16:35:45.999Z</time></trkpt><trkpt lat="43.37827843762974" lon="11.283286225484966"><ele>229.0</ele><time>2026-04-08T16:35:46.999Z</time></trkpt><trkpt lat="43.3784172808145" lon="11.283170792555326"><ele>229.0</ele><time>2026-04-08T16:35:47.999Z</time></trkpt><trkpt lat="43.378574592914354" lon="11.283044707905006"><ele>229.0</ele><time>2026-04-08T16:35:48.999Z</time></trkpt><trkpt lat="43.378731528154155" lon="11.28290594009922"><ele>229.0</ele><time>2026-04-08T16:35:49.999Z</time></trkpt><trkpt lat="43.378882781031" lon="11.282770045514635"><ele>229.0</ele><time>2026-04-08T16:35:50.999Z</time></trkpt><trkpt lat="43.37902861713188" lon="11.282641677304717"><ele>228.33333333333331</ele><time>2026-04-08T16:35:51.999Z</time></trkpt><trkpt lat="43.379161914679656" lon="11.28250884589776"><ele>227.66666666666669</ele><time>2026-04-08T16:35:52.999Z</time></trkpt><trkpt lat="43.379279636501046" lon="11.282344035840952"><ele>227.0</ele><time>2026-04-08T16:35:53.999Z</time></trkpt><trkpt lat="43.37939651100001" lon="11.282123428295009"><ele>227.0</ele><time>2026-04-08T16:35:54.999Z</time></trkpt><trkpt lat="43.37950987637282" lon="11.28189437504618"><ele>227.0</ele><time>2026-04-08T16:35:55.999Z</time></trkpt><trkpt lat="43.37962864723435" lon="11.281669264941314"><ele>227.0</ele><time>2026-04-08T16:35:56.999Z</time></trkpt><trkpt lat="43.379730943821464" lon="11.28146413977656"><ele>227.0</ele><time>2026-04-08T16:35:57.999Z</time></trkpt><trkpt lat="43.37983457593997" lon="11.281278744617381"><ele>227.0</ele><time>2026-04-08T16:35:58.999Z</time></trkpt><trkpt lat="43.37995807134682" lon="11.281091197787893"><ele>227.0</ele><time>2026-04-08T16:35:59.999Z</time></trkpt><trkpt lat="43.38009972117135" lon="11.28092044892738"><ele>227.0</ele><time>2026-04-08T16:36:00.999Z</time></trkpt><trkpt lat="43.38023678925526" lon="11.280753910444265"><ele>227.0</ele><time>2026-04-08T16:36:01.999Z</time></trkpt><trkpt lat="43.38035701320901" lon="11.280595515057318"><ele>227.0</ele><time>2026-04-08T16:36:02.999Z</time></trkpt><trkpt lat="43.380459049154" lon="11.280433250238085"><ele>227.25</ele><time>2026-04-08T16:36:03.999Z</time></trkpt><trkpt lat="43.380542592452606" lon="11.280264762828853"><ele>227.5</ele><time>2026-04-08T16:36:04.999Z</time></trkpt><trkpt lat="43.380612427840695" lon="11.280094948813629"><ele>227.75</ele><time>2026-04-08T16:36:05.999Z</time></trkpt><trkpt lat="43.38068110054685" lon="11.279900362512173"><ele>228.0</ele><time>2026-04-08T16:36:06.999Z</time></trkpt><trkpt lat="43.380757669654365" lon="11.279669564695727"><ele>228.0</ele><time>2026-04-08T16:36:07.999Z</time></trkpt><trkpt lat="43.38084015287002" lon="11.279436365845687"><ele>228.0</ele><time>2026-04-08T16:36:08.999Z</time></trkpt><trkpt lat="43.38092190665337" lon="11.279217299797034"><ele>228.0</ele><time>2026-04-08T16:36:09.999Z</time></trkpt><trkpt lat="43.38101073586434" lon="11.278980362713218"><ele>227.33333333333331</ele><time>2026-04-08T16:36:10.999Z</time></trkpt><trkpt lat="43.38112447830551" lon="11.278742301870034"><ele>226.66666666666666</ele><time>2026-04-08T16:36:11.999Z</time></trkpt><trkpt lat="43.38126421576822" lon="11.278508946829746"><ele>226.0</ele><time>2026-04-08T16:36:12.999Z</time></trkpt><trkpt lat="43.38141703238361" lon="11.278255099812137"><ele>227.33333333333331</ele><time>2026-04-08T16:36:13.999Z</time></trkpt><trkpt lat="43.381549374203615" lon="11.278022295625389"><ele>228.66666666666669</ele><time>2026-04-08T16:36:14.999Z</time></trkpt><trkpt lat="43.381670609895664" lon="11.277805892120137"><ele>230.0</ele><time>2026-04-08T16:36:15.999Z</time></trkpt><trkpt lat="43.38179642769283" lon="11.277579391289361"><ele>230.0</ele><time>2026-04-08T16:36:16.999Z</time></trkpt><trkpt lat="43.38191887064557" lon="11.277376476096016"><ele>230.0</ele><time>2026-04-08T16:36:17.999Z</time></trkpt><trkpt lat="43.38202296564548" lon="11.277185813796773"><ele>230.0</ele><time>2026-04-08T16:36:18.999Z</time></trkpt><trkpt lat="43.38211893108991" lon="11.277005307529105"><ele>230.66666666666669</ele><time>2026-04-08T16:36:19.999Z</time></trkpt><trkpt lat="43.382219097253774" lon="11.276842484068013"><ele>231.33333333333331</ele><time>2026-04-08T16:36:20.999Z</time></trkpt><trkpt lat="43.38231291433198" lon="11.276683685108003"><ele>232.0</ele><time>2026-04-08T16:36:21.999Z</time></trkpt><trkpt lat="43.382393283416434" lon="11.276487803926264"><ele>231.0</ele><time>2026-04-08T16:36:22.999Z</time></trkpt><trkpt lat="43.382462618832534" lon="11.27623934123643"><ele>230.0</ele><time>2026-04-08T16:36:23.999Z</time></trkpt><trkpt lat="43.38251913369464" lon="11.276002031345653"><ele>229.0</ele><time>2026-04-08T16:36:24.999Z</time></trkpt><trkpt lat="43.38257356111078" lon="11.27577845109517"><ele>227.75</ele><time>2026-04-08T16:36:25.999Z</time></trkpt><trkpt lat="43.38263082841574" lon="11.275566490366185"><ele>226.5</ele><time>2026-04-08T16:36:26.999Z</time></trkpt><trkpt lat="43.3826824233718" lon="11.275363918692252"><ele>225.25</ele><time>2026-04-08T16:36:27.999Z</time></trkpt><trkpt lat="43.382725793889946" lon="11.275198113867322"><ele>224.0</ele><time>2026-04-08T16:36:28.999Z</time></trkpt><trkpt lat="43.38274904312834" lon="11.275059557859809"><ele>224.00000000000003</ele><time>2026-04-08T16:36:29.999Z</time></trkpt><trkpt lat="43.38279361779161" lon="11.27497082734086"><ele>224.0</ele><time>2026-04-08T16:36:31.999Z</time></trkpt><trkpt lat="43.382724513204344" lon="11.274935206192975"><ele>224.0</ele><time>2026-04-08T16:36:32.999Z</time></trkpt><trkpt lat="43.38265100330243" lon="11.274922850416457"><ele>224.0</ele><time>2026-04-08T16:36:34.999Z</time></trkpt><trkpt lat="43.38259691244854" lon="11.274967718021172"><ele>224.00000000000003</ele><time>2026-04-08T16:36:35.999Z</time></trkpt><trkpt lat="43.382526436201786" lon="11.27504403104767"><ele>224.0</ele><time>2026-04-08T16:36:36.999Z</time></trkpt><trkpt lat="43.3824542002325" lon="11.275134842720782"><ele>224.0</ele><time>2026-04-08T16:36:37.999Z</time></trkpt><trkpt lat="43.38235750739164" lon="11.27523725737814"><ele>224.0</ele><time>2026-04-08T16:36:38.999Z</time></trkpt><trkpt lat="43.382236129807985" lon="11.275353592178602"><ele>224.0</ele><time>2026-04-08T16:36:39.999Z</time></trkpt><trkpt lat="43.382121036194576" lon="11.275467539824307"><ele>224.0</ele><time>2026-04-08T16:36:40.999Z</time></trkpt><trkpt lat="43.381980575620005" lon="11.275594005859741"><ele>224.33333333333334</ele><time>2026-04-08T16:36:41.999Z</time></trkpt><trkpt lat="43.381842560773926" lon="11.275718842346214"><ele>224.66666666666669</ele><time>2026-04-08T16:36:42.998Z</time></trkpt><trkpt lat="43.38171171309125" lon="11.2758235101307"><ele>225.0</ele><time>2026-04-08T16:36:43.998Z</time></trkpt><trkpt lat="43.381582595499886" lon="11.27591293830857"><ele>225.0</ele><time>2026-04-08T16:36:44.998Z</time></trkpt><trkpt lat="43.38146092863063" lon="11.275942535680318"><ele>225.0</ele><time>2026-04-08T16:36:45.998Z</time></trkpt><trkpt lat="43.38134259790144" lon="11.275999818260475"><ele>225.0</ele><time>2026-04-08T16:36:46.998Z</time></trkpt><trkpt lat="43.38122409610758" lon="11.276027700751785"><ele>225.0</ele><time>2026-04-08T16:36:47.998Z</time></trkpt><trkpt lat="43.381110996390134" lon="11.276054012052677"><ele>224.6</ele><time>2026-04-08T16:36:48.998Z</time></trkpt><trkpt lat="43.38101192186263" lon="11.276077016105383"><ele>224.2</ele><time>2026-04-08T16:36:49.998Z</time></trkpt><trkpt lat="43.38090967319878" lon="11.276076579170073"><ele>223.8</ele><time>2026-04-08T16:36:50.998Z</time></trkpt><trkpt lat="43.380812780179554" lon="11.276031868234535"><ele>223.4</ele><time>2026-04-08T16:36:51.998Z</time></trkpt><trkpt lat="43.38070652328052" lon="11.275948000290756"><ele>223.0</ele><time>2026-04-08T16:36:52.998Z</time></trkpt><trkpt lat="43.38060093399624" lon="11.275793321019815"><ele>223.0</ele><time>2026-04-08T16:36:53.998Z</time></trkpt><trkpt lat="43.380498727870076" lon="11.275675116775515"><ele>223.0</ele><time>2026-04-08T16:36:54.998Z</time></trkpt><trkpt lat="43.380378593899906" lon="11.275532290312974"><ele>223.0</ele><time>2026-04-08T16:36:55.998Z</time></trkpt><trkpt lat="43.380257369758084" lon="11.275373603649653"><ele>222.66666666666666</ele><time>2026-04-08T16:36:56.998Z</time></trkpt><trkpt lat="43.38014921556107" lon="11.275226754084933"><ele>222.33333333333331</ele><time>2026-04-08T16:36:57.998Z</time></trkpt><trkpt lat="43.38004283948411" lon="11.275081119662257"><ele>222.0</ele><time>2026-04-08T16:36:58.998Z</time></trkpt><trkpt lat="43.37993161252896" lon="11.27494419914072"><ele>222.0</ele><time>2026-04-08T16:36:59.998Z</time></trkpt><trkpt lat="43.37980554872513" lon="11.274827249202826"><ele>222.0</ele><time>2026-04-08T16:37:00.998Z</time></trkpt><trkpt lat="43.379667865836325" lon="11.274725297951486"><ele>222.0</ele><time>2026-04-08T16:37:01.998Z</time></trkpt><trkpt lat="43.37952276213406" lon="11.274650434046801"><ele>221.8</ele><time>2026-04-08T16:37:02.998Z</time></trkpt><trkpt lat="43.379384644785574" lon="11.274600716618352"><ele>221.6</ele><time>2026-04-08T16:37:03.998Z</time></trkpt><trkpt lat="43.379263518271976" lon="11.274565425862987"><ele>221.40000000000003</ele><time>2026-04-08T16:37:04.998Z</time></trkpt><trkpt lat="43.37916513733911" lon="11.274523576721043"><ele>221.20000000000002</ele><time>2026-04-08T16:37:05.998Z</time></trkpt><trkpt lat="43.37908979490788" lon="11.274491621913528"><ele>221.0</ele><time>2026-04-08T16:37:06.998Z</time></trkpt><trkpt lat="43.37902009116489" lon="11.274453244552895"><ele>221.00000000000003</ele><time>2026-04-08T16:37:07.998Z</time></trkpt><trkpt lat="43.3789484081223" lon="11.27441836708163"><ele>221.0</ele><time>2026-04-08T16:37:08.998Z</time></trkpt><trkpt lat="43.37887056918848" lon="11.274379602904183"><ele>221.0</ele><time>2026-04-08T16:37:09.998Z</time></trkpt><trkpt lat="43.378788502677374" lon="11.274333392000763"><ele>221.0</ele><time>2026-04-08T16:37:10.998Z</time></trkpt><trkpt lat="43.37873065224711" lon="11.274292063985827"><ele>221.00000000000003</ele><time>2026-04-08T16:37:11.998Z</time></trkpt><trkpt lat="43.37868304104429" lon="11.274191077953864"><ele>221.0</ele><time>2026-04-08T16:37:13.998Z</time></trkpt><trkpt lat="43.37862338316868" lon="11.274076011568148"><ele>221.4</ele><time>2026-04-08T16:37:15.998Z</time></trkpt><trkpt lat="43.378523811607806" lon="11.274065013734717"><ele>221.8</ele><time>2026-04-08T16:37:17.998Z</time></trkpt><trkpt lat="43.37846657059024" lon="11.274167027178166"><ele>222.20000000000002</ele><time>2026-04-08T16:37:18.998Z</time></trkpt><trkpt lat="43.378390656457064" lon="11.27427573483135"><ele>222.60000000000002</ele><time>2026-04-08T16:37:19.998Z</time></trkpt><trkpt lat="43.37831344852945" lon="11.274390203391006"><ele>223.0</ele><time>2026-04-08T16:37:20.998Z</time></trkpt><trkpt lat="43.37821081402067" lon="11.2745253248065"><ele>223.0</ele><time>2026-04-08T16:37:21.998Z</time></trkpt><trkpt lat="43.37810661165486" lon="11.274661830515004"><ele>223.0</ele><time>2026-04-08T16:37:22.998Z</time></trkpt><trkpt lat="43.37800640921727" lon="11.274800897827285"><ele>223.0</ele><time>2026-04-08T16:37:23.998Z</time></trkpt><trkpt lat="43.377907013630924" lon="11.274940583021378"><ele>223.0</ele><time>2026-04-08T16:37:24.998Z</time></trkpt><trkpt lat="43.3778109079528" lon="11.275066511736448"><ele>223.5</ele><time>2026-04-08T16:37:25.998Z</time></trkpt><trkpt lat="43.3777230990008" lon="11.275179006220341"><ele>224.0</ele><time>2026-04-08T16:37:26.998Z</time></trkpt><trkpt lat="43.37763620576604" lon="11.275290880401807"><ele>224.5</ele><time>2026-04-08T16:37:27.998Z</time></trkpt><trkpt lat="43.37753197123138" lon="11.275390435332715"><ele>225.0</ele><time>2026-04-08T16:37:29Z</time></trkpt><trkpt lat="43.37740704706344" lon="11.275493879601589"><ele>225.0</ele><time>2026-04-08T16:37:30Z</time></trkpt><trkpt lat="43.37724776620526" lon="11.275583888802636"><ele>225.0</ele><time>2026-04-08T16:37:31Z</time></trkpt><trkpt lat="43.37706639422743" lon="11.275700177821061"><ele>225.0</ele><time>2026-04-08T16:37:32Z</time></trkpt><trkpt lat="43.376869050439915" lon="11.275793628129902"><ele>225.33333333333331</ele><time>2026-04-08T16:37:33Z</time></trkpt><trkpt lat="43.37669692187971" lon="11.275908746826854"><ele>225.66666666666666</ele><time>2026-04-08T16:37:34Z</time></trkpt><trkpt lat="43.37653394735116" lon="11.276063863966796"><ele>226.0</ele><time>2026-04-08T16:37:35Z</time></trkpt><trkpt lat="43.376377812984835" lon="11.276269488614219"><ele>224.5</ele><time>2026-04-08T16:37:36Z</time></trkpt><trkpt lat="43.37623543828137" lon="11.276532592566712"><ele>223.0</ele><time>2026-04-08T16:37:37Z</time></trkpt><trkpt lat="43.376100807340016" lon="11.276822930888034"><ele>223.0</ele><time>2026-04-08T16:37:38Z</time></trkpt><trkpt lat="43.37595701200612" lon="11.277124615101952"><ele>223.0</ele><time>2026-04-08T16:37:39Z</time></trkpt><trkpt lat="43.37581789297467" lon="11.27741319762391"><ele>224.5</ele><time>2026-04-08T16:37:40Z</time></trkpt><trkpt lat="43.375673275087316" lon="11.27770796198459"><ele>226.0</ele><time>2026-04-08T16:37:41Z</time></trkpt><trkpt lat="43.375545977591855" lon="11.277963557553663"><ele>227.66666666666666</ele><time>2026-04-08T16:37:42Z</time></trkpt><trkpt lat="43.37544211501037" lon="11.278179236154"><ele>229.33333333333331</ele><time>2026-04-08T16:37:43Z</time></trkpt><trkpt lat="43.375351276174136" lon="11.278390252668265"><ele>231.0</ele><time>2026-04-08T16:37:44Z</time></trkpt><trkpt lat="43.37527417037283" lon="11.278608466120922"><ele>231.0</ele><time>2026-04-08T16:37:45Z</time></trkpt><trkpt lat="43.37521557371941" lon="11.278839799192392"><ele>231.0</ele><time>2026-04-08T16:37:46Z</time></trkpt><trkpt lat="43.375175959115005" lon="11.279082822439316"><ele>231.0</ele><time>2026-04-08T16:37:47Z</time></trkpt><trkpt lat="43.37515331662696" lon="11.279332411375957"><ele>233.66666666666669</ele><time>2026-04-08T16:37:48Z</time></trkpt><trkpt lat="43.37513300367738" lon="11.279576952887306"><ele>236.33333333333334</ele><time>2026-04-08T16:37:49Z</time></trkpt><trkpt lat="43.37510978619781" lon="11.279806120940076"><ele>239.0</ele><time>2026-04-08T16:37:50Z</time></trkpt><trkpt lat="43.37506841893731" lon="11.280014318282662"><ele>240.33333333333334</ele><time>2026-04-08T16:37:51Z</time></trkpt><trkpt lat="43.37499008067553" lon="11.280208251738916"><ele>241.66666666666669</ele><time>2026-04-08T16:37:52Z</time></trkpt><trkpt lat="43.37488957986801" lon="11.28038674432908"><ele>243.0</ele><time>2026-04-08T16:37:52.999Z</time></trkpt><trkpt lat="43.374755809716085" lon="11.280529352750554"><ele>246.33333333333331</ele><time>2026-04-08T16:37:53.999Z</time></trkpt><trkpt lat="43.3746332183683" lon="11.280694368744657"><ele>249.66666666666666</ele><time>2026-04-08T16:37:54.999Z</time></trkpt><trkpt lat="43.37449892300116" lon="11.280842680101484"><ele>253.0</ele><time>2026-04-08T16:37:55.999Z</time></trkpt><trkpt lat="43.37436617010502" lon="11.280998358766858"><ele>253.0</ele><time>2026-04-08T16:37:56.999Z</time></trkpt><trkpt lat="43.374226625428086" lon="11.281153418815135"><ele>253.0</ele><time>2026-04-08T16:37:57.999Z</time></trkpt><trkpt lat="43.37407444192657" lon="11.281290027933256"><ele>253.0</ele><time>2026-04-08T16:37:58.999Z</time></trkpt><trkpt lat="43.37391107269748" lon="11.281410425308986"><ele>253.0</ele><time>2026-04-08T16:37:59.999Z</time></trkpt><trkpt lat="43.373734537002285" lon="11.281546157409764"><ele>253.0</ele><time>2026-04-08T16:38:00.999Z</time></trkpt><trkpt lat="43.37355018371763" lon="11.281693322901583"><ele>253.0</ele><time>2026-04-08T16:38:01.999Z</time></trkpt><trkpt lat="43.373364445084576" lon="11.281849522807184"><ele>253.0</ele><time>2026-04-08T16:38:02.999Z</time></trkpt><trkpt lat="43.37317416070941" lon="11.282004377988311"><ele>253.0</ele><time>2026-04-08T16:38:03.999Z</time></trkpt><trkpt lat="43.372968671526664" lon="11.282162871487328"><ele>252.5</ele><time>2026-04-08T16:38:04.999Z</time></trkpt><trkpt lat="43.372760467825046" lon="11.282314946934024"><ele>252.0</ele><time>2026-04-08T16:38:05.999Z</time></trkpt><trkpt lat="43.37255684171661" lon="11.282451488466037"><ele>252.0</ele><time>2026-04-08T16:38:06.999Z</time></trkpt><trkpt lat="43.37233908212128" lon="11.282562174602209"><ele>252.0</ele><time>2026-04-08T16:38:07.999Z</time></trkpt><trkpt lat="43.37210200333216" lon="11.28262132914992"><ele>251.0</ele><time>2026-04-08T16:38:08.999Z</time></trkpt><trkpt lat="43.371845669528554" lon="11.282683654162552"><ele>250.0</ele><time>2026-04-08T16:38:09.999Z</time></trkpt><trkpt lat="43.371580718988994" lon="11.282735193418185"><ele>252.0</ele><time>2026-04-08T16:38:10.999Z</time></trkpt><trkpt lat="43.37132556385493" lon="11.282784479709061"><ele>254.0</ele><time>2026-04-08T16:38:11.999Z</time></trkpt><trkpt lat="43.371094528258915" lon="11.282849801128268"><ele>254.0</ele><time>2026-04-08T16:38:12.999Z</time></trkpt><trkpt lat="43.37087876918934" lon="11.282891867280036"><ele>254.0</ele><time>2026-04-08T16:38:13.999Z</time></trkpt><trkpt lat="43.37067661848605" lon="11.28292872403949"><ele>254.0</ele><time>2026-04-08T16:38:14.999Z</time></trkpt><trkpt lat="43.37049055573325" lon="11.282962335465397"><ele>258.6666666666667</ele><time>2026-04-08T16:38:15.999Z</time></trkpt><trkpt lat="43.37031527295966" lon="11.282988834582971"><ele>263.3333333333333</ele><time>2026-04-08T16:38:16.999Z</time></trkpt><trkpt lat="43.37015332314444" lon="11.283017108052832"><ele>268.0</ele><time>2026-04-08T16:38:17.999Z</time></trkpt><trkpt lat="43.369986678680654" lon="11.283049152454375"><ele>268.0</ele><time>2026-04-08T16:38:18.999Z</time></trkpt><trkpt lat="43.369810577344424" lon="11.283086149762093"><ele>268.0</ele><time>2026-04-08T16:38:19.999Z</time></trkpt><trkpt lat="43.369629992142954" lon="11.28312197616064"><ele>268.0</ele><time>2026-04-08T16:38:20.999Z</time></trkpt><trkpt lat="43.36944875427083" lon="11.283145062518924"><ele>268.3333333333333</ele><time>2026-04-08T16:38:21.999Z</time></trkpt><trkpt lat="43.36927475302739" lon="11.28311867728415"><ele>268.6666666666667</ele><time>2026-04-08T16:38:22.999Z</time></trkpt><trkpt lat="43.36910282117129" lon="11.283110068466932"><ele>269.0</ele><time>2026-04-08T16:38:23.999Z</time></trkpt><trkpt lat="43.3689376199488" lon="11.283054447391235"><ele>272.6666666666667</ele><time>2026-04-08T16:38:24.999Z</time></trkpt><trkpt lat="43.3687784711435" lon="11.282987732702686"><ele>276.3333333333333</ele><time>2026-04-08T16:38:25.999Z</time></trkpt><trkpt lat="43.368615703531425" lon="11.282908396470143"><ele>280.0</ele><time>2026-04-08T16:38:26.999Z</time></trkpt><trkpt lat="43.36845289824194" lon="11.282826364913662"><ele>280.0</ele><time>2026-04-08T16:38:27.999Z</time></trkpt><trkpt lat="43.36830271493175" lon="11.282751198831162"><ele>280.0</ele><time>2026-04-08T16:38:28.999Z</time></trkpt><trkpt lat="43.368154559062106" lon="11.282673303744502"><ele>280.0</ele><time>2026-04-08T16:38:29.999Z</time></trkpt><trkpt lat="43.368001348907114" lon="11.282590397970445"><ele>280.3333333333333</ele><time>2026-04-08T16:38:30.999Z</time></trkpt><trkpt lat="43.3678463340099" lon="11.282505729218569"><ele>280.6666666666667</ele><time>2026-04-08T16:38:31.999Z</time></trkpt><trkpt lat="43.367693082478304" lon="11.282429302735004"><ele>281.0</ele><time>2026-04-08T16:38:32.999Z</time></trkpt><trkpt lat="43.36753951415919" lon="11.282360351457815"><ele>281.0</ele><time>2026-04-08T16:38:33.999Z</time></trkpt><trkpt lat="43.36737864483492" lon="11.28229560480977"><ele>281.0</ele><time>2026-04-08T16:38:34.999Z</time></trkpt><trkpt lat="43.3672106204295" lon="11.282245447160797"><ele>281.0</ele><time>2026-04-08T16:38:35.999Z</time></trkpt><trkpt lat="43.367039630549755" lon="11.282225286762843"><ele>279.6666666666667</ele><time>2026-04-08T16:38:36.999Z</time></trkpt><trkpt lat="43.36686816348158" lon="11.282228032001257"><ele>278.3333333333333</ele><time>2026-04-08T16:38:37.999Z</time></trkpt><trkpt lat="43.36669154672109" lon="11.282242390842203"><ele>277.0</ele><time>2026-04-08T16:38:38.999Z</time></trkpt><trkpt lat="43.36651250371193" lon="11.282267767460295"><ele>277.0</ele><time>2026-04-08T16:38:39.999Z</time></trkpt><trkpt lat="43.36633618551197" lon="11.282304900180494"><ele>277.0</ele><time>2026-04-08T16:38:40.999Z</time></trkpt><trkpt lat="43.36616090820539" lon="11.282353659049386"><ele>277.0</ele><time>2026-04-08T16:38:41.999Z</time></trkpt><trkpt lat="43.36598869978861" lon="11.28241969607115"><ele>277.0</ele><time>2026-04-08T16:38:42.999Z</time></trkpt><trkpt lat="43.365832997459385" lon="11.28251020394111"><ele>277.0</ele><time>2026-04-08T16:38:43.999Z</time></trkpt><trkpt lat="43.36568790038425" lon="11.282610312763223"><ele>277.0</ele><time>2026-04-08T16:38:44.999Z</time></trkpt><trkpt lat="43.365548540004156" lon="11.282717226096546"><ele>277.75</ele><time>2026-04-08T16:38:45.999Z</time></trkpt><trkpt lat="43.365425749726015" lon="11.282831329717029"><ele>278.5</ele><time>2026-04-08T16:38:46.999Z</time></trkpt><trkpt lat="43.36531524696507" lon="11.282946745606576"><ele>279.25</ele><time>2026-04-08T16:38:47.999Z</time></trkpt><trkpt lat="43.3652123611028" lon="11.28306793138163"><ele>280.0</ele><time>2026-04-08T16:38:48.998Z</time></trkpt><trkpt lat="43.36510938279927" lon="11.28320529952737"><ele>280.3333333333333</ele><time>2026-04-08T16:38:49.998Z</time></trkpt><trkpt lat="43.36500272400207" lon="11.283368338981939"><ele>280.6666666666667</ele><time>2026-04-08T16:38:50.998Z</time></trkpt><trkpt lat="43.36489637451344" lon="11.283570001619529"><ele>281.0</ele><time>2026-04-08T16:38:51.998Z</time></trkpt><trkpt lat="43.36477026567637" lon="11.283783189479916"><ele>282.0</ele><time>2026-04-08T16:38:52.998Z</time></trkpt><trkpt lat="43.36465404417098" lon="11.28401548657777"><ele>283.0</ele><time>2026-04-08T16:38:53.998Z</time></trkpt><trkpt lat="43.36452735868934" lon="11.284264769255007"><ele>284.0</ele><time>2026-04-08T16:38:54.998Z</time></trkpt><trkpt lat="43.36440038086381" lon="11.284539663863923"><ele>288.0</ele><time>2026-04-08T16:38:55.998Z</time></trkpt><trkpt lat="43.364261905336846" lon="11.284799481103246"><ele>292.0</ele><time>2026-04-08T16:38:56.998Z</time></trkpt><trkpt lat="43.36412770278006" lon="11.285078950670963"><ele>292.0</ele><time>2026-04-08T16:38:57.998Z</time></trkpt><trkpt lat="43.36399384375721" lon="11.285352996976648"><ele>292.0</ele><time>2026-04-08T16:38:58.998Z</time></trkpt><trkpt lat="43.36386852297475" lon="11.285615643813227"><ele>297.0</ele><time>2026-04-08T16:38:59.998Z</time></trkpt><trkpt lat="43.36375687735635" lon="11.285906182189395"><ele>302.0</ele><time>2026-04-08T16:39:00.998Z</time></trkpt><trkpt lat="43.36364814678814" lon="11.286201558987582"><ele>303.6666666666667</ele><time>2026-04-08T16:39:01.998Z</time></trkpt><trkpt lat="43.363546620809785" lon="11.286464083759983"><ele>305.3333333333333</ele><time>2026-04-08T16:39:02.998Z</time></trkpt><trkpt lat="43.36344960266463" lon="11.2867038844282"><ele>307.0</ele><time>2026-04-08T16:39:03.998Z</time></trkpt><trkpt lat="43.36335627875074" lon="11.286929189481798"><ele>307.0</ele><time>2026-04-08T16:39:04.998Z</time></trkpt><trkpt lat="43.36326370709954" lon="11.287148824122399"><ele>307.0</ele><time>2026-04-08T16:39:05.998Z</time></trkpt><trkpt lat="43.36316920353718" lon="11.287370884029588"><ele>307.0</ele><time>2026-04-08T16:39:06.998Z</time></trkpt><trkpt lat="43.36307572452031" lon="11.28759968558883"><ele>307.3333333333333</ele><time>2026-04-08T16:39:07.998Z</time></trkpt><trkpt lat="43.36298129247627" lon="11.287840050674223"><ele>307.6666666666667</ele><time>2026-04-08T16:39:08.998Z</time></trkpt><trkpt lat="43.36288831165307" lon="11.288071491210646"><ele>308.0</ele><time>2026-04-08T16:39:09.998Z</time></trkpt><trkpt lat="43.3628049391434" lon="11.28827886892746"><ele>307.0</ele><time>2026-04-08T16:39:10.998Z</time></trkpt><trkpt lat="43.36271253299184" lon="11.288461534688217"><ele>306.0</ele><time>2026-04-08T16:39:11.998Z</time></trkpt><trkpt lat="43.36259176226677" lon="11.288619726565543"><ele>305.0</ele><time>2026-04-08T16:39:12.998Z</time></trkpt><trkpt lat="43.36243794967747" lon="11.288752825237431"><ele>305.0</ele><time>2026-04-08T16:39:13.998Z</time></trkpt><trkpt lat="43.36225391034655" lon="11.288879410896307"><ele>305.0</ele><time>2026-04-08T16:39:14.998Z</time></trkpt><trkpt lat="43.36206066067074" lon="11.28900500199892"><ele>305.0</ele><time>2026-04-08T16:39:15.998Z</time></trkpt><trkpt lat="43.36188427264974" lon="11.28911410185321"><ele>305.0</ele><time>2026-04-08T16:39:16.998Z</time></trkpt><trkpt lat="43.361716224485924" lon="11.289184292906954"><ele>305.0</ele><time>2026-04-08T16:39:17.998Z</time></trkpt><trkpt lat="43.36153613709915" lon="11.289185043739064"><ele>305.0</ele><time>2026-04-08T16:39:18.998Z</time></trkpt><trkpt lat="43.361339718448214" lon="11.289206388993186"><ele>305.0</ele><time>2026-04-08T16:39:19.998Z</time></trkpt><trkpt lat="43.361121648918285" lon="11.289192049946031"><ele>305.0</ele><time>2026-04-08T16:39:20.998Z</time></trkpt><trkpt lat="43.36089269028568" lon="11.289183967123808"><ele>305.0</ele><time>2026-04-08T16:39:21.998Z</time></trkpt><trkpt lat="43.360653033078925" lon="11.289183042712695"><ele>305.6666666666667</ele><time>2026-04-08T16:39:22.998Z</time></trkpt><trkpt lat="43.36042942066492" lon="11.289183285284487"><ele>306.3333333333333</ele><time>2026-04-08T16:39:23.998Z</time></trkpt><trkpt lat="43.3602182516135" lon="11.289171724331217"><ele>307.0</ele><time>2026-04-08T16:39:24.998Z</time></trkpt><trkpt lat="43.36003520810484" lon="11.289174168014762"><ele>307.0</ele><time>2026-04-08T16:39:25.998Z</time></trkpt><trkpt lat="43.35986067895448" lon="11.289206603534838"><ele>307.0</ele><time>2026-04-08T16:39:26.998Z</time></trkpt><trkpt lat="43.35968103316961" lon="11.28923168533555"><ele>307.0</ele><time>2026-04-08T16:39:27.998Z</time></trkpt><trkpt lat="43.359476363607364" lon="11.289332158930586"><ele>307.0</ele><time>2026-04-08T16:39:28.998Z</time></trkpt><trkpt lat="43.359320939152425" lon="11.28958100073592"><ele>307.0</ele><time>2026-04-08T16:39:29.998Z</time></trkpt><trkpt lat="43.35916397267674" lon="11.289811518081223"><ele>307.0</ele><time>2026-04-08T16:39:30.998Z</time></trkpt><trkpt lat="43.35898230832167" lon="11.290021830473"><ele>307.0</ele><time>2026-04-08T16:39:31.998Z</time></trkpt><trkpt lat="43.358785438850575" lon="11.290243569715333"><ele>308.5</ele><time>2026-04-08T16:39:32.998Z</time></trkpt><trkpt lat="43.3585968980694" lon="11.290438562708248"><ele>310.0</ele><time>2026-04-08T16:39:33.998Z</time></trkpt><trkpt lat="43.35842100340123" lon="11.290622531933668"><ele>310.3333333333333</ele><time>2026-04-08T16:39:35Z</time></trkpt><trkpt lat="43.358257144916585" lon="11.290798375733637"><ele>310.6666666666667</ele><time>2026-04-08T16:39:36Z</time></trkpt><trkpt lat="43.35808116224215" lon="11.290967285751947"><ele>311.0</ele><time>2026-04-08T16:39:37Z</time></trkpt><trkpt lat="43.357882490537165" lon="11.291125163038107"><ele>311.5</ele><time>2026-04-08T16:39:38Z</time></trkpt><trkpt lat="43.357676345213505" lon="11.291278725839804"><ele>312.0</ele><time>2026-04-08T16:39:39Z</time></trkpt><trkpt lat="43.35748349299479" lon="11.291419849585871"><ele>313.6666666666667</ele><time>2026-04-08T16:39:40Z</time></trkpt><trkpt lat="43.35731640987749" lon="11.291541042322615"><ele>315.33333333333337</ele><time>2026-04-08T16:39:41Z</time></trkpt><trkpt lat="43.35717412888431" lon="11.291657413518951"><ele>317.0</ele><time>2026-04-08T16:39:42Z</time></trkpt><trkpt lat="43.35703735879681" lon="11.29177644124269"><ele>317.0</ele><time>2026-04-08T16:39:43Z</time></trkpt><trkpt lat="43.356903794787584" lon="11.291937846210072"><ele>317.0</ele><time>2026-04-08T16:39:44Z</time></trkpt><trkpt lat="43.35678254315793" lon="11.292137729861906"><ele>317.0</ele><time>2026-04-08T16:39:45Z</time></trkpt><trkpt lat="43.35667117936958" lon="11.292347651127104"><ele>318.33333333333337</ele><time>2026-04-08T16:39:46Z</time></trkpt><trkpt lat="43.356566497784335" lon="11.292515082144192"><ele>319.6666666666667</ele><time>2026-04-08T16:39:47Z</time></trkpt><trkpt lat="43.35645683804864" lon="11.292646032189284"><ele>321.0</ele><time>2026-04-08T16:39:48Z</time></trkpt><trkpt lat="43.3563251435005" lon="11.292748714142892"><ele>321.0</ele><time>2026-04-08T16:39:49Z</time></trkpt><trkpt lat="43.35617265644699" lon="11.292836947345807"><ele>321.0</ele><time>2026-04-08T16:39:50Z</time></trkpt><trkpt lat="43.356021768713255" lon="11.292939231052479"><ele>321.0</ele><time>2026-04-08T16:39:51Z</time></trkpt><trkpt lat="43.35587734790187" lon="11.293031904186497"><ele>322.0</ele><time>2026-04-08T16:39:52Z</time></trkpt><trkpt lat="43.35574626362892" lon="11.293109063947895"><ele>323.0</ele><time>2026-04-08T16:39:53Z</time></trkpt><trkpt lat="43.35562577525946" lon="11.293184840878233"><ele>324.0</ele><time>2026-04-08T16:39:54Z</time></trkpt><trkpt lat="43.35550713917318" lon="11.29325868235648"><ele>325.0</ele><time>2026-04-08T16:39:54.999Z</time></trkpt><trkpt lat="43.3553711074538" lon="11.293349380428994"><ele>326.66666666666663</ele><time>2026-04-08T16:39:55.999Z</time></trkpt><trkpt lat="43.35521545190927" lon="11.293454698597783"><ele>328.3333333333333</ele><time>2026-04-08T16:39:56.999Z</time></trkpt><trkpt lat="43.35505614662853" lon="11.293566180606373"><ele>330.0</ele><time>2026-04-08T16:39:57.999Z</time></trkpt><trkpt lat="43.35491826705464" lon="11.29366371954266"><ele>330.0</ele><time>2026-04-08T16:39:58.999Z</time></trkpt><trkpt lat="43.35479645242842" lon="11.293762011377815"><ele>330.0</ele><time>2026-04-08T16:39:59.999Z</time></trkpt><trkpt lat="43.354680032010826" lon="11.293887332130405"><ele>330.0</ele><time>2026-04-08T16:40:00.999Z</time></trkpt><trkpt lat="43.354577577141235" lon="11.294029463497091"><ele>330.0</ele><time>2026-04-08T16:40:01.999Z</time></trkpt><trkpt lat="43.35448940092535" lon="11.294136104731503"><ele>331.4</ele><time>2026-04-08T16:40:02.999Z</time></trkpt><trkpt lat="43.35439740873204" lon="11.294201813625033"><ele>332.8</ele><time>2026-04-08T16:40:03.999Z</time></trkpt><trkpt lat="43.35430558085026" lon="11.294229044264455"><ele>334.20000000000005</ele><time>2026-04-08T16:40:04.999Z</time></trkpt><trkpt lat="43.354225738666265" lon="11.294220292240029"><ele>335.6</ele><time>2026-04-08T16:40:05.999Z</time></trkpt><trkpt lat="43.35415969460791" lon="11.294183779962372"><ele>337.0</ele><time>2026-04-08T16:40:06.999Z</time></trkpt><trkpt lat="43.35407724783316" lon="11.294276597010628"><ele>337.0</ele><time>2026-04-08T16:40:08.999Z</time></trkpt><trkpt lat="43.354132286407456" lon="11.294450622367757"><ele>337.0</ele><time>2026-04-08T16:40:10.999Z</time></trkpt><trkpt lat="43.35420525523817" lon="11.294508472563802"><ele>337.0</ele><time>2026-04-08T16:40:11.999Z</time></trkpt><trkpt lat="43.35427668475315" lon="11.294572329851034"><ele>337.0</ele><time>2026-04-08T16:40:12.999Z</time></trkpt><trkpt lat="43.354310458277816" lon="11.29466478586488"><ele>337.0</ele><time>2026-04-08T16:40:13.999Z</time></trkpt><trkpt lat="43.35433147415496" lon="11.294764127239391"><ele>346.0</ele><time>2026-04-08T16:40:14.999Z</time></trkpt></trkseg></trk></gpx>